<?xml version="1.0" encoding="UTF-8"?><gpx xmlns="http://www.topografix.com/GPX/1/1" version="1.1" creator="iOrient"><trk><name>Большая прогулка. Вокруг казанки - 2</name><trkseg><trkpt lat="55.8236860" lon="49.1641790"><time>2021-09-11T06:40:28</time></trkpt><trkpt lat="55.8236880" lon="49.1641850"><time>2021-09-11T06:40:29</time></trkpt><trkpt lat="55.8237060" lon="49.1642010"><time>2021-09-11T06:40:30</time></trkpt><trkpt lat="55.8237710" lon="49.1642310"><time>2021-09-11T06:40:32</time></trkpt><trkpt lat="55.8239700" lon="49.1644280"><time>2021-09-11T06:40:39</time></trkpt><trkpt lat="55.8241650" lon="49.1646470"><time>2021-09-11T06:40:46</time></trkpt><trkpt lat="55.8242490" lon="49.1648240"><time>2021-09-11T06:40:50</time></trkpt><trkpt lat="55.8242530" lon="49.1648800"><time>2021-09-11T06:40:51</time></trkpt><trkpt lat="55.8242750" lon="49.1652770"><time>2021-09-11T06:40:58</time></trkpt><trkpt lat="55.8242630" lon="49.1656570"><time>2021-09-11T06:41:05</time></trkpt><trkpt lat="55.8242450" lon="49.1660230"><time>2021-09-11T06:41:12</time></trkpt><trkpt lat="55.8242430" lon="49.1663920"><time>2021-09-11T06:41:19</time></trkpt><trkpt lat="55.8242260" lon="49.1666900"><time>2021-09-11T06:41:25</time></trkpt><trkpt lat="55.8242350" lon="49.1667120"><time>2021-09-11T06:41:26</time></trkpt><trkpt lat="55.8242560" lon="49.1667210"><time>2021-09-11T06:41:27</time></trkpt><trkpt lat="55.8242760" lon="49.1667230"><time>2021-09-11T06:41:28</time></trkpt><trkpt lat="55.8243030" lon="49.1667220"><time>2021-09-11T06:41:29</time></trkpt><trkpt lat="55.8243310" lon="49.1667300"><time>2021-09-11T06:41:30</time></trkpt><trkpt lat="55.8243620" lon="49.1667420"><time>2021-09-11T06:41:31</time></trkpt><trkpt lat="55.8243850" lon="49.1667620"><time>2021-09-11T06:41:32</time></trkpt><trkpt lat="55.8244070" lon="49.1667780"><time>2021-09-11T06:41:33</time></trkpt><trkpt lat="55.8245900" lon="49.1668340"><time>2021-09-11T06:41:41</time></trkpt><trkpt lat="55.8248020" lon="49.1668100"><time>2021-09-11T06:41:50</time></trkpt><trkpt lat="55.8250080" lon="49.1668280"><time>2021-09-11T06:42:00</time></trkpt><trkpt lat="55.8250650" lon="49.1671480"><time>2021-09-11T06:42:09</time></trkpt><trkpt lat="55.8250680" lon="49.1672720"><time>2021-09-11T06:42:13</time></trkpt><trkpt lat="55.8250820" lon="49.1672940"><time>2021-09-11T06:42:14</time></trkpt><trkpt lat="55.8250950" lon="49.1673180"><time>2021-09-11T06:42:15</time></trkpt><trkpt lat="55.8251020" lon="49.1673420"><time>2021-09-11T06:42:16</time></trkpt><trkpt lat="55.8251040" lon="49.1673810"><time>2021-09-11T06:42:17</time></trkpt><trkpt lat="55.8251120" lon="49.1674230"><time>2021-09-11T06:42:18</time></trkpt><trkpt lat="55.8251920" lon="49.1677600"><time>2021-09-11T06:42:27</time></trkpt><trkpt lat="55.8251830" lon="49.1677500"><time>2021-09-11T06:42:30</time></trkpt><trkpt lat="55.8251730" lon="49.1677380"><time>2021-09-11T06:42:31</time></trkpt><trkpt lat="55.8251630" lon="49.1677250"><time>2021-09-11T06:42:32</time></trkpt><trkpt lat="55.8251550" lon="49.1677100"><time>2021-09-11T06:42:33</time></trkpt><trkpt lat="55.8251420" lon="49.1676940"><time>2021-09-11T06:42:34</time></trkpt><trkpt lat="55.8251320" lon="49.1676670"><time>2021-09-11T06:42:35</time></trkpt><trkpt lat="55.8251260" lon="49.1676360"><time>2021-09-11T06:42:36</time></trkpt><trkpt lat="55.8251230" lon="49.1676020"><time>2021-09-11T06:42:37</time></trkpt><trkpt lat="55.8251190" lon="49.1675700"><time>2021-09-11T06:42:38</time></trkpt><trkpt lat="55.8251520" lon="49.1674650"><time>2021-09-11T06:42:43</time></trkpt><trkpt lat="55.8251710" lon="49.1674600"><time>2021-09-11T06:42:44</time></trkpt><trkpt lat="55.8251860" lon="49.1674520"><time>2021-09-11T06:42:45</time></trkpt><trkpt lat="55.8252000" lon="49.1674380"><time>2021-09-11T06:42:46</time></trkpt><trkpt lat="55.8252160" lon="49.1674180"><time>2021-09-11T06:42:47</time></trkpt><trkpt lat="55.8252350" lon="49.1673950"><time>2021-09-11T06:42:48</time></trkpt><trkpt lat="55.8253530" lon="49.1672270"><time>2021-09-11T06:42:57</time></trkpt><trkpt lat="55.8253430" lon="49.1672140"><time>2021-09-11T06:42:58</time></trkpt><trkpt lat="55.8253280" lon="49.1671990"><time>2021-09-11T06:42:59</time></trkpt><trkpt lat="55.8253190" lon="49.1671780"><time>2021-09-11T06:43:00</time></trkpt><trkpt lat="55.8253040" lon="49.1671600"><time>2021-09-11T06:43:01</time></trkpt><trkpt lat="55.8252880" lon="49.1671280"><time>2021-09-11T06:43:02</time></trkpt><trkpt lat="55.8252700" lon="49.1671020"><time>2021-09-11T06:43:03</time></trkpt><trkpt lat="55.8252560" lon="49.1670790"><time>2021-09-11T06:43:04</time></trkpt><trkpt lat="55.8252440" lon="49.1670590"><time>2021-09-11T06:43:05</time></trkpt><trkpt lat="55.8252300" lon="49.1670390"><time>2021-09-11T06:43:06</time></trkpt><trkpt lat="55.8251530" lon="49.1669230"><time>2021-09-11T06:43:14</time></trkpt><trkpt lat="55.8251720" lon="49.1669270"><time>2021-09-11T06:43:15</time></trkpt><trkpt lat="55.8251970" lon="49.1669400"><time>2021-09-11T06:43:16</time></trkpt><trkpt lat="55.8253750" lon="49.1671240"><time>2021-09-11T06:43:23</time></trkpt><trkpt lat="55.8255460" lon="49.1673190"><time>2021-09-11T06:43:29</time></trkpt><trkpt lat="55.8256500" lon="49.1676210"><time>2021-09-11T06:43:36</time></trkpt><trkpt lat="55.8258080" lon="49.1679030"><time>2021-09-11T06:43:48</time></trkpt><trkpt lat="55.8258830" lon="49.1681150"><time>2021-09-11T06:43:56</time></trkpt><trkpt lat="55.8258770" lon="49.1681420"><time>2021-09-11T06:43:57</time></trkpt><trkpt lat="55.8258690" lon="49.1681670"><time>2021-09-11T06:43:58</time></trkpt><trkpt lat="55.8258580" lon="49.1681940"><time>2021-09-11T06:43:59</time></trkpt><trkpt lat="55.8258520" lon="49.1682200"><time>2021-09-11T06:44:00</time></trkpt><trkpt lat="55.8258450" lon="49.1682550"><time>2021-09-11T06:44:01</time></trkpt><trkpt lat="55.8258350" lon="49.1684320"><time>2021-09-11T06:44:05</time></trkpt><trkpt lat="55.8258550" lon="49.1684630"><time>2021-09-11T06:44:06</time></trkpt><trkpt lat="55.8258800" lon="49.1684890"><time>2021-09-11T06:44:07</time></trkpt><trkpt lat="55.8259800" lon="49.1686100"><time>2021-09-11T06:44:29</time></trkpt><trkpt lat="55.8259740" lon="49.1685710"><time>2021-09-11T06:44:31</time></trkpt><trkpt lat="55.8259790" lon="49.1685340"><time>2021-09-11T06:44:32</time></trkpt><trkpt lat="55.8259830" lon="49.1684990"><time>2021-09-11T06:44:33</time></trkpt><trkpt lat="55.8259890" lon="49.1684620"><time>2021-09-11T06:44:34</time></trkpt><trkpt lat="55.8259970" lon="49.1684260"><time>2021-09-11T06:44:35</time></trkpt><trkpt lat="55.8260030" lon="49.1684020"><time>2021-09-11T06:44:36</time></trkpt><trkpt lat="55.8259900" lon="49.1683350"><time>2021-09-11T06:44:42</time></trkpt><trkpt lat="55.8260680" lon="49.1680670"><time>2021-09-11T06:45:18</time></trkpt><trkpt lat="55.8260040" lon="49.1678880"><time>2021-09-11T06:45:40</time></trkpt><trkpt lat="55.8259910" lon="49.1678650"><time>2021-09-11T06:45:41</time></trkpt><trkpt lat="55.8260790" lon="49.1674900"><time>2021-09-11T06:45:59</time></trkpt><trkpt lat="55.8261500" lon="49.1671180"><time>2021-09-11T06:46:13</time></trkpt><trkpt lat="55.8261510" lon="49.1670880"><time>2021-09-11T06:46:14</time></trkpt><trkpt lat="55.8261500" lon="49.1670310"><time>2021-09-11T06:46:16</time></trkpt><trkpt lat="55.8261550" lon="49.1670060"><time>2021-09-11T06:46:17</time></trkpt><trkpt lat="55.8261740" lon="49.1669640"><time>2021-09-11T06:46:20</time></trkpt><trkpt lat="55.8262250" lon="49.1668910"><time>2021-09-11T06:46:29</time></trkpt><trkpt lat="55.8262650" lon="49.1668490"><time>2021-09-11T06:46:37</time></trkpt><trkpt lat="55.8264410" lon="49.1666670"><time>2021-09-11T06:46:51</time></trkpt><trkpt lat="55.8264320" lon="49.1666730"><time>2021-09-11T06:46:53</time></trkpt><trkpt lat="55.8264710" lon="49.1666110"><time>2021-09-11T06:47:04</time></trkpt><trkpt lat="55.8266350" lon="49.1664680"><time>2021-09-11T06:47:11</time></trkpt><trkpt lat="55.8266620" lon="49.1664700"><time>2021-09-11T06:47:12</time></trkpt><trkpt lat="55.8266830" lon="49.1664660"><time>2021-09-11T06:47:13</time></trkpt><trkpt lat="55.8268500" lon="49.1663910"><time>2021-09-11T06:47:29</time></trkpt><trkpt lat="55.8270800" lon="49.1664520"><time>2021-09-11T06:47:44</time></trkpt><trkpt lat="55.8273190" lon="49.1666750"><time>2021-09-11T06:47:52</time></trkpt><trkpt lat="55.8275760" lon="49.1667110"><time>2021-09-11T06:48:00</time></trkpt><trkpt lat="55.8278200" lon="49.1667130"><time>2021-09-11T06:48:07</time></trkpt><trkpt lat="55.8280460" lon="49.1666820"><time>2021-09-11T06:48:14</time></trkpt><trkpt lat="55.8282600" lon="49.1666070"><time>2021-09-11T06:48:21</time></trkpt><trkpt lat="55.8284520" lon="49.1665310"><time>2021-09-11T06:48:29</time></trkpt><trkpt lat="55.8286700" lon="49.1663860"><time>2021-09-11T06:48:39</time></trkpt><trkpt lat="55.8288750" lon="49.1663610"><time>2021-09-11T06:48:47</time></trkpt><trkpt lat="55.8291190" lon="49.1664580"><time>2021-09-11T06:48:55</time></trkpt><trkpt lat="55.8293550" lon="49.1665000"><time>2021-09-11T06:49:02</time></trkpt><trkpt lat="55.8295450" lon="49.1665450"><time>2021-09-11T06:49:09</time></trkpt><trkpt lat="55.8297520" lon="49.1666870"><time>2021-09-11T06:49:17</time></trkpt><trkpt lat="55.8299130" lon="49.1667930"><time>2021-09-11T06:49:25</time></trkpt><trkpt lat="55.8300010" lon="49.1671280"><time>2021-09-11T06:49:33</time></trkpt><trkpt lat="55.8300850" lon="49.1673930"><time>2021-09-11T06:49:40</time></trkpt><trkpt lat="55.8301010" lon="49.1674150"><time>2021-09-11T06:49:41</time></trkpt><trkpt lat="55.8301500" lon="49.1675220"><time>2021-09-11T06:49:44</time></trkpt><trkpt lat="55.8301540" lon="49.1675600"><time>2021-09-11T06:49:45</time></trkpt><trkpt lat="55.8301540" lon="49.1676010"><time>2021-09-11T06:49:46</time></trkpt><trkpt lat="55.8301610" lon="49.1676420"><time>2021-09-11T06:49:47</time></trkpt><trkpt lat="55.8301640" lon="49.1676880"><time>2021-09-11T06:49:48</time></trkpt><trkpt lat="55.8301580" lon="49.1677300"><time>2021-09-11T06:49:49</time></trkpt><trkpt lat="55.8301470" lon="49.1677660"><time>2021-09-11T06:49:50</time></trkpt><trkpt lat="55.8301290" lon="49.1678060"><time>2021-09-11T06:49:51</time></trkpt><trkpt lat="55.8301090" lon="49.1678420"><time>2021-09-11T06:49:52</time></trkpt><trkpt lat="55.8300930" lon="49.1678750"><time>2021-09-11T06:49:53</time></trkpt><trkpt lat="55.8300710" lon="49.1679160"><time>2021-09-11T06:49:54</time></trkpt><trkpt lat="55.8299650" lon="49.1682560"><time>2021-09-11T06:50:02</time></trkpt><trkpt lat="55.8298990" lon="49.1685680"><time>2021-09-11T06:50:12</time></trkpt><trkpt lat="55.8298380" lon="49.1688800"><time>2021-09-11T06:50:22</time></trkpt><trkpt lat="55.8297980" lon="49.1692280"><time>2021-09-11T06:50:32</time></trkpt><trkpt lat="55.8297360" lon="49.1695920"><time>2021-09-11T06:50:42</time></trkpt><trkpt lat="55.8297370" lon="49.1699800"><time>2021-09-11T06:50:51</time></trkpt><trkpt lat="55.8297130" lon="49.1701460"><time>2021-09-11T06:50:55</time></trkpt><trkpt lat="55.8297160" lon="49.1701880"><time>2021-09-11T06:50:56</time></trkpt><trkpt lat="55.8297150" lon="49.1702310"><time>2021-09-11T06:50:57</time></trkpt><trkpt lat="55.8297170" lon="49.1702740"><time>2021-09-11T06:50:58</time></trkpt><trkpt lat="55.8297270" lon="49.1703170"><time>2021-09-11T06:50:59</time></trkpt><trkpt lat="55.8297330" lon="49.1703620"><time>2021-09-11T06:51:00</time></trkpt><trkpt lat="55.8297420" lon="49.1704050"><time>2021-09-11T06:51:01</time></trkpt><trkpt lat="55.8297610" lon="49.1705080"><time>2021-09-11T06:51:04</time></trkpt><trkpt lat="55.8297680" lon="49.1705400"><time>2021-09-11T06:51:05</time></trkpt><trkpt lat="55.8297730" lon="49.1705750"><time>2021-09-11T06:51:06</time></trkpt><trkpt lat="55.8297760" lon="49.1706120"><time>2021-09-11T06:51:07</time></trkpt><trkpt lat="55.8297770" lon="49.1706520"><time>2021-09-11T06:51:08</time></trkpt><trkpt lat="55.8297770" lon="49.1706910"><time>2021-09-11T06:51:09</time></trkpt><trkpt lat="55.8297830" lon="49.1707260"><time>2021-09-11T06:51:10</time></trkpt><trkpt lat="55.8297860" lon="49.1707610"><time>2021-09-11T06:51:11</time></trkpt><trkpt lat="55.8297890" lon="49.1707930"><time>2021-09-11T06:51:12</time></trkpt><trkpt lat="55.8297910" lon="49.1708150"><time>2021-09-11T06:51:13</time></trkpt><trkpt lat="55.8298460" lon="49.1711380"><time>2021-09-11T06:51:25</time></trkpt><trkpt lat="55.8299200" lon="49.1713110"><time>2021-09-11T06:51:33</time></trkpt><trkpt lat="55.8299050" lon="49.1712880"><time>2021-09-11T06:51:34</time></trkpt><trkpt lat="55.8298910" lon="49.1712560"><time>2021-09-11T06:51:35</time></trkpt><trkpt lat="55.8297840" lon="49.1709370"><time>2021-09-11T06:51:45</time></trkpt><trkpt lat="55.8297720" lon="49.1706030"><time>2021-09-11T06:51:54</time></trkpt><trkpt lat="55.8297690" lon="49.1705640"><time>2021-09-11T06:51:55</time></trkpt><trkpt lat="55.8297640" lon="49.1705210"><time>2021-09-11T06:51:56</time></trkpt><trkpt lat="55.8297170" lon="49.1701170"><time>2021-09-11T06:52:05</time></trkpt><trkpt lat="55.8297190" lon="49.1700680"><time>2021-09-11T06:52:06</time></trkpt><trkpt lat="55.8297290" lon="49.1700250"><time>2021-09-11T06:52:07</time></trkpt><trkpt lat="55.8297350" lon="49.1699860"><time>2021-09-11T06:52:08</time></trkpt><trkpt lat="55.8297360" lon="49.1699410"><time>2021-09-11T06:52:09</time></trkpt><trkpt lat="55.8297370" lon="49.1699020"><time>2021-09-11T06:52:10</time></trkpt><trkpt lat="55.8297370" lon="49.1698600"><time>2021-09-11T06:52:11</time></trkpt><trkpt lat="55.8297450" lon="49.1695100"><time>2021-09-11T06:52:20</time></trkpt><trkpt lat="55.8297550" lon="49.1694650"><time>2021-09-11T06:52:22</time></trkpt><trkpt lat="55.8297910" lon="49.1692210"><time>2021-09-11T06:52:28</time></trkpt><trkpt lat="55.8297930" lon="49.1691850"><time>2021-09-11T06:52:29</time></trkpt><trkpt lat="55.8298180" lon="49.1688380"><time>2021-09-11T06:52:38</time></trkpt><trkpt lat="55.8298120" lon="49.1688030"><time>2021-09-11T06:52:39</time></trkpt><trkpt lat="55.8298050" lon="49.1687210"><time>2021-09-11T06:52:41</time></trkpt><trkpt lat="55.8298120" lon="49.1686790"><time>2021-09-11T06:52:42</time></trkpt><trkpt lat="55.8298240" lon="49.1686440"><time>2021-09-11T06:52:43</time></trkpt><trkpt lat="55.8298350" lon="49.1686150"><time>2021-09-11T06:52:44</time></trkpt><trkpt lat="55.8298480" lon="49.1685860"><time>2021-09-11T06:52:45</time></trkpt><trkpt lat="55.8298620" lon="49.1685540"><time>2021-09-11T06:52:46</time></trkpt><trkpt lat="55.8298960" lon="49.1683860"><time>2021-09-11T06:52:51</time></trkpt><trkpt lat="55.8299070" lon="49.1682320"><time>2021-09-11T06:52:55</time></trkpt><trkpt lat="55.8299190" lon="49.1682010"><time>2021-09-11T06:52:56</time></trkpt><trkpt lat="55.8299590" lon="49.1680450"><time>2021-09-11T06:53:01</time></trkpt><trkpt lat="55.8299740" lon="49.1680120"><time>2021-09-11T06:53:02</time></trkpt><trkpt lat="55.8299900" lon="49.1679870"><time>2021-09-11T06:53:03</time></trkpt><trkpt lat="55.8300060" lon="49.1679650"><time>2021-09-11T06:53:04</time></trkpt><trkpt lat="55.8300240" lon="49.1679380"><time>2021-09-11T06:53:05</time></trkpt><trkpt lat="55.8301750" lon="49.1676960"><time>2021-09-11T06:53:14</time></trkpt><trkpt lat="55.8303230" lon="49.1674640"><time>2021-09-11T06:53:23</time></trkpt><trkpt lat="55.8303690" lon="49.1670950"><time>2021-09-11T06:53:32</time></trkpt><trkpt lat="55.8303890" lon="49.1670170"><time>2021-09-11T06:53:34</time></trkpt><trkpt lat="55.8304040" lon="49.1669860"><time>2021-09-11T06:53:35</time></trkpt><trkpt lat="55.8304140" lon="49.1669510"><time>2021-09-11T06:53:36</time></trkpt><trkpt lat="55.8304200" lon="49.1669150"><time>2021-09-11T06:53:37</time></trkpt><trkpt lat="55.8304270" lon="49.1668810"><time>2021-09-11T06:53:38</time></trkpt><trkpt lat="55.8304540" lon="49.1665080"><time>2021-09-11T06:53:48</time></trkpt><trkpt lat="55.8304690" lon="49.1664890"><time>2021-09-11T06:53:49</time></trkpt><trkpt lat="55.8304880" lon="49.1664680"><time>2021-09-11T06:53:50</time></trkpt><trkpt lat="55.8306480" lon="49.1662350"><time>2021-09-11T06:54:00</time></trkpt><trkpt lat="55.8306770" lon="49.1662070"><time>2021-09-11T06:54:03</time></trkpt><trkpt lat="55.8308770" lon="49.1660310"><time>2021-09-11T06:54:12</time></trkpt><trkpt lat="55.8308990" lon="49.1660090"><time>2021-09-11T06:54:13</time></trkpt><trkpt lat="55.8309140" lon="49.1659760"><time>2021-09-11T06:54:14</time></trkpt><trkpt lat="55.8309180" lon="49.1659320"><time>2021-09-11T06:54:15</time></trkpt><trkpt lat="55.8309180" lon="49.1658850"><time>2021-09-11T06:54:16</time></trkpt><trkpt lat="55.8309210" lon="49.1658230"><time>2021-09-11T06:54:17</time></trkpt><trkpt lat="55.8309280" lon="49.1657580"><time>2021-09-11T06:54:18</time></trkpt><trkpt lat="55.8309340" lon="49.1657050"><time>2021-09-11T06:54:19</time></trkpt><trkpt lat="55.8309060" lon="49.1653230"><time>2021-09-11T06:54:27</time></trkpt><trkpt lat="55.8308640" lon="49.1649790"><time>2021-09-11T06:54:35</time></trkpt><trkpt lat="55.8308700" lon="49.1646710"><time>2021-09-11T06:54:45</time></trkpt><trkpt lat="55.8308590" lon="49.1646390"><time>2021-09-11T06:54:46</time></trkpt><trkpt lat="55.8308560" lon="49.1646030"><time>2021-09-11T06:54:47</time></trkpt><trkpt lat="55.8308620" lon="49.1645610"><time>2021-09-11T06:54:48</time></trkpt><trkpt lat="55.8308700" lon="49.1645150"><time>2021-09-11T06:54:49</time></trkpt><trkpt lat="55.8309130" lon="49.1643440"><time>2021-09-11T06:54:54</time></trkpt><trkpt lat="55.8309040" lon="49.1643150"><time>2021-09-11T06:54:55</time></trkpt><trkpt lat="55.8308890" lon="49.1642830"><time>2021-09-11T06:54:56</time></trkpt><trkpt lat="55.8308400" lon="49.1641750"><time>2021-09-11T06:54:59</time></trkpt><trkpt lat="55.8307550" lon="49.1639860"><time>2021-09-11T06:55:04</time></trkpt><trkpt lat="55.8307190" lon="49.1638510"><time>2021-09-11T06:55:16</time></trkpt><trkpt lat="55.8306940" lon="49.1638360"><time>2021-09-11T06:55:17</time></trkpt><trkpt lat="55.8306730" lon="49.1638100"><time>2021-09-11T06:55:18</time></trkpt><trkpt lat="55.8305020" lon="49.1635700"><time>2021-09-11T06:55:25</time></trkpt><trkpt lat="55.8304220" lon="49.1632280"><time>2021-09-11T06:55:32</time></trkpt><trkpt lat="55.8302950" lon="49.1629520"><time>2021-09-11T06:55:40</time></trkpt><trkpt lat="55.8301720" lon="49.1626620"><time>2021-09-11T06:55:48</time></trkpt><trkpt lat="55.8301020" lon="49.1622970"><time>2021-09-11T06:55:57</time></trkpt><trkpt lat="55.8300580" lon="49.1619220"><time>2021-09-11T06:56:05</time></trkpt><trkpt lat="55.8300800" lon="49.1615600"><time>2021-09-11T06:56:13</time></trkpt><trkpt lat="55.8301210" lon="49.1611730"><time>2021-09-11T06:56:21</time></trkpt><trkpt lat="55.8301730" lon="49.1610700"><time>2021-09-11T06:56:24</time></trkpt><trkpt lat="55.8302010" lon="49.1610570"><time>2021-09-11T06:56:25</time></trkpt><trkpt lat="55.8302270" lon="49.1610510"><time>2021-09-11T06:56:26</time></trkpt><trkpt lat="55.8302550" lon="49.1610460"><time>2021-09-11T06:56:27</time></trkpt><trkpt lat="55.8302860" lon="49.1610480"><time>2021-09-11T06:56:28</time></trkpt><trkpt lat="55.8303160" lon="49.1610510"><time>2021-09-11T06:56:29</time></trkpt><trkpt lat="55.8305290" lon="49.1610510"><time>2021-09-11T06:56:37</time></trkpt><trkpt lat="55.8307240" lon="49.1610680"><time>2021-09-11T06:56:44</time></trkpt><trkpt lat="55.8309290" lon="49.1610850"><time>2021-09-11T06:56:52</time></trkpt><trkpt lat="55.8311400" lon="49.1610900"><time>2021-09-11T06:57:00</time></trkpt><trkpt lat="55.8313430" lon="49.1610720"><time>2021-09-11T06:57:08</time></trkpt><trkpt lat="55.8315580" lon="49.1610440"><time>2021-09-11T06:57:16</time></trkpt><trkpt lat="55.8317710" lon="49.1610490"><time>2021-09-11T06:57:24</time></trkpt><trkpt lat="55.8319840" lon="49.1610470"><time>2021-09-11T06:57:32</time></trkpt><trkpt lat="55.8321890" lon="49.1610600"><time>2021-09-11T06:57:40</time></trkpt><trkpt lat="55.8324080" lon="49.1610590"><time>2021-09-11T06:57:49</time></trkpt><trkpt lat="55.8326360" lon="49.1610340"><time>2021-09-11T06:57:57</time></trkpt><trkpt lat="55.8328570" lon="49.1610290"><time>2021-09-11T06:58:05</time></trkpt><trkpt lat="55.8331060" lon="49.1610440"><time>2021-09-11T06:58:14</time></trkpt><trkpt lat="55.8333120" lon="49.1610390"><time>2021-09-11T06:58:22</time></trkpt><trkpt lat="55.8335230" lon="49.1610470"><time>2021-09-11T06:58:30</time></trkpt><trkpt lat="55.8337350" lon="49.1610650"><time>2021-09-11T06:58:38</time></trkpt><trkpt lat="55.8339360" lon="49.1610800"><time>2021-09-11T06:58:46</time></trkpt><trkpt lat="55.8341460" lon="49.1610820"><time>2021-09-11T06:58:54</time></trkpt><trkpt lat="55.8343720" lon="49.1610650"><time>2021-09-11T06:59:02</time></trkpt><trkpt lat="55.8345930" lon="49.1610590"><time>2021-09-11T06:59:10</time></trkpt><trkpt lat="55.8348200" lon="49.1610470"><time>2021-09-11T06:59:18</time></trkpt><trkpt lat="55.8350380" lon="49.1610540"><time>2021-09-11T06:59:26</time></trkpt><trkpt lat="55.8352670" lon="49.1610460"><time>2021-09-11T06:59:34</time></trkpt><trkpt lat="55.8354790" lon="49.1610290"><time>2021-09-11T06:59:42</time></trkpt><trkpt lat="55.8356880" lon="49.1610310"><time>2021-09-11T06:59:50</time></trkpt><trkpt lat="55.8358990" lon="49.1610900"><time>2021-09-11T06:59:58</time></trkpt><trkpt lat="55.8360470" lon="49.1613730"><time>2021-09-11T07:00:05</time></trkpt><trkpt lat="55.8361980" lon="49.1616410"><time>2021-09-11T07:00:13</time></trkpt><trkpt lat="55.8362200" lon="49.1616440"><time>2021-09-11T07:00:14</time></trkpt><trkpt lat="55.8362400" lon="49.1616430"><time>2021-09-11T07:00:15</time></trkpt><trkpt lat="55.8364480" lon="49.1616620"><time>2021-09-11T07:00:24</time></trkpt><trkpt lat="55.8366570" lon="49.1617010"><time>2021-09-11T07:00:32</time></trkpt><trkpt lat="55.8368560" lon="49.1616590"><time>2021-09-11T07:00:40</time></trkpt><trkpt lat="55.8369030" lon="49.1616560"><time>2021-09-11T07:00:42</time></trkpt><trkpt lat="55.8370900" lon="49.1616140"><time>2021-09-11T07:00:49</time></trkpt><trkpt lat="55.8373030" lon="49.1616180"><time>2021-09-11T07:00:57</time></trkpt><trkpt lat="55.8375030" lon="49.1616000"><time>2021-09-11T07:01:05</time></trkpt><trkpt lat="55.8377180" lon="49.1615610"><time>2021-09-11T07:01:13</time></trkpt><trkpt lat="55.8379190" lon="49.1615480"><time>2021-09-11T07:01:21</time></trkpt><trkpt lat="55.8381310" lon="49.1615040"><time>2021-09-11T07:01:30</time></trkpt><trkpt lat="55.8383520" lon="49.1614160"><time>2021-09-11T07:01:39</time></trkpt><trkpt lat="55.8385310" lon="49.1614300"><time>2021-09-11T07:01:45</time></trkpt><trkpt lat="55.8385460" lon="49.1614710"><time>2021-09-11T07:01:46</time></trkpt><trkpt lat="55.8385560" lon="49.1615200"><time>2021-09-11T07:01:47</time></trkpt><trkpt lat="55.8385580" lon="49.1615700"><time>2021-09-11T07:01:48</time></trkpt><trkpt lat="55.8385620" lon="49.1616190"><time>2021-09-11T07:01:49</time></trkpt><trkpt lat="55.8385690" lon="49.1616650"><time>2021-09-11T07:01:50</time></trkpt><trkpt lat="55.8385790" lon="49.1617120"><time>2021-09-11T07:01:51</time></trkpt><trkpt lat="55.8386370" lon="49.1621030"><time>2021-09-11T07:01:59</time></trkpt><trkpt lat="55.8386300" lon="49.1624830"><time>2021-09-11T07:02:07</time></trkpt><trkpt lat="55.8386540" lon="49.1628710"><time>2021-09-11T07:02:15</time></trkpt><trkpt lat="55.8386810" lon="49.1632340"><time>2021-09-11T07:02:23</time></trkpt><trkpt lat="55.8387520" lon="49.1635560"><time>2021-09-11T07:02:31</time></trkpt><trkpt lat="55.8388420" lon="49.1638570"><time>2021-09-11T07:02:39</time></trkpt><trkpt lat="55.8388820" lon="49.1638800"><time>2021-09-11T07:02:41</time></trkpt><trkpt lat="55.8389050" lon="49.1638740"><time>2021-09-11T07:02:42</time></trkpt><trkpt lat="55.8389890" lon="49.1638320"><time>2021-09-11T07:02:47</time></trkpt><trkpt lat="55.8390780" lon="49.1639240"><time>2021-09-11T07:02:55</time></trkpt><trkpt lat="55.8390870" lon="49.1639310"><time>2021-09-11T07:02:56</time></trkpt><trkpt lat="55.8392970" lon="49.1640690"><time>2021-09-11T07:03:10</time></trkpt><trkpt lat="55.8394660" lon="49.1638930"><time>2021-09-11T07:03:18</time></trkpt><trkpt lat="55.8395720" lon="49.1635830"><time>2021-09-11T07:03:26</time></trkpt><trkpt lat="55.8396690" lon="49.1632060"><time>2021-09-11T07:03:34</time></trkpt><trkpt lat="55.8397950" lon="49.1628940"><time>2021-09-11T07:03:42</time></trkpt><trkpt lat="55.8398870" lon="49.1626660"><time>2021-09-11T07:03:48</time></trkpt><trkpt lat="55.8400140" lon="49.1623790"><time>2021-09-11T07:03:56</time></trkpt><trkpt lat="55.8401620" lon="49.1621880"><time>2021-09-11T07:04:04</time></trkpt><trkpt lat="55.8403270" lon="49.1619820"><time>2021-09-11T07:04:12</time></trkpt><trkpt lat="55.8405060" lon="49.1617880"><time>2021-09-11T07:04:21</time></trkpt><trkpt lat="55.8406590" lon="49.1615050"><time>2021-09-11T07:04:29</time></trkpt><trkpt lat="55.8407130" lon="49.1614470"><time>2021-09-11T07:04:32</time></trkpt><trkpt lat="55.8408640" lon="49.1611680"><time>2021-09-11T07:04:40</time></trkpt><trkpt lat="55.8410020" lon="49.1609040"><time>2021-09-11T07:04:48</time></trkpt><trkpt lat="55.8410210" lon="49.1605200"><time>2021-09-11T07:04:57</time></trkpt><trkpt lat="55.8410310" lon="49.1604870"><time>2021-09-11T07:04:58</time></trkpt><trkpt lat="55.8411030" lon="49.1601070"><time>2021-09-11T07:05:06</time></trkpt><trkpt lat="55.8411510" lon="49.1597290"><time>2021-09-11T07:05:13</time></trkpt><trkpt lat="55.8412540" lon="49.1594280"><time>2021-09-11T07:05:20</time></trkpt><trkpt lat="55.8413540" lon="49.1591150"><time>2021-09-11T07:05:28</time></trkpt><trkpt lat="55.8414780" lon="49.1589160"><time>2021-09-11T07:05:34</time></trkpt><trkpt lat="55.8415120" lon="49.1589530"><time>2021-09-11T07:05:35</time></trkpt><trkpt lat="55.8415340" lon="49.1589880"><time>2021-09-11T07:05:36</time></trkpt><trkpt lat="55.8417340" lon="49.1592330"><time>2021-09-11T07:05:44</time></trkpt><trkpt lat="55.8419710" lon="49.1591920"><time>2021-09-11T07:05:52</time></trkpt><trkpt lat="55.8422080" lon="49.1592630"><time>2021-09-11T07:06:00</time></trkpt><trkpt lat="55.8423840" lon="49.1594020"><time>2021-09-11T07:06:07</time></trkpt><trkpt lat="55.8425570" lon="49.1595340"><time>2021-09-11T07:06:15</time></trkpt><trkpt lat="55.8427460" lon="49.1596660"><time>2021-09-11T07:06:23</time></trkpt><trkpt lat="55.8428840" lon="49.1597310"><time>2021-09-11T07:06:29</time></trkpt><trkpt lat="55.8429660" lon="49.1597500"><time>2021-09-11T07:06:32</time></trkpt><trkpt lat="55.8431480" lon="49.1597830"><time>2021-09-11T07:06:39</time></trkpt><trkpt lat="55.8433450" lon="49.1598090"><time>2021-09-11T07:06:47</time></trkpt><trkpt lat="55.8435660" lon="49.1598520"><time>2021-09-11T07:06:55</time></trkpt><trkpt lat="55.8437900" lon="49.1598380"><time>2021-09-11T07:07:04</time></trkpt><trkpt lat="55.8440250" lon="49.1597570"><time>2021-09-11T07:07:13</time></trkpt><trkpt lat="55.8442260" lon="49.1597290"><time>2021-09-11T07:07:22</time></trkpt><trkpt lat="55.8442410" lon="49.1597360"><time>2021-09-11T07:07:24</time></trkpt><trkpt lat="55.8442750" lon="49.1597410"><time>2021-09-11T07:07:30</time></trkpt><trkpt lat="55.8442860" lon="49.1597280"><time>2021-09-11T07:07:31</time></trkpt><trkpt lat="55.8443010" lon="49.1597110"><time>2021-09-11T07:07:32</time></trkpt><trkpt lat="55.8443200" lon="49.1596970"><time>2021-09-11T07:07:33</time></trkpt><trkpt lat="55.8443410" lon="49.1596810"><time>2021-09-11T07:07:34</time></trkpt><trkpt lat="55.8445420" lon="49.1595440"><time>2021-09-11T07:07:42</time></trkpt><trkpt lat="55.8446920" lon="49.1592470"><time>2021-09-11T07:07:50</time></trkpt><trkpt lat="55.8447250" lon="49.1588830"><time>2021-09-11T07:07:57</time></trkpt><trkpt lat="55.8447650" lon="49.1585130"><time>2021-09-11T07:08:04</time></trkpt><trkpt lat="55.8448030" lon="49.1581380"><time>2021-09-11T07:08:12</time></trkpt><trkpt lat="55.8448220" lon="49.1581120"><time>2021-09-11T07:08:13</time></trkpt><trkpt lat="55.8448440" lon="49.1581040"><time>2021-09-11T07:08:14</time></trkpt><trkpt lat="55.8448670" lon="49.1581140"><time>2021-09-11T07:08:15</time></trkpt><trkpt lat="55.8448890" lon="49.1581250"><time>2021-09-11T07:08:16</time></trkpt><trkpt lat="55.8449160" lon="49.1581380"><time>2021-09-11T07:08:17</time></trkpt><trkpt lat="55.8451130" lon="49.1582940"><time>2021-09-11T07:08:25</time></trkpt><trkpt lat="55.8453160" lon="49.1584750"><time>2021-09-11T07:08:33</time></trkpt><trkpt lat="55.8455130" lon="49.1586020"><time>2021-09-11T07:08:41</time></trkpt><trkpt lat="55.8457100" lon="49.1586810"><time>2021-09-11T07:08:49</time></trkpt><trkpt lat="55.8458940" lon="49.1587990"><time>2021-09-11T07:08:57</time></trkpt><trkpt lat="55.8460990" lon="49.1589140"><time>2021-09-11T07:09:05</time></trkpt><trkpt lat="55.8462730" lon="49.1589530"><time>2021-09-11T07:09:12</time></trkpt><trkpt lat="55.8462970" lon="49.1589370"><time>2021-09-11T07:09:13</time></trkpt><trkpt lat="55.8463170" lon="49.1589120"><time>2021-09-11T07:09:14</time></trkpt><trkpt lat="55.8463350" lon="49.1588780"><time>2021-09-11T07:09:15</time></trkpt><trkpt lat="55.8463510" lon="49.1588370"><time>2021-09-11T07:09:16</time></trkpt><trkpt lat="55.8463660" lon="49.1587900"><time>2021-09-11T07:09:17</time></trkpt><trkpt lat="55.8463790" lon="49.1587440"><time>2021-09-11T07:09:18</time></trkpt><trkpt lat="55.8463880" lon="49.1586930"><time>2021-09-11T07:09:19</time></trkpt><trkpt lat="55.8464460" lon="49.1583040"><time>2021-09-11T07:09:27</time></trkpt><trkpt lat="55.8464840" lon="49.1579790"><time>2021-09-11T07:09:34</time></trkpt><trkpt lat="55.8465620" lon="49.1576270"><time>2021-09-11T07:09:42</time></trkpt><trkpt lat="55.8466120" lon="49.1573560"><time>2021-09-11T07:09:48</time></trkpt><trkpt lat="55.8466350" lon="49.1573440"><time>2021-09-11T07:09:49</time></trkpt><trkpt lat="55.8466570" lon="49.1573380"><time>2021-09-11T07:09:50</time></trkpt><trkpt lat="55.8466810" lon="49.1573400"><time>2021-09-11T07:09:51</time></trkpt><trkpt lat="55.8467030" lon="49.1573340"><time>2021-09-11T07:09:52</time></trkpt><trkpt lat="55.8467260" lon="49.1573320"><time>2021-09-11T07:09:53</time></trkpt><trkpt lat="55.8467500" lon="49.1573340"><time>2021-09-11T07:09:54</time></trkpt><trkpt lat="55.8467700" lon="49.1573390"><time>2021-09-11T07:09:55</time></trkpt><trkpt lat="55.8467910" lon="49.1573340"><time>2021-09-11T07:09:56</time></trkpt><trkpt lat="55.8468370" lon="49.1573270"><time>2021-09-11T07:09:58</time></trkpt><trkpt lat="55.8470390" lon="49.1572980"><time>2021-09-11T07:10:06</time></trkpt><trkpt lat="55.8472400" lon="49.1572360"><time>2021-09-11T07:10:15</time></trkpt><trkpt lat="55.8474430" lon="49.1571060"><time>2021-09-11T07:10:23</time></trkpt><trkpt lat="55.8476500" lon="49.1569940"><time>2021-09-11T07:10:31</time></trkpt><trkpt lat="55.8477500" lon="49.1570030"><time>2021-09-11T07:10:35</time></trkpt><trkpt lat="55.8477620" lon="49.1570390"><time>2021-09-11T07:10:36</time></trkpt><trkpt lat="55.8477660" lon="49.1570800"><time>2021-09-11T07:10:37</time></trkpt><trkpt lat="55.8477680" lon="49.1571680"><time>2021-09-11T07:10:39</time></trkpt><trkpt lat="55.8477580" lon="49.1575460"><time>2021-09-11T07:10:47</time></trkpt><trkpt lat="55.8476750" lon="49.1578960"><time>2021-09-11T07:10:55</time></trkpt><trkpt lat="55.8476290" lon="49.1582520"><time>2021-09-11T07:11:03</time></trkpt><trkpt lat="55.8475490" lon="49.1585840"><time>2021-09-11T07:11:11</time></trkpt><trkpt lat="55.8475430" lon="49.1588600"><time>2021-09-11T07:11:19</time></trkpt><trkpt lat="55.8475740" lon="49.1588750"><time>2021-09-11T07:11:20</time></trkpt><trkpt lat="55.8475970" lon="49.1588890"><time>2021-09-11T07:11:21</time></trkpt><trkpt lat="55.8476220" lon="49.1588930"><time>2021-09-11T07:11:22</time></trkpt><trkpt lat="55.8476490" lon="49.1588950"><time>2021-09-11T07:11:23</time></trkpt><trkpt lat="55.8476730" lon="49.1589000"><time>2021-09-11T07:11:24</time></trkpt><trkpt lat="55.8478700" lon="49.1589790"><time>2021-09-11T07:11:33</time></trkpt><trkpt lat="55.8480580" lon="49.1591930"><time>2021-09-11T07:11:43</time></trkpt><trkpt lat="55.8482340" lon="49.1593030"><time>2021-09-11T07:11:52</time></trkpt><trkpt lat="55.8483400" lon="49.1593860"><time>2021-09-11T07:11:58</time></trkpt><trkpt lat="55.8483390" lon="49.1594220"><time>2021-09-11T07:11:59</time></trkpt><trkpt lat="55.8483310" lon="49.1594660"><time>2021-09-11T07:12:00</time></trkpt><trkpt lat="55.8482610" lon="49.1598330"><time>2021-09-11T07:12:09</time></trkpt><trkpt lat="55.8481760" lon="49.1601970"><time>2021-09-11T07:12:18</time></trkpt><trkpt lat="55.8480900" lon="49.1604990"><time>2021-09-11T07:12:25</time></trkpt><trkpt lat="55.8480810" lon="49.1605400"><time>2021-09-11T07:12:26</time></trkpt><trkpt lat="55.8480200" lon="49.1608700"><time>2021-09-11T07:12:35</time></trkpt><trkpt lat="55.8479550" lon="49.1612350"><time>2021-09-11T07:12:45</time></trkpt><trkpt lat="55.8479180" lon="49.1613430"><time>2021-09-11T07:12:49</time></trkpt><trkpt lat="55.8479250" lon="49.1613530"><time>2021-09-11T07:12:50</time></trkpt><trkpt lat="55.8479500" lon="49.1613900"><time>2021-09-11T07:12:53</time></trkpt><trkpt lat="55.8479480" lon="49.1614280"><time>2021-09-11T07:12:54</time></trkpt><trkpt lat="55.8479430" lon="49.1614600"><time>2021-09-11T07:12:55</time></trkpt><trkpt lat="55.8479170" lon="49.1615460"><time>2021-09-11T07:13:00</time></trkpt><trkpt lat="55.8478960" lon="49.1615600"><time>2021-09-11T07:13:01</time></trkpt><trkpt lat="55.8478790" lon="49.1615870"><time>2021-09-11T07:13:02</time></trkpt><trkpt lat="55.8478650" lon="49.1616240"><time>2021-09-11T07:13:03</time></trkpt><trkpt lat="55.8478530" lon="49.1616680"><time>2021-09-11T07:13:04</time></trkpt><trkpt lat="55.8478400" lon="49.1617130"><time>2021-09-11T07:13:05</time></trkpt><trkpt lat="55.8478260" lon="49.1617530"><time>2021-09-11T07:13:06</time></trkpt><trkpt lat="55.8477130" lon="49.1621070"><time>2021-09-11T07:13:14</time></trkpt><trkpt lat="55.8476220" lon="49.1624190"><time>2021-09-11T07:13:22</time></trkpt><trkpt lat="55.8476420" lon="49.1627310"><time>2021-09-11T07:13:33</time></trkpt><trkpt lat="55.8476380" lon="49.1627860"><time>2021-09-11T07:13:34</time></trkpt><trkpt lat="55.8476370" lon="49.1628350"><time>2021-09-11T07:13:35</time></trkpt><trkpt lat="55.8476360" lon="49.1628820"><time>2021-09-11T07:13:36</time></trkpt><trkpt lat="55.8476260" lon="49.1630370"><time>2021-09-11T07:13:40</time></trkpt><trkpt lat="55.8476360" lon="49.1630300"><time>2021-09-11T07:13:42</time></trkpt><trkpt lat="55.8476400" lon="49.1629850"><time>2021-09-11T07:13:43</time></trkpt><trkpt lat="55.8476380" lon="49.1629270"><time>2021-09-11T07:13:44</time></trkpt><trkpt lat="55.8476480" lon="49.1628730"><time>2021-09-11T07:13:45</time></trkpt><trkpt lat="55.8476530" lon="49.1628190"><time>2021-09-11T07:13:46</time></trkpt><trkpt lat="55.8476040" lon="49.1625590"><time>2021-09-11T07:13:56</time></trkpt><trkpt lat="55.8475890" lon="49.1625550"><time>2021-09-11T07:13:57</time></trkpt><trkpt lat="55.8475760" lon="49.1625430"><time>2021-09-11T07:13:58</time></trkpt><trkpt lat="55.8475590" lon="49.1625340"><time>2021-09-11T07:13:59</time></trkpt><trkpt lat="55.8475420" lon="49.1625230"><time>2021-09-11T07:14:00</time></trkpt><trkpt lat="55.8475240" lon="49.1625130"><time>2021-09-11T07:14:01</time></trkpt><trkpt lat="55.8475020" lon="49.1625130"><time>2021-09-11T07:14:02</time></trkpt><trkpt lat="55.8474760" lon="49.1625210"><time>2021-09-11T07:14:03</time></trkpt><trkpt lat="55.8474490" lon="49.1625230"><time>2021-09-11T07:14:04</time></trkpt><trkpt lat="55.8474250" lon="49.1625200"><time>2021-09-11T07:14:05</time></trkpt><trkpt lat="55.8474050" lon="49.1625160"><time>2021-09-11T07:14:06</time></trkpt><trkpt lat="55.8473830" lon="49.1625160"><time>2021-09-11T07:14:07</time></trkpt><trkpt lat="55.8473640" lon="49.1625130"><time>2021-09-11T07:14:08</time></trkpt><trkpt lat="55.8473450" lon="49.1625070"><time>2021-09-11T07:14:09</time></trkpt><trkpt lat="55.8473260" lon="49.1624980"><time>2021-09-11T07:14:10</time></trkpt><trkpt lat="55.8473040" lon="49.1624910"><time>2021-09-11T07:14:11</time></trkpt><trkpt lat="55.8472780" lon="49.1624920"><time>2021-09-11T07:14:12</time></trkpt><trkpt lat="55.8472530" lon="49.1624930"><time>2021-09-11T07:14:13</time></trkpt><trkpt lat="55.8470520" lon="49.1624670"><time>2021-09-11T07:14:22</time></trkpt><trkpt lat="55.8470420" lon="49.1624370"><time>2021-09-11T07:14:23</time></trkpt><trkpt lat="55.8470340" lon="49.1624130"><time>2021-09-11T07:14:24</time></trkpt><trkpt lat="55.8470150" lon="49.1624000"><time>2021-09-11T07:14:25</time></trkpt><trkpt lat="55.8469940" lon="49.1623880"><time>2021-09-11T07:14:26</time></trkpt><trkpt lat="55.8467930" lon="49.1622590"><time>2021-09-11T07:14:36</time></trkpt><trkpt lat="55.8466140" lon="49.1621390"><time>2021-09-11T07:14:45</time></trkpt><trkpt lat="55.8465410" lon="49.1620400"><time>2021-09-11T07:14:50</time></trkpt><trkpt lat="55.8465330" lon="49.1620130"><time>2021-09-11T07:14:51</time></trkpt><trkpt lat="55.8465240" lon="49.1619830"><time>2021-09-11T07:14:52</time></trkpt><trkpt lat="55.8465130" lon="49.1619550"><time>2021-09-11T07:14:53</time></trkpt><trkpt lat="55.8464980" lon="49.1619400"><time>2021-09-11T07:14:54</time></trkpt><trkpt lat="55.8464810" lon="49.1619430"><time>2021-09-11T07:14:55</time></trkpt><trkpt lat="55.8464630" lon="49.1619410"><time>2021-09-11T07:14:56</time></trkpt><trkpt lat="55.8464460" lon="49.1619290"><time>2021-09-11T07:14:57</time></trkpt><trkpt lat="55.8464270" lon="49.1619200"><time>2021-09-11T07:14:58</time></trkpt><trkpt lat="55.8464080" lon="49.1619090"><time>2021-09-11T07:14:59</time></trkpt><trkpt lat="55.8463920" lon="49.1618920"><time>2021-09-11T07:15:00</time></trkpt><trkpt lat="55.8463780" lon="49.1618650"><time>2021-09-11T07:15:01</time></trkpt><trkpt lat="55.8463640" lon="49.1618360"><time>2021-09-11T07:15:02</time></trkpt><trkpt lat="55.8463510" lon="49.1618170"><time>2021-09-11T07:15:03</time></trkpt><trkpt lat="55.8463360" lon="49.1618170"><time>2021-09-11T07:15:05</time></trkpt><trkpt lat="55.8463250" lon="49.1618420"><time>2021-09-11T07:15:06</time></trkpt><trkpt lat="55.8463150" lon="49.1618780"><time>2021-09-11T07:15:07</time></trkpt><trkpt lat="55.8463100" lon="49.1619110"><time>2021-09-11T07:15:08</time></trkpt><trkpt lat="55.8463070" lon="49.1619330"><time>2021-09-11T07:15:09</time></trkpt><trkpt lat="55.8463140" lon="49.1619220"><time>2021-09-11T07:15:32</time></trkpt><trkpt lat="55.8463250" lon="49.1618320"><time>2021-09-11T07:15:42</time></trkpt><trkpt lat="55.8463490" lon="49.1618180"><time>2021-09-11T07:15:46</time></trkpt><trkpt lat="55.8463630" lon="49.1618290"><time>2021-09-11T07:15:47</time></trkpt><trkpt lat="55.8463760" lon="49.1618540"><time>2021-09-11T07:15:48</time></trkpt><trkpt lat="55.8463880" lon="49.1618690"><time>2021-09-11T07:15:49</time></trkpt><trkpt lat="55.8464030" lon="49.1618780"><time>2021-09-11T07:15:50</time></trkpt><trkpt lat="55.8464210" lon="49.1618940"><time>2021-09-11T07:15:51</time></trkpt><trkpt lat="55.8464380" lon="49.1619130"><time>2021-09-11T07:15:52</time></trkpt><trkpt lat="55.8464530" lon="49.1619250"><time>2021-09-11T07:15:53</time></trkpt><trkpt lat="55.8464720" lon="49.1619230"><time>2021-09-11T07:15:54</time></trkpt><trkpt lat="55.8464950" lon="49.1619320"><time>2021-09-11T07:15:55</time></trkpt><trkpt lat="55.8465110" lon="49.1619570"><time>2021-09-11T07:15:56</time></trkpt><trkpt lat="55.8465280" lon="49.1619840"><time>2021-09-11T07:15:57</time></trkpt><trkpt lat="55.8465340" lon="49.1620110"><time>2021-09-11T07:15:58</time></trkpt><trkpt lat="55.8465360" lon="49.1620400"><time>2021-09-11T07:15:59</time></trkpt><trkpt lat="55.8465420" lon="49.1620670"><time>2021-09-11T07:16:00</time></trkpt><trkpt lat="55.8465520" lon="49.1620880"><time>2021-09-11T07:16:01</time></trkpt><trkpt lat="55.8465650" lon="49.1621070"><time>2021-09-11T07:16:02</time></trkpt><trkpt lat="55.8465810" lon="49.1621270"><time>2021-09-11T07:16:03</time></trkpt><trkpt lat="55.8465990" lon="49.1621490"><time>2021-09-11T07:16:04</time></trkpt><trkpt lat="55.8466200" lon="49.1621680"><time>2021-09-11T07:16:05</time></trkpt><trkpt lat="55.8466410" lon="49.1621830"><time>2021-09-11T07:16:06</time></trkpt><trkpt lat="55.8466650" lon="49.1621930"><time>2021-09-11T07:16:07</time></trkpt><trkpt lat="55.8466920" lon="49.1622010"><time>2021-09-11T07:16:08</time></trkpt><trkpt lat="55.8468360" lon="49.1623230"><time>2021-09-11T07:16:15</time></trkpt><trkpt lat="55.8468530" lon="49.1623210"><time>2021-09-11T07:16:16</time></trkpt><trkpt lat="55.8468670" lon="49.1623250"><time>2021-09-11T07:16:17</time></trkpt><trkpt lat="55.8468850" lon="49.1623380"><time>2021-09-11T07:16:18</time></trkpt><trkpt lat="55.8469060" lon="49.1623570"><time>2021-09-11T07:16:19</time></trkpt><trkpt lat="55.8469250" lon="49.1623760"><time>2021-09-11T07:16:20</time></trkpt><trkpt lat="55.8470060" lon="49.1624260"><time>2021-09-11T07:16:24</time></trkpt><trkpt lat="55.8470210" lon="49.1624470"><time>2021-09-11T07:16:25</time></trkpt><trkpt lat="55.8470350" lon="49.1624690"><time>2021-09-11T07:16:26</time></trkpt><trkpt lat="55.8470520" lon="49.1624900"><time>2021-09-11T07:16:27</time></trkpt><trkpt lat="55.8470700" lon="49.1625090"><time>2021-09-11T07:16:28</time></trkpt><trkpt lat="55.8471160" lon="49.1625350"><time>2021-09-11T07:16:30</time></trkpt><trkpt lat="55.8471380" lon="49.1625270"><time>2021-09-11T07:16:31</time></trkpt><trkpt lat="55.8471550" lon="49.1625160"><time>2021-09-11T07:16:32</time></trkpt><trkpt lat="55.8471730" lon="49.1625140"><time>2021-09-11T07:16:33</time></trkpt><trkpt lat="55.8471930" lon="49.1625100"><time>2021-09-11T07:16:34</time></trkpt><trkpt lat="55.8472140" lon="49.1625040"><time>2021-09-11T07:16:35</time></trkpt><trkpt lat="55.8474280" lon="49.1625020"><time>2021-09-11T07:16:44</time></trkpt><trkpt lat="55.8476270" lon="49.1625150"><time>2021-09-11T07:16:53</time></trkpt><trkpt lat="55.8476360" lon="49.1625470"><time>2021-09-11T07:16:54</time></trkpt><trkpt lat="55.8476410" lon="49.1625800"><time>2021-09-11T07:16:55</time></trkpt><trkpt lat="55.8476500" lon="49.1626100"><time>2021-09-11T07:16:56</time></trkpt><trkpt lat="55.8476710" lon="49.1626320"><time>2021-09-11T07:16:57</time></trkpt><trkpt lat="55.8476890" lon="49.1626560"><time>2021-09-11T07:16:58</time></trkpt><trkpt lat="55.8477610" lon="49.1627470"><time>2021-09-11T07:17:08</time></trkpt><trkpt lat="55.8478120" lon="49.1627690"><time>2021-09-11T07:17:18</time></trkpt><trkpt lat="55.8478240" lon="49.1627960"><time>2021-09-11T07:17:19</time></trkpt><trkpt lat="55.8478220" lon="49.1628120"><time>2021-09-11T07:17:20</time></trkpt><trkpt lat="55.8478220" lon="49.1629480"><time>2021-09-11T07:17:38</time></trkpt><trkpt lat="55.8478170" lon="49.1629740"><time>2021-09-11T07:17:39</time></trkpt><trkpt lat="55.8478090" lon="49.1630090"><time>2021-09-11T07:17:40</time></trkpt><trkpt lat="55.8478050" lon="49.1630440"><time>2021-09-11T07:17:41</time></trkpt><trkpt lat="55.8478000" lon="49.1630710"><time>2021-09-11T07:17:42</time></trkpt><trkpt lat="55.8477350" lon="49.1634220"><time>2021-09-11T07:17:49</time></trkpt><trkpt lat="55.8476690" lon="49.1637660"><time>2021-09-11T07:17:55</time></trkpt><trkpt lat="55.8476130" lon="49.1641650"><time>2021-09-11T07:18:01</time></trkpt><trkpt lat="55.8475330" lon="49.1644400"><time>2021-09-11T07:18:07</time></trkpt><trkpt lat="55.8475170" lon="49.1644380"><time>2021-09-11T07:18:08</time></trkpt><trkpt lat="55.8474640" lon="49.1644020"><time>2021-09-11T07:18:13</time></trkpt><trkpt lat="55.8474470" lon="49.1643870"><time>2021-09-11T07:18:15</time></trkpt><trkpt lat="55.8473860" lon="49.1643380"><time>2021-09-11T07:18:21</time></trkpt><trkpt lat="55.8473710" lon="49.1643530"><time>2021-09-11T07:18:22</time></trkpt><trkpt lat="55.8473540" lon="49.1643870"><time>2021-09-11T07:18:23</time></trkpt><trkpt lat="55.8473430" lon="49.1644300"><time>2021-09-11T07:18:24</time></trkpt><trkpt lat="55.8473310" lon="49.1644770"><time>2021-09-11T07:18:25</time></trkpt><trkpt lat="55.8473210" lon="49.1645250"><time>2021-09-11T07:18:26</time></trkpt><trkpt lat="55.8473140" lon="49.1645720"><time>2021-09-11T07:18:27</time></trkpt><trkpt lat="55.8472410" lon="49.1649360"><time>2021-09-11T07:18:35</time></trkpt><trkpt lat="55.8471840" lon="49.1653070"><time>2021-09-11T07:18:43</time></trkpt><trkpt lat="55.8471160" lon="49.1656390"><time>2021-09-11T07:18:50</time></trkpt><trkpt lat="55.8470530" lon="49.1659840"><time>2021-09-11T07:18:58</time></trkpt><trkpt lat="55.8469770" lon="49.1663180"><time>2021-09-11T07:19:06</time></trkpt><trkpt lat="55.8469600" lon="49.1666970"><time>2021-09-11T07:19:14</time></trkpt><trkpt lat="55.8469530" lon="49.1670900"><time>2021-09-11T07:19:22</time></trkpt><trkpt lat="55.8469360" lon="49.1674730"><time>2021-09-11T07:19:30</time></trkpt><trkpt lat="55.8468800" lon="49.1678410"><time>2021-09-11T07:19:38</time></trkpt><trkpt lat="55.8468770" lon="49.1682160"><time>2021-09-11T07:19:46</time></trkpt><trkpt lat="55.8468080" lon="49.1685860"><time>2021-09-11T07:19:54</time></trkpt><trkpt lat="55.8467990" lon="49.1687290"><time>2021-09-11T07:19:57</time></trkpt><trkpt lat="55.8468120" lon="49.1689560"><time>2021-09-11T07:20:02</time></trkpt><trkpt lat="55.8467810" lon="49.1693240"><time>2021-09-11T07:20:10</time></trkpt><trkpt lat="55.8467120" lon="49.1696860"><time>2021-09-11T07:20:18</time></trkpt><trkpt lat="55.8466810" lon="49.1700430"><time>2021-09-11T07:20:26</time></trkpt><trkpt lat="55.8466370" lon="49.1703950"><time>2021-09-11T07:20:34</time></trkpt><trkpt lat="55.8466260" lon="49.1707590"><time>2021-09-11T07:20:42</time></trkpt><trkpt lat="55.8466170" lon="49.1711070"><time>2021-09-11T07:20:49</time></trkpt><trkpt lat="55.8465910" lon="49.1714480"><time>2021-09-11T07:20:56</time></trkpt><trkpt lat="55.8465530" lon="49.1717840"><time>2021-09-11T07:21:03</time></trkpt><trkpt lat="55.8465060" lon="49.1721350"><time>2021-09-11T07:21:11</time></trkpt><trkpt lat="55.8464790" lon="49.1724780"><time>2021-09-11T07:21:19</time></trkpt><trkpt lat="55.8464300" lon="49.1728370"><time>2021-09-11T07:21:27</time></trkpt><trkpt lat="55.8463740" lon="49.1732130"><time>2021-09-11T07:21:35</time></trkpt><trkpt lat="55.8463160" lon="49.1735730"><time>2021-09-11T07:21:43</time></trkpt><trkpt lat="55.8463020" lon="49.1739200"><time>2021-09-11T07:21:51</time></trkpt><trkpt lat="55.8462900" lon="49.1742730"><time>2021-09-11T07:21:59</time></trkpt><trkpt lat="55.8462580" lon="49.1746580"><time>2021-09-11T07:22:07</time></trkpt><trkpt lat="55.8462230" lon="49.1750440"><time>2021-09-11T07:22:15</time></trkpt><trkpt lat="55.8462050" lon="49.1754320"><time>2021-09-11T07:22:23</time></trkpt><trkpt lat="55.8461710" lon="49.1757850"><time>2021-09-11T07:22:31</time></trkpt><trkpt lat="55.8461520" lon="49.1761410"><time>2021-09-11T07:22:39</time></trkpt><trkpt lat="55.8461380" lon="49.1765020"><time>2021-09-11T07:22:47</time></trkpt><trkpt lat="55.8461110" lon="49.1768690"><time>2021-09-11T07:22:55</time></trkpt><trkpt lat="55.8460810" lon="49.1772310"><time>2021-09-11T07:23:03</time></trkpt><trkpt lat="55.8460490" lon="49.1775960"><time>2021-09-11T07:23:11</time></trkpt><trkpt lat="55.8460300" lon="49.1778970"><time>2021-09-11T07:23:18</time></trkpt><trkpt lat="55.8459710" lon="49.1781440"><time>2021-09-11T07:23:24</time></trkpt><trkpt lat="55.8459510" lon="49.1781580"><time>2021-09-11T07:23:25</time></trkpt><trkpt lat="55.8459250" lon="49.1781540"><time>2021-09-11T07:23:26</time></trkpt><trkpt lat="55.8458960" lon="49.1781450"><time>2021-09-11T07:23:27</time></trkpt><trkpt lat="55.8458660" lon="49.1781310"><time>2021-09-11T07:23:28</time></trkpt><trkpt lat="55.8458360" lon="49.1781090"><time>2021-09-11T07:23:29</time></trkpt><trkpt lat="55.8458070" lon="49.1780890"><time>2021-09-11T07:23:30</time></trkpt><trkpt lat="55.8456150" lon="49.1779790"><time>2021-09-11T07:23:37</time></trkpt><trkpt lat="55.8454000" lon="49.1779500"><time>2021-09-11T07:23:46</time></trkpt><trkpt lat="55.8452360" lon="49.1778390"><time>2021-09-11T07:23:54</time></trkpt><trkpt lat="55.8452210" lon="49.1778520"><time>2021-09-11T07:23:55</time></trkpt><trkpt lat="55.8452040" lon="49.1778640"><time>2021-09-11T07:23:56</time></trkpt><trkpt lat="55.8451780" lon="49.1779050"><time>2021-09-11T07:24:00</time></trkpt><trkpt lat="55.8450580" lon="49.1782360"><time>2021-09-11T07:24:08</time></trkpt><trkpt lat="55.8450290" lon="49.1782700"><time>2021-09-11T07:24:10</time></trkpt><trkpt lat="55.8450150" lon="49.1782770"><time>2021-09-11T07:24:11</time></trkpt><trkpt lat="55.8450020" lon="49.1782900"><time>2021-09-11T07:24:12</time></trkpt><trkpt lat="55.8449670" lon="49.1783360"><time>2021-09-11T07:24:17</time></trkpt><trkpt lat="55.8449480" lon="49.1783400"><time>2021-09-11T07:24:18</time></trkpt><trkpt lat="55.8449280" lon="49.1783400"><time>2021-09-11T07:24:19</time></trkpt><trkpt lat="55.8449120" lon="49.1783420"><time>2021-09-11T07:24:20</time></trkpt><trkpt lat="55.8449000" lon="49.1783440"><time>2021-09-11T07:24:21</time></trkpt><trkpt lat="55.8447300" lon="49.1784000"><time>2021-09-11T07:24:30</time></trkpt><trkpt lat="55.8447130" lon="49.1783680"><time>2021-09-11T07:24:31</time></trkpt><trkpt lat="55.8447000" lon="49.1783260"><time>2021-09-11T07:24:32</time></trkpt><trkpt lat="55.8446890" lon="49.1782820"><time>2021-09-11T07:24:33</time></trkpt><trkpt lat="55.8446770" lon="49.1782400"><time>2021-09-11T07:24:34</time></trkpt><trkpt lat="55.8445470" lon="49.1778940"><time>2021-09-11T07:24:42</time></trkpt><trkpt lat="55.8444110" lon="49.1775920"><time>2021-09-11T07:24:50</time></trkpt><trkpt lat="55.8442550" lon="49.1773450"><time>2021-09-11T07:24:58</time></trkpt><trkpt lat="55.8440560" lon="49.1773440"><time>2021-09-11T07:25:06</time></trkpt><trkpt lat="55.8438440" lon="49.1773320"><time>2021-09-11T07:25:14</time></trkpt><trkpt lat="55.8436400" lon="49.1772930"><time>2021-09-11T07:25:22</time></trkpt><trkpt lat="55.8434340" lon="49.1773930"><time>2021-09-11T07:25:30</time></trkpt><trkpt lat="55.8432250" lon="49.1775050"><time>2021-09-11T07:25:38</time></trkpt><trkpt lat="55.8430100" lon="49.1775910"><time>2021-09-11T07:25:46</time></trkpt><trkpt lat="55.8428950" lon="49.1776680"><time>2021-09-11T07:25:51</time></trkpt><trkpt lat="55.8428160" lon="49.1777860"><time>2021-09-11T07:25:55</time></trkpt><trkpt lat="55.8426370" lon="49.1779960"><time>2021-09-11T07:26:03</time></trkpt><trkpt lat="55.8424360" lon="49.1779240"><time>2021-09-11T07:26:11</time></trkpt><trkpt lat="55.8422930" lon="49.1777010"><time>2021-09-11T07:26:18</time></trkpt><trkpt lat="55.8421350" lon="49.1774170"><time>2021-09-11T07:26:27</time></trkpt><trkpt lat="55.8421060" lon="49.1770480"><time>2021-09-11T07:26:35</time></trkpt><trkpt lat="55.8420600" lon="49.1766890"><time>2021-09-11T07:26:43</time></trkpt><trkpt lat="55.8420370" lon="49.1764310"><time>2021-09-11T07:26:49</time></trkpt><trkpt lat="55.8418430" lon="49.1762660"><time>2021-09-11T07:26:58</time></trkpt><trkpt lat="55.8416380" lon="49.1761390"><time>2021-09-11T07:27:08</time></trkpt><trkpt lat="55.8414650" lon="49.1759600"><time>2021-09-11T07:27:17</time></trkpt><trkpt lat="55.8414540" lon="49.1759430"><time>2021-09-11T07:27:18</time></trkpt><trkpt lat="55.8414410" lon="49.1759330"><time>2021-09-11T07:27:19</time></trkpt><trkpt lat="55.8414210" lon="49.1759340"><time>2021-09-11T07:27:20</time></trkpt><trkpt lat="55.8413990" lon="49.1759470"><time>2021-09-11T07:27:21</time></trkpt><trkpt lat="55.8413780" lon="49.1759660"><time>2021-09-11T07:27:22</time></trkpt><trkpt lat="55.8413590" lon="49.1759930"><time>2021-09-11T07:27:23</time></trkpt><trkpt lat="55.8413400" lon="49.1760240"><time>2021-09-11T07:27:24</time></trkpt><trkpt lat="55.8411610" lon="49.1762620"><time>2021-09-11T07:27:33</time></trkpt><trkpt lat="55.8411510" lon="49.1762860"><time>2021-09-11T07:27:35</time></trkpt><trkpt lat="55.8411480" lon="49.1763140"><time>2021-09-11T07:27:36</time></trkpt><trkpt lat="55.8410170" lon="49.1766380"><time>2021-09-11T07:27:46</time></trkpt><trkpt lat="55.8408930" lon="49.1768330"><time>2021-09-11T07:27:54</time></trkpt><trkpt lat="55.8408730" lon="49.1768520"><time>2021-09-11T07:27:55</time></trkpt><trkpt lat="55.8407930" lon="49.1769190"><time>2021-09-11T07:27:59</time></trkpt><trkpt lat="55.8407780" lon="49.1769170"><time>2021-09-11T07:28:00</time></trkpt><trkpt lat="55.8407690" lon="49.1769030"><time>2021-09-11T07:28:01</time></trkpt><trkpt lat="55.8408360" lon="49.1768610"><time>2021-09-11T07:28:24</time></trkpt><trkpt lat="55.8409090" lon="49.1767740"><time>2021-09-11T07:28:29</time></trkpt><trkpt lat="55.8409180" lon="49.1767380"><time>2021-09-11T07:28:30</time></trkpt><trkpt lat="55.8409330" lon="49.1767040"><time>2021-09-11T07:28:31</time></trkpt><trkpt lat="55.8409510" lon="49.1766780"><time>2021-09-11T07:28:32</time></trkpt><trkpt lat="55.8409750" lon="49.1766640"><time>2021-09-11T07:28:33</time></trkpt><trkpt lat="55.8409980" lon="49.1766490"><time>2021-09-11T07:28:34</time></trkpt><trkpt lat="55.8410230" lon="49.1766320"><time>2021-09-11T07:28:35</time></trkpt><trkpt lat="55.8411600" lon="49.1764780"><time>2021-09-11T07:28:42</time></trkpt><trkpt lat="55.8411820" lon="49.1764830"><time>2021-09-11T07:28:43</time></trkpt><trkpt lat="55.8412040" lon="49.1764760"><time>2021-09-11T07:28:44</time></trkpt><trkpt lat="55.8412250" lon="49.1764540"><time>2021-09-11T07:28:45</time></trkpt><trkpt lat="55.8412420" lon="49.1764250"><time>2021-09-11T07:28:46</time></trkpt><trkpt lat="55.8412590" lon="49.1764010"><time>2021-09-11T07:28:47</time></trkpt><trkpt lat="55.8412780" lon="49.1763750"><time>2021-09-11T07:28:48</time></trkpt><trkpt lat="55.8412940" lon="49.1763480"><time>2021-09-11T07:28:49</time></trkpt><trkpt lat="55.8413060" lon="49.1763150"><time>2021-09-11T07:28:50</time></trkpt><trkpt lat="55.8413210" lon="49.1762880"><time>2021-09-11T07:28:51</time></trkpt><trkpt lat="55.8413360" lon="49.1762640"><time>2021-09-11T07:28:52</time></trkpt><trkpt lat="55.8413510" lon="49.1762360"><time>2021-09-11T07:28:53</time></trkpt><trkpt lat="55.8413660" lon="49.1762050"><time>2021-09-11T07:28:54</time></trkpt><trkpt lat="55.8413800" lon="49.1761760"><time>2021-09-11T07:28:55</time></trkpt><trkpt lat="55.8413950" lon="49.1761450"><time>2021-09-11T07:28:56</time></trkpt><trkpt lat="55.8414440" lon="49.1760550"><time>2021-09-11T07:28:59</time></trkpt><trkpt lat="55.8414660" lon="49.1760440"><time>2021-09-11T07:29:00</time></trkpt><trkpt lat="55.8414900" lon="49.1760450"><time>2021-09-11T07:29:01</time></trkpt><trkpt lat="55.8415110" lon="49.1760560"><time>2021-09-11T07:29:02</time></trkpt><trkpt lat="55.8415330" lon="49.1760720"><time>2021-09-11T07:29:03</time></trkpt><trkpt lat="55.8415580" lon="49.1760790"><time>2021-09-11T07:29:04</time></trkpt><trkpt lat="55.8415840" lon="49.1760940"><time>2021-09-11T07:29:05</time></trkpt><trkpt lat="55.8416070" lon="49.1761160"><time>2021-09-11T07:29:06</time></trkpt><trkpt lat="55.8416290" lon="49.1761370"><time>2021-09-11T07:29:07</time></trkpt><trkpt lat="55.8417310" lon="49.1762260"><time>2021-09-11T07:29:12</time></trkpt><trkpt lat="55.8417550" lon="49.1762260"><time>2021-09-11T07:29:13</time></trkpt><trkpt lat="55.8417780" lon="49.1762260"><time>2021-09-11T07:29:14</time></trkpt><trkpt lat="55.8418030" lon="49.1762350"><time>2021-09-11T07:29:15</time></trkpt><trkpt lat="55.8418230" lon="49.1762500"><time>2021-09-11T07:29:16</time></trkpt><trkpt lat="55.8418430" lon="49.1762650"><time>2021-09-11T07:29:17</time></trkpt><trkpt lat="55.8418670" lon="49.1762800"><time>2021-09-11T07:29:18</time></trkpt><trkpt lat="55.8418890" lon="49.1763000"><time>2021-09-11T07:29:19</time></trkpt><trkpt lat="55.8419100" lon="49.1763210"><time>2021-09-11T07:29:20</time></trkpt><trkpt lat="55.8420100" lon="49.1764880"><time>2021-09-11T07:29:26</time></trkpt><trkpt lat="55.8420530" lon="49.1768570"><time>2021-09-11T07:29:34</time></trkpt><trkpt lat="55.8420960" lon="49.1772020"><time>2021-09-11T07:29:42</time></trkpt><trkpt lat="55.8421470" lon="49.1775230"><time>2021-09-11T07:29:50</time></trkpt><trkpt lat="55.8422980" lon="49.1777600"><time>2021-09-11T07:29:58</time></trkpt><trkpt lat="55.8424640" lon="49.1779450"><time>2021-09-11T07:30:06</time></trkpt><trkpt lat="55.8426360" lon="49.1779450"><time>2021-09-11T07:30:14</time></trkpt><trkpt lat="55.8428080" lon="49.1777480"><time>2021-09-11T07:30:22</time></trkpt><trkpt lat="55.8429770" lon="49.1775690"><time>2021-09-11T07:30:30</time></trkpt><trkpt lat="55.8431900" lon="49.1774940"><time>2021-09-11T07:30:38</time></trkpt><trkpt lat="55.8434170" lon="49.1773750"><time>2021-09-11T07:30:47</time></trkpt><trkpt lat="55.8436200" lon="49.1772890"><time>2021-09-11T07:30:55</time></trkpt><trkpt lat="55.8438150" lon="49.1773130"><time>2021-09-11T07:31:03</time></trkpt><trkpt lat="55.8440200" lon="49.1773360"><time>2021-09-11T07:31:11</time></trkpt><trkpt lat="55.8442030" lon="49.1772980"><time>2021-09-11T07:31:18</time></trkpt><trkpt lat="55.8443630" lon="49.1774380"><time>2021-09-11T07:31:25</time></trkpt><trkpt lat="55.8444850" lon="49.1777550"><time>2021-09-11T07:31:33</time></trkpt><trkpt lat="55.8445940" lon="49.1780670"><time>2021-09-11T07:31:41</time></trkpt><trkpt lat="55.8446780" lon="49.1783940"><time>2021-09-11T07:31:49</time></trkpt><trkpt lat="55.8447440" lon="49.1787550"><time>2021-09-11T07:31:57</time></trkpt><trkpt lat="55.8448670" lon="49.1790720"><time>2021-09-11T07:32:06</time></trkpt><trkpt lat="55.8449550" lon="49.1793960"><time>2021-09-11T07:32:15</time></trkpt><trkpt lat="55.8450950" lon="49.1796270"><time>2021-09-11T07:32:24</time></trkpt><trkpt lat="55.8451930" lon="49.1799360"><time>2021-09-11T07:32:34</time></trkpt><trkpt lat="55.8452160" lon="49.1802770"><time>2021-09-11T07:32:47</time></trkpt><trkpt lat="55.8452290" lon="49.1804170"><time>2021-09-11T07:32:52</time></trkpt><trkpt lat="55.8452290" lon="49.1804510"><time>2021-09-11T07:32:53</time></trkpt><trkpt lat="55.8452310" lon="49.1804750"><time>2021-09-11T07:32:54</time></trkpt><trkpt lat="55.8452660" lon="49.1806680"><time>2021-09-11T07:33:01</time></trkpt><trkpt lat="55.8452710" lon="49.1807090"><time>2021-09-11T07:33:02</time></trkpt><trkpt lat="55.8452710" lon="49.1807550"><time>2021-09-11T07:33:03</time></trkpt><trkpt lat="55.8452680" lon="49.1808020"><time>2021-09-11T07:33:04</time></trkpt><trkpt lat="55.8452620" lon="49.1808490"><time>2021-09-11T07:33:05</time></trkpt><trkpt lat="55.8452550" lon="49.1809010"><time>2021-09-11T07:33:06</time></trkpt><trkpt lat="55.8451890" lon="49.1812750"><time>2021-09-11T07:33:14</time></trkpt><trkpt lat="55.8450630" lon="49.1815490"><time>2021-09-11T07:33:22</time></trkpt><trkpt lat="55.8448650" lon="49.1816370"><time>2021-09-11T07:33:31</time></trkpt><trkpt lat="55.8447930" lon="49.1816570"><time>2021-09-11T07:33:35</time></trkpt><trkpt lat="55.8447790" lon="49.1816620"><time>2021-09-11T07:33:36</time></trkpt><trkpt lat="55.8447650" lon="49.1816730"><time>2021-09-11T07:33:37</time></trkpt><trkpt lat="55.8447530" lon="49.1816850"><time>2021-09-11T07:33:38</time></trkpt><trkpt lat="55.8447430" lon="49.1816930"><time>2021-09-11T07:33:39</time></trkpt><trkpt lat="55.8447280" lon="49.1816950"><time>2021-09-11T07:33:40</time></trkpt><trkpt lat="55.8447160" lon="49.1816930"><time>2021-09-11T07:33:41</time></trkpt><trkpt lat="55.8447020" lon="49.1817050"><time>2021-09-11T07:33:42</time></trkpt><trkpt lat="55.8446800" lon="49.1817240"><time>2021-09-11T07:33:43</time></trkpt><trkpt lat="55.8446000" lon="49.1817840"><time>2021-09-11T07:33:47</time></trkpt><trkpt lat="55.8445790" lon="49.1817740"><time>2021-09-11T07:33:48</time></trkpt><trkpt lat="55.8445610" lon="49.1817550"><time>2021-09-11T07:33:49</time></trkpt><trkpt lat="55.8445470" lon="49.1817430"><time>2021-09-11T07:33:50</time></trkpt><trkpt lat="55.8445380" lon="49.1817470"><time>2021-09-11T07:33:51</time></trkpt><trkpt lat="55.8445290" lon="49.1817570"><time>2021-09-11T07:33:52</time></trkpt><trkpt lat="55.8445190" lon="49.1817640"><time>2021-09-11T07:33:53</time></trkpt><trkpt lat="55.8445060" lon="49.1817740"><time>2021-09-11T07:33:54</time></trkpt><trkpt lat="55.8444930" lon="49.1817820"><time>2021-09-11T07:33:55</time></trkpt><trkpt lat="55.8444610" lon="49.1818050"><time>2021-09-11T07:33:57</time></trkpt><trkpt lat="55.8444280" lon="49.1818290"><time>2021-09-11T07:33:59</time></trkpt><trkpt lat="55.8444080" lon="49.1818320"><time>2021-09-11T07:34:00</time></trkpt><trkpt lat="55.8443910" lon="49.1818420"><time>2021-09-11T07:34:01</time></trkpt><trkpt lat="55.8443750" lon="49.1818610"><time>2021-09-11T07:34:02</time></trkpt><trkpt lat="55.8443590" lon="49.1818800"><time>2021-09-11T07:34:03</time></trkpt><trkpt lat="55.8443440" lon="49.1818910"><time>2021-09-11T07:34:04</time></trkpt><trkpt lat="55.8443320" lon="49.1818990"><time>2021-09-11T07:34:05</time></trkpt><trkpt lat="55.8443220" lon="49.1819140"><time>2021-09-11T07:34:06</time></trkpt><trkpt lat="55.8443120" lon="49.1819320"><time>2021-09-11T07:34:07</time></trkpt><trkpt lat="55.8443030" lon="49.1819460"><time>2021-09-11T07:34:08</time></trkpt><trkpt lat="55.8442720" lon="49.1819670"><time>2021-09-11T07:34:12</time></trkpt><trkpt lat="55.8442530" lon="49.1819660"><time>2021-09-11T07:34:13</time></trkpt><trkpt lat="55.8442390" lon="49.1819640"><time>2021-09-11T07:34:14</time></trkpt><trkpt lat="55.8442300" lon="49.1819640"><time>2021-09-11T07:34:15</time></trkpt><trkpt lat="55.8442200" lon="49.1819660"><time>2021-09-11T07:34:16</time></trkpt><trkpt lat="55.8442100" lon="49.1819690"><time>2021-09-11T07:34:17</time></trkpt><trkpt lat="55.8441950" lon="49.1819720"><time>2021-09-11T07:34:18</time></trkpt><trkpt lat="55.8441210" lon="49.1820670"><time>2021-09-11T07:34:23</time></trkpt><trkpt lat="55.8441060" lon="49.1820870"><time>2021-09-11T07:34:24</time></trkpt><trkpt lat="55.8440940" lon="49.1821040"><time>2021-09-11T07:34:25</time></trkpt><trkpt lat="55.8440830" lon="49.1821160"><time>2021-09-11T07:34:26</time></trkpt><trkpt lat="55.8440750" lon="49.1821360"><time>2021-09-11T07:34:27</time></trkpt><trkpt lat="55.8440660" lon="49.1821520"><time>2021-09-11T07:34:28</time></trkpt><trkpt lat="55.8439100" lon="49.1822380"><time>2021-09-11T07:34:41</time></trkpt><trkpt lat="55.8439020" lon="49.1822520"><time>2021-09-11T07:34:42</time></trkpt><trkpt lat="55.8437930" lon="49.1824030"><time>2021-09-11T07:34:52</time></trkpt><trkpt lat="55.8437710" lon="49.1824080"><time>2021-09-11T07:34:53</time></trkpt><trkpt lat="55.8437530" lon="49.1824210"><time>2021-09-11T07:34:54</time></trkpt><trkpt lat="55.8437350" lon="49.1824450"><time>2021-09-11T07:34:55</time></trkpt><trkpt lat="55.8437190" lon="49.1824650"><time>2021-09-11T07:34:56</time></trkpt><trkpt lat="55.8437070" lon="49.1824830"><time>2021-09-11T07:34:57</time></trkpt><trkpt lat="55.8435900" lon="49.1825310"><time>2021-09-11T07:35:08</time></trkpt><trkpt lat="55.8435610" lon="49.1825950"><time>2021-09-11T07:35:12</time></trkpt><trkpt lat="55.8435460" lon="49.1826210"><time>2021-09-11T07:35:13</time></trkpt><trkpt lat="55.8435020" lon="49.1827130"><time>2021-09-11T07:35:17</time></trkpt><trkpt lat="55.8434910" lon="49.1827310"><time>2021-09-11T07:35:18</time></trkpt><trkpt lat="55.8434810" lon="49.1827450"><time>2021-09-11T07:35:19</time></trkpt><trkpt lat="55.8432930" lon="49.1829040"><time>2021-09-11T07:35:31</time></trkpt><trkpt lat="55.8431620" lon="49.1830150"><time>2021-09-11T07:35:46</time></trkpt><trkpt lat="55.8431480" lon="49.1830270"><time>2021-09-11T07:35:47</time></trkpt><trkpt lat="55.8431380" lon="49.1830360"><time>2021-09-11T07:35:48</time></trkpt><trkpt lat="55.8429510" lon="49.1832160"><time>2021-09-11T07:36:22</time></trkpt><trkpt lat="55.8427770" lon="49.1834760"><time>2021-09-11T07:36:35</time></trkpt><trkpt lat="55.8427220" lon="49.1835310"><time>2021-09-11T07:36:54</time></trkpt><trkpt lat="55.8427490" lon="49.1835440"><time>2021-09-11T07:37:04</time></trkpt><trkpt lat="55.8427710" lon="49.1835850"><time>2021-09-11T07:37:11</time></trkpt><trkpt lat="55.8428820" lon="49.1837340"><time>2021-09-11T07:37:54</time></trkpt><trkpt lat="55.8429290" lon="49.1837440"><time>2021-09-11T07:38:04</time></trkpt><trkpt lat="55.8429170" lon="49.1837380"><time>2021-09-11T07:38:06</time></trkpt><trkpt lat="55.8429060" lon="49.1837480"><time>2021-09-11T07:38:11</time></trkpt><trkpt lat="55.8428820" lon="49.1839420"><time>2021-09-11T07:38:45</time></trkpt><trkpt lat="55.8428880" lon="49.1839570"><time>2021-09-11T07:38:46</time></trkpt><trkpt lat="55.8429600" lon="49.1841130"><time>2021-09-11T07:38:59</time></trkpt><trkpt lat="55.8429910" lon="49.1841790"><time>2021-09-11T07:39:07</time></trkpt><trkpt lat="55.8430180" lon="49.1841900"><time>2021-09-11T07:39:12</time></trkpt><trkpt lat="55.8430480" lon="49.1842260"><time>2021-09-11T07:39:15</time></trkpt><trkpt lat="55.8430650" lon="49.1842300"><time>2021-09-11T07:39:16</time></trkpt><trkpt lat="55.8430770" lon="49.1842340"><time>2021-09-11T07:39:17</time></trkpt><trkpt lat="55.8430860" lon="49.1842350"><time>2021-09-11T07:39:18</time></trkpt><trkpt lat="55.8430950" lon="49.1842460"><time>2021-09-11T07:39:19</time></trkpt><trkpt lat="55.8431080" lon="49.1842760"><time>2021-09-11T07:39:21</time></trkpt><trkpt lat="55.8431160" lon="49.1842980"><time>2021-09-11T07:39:22</time></trkpt><trkpt lat="55.8431260" lon="49.1843300"><time>2021-09-11T07:39:23</time></trkpt><trkpt lat="55.8431530" lon="49.1844090"><time>2021-09-11T07:39:28</time></trkpt><trkpt lat="55.8431590" lon="49.1844910"><time>2021-09-11T07:39:39</time></trkpt><trkpt lat="55.8431820" lon="49.1844740"><time>2021-09-11T07:39:41</time></trkpt><trkpt lat="55.8432020" lon="49.1844680"><time>2021-09-11T07:39:42</time></trkpt><trkpt lat="55.8432250" lon="49.1844600"><time>2021-09-11T07:39:43</time></trkpt><trkpt lat="55.8432490" lon="49.1844590"><time>2021-09-11T07:39:44</time></trkpt><trkpt lat="55.8432700" lon="49.1844520"><time>2021-09-11T07:39:45</time></trkpt><trkpt lat="55.8433670" lon="49.1845140"><time>2021-09-11T07:39:52</time></trkpt><trkpt lat="55.8434040" lon="49.1845780"><time>2021-09-11T07:40:00</time></trkpt><trkpt lat="55.8434720" lon="49.1846420"><time>2021-09-11T07:40:09</time></trkpt><trkpt lat="55.8434810" lon="49.1846490"><time>2021-09-11T07:40:10</time></trkpt><trkpt lat="55.8434850" lon="49.1846620"><time>2021-09-11T07:40:11</time></trkpt><trkpt lat="55.8434960" lon="49.1846700"><time>2021-09-11T07:40:14</time></trkpt><trkpt lat="55.8435060" lon="49.1846680"><time>2021-09-11T07:40:15</time></trkpt><trkpt lat="55.8436920" lon="49.1846200"><time>2021-09-11T07:40:31</time></trkpt><trkpt lat="55.8436980" lon="49.1846760"><time>2021-09-11T07:40:41</time></trkpt><trkpt lat="55.8436950" lon="49.1847010"><time>2021-09-11T07:40:42</time></trkpt><trkpt lat="55.8437000" lon="49.1847270"><time>2021-09-11T07:40:43</time></trkpt><trkpt lat="55.8437080" lon="49.1847530"><time>2021-09-11T07:40:44</time></trkpt><trkpt lat="55.8437180" lon="49.1847810"><time>2021-09-11T07:40:45</time></trkpt><trkpt lat="55.8437260" lon="49.1848090"><time>2021-09-11T07:40:46</time></trkpt><trkpt lat="55.8437310" lon="49.1848460"><time>2021-09-11T07:40:47</time></trkpt><trkpt lat="55.8437310" lon="49.1848810"><time>2021-09-11T07:40:48</time></trkpt><trkpt lat="55.8437370" lon="49.1849080"><time>2021-09-11T07:40:49</time></trkpt><trkpt lat="55.8437440" lon="49.1849330"><time>2021-09-11T07:40:50</time></trkpt><trkpt lat="55.8437510" lon="49.1849530"><time>2021-09-11T07:40:51</time></trkpt><trkpt lat="55.8437570" lon="49.1849720"><time>2021-09-11T07:40:52</time></trkpt><trkpt lat="55.8437270" lon="49.1851770"><time>2021-09-11T07:41:00</time></trkpt><trkpt lat="55.8437270" lon="49.1852030"><time>2021-09-11T07:41:01</time></trkpt><trkpt lat="55.8437260" lon="49.1852210"><time>2021-09-11T07:41:02</time></trkpt><trkpt lat="55.8437190" lon="49.1852390"><time>2021-09-11T07:41:03</time></trkpt><trkpt lat="55.8437110" lon="49.1852580"><time>2021-09-11T07:41:04</time></trkpt><trkpt lat="55.8437030" lon="49.1852740"><time>2021-09-11T07:41:05</time></trkpt><trkpt lat="55.8436930" lon="49.1852950"><time>2021-09-11T07:41:06</time></trkpt><trkpt lat="55.8436730" lon="49.1853000"><time>2021-09-11T07:41:07</time></trkpt><trkpt lat="55.8436610" lon="49.1853110"><time>2021-09-11T07:41:08</time></trkpt><trkpt lat="55.8435480" lon="49.1854370"><time>2021-09-11T07:41:18</time></trkpt><trkpt lat="55.8435430" lon="49.1854530"><time>2021-09-11T07:41:19</time></trkpt><trkpt lat="55.8435350" lon="49.1854830"><time>2021-09-11T07:41:20</time></trkpt><trkpt lat="55.8433870" lon="49.1858660"><time>2021-09-11T07:41:32</time></trkpt><trkpt lat="55.8433230" lon="49.1862400"><time>2021-09-11T07:41:40</time></trkpt><trkpt lat="55.8432860" lon="49.1866280"><time>2021-09-11T07:41:48</time></trkpt><trkpt lat="55.8431130" lon="49.1868330"><time>2021-09-11T07:41:56</time></trkpt><trkpt lat="55.8428930" lon="49.1869160"><time>2021-09-11T07:42:04</time></trkpt><trkpt lat="55.8426850" lon="49.1869780"><time>2021-09-11T07:42:12</time></trkpt><trkpt lat="55.8424750" lon="49.1870610"><time>2021-09-11T07:42:20</time></trkpt><trkpt lat="55.8422650" lon="49.1871780"><time>2021-09-11T07:42:28</time></trkpt><trkpt lat="55.8420510" lon="49.1872510"><time>2021-09-11T07:42:36</time></trkpt><trkpt lat="55.8418420" lon="49.1873330"><time>2021-09-11T07:42:44</time></trkpt><trkpt lat="55.8416300" lon="49.1873790"><time>2021-09-11T07:42:52</time></trkpt><trkpt lat="55.8414340" lon="49.1874170"><time>2021-09-11T07:42:59</time></trkpt><trkpt lat="55.8412240" lon="49.1874880"><time>2021-09-11T07:43:07</time></trkpt><trkpt lat="55.8409550" lon="49.1875800"><time>2021-09-11T07:43:17</time></trkpt><trkpt lat="55.8407410" lon="49.1876350"><time>2021-09-11T07:43:25</time></trkpt><trkpt lat="55.8405220" lon="49.1877010"><time>2021-09-11T07:43:33</time></trkpt><trkpt lat="55.8403170" lon="49.1877420"><time>2021-09-11T07:43:41</time></trkpt><trkpt lat="55.8401080" lon="49.1877880"><time>2021-09-11T07:43:49</time></trkpt><trkpt lat="55.8399080" lon="49.1878210"><time>2021-09-11T07:43:57</time></trkpt><trkpt lat="55.8397040" lon="49.1878420"><time>2021-09-11T07:44:05</time></trkpt><trkpt lat="55.8395060" lon="49.1879600"><time>2021-09-11T07:44:13</time></trkpt><trkpt lat="55.8392880" lon="49.1880470"><time>2021-09-11T07:44:21</time></trkpt><trkpt lat="55.8390590" lon="49.1881220"><time>2021-09-11T07:44:29</time></trkpt><trkpt lat="55.8388460" lon="49.1882300"><time>2021-09-11T07:44:37</time></trkpt><trkpt lat="55.8386260" lon="49.1883210"><time>2021-09-11T07:44:45</time></trkpt><trkpt lat="55.8384210" lon="49.1883620"><time>2021-09-11T07:44:53</time></trkpt><trkpt lat="55.8382130" lon="49.1882710"><time>2021-09-11T07:45:02</time></trkpt><trkpt lat="55.8382000" lon="49.1882360"><time>2021-09-11T07:45:03</time></trkpt><trkpt lat="55.8381940" lon="49.1881920"><time>2021-09-11T07:45:04</time></trkpt><trkpt lat="55.8381950" lon="49.1881420"><time>2021-09-11T07:45:05</time></trkpt><trkpt lat="55.8382600" lon="49.1877780"><time>2021-09-11T07:45:13</time></trkpt><trkpt lat="55.8383230" lon="49.1874280"><time>2021-09-11T07:45:21</time></trkpt><trkpt lat="55.8383260" lon="49.1873420"><time>2021-09-11T07:45:38</time></trkpt><trkpt lat="55.8383260" lon="49.1873650"><time>2021-09-11T07:45:41</time></trkpt><trkpt lat="55.8383090" lon="49.1874140"><time>2021-09-11T07:45:43</time></trkpt><trkpt lat="55.8382980" lon="49.1874410"><time>2021-09-11T07:45:44</time></trkpt><trkpt lat="55.8382840" lon="49.1874770"><time>2021-09-11T07:45:45</time></trkpt><trkpt lat="55.8382110" lon="49.1878920"><time>2021-09-11T07:45:53</time></trkpt><trkpt lat="55.8381460" lon="49.1882870"><time>2021-09-11T07:46:01</time></trkpt><trkpt lat="55.8380040" lon="49.1886030"><time>2021-09-11T07:46:09</time></trkpt><trkpt lat="55.8379290" lon="49.1886290"><time>2021-09-11T07:46:12</time></trkpt><trkpt lat="55.8379090" lon="49.1886050"><time>2021-09-11T07:46:13</time></trkpt><trkpt lat="55.8378920" lon="49.1885690"><time>2021-09-11T07:46:14</time></trkpt><trkpt lat="55.8378750" lon="49.1885320"><time>2021-09-11T07:46:15</time></trkpt><trkpt lat="55.8378600" lon="49.1884900"><time>2021-09-11T07:46:16</time></trkpt><trkpt lat="55.8378470" lon="49.1884490"><time>2021-09-11T07:46:17</time></trkpt><trkpt lat="55.8377790" lon="49.1881020"><time>2021-09-11T07:46:25</time></trkpt><trkpt lat="55.8377100" lon="49.1877600"><time>2021-09-11T07:46:32</time></trkpt><trkpt lat="55.8377260" lon="49.1873780"><time>2021-09-11T07:46:39</time></trkpt><trkpt lat="55.8377570" lon="49.1870190"><time>2021-09-11T07:46:46</time></trkpt><trkpt lat="55.8378020" lon="49.1866300"><time>2021-09-11T07:46:54</time></trkpt><trkpt lat="55.8378380" lon="49.1862730"><time>2021-09-11T07:47:02</time></trkpt><trkpt lat="55.8378790" lon="49.1859330"><time>2021-09-11T07:47:10</time></trkpt><trkpt lat="55.8378730" lon="49.1855900"><time>2021-09-11T07:47:18</time></trkpt><trkpt lat="55.8377920" lon="49.1852440"><time>2021-09-11T07:47:27</time></trkpt><trkpt lat="55.8377720" lon="49.1851810"><time>2021-09-11T07:47:29</time></trkpt><trkpt lat="55.8377550" lon="49.1851780"><time>2021-09-11T07:47:30</time></trkpt><trkpt lat="55.8377330" lon="49.1851860"><time>2021-09-11T07:47:31</time></trkpt><trkpt lat="55.8377110" lon="49.1851940"><time>2021-09-11T07:47:32</time></trkpt><trkpt lat="55.8376880" lon="49.1852040"><time>2021-09-11T07:47:33</time></trkpt><trkpt lat="55.8375610" lon="49.1852070"><time>2021-09-11T07:47:40</time></trkpt><trkpt lat="55.8375490" lon="49.1852000"><time>2021-09-11T07:47:44</time></trkpt><trkpt lat="55.8375030" lon="49.1851160"><time>2021-09-11T07:48:03</time></trkpt><trkpt lat="55.8373850" lon="49.1851220"><time>2021-09-11T07:48:18</time></trkpt><trkpt lat="55.8373060" lon="49.1850700"><time>2021-09-11T07:48:32</time></trkpt><trkpt lat="55.8371570" lon="49.1849720"><time>2021-09-11T07:48:58</time></trkpt><trkpt lat="55.8371420" lon="49.1849420"><time>2021-09-11T07:49:01</time></trkpt><trkpt lat="55.8371160" lon="49.1849410"><time>2021-09-11T07:49:03</time></trkpt><trkpt lat="55.8371090" lon="49.1849300"><time>2021-09-11T07:49:04</time></trkpt><trkpt lat="55.8371010" lon="49.1849120"><time>2021-09-11T07:49:05</time></trkpt><trkpt lat="55.8370910" lon="49.1849080"><time>2021-09-11T07:49:06</time></trkpt><trkpt lat="55.8370830" lon="49.1849020"><time>2021-09-11T07:49:07</time></trkpt><trkpt lat="55.8370280" lon="49.1849510"><time>2021-09-11T07:49:12</time></trkpt><trkpt lat="55.8370190" lon="49.1849650"><time>2021-09-11T07:49:13</time></trkpt><trkpt lat="55.8369090" lon="49.1850120"><time>2021-09-11T07:49:22</time></trkpt><trkpt lat="55.8369150" lon="49.1849680"><time>2021-09-11T07:49:23</time></trkpt><trkpt lat="55.8369180" lon="49.1849230"><time>2021-09-11T07:49:24</time></trkpt><trkpt lat="55.8368030" lon="49.1845400"><time>2021-09-11T07:49:32</time></trkpt><trkpt lat="55.8366340" lon="49.1843020"><time>2021-09-11T07:49:39</time></trkpt><trkpt lat="55.8365010" lon="49.1840170"><time>2021-09-11T07:49:47</time></trkpt><trkpt lat="55.8364720" lon="49.1836460"><time>2021-09-11T07:49:54</time></trkpt><trkpt lat="55.8364730" lon="49.1835430"><time>2021-09-11T07:49:57</time></trkpt><trkpt lat="55.8364660" lon="49.1835300"><time>2021-09-11T07:49:58</time></trkpt><trkpt lat="55.8364580" lon="49.1835020"><time>2021-09-11T07:49:59</time></trkpt><trkpt lat="55.8364610" lon="49.1834650"><time>2021-09-11T07:50:00</time></trkpt><trkpt lat="55.8364670" lon="49.1834310"><time>2021-09-11T07:50:01</time></trkpt><trkpt lat="55.8364690" lon="49.1834090"><time>2021-09-11T07:50:02</time></trkpt><trkpt lat="55.8364750" lon="49.1833820"><time>2021-09-11T07:50:03</time></trkpt><trkpt lat="55.8364820" lon="49.1833560"><time>2021-09-11T07:50:04</time></trkpt><trkpt lat="55.8364890" lon="49.1833160"><time>2021-09-11T07:50:05</time></trkpt><trkpt lat="55.8364950" lon="49.1832680"><time>2021-09-11T07:50:06</time></trkpt><trkpt lat="55.8365340" lon="49.1831080"><time>2021-09-11T07:50:15</time></trkpt><trkpt lat="55.8365320" lon="49.1831330"><time>2021-09-11T07:50:16</time></trkpt><trkpt lat="55.8364930" lon="49.1835670"><time>2021-09-11T07:50:26</time></trkpt><trkpt lat="55.8365050" lon="49.1839170"><time>2021-09-11T07:50:33</time></trkpt><trkpt lat="55.8365230" lon="49.1840540"><time>2021-09-11T07:50:36</time></trkpt><trkpt lat="55.8365330" lon="49.1840940"><time>2021-09-11T07:50:37</time></trkpt><trkpt lat="55.8365380" lon="49.1841420"><time>2021-09-11T07:50:38</time></trkpt><trkpt lat="55.8365440" lon="49.1841870"><time>2021-09-11T07:50:39</time></trkpt><trkpt lat="55.8365580" lon="49.1842230"><time>2021-09-11T07:50:40</time></trkpt><trkpt lat="55.8365730" lon="49.1842490"><time>2021-09-11T07:50:41</time></trkpt><trkpt lat="55.8365910" lon="49.1842760"><time>2021-09-11T07:50:42</time></trkpt><trkpt lat="55.8366110" lon="49.1843050"><time>2021-09-11T07:50:43</time></trkpt><trkpt lat="55.8367890" lon="49.1845050"><time>2021-09-11T07:50:51</time></trkpt><trkpt lat="55.8368980" lon="49.1847890"><time>2021-09-11T07:50:58</time></trkpt><trkpt lat="55.8368220" lon="49.1851290"><time>2021-09-11T07:51:05</time></trkpt><trkpt lat="55.8366690" lon="49.1854090"><time>2021-09-11T07:51:13</time></trkpt><trkpt lat="55.8365150" lon="49.1856850"><time>2021-09-11T07:51:21</time></trkpt><trkpt lat="55.8363780" lon="49.1859780"><time>2021-09-11T07:51:29</time></trkpt><trkpt lat="55.8363100" lon="49.1862850"><time>2021-09-11T07:51:37</time></trkpt><trkpt lat="55.8362820" lon="49.1866140"><time>2021-09-11T07:51:44</time></trkpt><trkpt lat="55.8362590" lon="49.1866450"><time>2021-09-11T07:51:45</time></trkpt><trkpt lat="55.8362360" lon="49.1866690"><time>2021-09-11T07:51:46</time></trkpt><trkpt lat="55.8362120" lon="49.1866900"><time>2021-09-11T07:51:47</time></trkpt><trkpt lat="55.8361850" lon="49.1867060"><time>2021-09-11T07:51:48</time></trkpt><trkpt lat="55.8361580" lon="49.1867170"><time>2021-09-11T07:51:49</time></trkpt><trkpt lat="55.8361330" lon="49.1867220"><time>2021-09-11T07:51:50</time></trkpt><trkpt lat="55.8361080" lon="49.1867220"><time>2021-09-11T07:51:51</time></trkpt><trkpt lat="55.8360820" lon="49.1867260"><time>2021-09-11T07:51:52</time></trkpt><trkpt lat="55.8360590" lon="49.1867320"><time>2021-09-11T07:51:53</time></trkpt><trkpt lat="55.8360370" lon="49.1867420"><time>2021-09-11T07:51:54</time></trkpt><trkpt lat="55.8360170" lon="49.1867600"><time>2021-09-11T07:51:55</time></trkpt><trkpt lat="55.8359970" lon="49.1867850"><time>2021-09-11T07:51:56</time></trkpt><trkpt lat="55.8359810" lon="49.1868140"><time>2021-09-11T07:51:57</time></trkpt><trkpt lat="55.8359630" lon="49.1868340"><time>2021-09-11T07:51:58</time></trkpt><trkpt lat="55.8359390" lon="49.1868460"><time>2021-09-11T07:51:59</time></trkpt><trkpt lat="55.8359140" lon="49.1868500"><time>2021-09-11T07:52:00</time></trkpt><trkpt lat="55.8358880" lon="49.1868460"><time>2021-09-11T07:52:01</time></trkpt><trkpt lat="55.8358620" lon="49.1868460"><time>2021-09-11T07:52:02</time></trkpt><trkpt lat="55.8358370" lon="49.1868480"><time>2021-09-11T07:52:03</time></trkpt><trkpt lat="55.8358110" lon="49.1868490"><time>2021-09-11T07:52:04</time></trkpt><trkpt lat="55.8356090" lon="49.1868940"><time>2021-09-11T07:52:12</time></trkpt><trkpt lat="55.8354110" lon="49.1869160"><time>2021-09-11T07:52:21</time></trkpt><trkpt lat="55.8352080" lon="49.1867630"><time>2021-09-11T07:52:31</time></trkpt><trkpt lat="55.8350960" lon="49.1866680"><time>2021-09-11T07:52:39</time></trkpt><trkpt lat="55.8350860" lon="49.1866860"><time>2021-09-11T07:52:41</time></trkpt><trkpt lat="55.8350820" lon="49.1867020"><time>2021-09-11T07:52:49</time></trkpt><trkpt lat="55.8350400" lon="49.1867640"><time>2021-09-11T07:53:09</time></trkpt><trkpt lat="55.8350270" lon="49.1867930"><time>2021-09-11T07:53:10</time></trkpt><trkpt lat="55.8349870" lon="49.1868330"><time>2021-09-11T07:53:12</time></trkpt><trkpt lat="55.8349660" lon="49.1868350"><time>2021-09-11T07:53:13</time></trkpt><trkpt lat="55.8349440" lon="49.1868380"><time>2021-09-11T07:53:14</time></trkpt><trkpt lat="55.8349190" lon="49.1868370"><time>2021-09-11T07:53:15</time></trkpt><trkpt lat="55.8348940" lon="49.1868360"><time>2021-09-11T07:53:16</time></trkpt><trkpt lat="55.8346750" lon="49.1867560"><time>2021-09-11T07:53:24</time></trkpt><trkpt lat="55.8344580" lon="49.1866930"><time>2021-09-11T07:53:32</time></trkpt><trkpt lat="55.8342600" lon="49.1865490"><time>2021-09-11T07:53:40</time></trkpt><trkpt lat="55.8342330" lon="49.1864700"><time>2021-09-11T07:53:42</time></trkpt><trkpt lat="55.8342260" lon="49.1864220"><time>2021-09-11T07:53:43</time></trkpt><trkpt lat="55.8342230" lon="49.1863710"><time>2021-09-11T07:53:44</time></trkpt><trkpt lat="55.8342040" lon="49.1860590"><time>2021-09-11T07:53:56</time></trkpt><trkpt lat="55.8341830" lon="49.1860180"><time>2021-09-11T07:54:03</time></trkpt><trkpt lat="55.8341760" lon="49.1860080"><time>2021-09-11T07:54:04</time></trkpt><trkpt lat="55.8341540" lon="49.1859960"><time>2021-09-11T07:54:07</time></trkpt><trkpt lat="55.8341460" lon="49.1859890"><time>2021-09-11T07:54:08</time></trkpt><trkpt lat="55.8341330" lon="49.1859810"><time>2021-09-11T07:54:09</time></trkpt><trkpt lat="55.8341160" lon="49.1859710"><time>2021-09-11T07:54:10</time></trkpt><trkpt lat="55.8340990" lon="49.1859640"><time>2021-09-11T07:54:11</time></trkpt><trkpt lat="55.8340870" lon="49.1859620"><time>2021-09-11T07:54:12</time></trkpt><trkpt lat="55.8340710" lon="49.1859580"><time>2021-09-11T07:54:13</time></trkpt><trkpt lat="55.8340550" lon="49.1859400"><time>2021-09-11T07:54:14</time></trkpt><trkpt lat="55.8340410" lon="49.1859150"><time>2021-09-11T07:54:15</time></trkpt><trkpt lat="55.8340260" lon="49.1858300"><time>2021-09-11T07:54:21</time></trkpt><trkpt lat="55.8340290" lon="49.1858050"><time>2021-09-11T07:54:22</time></trkpt><trkpt lat="55.8340770" lon="49.1854550"><time>2021-09-11T07:54:31</time></trkpt><trkpt lat="55.8341450" lon="49.1850970"><time>2021-09-11T07:54:40</time></trkpt><trkpt lat="55.8341780" lon="49.1847350"><time>2021-09-11T07:54:48</time></trkpt><trkpt lat="55.8342470" lon="49.1844200"><time>2021-09-11T07:55:00</time></trkpt><trkpt lat="55.8343660" lon="49.1841110"><time>2021-09-11T07:55:08</time></trkpt><trkpt lat="55.8344530" lon="49.1837540"><time>2021-09-11T07:55:16</time></trkpt><trkpt lat="55.8345420" lon="49.1834220"><time>2021-09-11T07:55:25</time></trkpt><trkpt lat="55.8345440" lon="49.1834130"><time>2021-09-11T07:55:28</time></trkpt><trkpt lat="55.8345360" lon="49.1834340"><time>2021-09-11T07:55:29</time></trkpt><trkpt lat="55.8345250" lon="49.1834590"><time>2021-09-11T07:55:30</time></trkpt><trkpt lat="55.8343040" lon="49.1837200"><time>2021-09-11T07:55:44</time></trkpt><trkpt lat="55.8341200" lon="49.1837960"><time>2021-09-11T07:55:51</time></trkpt><trkpt lat="55.8339620" lon="49.1840400"><time>2021-09-11T07:56:00</time></trkpt><trkpt lat="55.8338630" lon="49.1843580"><time>2021-09-11T07:56:07</time></trkpt><trkpt lat="55.8337850" lon="49.1847350"><time>2021-09-11T07:56:15</time></trkpt><trkpt lat="55.8336960" lon="49.1850770"><time>2021-09-11T07:56:23</time></trkpt><trkpt lat="55.8336250" lon="49.1854440"><time>2021-09-11T07:56:31</time></trkpt><trkpt lat="55.8336020" lon="49.1858160"><time>2021-09-11T07:56:39</time></trkpt><trkpt lat="55.8335970" lon="49.1861950"><time>2021-09-11T07:56:47</time></trkpt><trkpt lat="55.8335960" lon="49.1864770"><time>2021-09-11T07:56:53</time></trkpt><trkpt lat="55.8336090" lon="49.1865480"><time>2021-09-11T07:56:55</time></trkpt><trkpt lat="55.8336750" lon="49.1868840"><time>2021-09-11T07:57:03</time></trkpt><trkpt lat="55.8337150" lon="49.1872720"><time>2021-09-11T07:57:11</time></trkpt><trkpt lat="55.8337780" lon="49.1876350"><time>2021-09-11T07:57:19</time></trkpt><trkpt lat="55.8338160" lon="49.1879880"><time>2021-09-11T07:57:27</time></trkpt><trkpt lat="55.8338930" lon="49.1883270"><time>2021-09-11T07:57:35</time></trkpt><trkpt lat="55.8339990" lon="49.1886610"><time>2021-09-11T07:57:43</time></trkpt><trkpt lat="55.8341090" lon="49.1889620"><time>2021-09-11T07:57:51</time></trkpt><trkpt lat="55.8342130" lon="49.1892230"><time>2021-09-11T07:57:59</time></trkpt><trkpt lat="55.8342110" lon="49.1892690"><time>2021-09-11T07:58:00</time></trkpt><trkpt lat="55.8342080" lon="49.1893160"><time>2021-09-11T07:58:01</time></trkpt><trkpt lat="55.8342120" lon="49.1897290"><time>2021-09-11T07:58:10</time></trkpt><trkpt lat="55.8342370" lon="49.1901010"><time>2021-09-11T07:58:19</time></trkpt><trkpt lat="55.8342570" lon="49.1904550"><time>2021-09-11T07:58:28</time></trkpt><trkpt lat="55.8342960" lon="49.1907760"><time>2021-09-11T07:58:41</time></trkpt><trkpt lat="55.8342900" lon="49.1910330"><time>2021-09-11T07:58:51</time></trkpt><trkpt lat="55.8342770" lon="49.1910460"><time>2021-09-11T07:58:52</time></trkpt><trkpt lat="55.8340650" lon="49.1911020"><time>2021-09-11T07:59:04</time></trkpt><trkpt lat="55.8338500" lon="49.1911400"><time>2021-09-11T07:59:12</time></trkpt><trkpt lat="55.8336450" lon="49.1911580"><time>2021-09-11T07:59:20</time></trkpt><trkpt lat="55.8334160" lon="49.1911490"><time>2021-09-11T07:59:29</time></trkpt><trkpt lat="55.8332110" lon="49.1911460"><time>2021-09-11T07:59:37</time></trkpt><trkpt lat="55.8330090" lon="49.1911560"><time>2021-09-11T07:59:45</time></trkpt><trkpt lat="55.8327880" lon="49.1911410"><time>2021-09-11T07:59:54</time></trkpt><trkpt lat="55.8325640" lon="49.1911330"><time>2021-09-11T08:00:03</time></trkpt><trkpt lat="55.8323670" lon="49.1910840"><time>2021-09-11T08:00:11</time></trkpt><trkpt lat="55.8321590" lon="49.1910300"><time>2021-09-11T08:00:19</time></trkpt><trkpt lat="55.8319620" lon="49.1909060"><time>2021-09-11T08:00:27</time></trkpt><trkpt lat="55.8317720" lon="49.1907470"><time>2021-09-11T08:00:35</time></trkpt><trkpt lat="55.8315770" lon="49.1905700"><time>2021-09-11T08:00:43</time></trkpt><trkpt lat="55.8313990" lon="49.1903520"><time>2021-09-11T08:00:51</time></trkpt><trkpt lat="55.8312230" lon="49.1901270"><time>2021-09-11T08:00:59</time></trkpt><trkpt lat="55.8310300" lon="49.1899370"><time>2021-09-11T08:01:07</time></trkpt><trkpt lat="55.8308580" lon="49.1897450"><time>2021-09-11T08:01:15</time></trkpt><trkpt lat="55.8306820" lon="49.1895650"><time>2021-09-11T08:01:23</time></trkpt><trkpt lat="55.8305020" lon="49.1893740"><time>2021-09-11T08:01:31</time></trkpt><trkpt lat="55.8303460" lon="49.1891880"><time>2021-09-11T08:01:38</time></trkpt><trkpt lat="55.8301730" lon="49.1889790"><time>2021-09-11T08:01:46</time></trkpt><trkpt lat="55.8300050" lon="49.1887570"><time>2021-09-11T08:01:54</time></trkpt><trkpt lat="55.8298350" lon="49.1885520"><time>2021-09-11T08:02:02</time></trkpt><trkpt lat="55.8296820" lon="49.1883260"><time>2021-09-11T08:02:10</time></trkpt><trkpt lat="55.8295050" lon="49.1881340"><time>2021-09-11T08:02:18</time></trkpt><trkpt lat="55.8293330" lon="49.1879250"><time>2021-09-11T08:02:26</time></trkpt><trkpt lat="55.8291610" lon="49.1877270"><time>2021-09-11T08:02:34</time></trkpt><trkpt lat="55.8289860" lon="49.1875230"><time>2021-09-11T08:02:42</time></trkpt><trkpt lat="55.8288160" lon="49.1873320"><time>2021-09-11T08:02:50</time></trkpt><trkpt lat="55.8286970" lon="49.1872160"><time>2021-09-11T08:02:55</time></trkpt><trkpt lat="55.8286290" lon="49.1871370"><time>2021-09-11T08:02:58</time></trkpt><trkpt lat="55.8284530" lon="49.1869480"><time>2021-09-11T08:03:06</time></trkpt><trkpt lat="55.8282460" lon="49.1866900"><time>2021-09-11T08:03:16</time></trkpt><trkpt lat="55.8280610" lon="49.1864690"><time>2021-09-11T08:03:25</time></trkpt><trkpt lat="55.8279870" lon="49.1864100"><time>2021-09-11T08:03:29</time></trkpt><trkpt lat="55.8279660" lon="49.1864160"><time>2021-09-11T08:03:30</time></trkpt><trkpt lat="55.8279420" lon="49.1864190"><time>2021-09-11T08:03:31</time></trkpt><trkpt lat="55.8277580" lon="49.1865330"><time>2021-09-11T08:03:41</time></trkpt><trkpt lat="55.8276630" lon="49.1867810"><time>2021-09-11T08:03:57</time></trkpt><trkpt lat="55.8276540" lon="49.1868060"><time>2021-09-11T08:03:59</time></trkpt><trkpt lat="55.8276450" lon="49.1868530"><time>2021-09-11T08:04:01</time></trkpt><trkpt lat="55.8275690" lon="49.1870370"><time>2021-09-11T08:04:10</time></trkpt><trkpt lat="55.8275600" lon="49.1870470"><time>2021-09-11T08:04:11</time></trkpt><trkpt lat="55.8275510" lon="49.1870880"><time>2021-09-11T08:04:18</time></trkpt><trkpt lat="55.8275440" lon="49.1871090"><time>2021-09-11T08:04:19</time></trkpt><trkpt lat="55.8275480" lon="49.1871230"><time>2021-09-11T08:04:20</time></trkpt><trkpt lat="55.8275500" lon="49.1871420"><time>2021-09-11T08:04:21</time></trkpt><trkpt lat="55.8275500" lon="49.1871610"><time>2021-09-11T08:04:22</time></trkpt><trkpt lat="55.8275550" lon="49.1871870"><time>2021-09-11T08:04:23</time></trkpt><trkpt lat="55.8276060" lon="49.1873840"><time>2021-09-11T08:04:37</time></trkpt><trkpt lat="55.8278030" lon="49.1875890"><time>2021-09-11T08:04:47</time></trkpt><trkpt lat="55.8279960" lon="49.1877610"><time>2021-09-11T08:04:55</time></trkpt><trkpt lat="55.8281210" lon="49.1879040"><time>2021-09-11T08:05:04</time></trkpt><trkpt lat="55.8281050" lon="49.1878870"><time>2021-09-11T08:05:05</time></trkpt><trkpt lat="55.8280830" lon="49.1878700"><time>2021-09-11T08:05:06</time></trkpt><trkpt lat="55.8279050" lon="49.1876670"><time>2021-09-11T08:05:15</time></trkpt><trkpt lat="55.8277220" lon="49.1875020"><time>2021-09-11T08:05:23</time></trkpt><trkpt lat="55.8275400" lon="49.1873220"><time>2021-09-11T08:05:31</time></trkpt><trkpt lat="55.8273660" lon="49.1871150"><time>2021-09-11T08:05:39</time></trkpt><trkpt lat="55.8271780" lon="49.1869190"><time>2021-09-11T08:05:47</time></trkpt><trkpt lat="55.8270170" lon="49.1866970"><time>2021-09-11T08:05:55</time></trkpt><trkpt lat="55.8268300" lon="49.1865460"><time>2021-09-11T08:06:04</time></trkpt><trkpt lat="55.8266530" lon="49.1863090"><time>2021-09-11T08:06:12</time></trkpt><trkpt lat="55.8264630" lon="49.1861150"><time>2021-09-11T08:06:20</time></trkpt><trkpt lat="55.8262750" lon="49.1859700"><time>2021-09-11T08:06:28</time></trkpt><trkpt lat="55.8262410" lon="49.1859110"><time>2021-09-11T08:06:30</time></trkpt><trkpt lat="55.8262350" lon="49.1858690"><time>2021-09-11T08:06:31</time></trkpt><trkpt lat="55.8262360" lon="49.1858240"><time>2021-09-11T08:06:32</time></trkpt><trkpt lat="55.8262390" lon="49.1857850"><time>2021-09-11T08:06:33</time></trkpt><trkpt lat="55.8262460" lon="49.1857440"><time>2021-09-11T08:06:34</time></trkpt><trkpt lat="55.8262530" lon="49.1857050"><time>2021-09-11T08:06:35</time></trkpt><trkpt lat="55.8264220" lon="49.1855070"><time>2021-09-11T08:06:44</time></trkpt><trkpt lat="55.8265680" lon="49.1854140"><time>2021-09-11T08:06:50</time></trkpt><trkpt lat="55.8265780" lon="49.1853860"><time>2021-09-11T08:06:51</time></trkpt><trkpt lat="55.8265790" lon="49.1853660"><time>2021-09-11T08:06:52</time></trkpt><trkpt lat="55.8265760" lon="49.1853470"><time>2021-09-11T08:06:56</time></trkpt><trkpt lat="55.8265530" lon="49.1853370"><time>2021-09-11T08:06:57</time></trkpt><trkpt lat="55.8265300" lon="49.1853300"><time>2021-09-11T08:06:58</time></trkpt><trkpt lat="55.8265120" lon="49.1853260"><time>2021-09-11T08:06:59</time></trkpt><trkpt lat="55.8264920" lon="49.1853140"><time>2021-09-11T08:07:00</time></trkpt><trkpt lat="55.8264700" lon="49.1852960"><time>2021-09-11T08:07:01</time></trkpt><trkpt lat="55.8262750" lon="49.1851580"><time>2021-09-11T08:07:09</time></trkpt><trkpt lat="55.8260660" lon="49.1850160"><time>2021-09-11T08:07:17</time></trkpt><trkpt lat="55.8258680" lon="49.1848830"><time>2021-09-11T08:07:25</time></trkpt><trkpt lat="55.8256620" lon="49.1847700"><time>2021-09-11T08:07:33</time></trkpt><trkpt lat="55.8254520" lon="49.1846430"><time>2021-09-11T08:07:41</time></trkpt><trkpt lat="55.8252420" lon="49.1845140"><time>2021-09-11T08:07:49</time></trkpt><trkpt lat="55.8250410" lon="49.1843920"><time>2021-09-11T08:07:57</time></trkpt><trkpt lat="55.8248380" lon="49.1842820"><time>2021-09-11T08:08:05</time></trkpt><trkpt lat="55.8246330" lon="49.1841780"><time>2021-09-11T08:08:13</time></trkpt><trkpt lat="55.8244320" lon="49.1840490"><time>2021-09-11T08:08:21</time></trkpt><trkpt lat="55.8242460" lon="49.1839340"><time>2021-09-11T08:08:29</time></trkpt><trkpt lat="55.8240430" lon="49.1838060"><time>2021-09-11T08:08:38</time></trkpt><trkpt lat="55.8238540" lon="49.1836750"><time>2021-09-11T08:08:46</time></trkpt><trkpt lat="55.8236710" lon="49.1835180"><time>2021-09-11T08:08:54</time></trkpt><trkpt lat="55.8234750" lon="49.1833790"><time>2021-09-11T08:09:02</time></trkpt><trkpt lat="55.8232800" lon="49.1832460"><time>2021-09-11T08:09:10</time></trkpt><trkpt lat="55.8230850" lon="49.1831110"><time>2021-09-11T08:09:18</time></trkpt><trkpt lat="55.8229280" lon="49.1829680"><time>2021-09-11T08:09:25</time></trkpt><trkpt lat="55.8229270" lon="49.1829290"><time>2021-09-11T08:09:26</time></trkpt><trkpt lat="55.8228050" lon="49.1826410"><time>2021-09-11T08:09:34</time></trkpt><trkpt lat="55.8226360" lon="49.1824750"><time>2021-09-11T08:09:42</time></trkpt><trkpt lat="55.8226330" lon="49.1824380"><time>2021-09-11T08:09:43</time></trkpt><trkpt lat="55.8226320" lon="49.1823950"><time>2021-09-11T08:09:44</time></trkpt><trkpt lat="55.8226230" lon="49.1823520"><time>2021-09-11T08:09:45</time></trkpt><trkpt lat="55.8226080" lon="49.1823140"><time>2021-09-11T08:09:46</time></trkpt><trkpt lat="55.8225920" lon="49.1822840"><time>2021-09-11T08:09:47</time></trkpt><trkpt lat="55.8225790" lon="49.1822520"><time>2021-09-11T08:09:48</time></trkpt><trkpt lat="55.8225750" lon="49.1822120"><time>2021-09-11T08:09:49</time></trkpt><trkpt lat="55.8225760" lon="49.1821700"><time>2021-09-11T08:09:50</time></trkpt><trkpt lat="55.8225830" lon="49.1821290"><time>2021-09-11T08:09:51</time></trkpt><trkpt lat="55.8225920" lon="49.1820870"><time>2021-09-11T08:09:52</time></trkpt><trkpt lat="55.8226760" lon="49.1817710"><time>2021-09-11T08:10:00</time></trkpt><trkpt lat="55.8227650" lon="49.1813990"><time>2021-09-11T08:10:08</time></trkpt><trkpt lat="55.8228600" lon="49.1810450"><time>2021-09-11T08:10:16</time></trkpt><trkpt lat="55.8229510" lon="49.1806960"><time>2021-09-11T08:10:24</time></trkpt><trkpt lat="55.8229930" lon="49.1805220"><time>2021-09-11T08:10:29</time></trkpt><trkpt lat="55.8229900" lon="49.1804840"><time>2021-09-11T08:10:30</time></trkpt><trkpt lat="55.8229980" lon="49.1804450"><time>2021-09-11T08:10:31</time></trkpt><trkpt lat="55.8230120" lon="49.1804060"><time>2021-09-11T08:10:32</time></trkpt><trkpt lat="55.8230270" lon="49.1803610"><time>2021-09-11T08:10:33</time></trkpt><trkpt lat="55.8231160" lon="49.1800610"><time>2021-09-11T08:10:41</time></trkpt><trkpt lat="55.8231580" lon="49.1797620"><time>2021-09-11T08:10:55</time></trkpt><trkpt lat="55.8231600" lon="49.1796410"><time>2021-09-11T08:11:01</time></trkpt><trkpt lat="55.8231570" lon="49.1796160"><time>2021-09-11T08:11:02</time></trkpt><trkpt lat="55.8231550" lon="49.1792880"><time>2021-09-11T08:11:12</time></trkpt><trkpt lat="55.8231700" lon="49.1792670"><time>2021-09-11T08:11:13</time></trkpt><trkpt lat="55.8232730" lon="49.1789560"><time>2021-09-11T08:11:21</time></trkpt><trkpt lat="55.8233660" lon="49.1785860"><time>2021-09-11T08:11:29</time></trkpt><trkpt lat="55.8234630" lon="49.1782500"><time>2021-09-11T08:11:37</time></trkpt><trkpt lat="55.8235190" lon="49.1779200"><time>2021-09-11T08:11:45</time></trkpt><trkpt lat="55.8234910" lon="49.1775230"><time>2021-09-11T08:11:53</time></trkpt><trkpt lat="55.8234580" lon="49.1771700"><time>2021-09-11T08:12:00</time></trkpt><trkpt lat="55.8234390" lon="49.1768900"><time>2021-09-11T08:12:10</time></trkpt><trkpt lat="55.8234340" lon="49.1768750"><time>2021-09-11T08:12:11</time></trkpt><trkpt lat="55.8234310" lon="49.1768570"><time>2021-09-11T08:12:12</time></trkpt><trkpt lat="55.8234270" lon="49.1768420"><time>2021-09-11T08:12:13</time></trkpt><trkpt lat="55.8234220" lon="49.1768250"><time>2021-09-11T08:12:14</time></trkpt><trkpt lat="55.8234160" lon="49.1768000"><time>2021-09-11T08:12:15</time></trkpt><trkpt lat="55.8234120" lon="49.1767770"><time>2021-09-11T08:12:16</time></trkpt><trkpt lat="55.8234050" lon="49.1767620"><time>2021-09-11T08:12:17</time></trkpt><trkpt lat="55.8234000" lon="49.1767480"><time>2021-09-11T08:12:18</time></trkpt><trkpt lat="55.8234020" lon="49.1766890"><time>2021-09-11T08:12:21</time></trkpt><trkpt lat="55.8234040" lon="49.1766540"><time>2021-09-11T08:12:22</time></trkpt><trkpt lat="55.8234050" lon="49.1766100"><time>2021-09-11T08:12:23</time></trkpt><trkpt lat="55.8233990" lon="49.1765620"><time>2021-09-11T08:12:24</time></trkpt><trkpt lat="55.8233940" lon="49.1765250"><time>2021-09-11T08:12:25</time></trkpt><trkpt lat="55.8233810" lon="49.1764730"><time>2021-09-11T08:12:26</time></trkpt><trkpt lat="55.8233580" lon="49.1761000"><time>2021-09-11T08:12:34</time></trkpt><trkpt lat="55.8233480" lon="49.1757130"><time>2021-09-11T08:12:42</time></trkpt><trkpt lat="55.8234110" lon="49.1753760"><time>2021-09-11T08:12:51</time></trkpt><trkpt lat="55.8234360" lon="49.1749680"><time>2021-09-11T08:13:01</time></trkpt><trkpt lat="55.8234510" lon="49.1745140"><time>2021-09-11T08:13:10</time></trkpt><trkpt lat="55.8234560" lon="49.1741150"><time>2021-09-11T08:13:18</time></trkpt><trkpt lat="55.8234970" lon="49.1737280"><time>2021-09-11T08:13:26</time></trkpt><trkpt lat="55.8235280" lon="49.1732740"><time>2021-09-11T08:13:34</time></trkpt><trkpt lat="55.8235400" lon="49.1728490"><time>2021-09-11T08:13:42</time></trkpt><trkpt lat="55.8235570" lon="49.1724820"><time>2021-09-11T08:13:50</time></trkpt><trkpt lat="55.8235470" lon="49.1724050"><time>2021-09-11T08:13:54</time></trkpt><trkpt lat="55.8235390" lon="49.1723950"><time>2021-09-11T08:13:55</time></trkpt><trkpt lat="55.8235320" lon="49.1723880"><time>2021-09-11T08:13:56</time></trkpt><trkpt lat="55.8235240" lon="49.1723800"><time>2021-09-11T08:13:57</time></trkpt><trkpt lat="55.8235140" lon="49.1723770"><time>2021-09-11T08:13:58</time></trkpt><trkpt lat="55.8235040" lon="49.1723850"><time>2021-09-11T08:13:59</time></trkpt><trkpt lat="55.8234930" lon="49.1723970"><time>2021-09-11T08:14:00</time></trkpt><trkpt lat="55.8233260" lon="49.1725710"><time>2021-09-11T08:14:13</time></trkpt><trkpt lat="55.8231980" lon="49.1727490"><time>2021-09-11T08:14:24</time></trkpt><trkpt lat="55.8231880" lon="49.1727650"><time>2021-09-11T08:14:25</time></trkpt><trkpt lat="55.8231740" lon="49.1727850"><time>2021-09-11T08:14:26</time></trkpt><trkpt lat="55.8230000" lon="49.1730590"><time>2021-09-11T08:14:39</time></trkpt><trkpt lat="55.8229740" lon="49.1731390"><time>2021-09-11T08:14:43</time></trkpt><trkpt lat="55.8229650" lon="49.1731560"><time>2021-09-11T08:14:44</time></trkpt><trkpt lat="55.8229530" lon="49.1731790"><time>2021-09-11T08:14:45</time></trkpt><trkpt lat="55.8228580" lon="49.1733280"><time>2021-09-11T08:14:53</time></trkpt><trkpt lat="55.8228440" lon="49.1733470"><time>2021-09-11T08:14:54</time></trkpt><trkpt lat="55.8228310" lon="49.1733660"><time>2021-09-11T08:14:55</time></trkpt><trkpt lat="55.8228210" lon="49.1733850"><time>2021-09-11T08:14:56</time></trkpt><trkpt lat="55.8228150" lon="49.1734050"><time>2021-09-11T08:14:57</time></trkpt><trkpt lat="55.8228040" lon="49.1734270"><time>2021-09-11T08:14:58</time></trkpt><trkpt lat="55.8227940" lon="49.1734430"><time>2021-09-11T08:14:59</time></trkpt><trkpt lat="55.8227830" lon="49.1734660"><time>2021-09-11T08:15:00</time></trkpt><trkpt lat="55.8227710" lon="49.1734890"><time>2021-09-11T08:15:01</time></trkpt><trkpt lat="55.8227640" lon="49.1735080"><time>2021-09-11T08:15:02</time></trkpt><trkpt lat="55.8227560" lon="49.1735280"><time>2021-09-11T08:15:03</time></trkpt><trkpt lat="55.8227480" lon="49.1735480"><time>2021-09-11T08:15:04</time></trkpt><trkpt lat="55.8225370" lon="49.1737910"><time>2021-09-11T08:15:20</time></trkpt><trkpt lat="55.8223640" lon="49.1740060"><time>2021-09-11T08:15:33</time></trkpt><trkpt lat="55.8223500" lon="49.1740290"><time>2021-09-11T08:15:34</time></trkpt><trkpt lat="55.8223350" lon="49.1740470"><time>2021-09-11T08:15:35</time></trkpt><trkpt lat="55.8223170" lon="49.1740700"><time>2021-09-11T08:15:36</time></trkpt><trkpt lat="55.8222990" lon="49.1740970"><time>2021-09-11T08:15:37</time></trkpt><trkpt lat="55.8222830" lon="49.1741260"><time>2021-09-11T08:15:38</time></trkpt><trkpt lat="55.8222670" lon="49.1741410"><time>2021-09-11T08:15:39</time></trkpt><trkpt lat="55.8222510" lon="49.1741450"><time>2021-09-11T08:15:40</time></trkpt><trkpt lat="55.8221500" lon="49.1740450"><time>2021-09-11T08:15:52</time></trkpt><trkpt lat="55.8220860" lon="49.1740480"><time>2021-09-11T08:15:57</time></trkpt><trkpt lat="55.8220690" lon="49.1740580"><time>2021-09-11T08:15:58</time></trkpt><trkpt lat="55.8220310" lon="49.1740400"><time>2021-09-11T08:16:01</time></trkpt><trkpt lat="55.8220190" lon="49.1740260"><time>2021-09-11T08:16:02</time></trkpt><trkpt lat="55.8218460" lon="49.1738300"><time>2021-09-11T08:16:22</time></trkpt><trkpt lat="55.8218350" lon="49.1738340"><time>2021-09-11T08:16:23</time></trkpt><trkpt lat="55.8218230" lon="49.1738320"><time>2021-09-11T08:16:24</time></trkpt><trkpt lat="55.8217810" lon="49.1737820"><time>2021-09-11T08:16:31</time></trkpt><trkpt lat="55.8217840" lon="49.1737660"><time>2021-09-11T08:16:32</time></trkpt><trkpt lat="55.8217910" lon="49.1737470"><time>2021-09-11T08:16:33</time></trkpt><trkpt lat="55.8218030" lon="49.1737300"><time>2021-09-11T08:16:34</time></trkpt><trkpt lat="55.8218140" lon="49.1737140"><time>2021-09-11T08:16:35</time></trkpt><trkpt lat="55.8219610" lon="49.1734320"><time>2021-09-11T08:16:46</time></trkpt><trkpt lat="55.8219690" lon="49.1734160"><time>2021-09-11T08:16:47</time></trkpt><trkpt lat="55.8220960" lon="49.1731160"><time>2021-09-11T08:17:03</time></trkpt><trkpt lat="55.8220960" lon="49.1730870"><time>2021-09-11T08:17:04</time></trkpt><trkpt lat="55.8220940" lon="49.1730510"><time>2021-09-11T08:17:05</time></trkpt><trkpt lat="55.8220640" lon="49.1726400"><time>2021-09-11T08:17:20</time></trkpt><trkpt lat="55.8220110" lon="49.1723850"><time>2021-09-11T08:17:30</time></trkpt><trkpt lat="55.8220140" lon="49.1723540"><time>2021-09-11T08:17:31</time></trkpt><trkpt lat="55.8220120" lon="49.1723260"><time>2021-09-11T08:17:32</time></trkpt><trkpt lat="55.8220280" lon="49.1720300"><time>2021-09-11T08:17:54</time></trkpt><trkpt lat="55.8220310" lon="49.1719970"><time>2021-09-11T08:18:02</time></trkpt><trkpt lat="55.8220520" lon="49.1719130"><time>2021-09-11T08:18:11</time></trkpt><trkpt lat="55.8220370" lon="49.1718270"><time>2021-09-11T08:18:20</time></trkpt><trkpt lat="55.8219600" lon="49.1717560"><time>2021-09-11T08:18:29</time></trkpt><trkpt lat="55.8218320" lon="49.1716560"><time>2021-09-11T08:18:40</time></trkpt><trkpt lat="55.8217580" lon="49.1712030"><time>2021-09-11T08:18:51</time></trkpt><trkpt lat="55.8215690" lon="49.1710450"><time>2021-09-11T08:19:03</time></trkpt><trkpt lat="55.8215630" lon="49.1710100"><time>2021-09-11T08:19:04</time></trkpt><trkpt lat="55.8215550" lon="49.1709820"><time>2021-09-11T08:19:05</time></trkpt><trkpt lat="55.8213850" lon="49.1706980"><time>2021-09-11T08:19:14</time></trkpt><trkpt lat="55.8213610" lon="49.1706630"><time>2021-09-11T08:19:17</time></trkpt><trkpt lat="55.8213340" lon="49.1706600"><time>2021-09-11T08:19:18</time></trkpt><trkpt lat="55.8212690" lon="49.1706380"><time>2021-09-11T08:19:19</time></trkpt><trkpt lat="55.8212470" lon="49.1706000"><time>2021-09-11T08:19:20</time></trkpt><trkpt lat="55.8212490" lon="49.1705450"><time>2021-09-11T08:19:21</time></trkpt><trkpt lat="55.8212530" lon="49.1705010"><time>2021-09-11T08:19:22</time></trkpt><trkpt lat="55.8212480" lon="49.1704340"><time>2021-09-11T08:19:23</time></trkpt><trkpt lat="55.8212530" lon="49.1703930"><time>2021-09-11T08:19:24</time></trkpt><trkpt lat="55.8212460" lon="49.1703450"><time>2021-09-11T08:19:25</time></trkpt><trkpt lat="55.8212370" lon="49.1703040"><time>2021-09-11T08:19:26</time></trkpt><trkpt lat="55.8212190" lon="49.1702610"><time>2021-09-11T08:19:27</time></trkpt><trkpt lat="55.8211980" lon="49.1702260"><time>2021-09-11T08:19:28</time></trkpt><trkpt lat="55.8211780" lon="49.1701990"><time>2021-09-11T08:19:29</time></trkpt><trkpt lat="55.8211580" lon="49.1701820"><time>2021-09-11T08:19:30</time></trkpt><trkpt lat="55.8211340" lon="49.1701700"><time>2021-09-11T08:19:31</time></trkpt><trkpt lat="55.8211090" lon="49.1701570"><time>2021-09-11T08:19:32</time></trkpt><trkpt lat="55.8210560" lon="49.1701570"><time>2021-09-11T08:19:37</time></trkpt><trkpt lat="55.8209330" lon="49.1701660"><time>2021-09-11T08:19:48</time></trkpt><trkpt lat="55.8209180" lon="49.1701660"><time>2021-09-11T08:19:49</time></trkpt><trkpt lat="55.8207030" lon="49.1701200"><time>2021-09-11T08:20:04</time></trkpt><trkpt lat="55.8206770" lon="49.1701090"><time>2021-09-11T08:20:06</time></trkpt><trkpt lat="55.8206600" lon="49.1701020"><time>2021-09-11T08:20:07</time></trkpt><trkpt lat="55.8206410" lon="49.1700870"><time>2021-09-11T08:20:08</time></trkpt><trkpt lat="55.8206280" lon="49.1700640"><time>2021-09-11T08:20:09</time></trkpt><trkpt lat="55.8204810" lon="49.1697430"><time>2021-09-11T08:20:24</time></trkpt><trkpt lat="55.8202800" lon="49.1694880"><time>2021-09-11T08:20:35</time></trkpt><trkpt lat="55.8200750" lon="49.1692960"><time>2021-09-11T08:20:44</time></trkpt><trkpt lat="55.8198710" lon="49.1691090"><time>2021-09-11T08:20:53</time></trkpt><trkpt lat="55.8197050" lon="49.1689170"><time>2021-09-11T08:21:01</time></trkpt><trkpt lat="55.8195310" lon="49.1687700"><time>2021-09-11T08:21:09</time></trkpt><trkpt lat="55.8193320" lon="49.1686140"><time>2021-09-11T08:21:18</time></trkpt><trkpt lat="55.8191580" lon="49.1684340"><time>2021-09-11T08:21:26</time></trkpt><trkpt lat="55.8189820" lon="49.1682480"><time>2021-09-11T08:21:34</time></trkpt><trkpt lat="55.8188140" lon="49.1680650"><time>2021-09-11T08:21:42</time></trkpt><trkpt lat="55.8186440" lon="49.1678860"><time>2021-09-11T08:21:50</time></trkpt><trkpt lat="55.8184600" lon="49.1677250"><time>2021-09-11T08:21:58</time></trkpt><trkpt lat="55.8182860" lon="49.1675380"><time>2021-09-11T08:22:06</time></trkpt><trkpt lat="55.8180960" lon="49.1673850"><time>2021-09-11T08:22:15</time></trkpt><trkpt lat="55.8179150" lon="49.1672000"><time>2021-09-11T08:22:24</time></trkpt><trkpt lat="55.8177380" lon="49.1669800"><time>2021-09-11T08:22:33</time></trkpt><trkpt lat="55.8175570" lon="49.1667580"><time>2021-09-11T08:22:42</time></trkpt><trkpt lat="55.8173590" lon="49.1665850"><time>2021-09-11T08:22:51</time></trkpt><trkpt lat="55.8171730" lon="49.1663800"><time>2021-09-11T08:23:00</time></trkpt><trkpt lat="55.8169850" lon="49.1661950"><time>2021-09-11T08:23:08</time></trkpt><trkpt lat="55.8168070" lon="49.1659670"><time>2021-09-11T08:23:17</time></trkpt><trkpt lat="55.8166260" lon="49.1658530"><time>2021-09-11T08:23:26</time></trkpt><trkpt lat="55.8165450" lon="49.1658930"><time>2021-09-11T08:23:33</time></trkpt><trkpt lat="55.8165160" lon="49.1660140"><time>2021-09-11T08:23:45</time></trkpt><trkpt lat="55.8165190" lon="49.1660710"><time>2021-09-11T08:23:48</time></trkpt><trkpt lat="55.8165230" lon="49.1660920"><time>2021-09-11T08:23:49</time></trkpt><trkpt lat="55.8165270" lon="49.1661080"><time>2021-09-11T08:23:50</time></trkpt><trkpt lat="55.8165340" lon="49.1661200"><time>2021-09-11T08:23:51</time></trkpt><trkpt lat="55.8165410" lon="49.1661350"><time>2021-09-11T08:23:52</time></trkpt><trkpt lat="55.8165490" lon="49.1661480"><time>2021-09-11T08:23:53</time></trkpt><trkpt lat="55.8165640" lon="49.1661540"><time>2021-09-11T08:23:54</time></trkpt><trkpt lat="55.8165770" lon="49.1661650"><time>2021-09-11T08:23:55</time></trkpt><trkpt lat="55.8165990" lon="49.1661670"><time>2021-09-11T08:23:56</time></trkpt><trkpt lat="55.8166060" lon="49.1661710"><time>2021-09-11T08:23:57</time></trkpt><trkpt lat="55.8168140" lon="49.1663550"><time>2021-09-11T08:24:09</time></trkpt><trkpt lat="55.8169860" lon="49.1665600"><time>2021-09-11T08:24:17</time></trkpt><trkpt lat="55.8171620" lon="49.1667290"><time>2021-09-11T08:24:25</time></trkpt><trkpt lat="55.8172610" lon="49.1669600"><time>2021-09-11T08:24:32</time></trkpt><trkpt lat="55.8172540" lon="49.1670040"><time>2021-09-11T08:24:33</time></trkpt><trkpt lat="55.8172440" lon="49.1670450"><time>2021-09-11T08:24:34</time></trkpt><trkpt lat="55.8172330" lon="49.1670840"><time>2021-09-11T08:24:35</time></trkpt><trkpt lat="55.8172190" lon="49.1671130"><time>2021-09-11T08:24:36</time></trkpt><trkpt lat="55.8172010" lon="49.1671450"><time>2021-09-11T08:24:37</time></trkpt><trkpt lat="55.8170410" lon="49.1673440"><time>2021-09-11T08:24:45</time></trkpt><trkpt lat="55.8169430" lon="49.1673900"><time>2021-09-11T08:24:51</time></trkpt><trkpt lat="55.8168410" lon="49.1677090"><time>2021-09-11T08:25:00</time></trkpt><trkpt lat="55.8168120" lon="49.1677810"><time>2021-09-11T08:25:02</time></trkpt><trkpt lat="55.8167980" lon="49.1678130"><time>2021-09-11T08:25:03</time></trkpt><trkpt lat="55.8167830" lon="49.1678470"><time>2021-09-11T08:25:04</time></trkpt><trkpt lat="55.8167600" lon="49.1678800"><time>2021-09-11T08:25:05</time></trkpt><trkpt lat="55.8167310" lon="49.1678970"><time>2021-09-11T08:25:06</time></trkpt><trkpt lat="55.8167030" lon="49.1679060"><time>2021-09-11T08:25:07</time></trkpt><trkpt lat="55.8166770" lon="49.1679140"><time>2021-09-11T08:25:08</time></trkpt><trkpt lat="55.8164710" lon="49.1680220"><time>2021-09-11T08:25:17</time></trkpt><trkpt lat="55.8162730" lon="49.1680970"><time>2021-09-11T08:25:27</time></trkpt><trkpt lat="55.8160880" lon="49.1683480"><time>2021-09-11T08:25:37</time></trkpt><trkpt lat="55.8159280" lon="49.1685520"><time>2021-09-11T08:25:47</time></trkpt><trkpt lat="55.8158350" lon="49.1686580"><time>2021-09-11T08:25:54</time></trkpt><trkpt lat="55.8158250" lon="49.1686720"><time>2021-09-11T08:25:55</time></trkpt><trkpt lat="55.8158140" lon="49.1686900"><time>2021-09-11T08:25:56</time></trkpt><trkpt lat="55.8156270" lon="49.1688950"><time>2021-09-11T08:26:07</time></trkpt><trkpt lat="55.8154650" lon="49.1690920"><time>2021-09-11T08:26:16</time></trkpt><trkpt lat="55.8152700" lon="49.1692710"><time>2021-09-11T08:26:27</time></trkpt><trkpt lat="55.8150710" lon="49.1694820"><time>2021-09-11T08:26:40</time></trkpt><trkpt lat="55.8150600" lon="49.1695430"><time>2021-09-11T08:26:43</time></trkpt><trkpt lat="55.8150590" lon="49.1695650"><time>2021-09-11T08:26:44</time></trkpt><trkpt lat="55.8150450" lon="49.1695970"><time>2021-09-11T08:26:45</time></trkpt><trkpt lat="55.8150260" lon="49.1696240"><time>2021-09-11T08:26:46</time></trkpt><trkpt lat="55.8150000" lon="49.1696500"><time>2021-09-11T08:26:47</time></trkpt><trkpt lat="55.8148040" lon="49.1698320"><time>2021-09-11T08:26:55</time></trkpt><trkpt lat="55.8146000" lon="49.1699980"><time>2021-09-11T08:27:04</time></trkpt><trkpt lat="55.8143980" lon="49.1701020"><time>2021-09-11T08:27:12</time></trkpt><trkpt lat="55.8141910" lon="49.1702470"><time>2021-09-11T08:27:20</time></trkpt><trkpt lat="55.8139850" lon="49.1703690"><time>2021-09-11T08:27:28</time></trkpt><trkpt lat="55.8137950" lon="49.1704750"><time>2021-09-11T08:27:36</time></trkpt><trkpt lat="55.8136090" lon="49.1706920"><time>2021-09-11T08:27:45</time></trkpt><trkpt lat="55.8133830" lon="49.1708740"><time>2021-09-11T08:27:55</time></trkpt><trkpt lat="55.8131570" lon="49.1709970"><time>2021-09-11T08:28:04</time></trkpt><trkpt lat="55.8129310" lon="49.1710630"><time>2021-09-11T08:28:13</time></trkpt><trkpt lat="55.8127160" lon="49.1711300"><time>2021-09-11T08:28:22</time></trkpt><trkpt lat="55.8125130" lon="49.1710880"><time>2021-09-11T08:28:30</time></trkpt><trkpt lat="55.8123070" lon="49.1709410"><time>2021-09-11T08:28:39</time></trkpt><trkpt lat="55.8121230" lon="49.1707420"><time>2021-09-11T08:28:48</time></trkpt><trkpt lat="55.8119120" lon="49.1705600"><time>2021-09-11T08:28:57</time></trkpt><trkpt lat="55.8117460" lon="49.1703440"><time>2021-09-11T08:29:05</time></trkpt><trkpt lat="55.8115680" lon="49.1701110"><time>2021-09-11T08:29:14</time></trkpt><trkpt lat="55.8113860" lon="49.1699480"><time>2021-09-11T08:29:23</time></trkpt><trkpt lat="55.8111710" lon="49.1698760"><time>2021-09-11T08:29:32</time></trkpt><trkpt lat="55.8111310" lon="49.1698820"><time>2021-09-11T08:29:34</time></trkpt><trkpt lat="55.8111120" lon="49.1698880"><time>2021-09-11T08:29:35</time></trkpt><trkpt lat="55.8110940" lon="49.1698900"><time>2021-09-11T08:29:36</time></trkpt><trkpt lat="55.8110670" lon="49.1698960"><time>2021-09-11T08:29:37</time></trkpt><trkpt lat="55.8110390" lon="49.1699070"><time>2021-09-11T08:29:38</time></trkpt><trkpt lat="55.8110170" lon="49.1699110"><time>2021-09-11T08:29:39</time></trkpt><trkpt lat="55.8110020" lon="49.1699150"><time>2021-09-11T08:29:40</time></trkpt><trkpt lat="55.8107860" lon="49.1699020"><time>2021-09-11T08:29:50</time></trkpt><trkpt lat="55.8105700" lon="49.1699030"><time>2021-09-11T08:29:59</time></trkpt><trkpt lat="55.8103630" lon="49.1699770"><time>2021-09-11T08:30:09</time></trkpt><trkpt lat="55.8101690" lon="49.1701860"><time>2021-09-11T08:30:20</time></trkpt><trkpt lat="55.8099870" lon="49.1704270"><time>2021-09-11T08:30:29</time></trkpt><trkpt lat="55.8097810" lon="49.1705890"><time>2021-09-11T08:30:39</time></trkpt><trkpt lat="55.8096900" lon="49.1706530"><time>2021-09-11T08:30:45</time></trkpt><trkpt lat="55.8096140" lon="49.1706770"><time>2021-09-11T08:30:51</time></trkpt><trkpt lat="55.8096020" lon="49.1706750"><time>2021-09-11T08:30:52</time></trkpt><trkpt lat="55.8095870" lon="49.1706730"><time>2021-09-11T08:30:53</time></trkpt><trkpt lat="55.8095710" lon="49.1706680"><time>2021-09-11T08:30:54</time></trkpt><trkpt lat="55.8095560" lon="49.1706670"><time>2021-09-11T08:30:55</time></trkpt><trkpt lat="55.8095380" lon="49.1706710"><time>2021-09-11T08:30:56</time></trkpt><trkpt lat="55.8092970" lon="49.1706840"><time>2021-09-11T08:31:09</time></trkpt><trkpt lat="55.8092730" lon="49.1706770"><time>2021-09-11T08:31:10</time></trkpt><trkpt lat="55.8090760" lon="49.1705530"><time>2021-09-11T08:31:18</time></trkpt><trkpt lat="55.8088690" lon="49.1704050"><time>2021-09-11T08:31:27</time></trkpt><trkpt lat="55.8086730" lon="49.1702360"><time>2021-09-11T08:31:36</time></trkpt><trkpt lat="55.8085710" lon="49.1701280"><time>2021-09-11T08:31:41</time></trkpt><trkpt lat="55.8085720" lon="49.1697950"><time>2021-09-11T08:31:51</time></trkpt><trkpt lat="55.8086290" lon="49.1694270"><time>2021-09-11T08:32:01</time></trkpt><trkpt lat="55.8086780" lon="49.1690150"><time>2021-09-11T08:32:11</time></trkpt><trkpt lat="55.8087680" lon="49.1686370"><time>2021-09-11T08:32:21</time></trkpt><trkpt lat="55.8088810" lon="49.1682030"><time>2021-09-11T08:32:30</time></trkpt><trkpt lat="55.8089510" lon="49.1679940"><time>2021-09-11T08:32:35</time></trkpt><trkpt lat="55.8089770" lon="49.1678860"><time>2021-09-11T08:32:38</time></trkpt><trkpt lat="55.8089980" lon="49.1678590"><time>2021-09-11T08:32:39</time></trkpt><trkpt lat="55.8090110" lon="49.1678370"><time>2021-09-11T08:32:40</time></trkpt><trkpt lat="55.8090210" lon="49.1678170"><time>2021-09-11T08:32:41</time></trkpt><trkpt lat="55.8090270" lon="49.1678010"><time>2021-09-11T08:32:42</time></trkpt><trkpt lat="55.8090520" lon="49.1677140"><time>2021-09-11T08:32:47</time></trkpt><trkpt lat="55.8090600" lon="49.1676950"><time>2021-09-11T08:32:48</time></trkpt><trkpt lat="55.8090800" lon="49.1675990"><time>2021-09-11T08:32:54</time></trkpt><trkpt lat="55.8090810" lon="49.1675780"><time>2021-09-11T08:32:55</time></trkpt><trkpt lat="55.8091000" lon="49.1675090"><time>2021-09-11T08:32:59</time></trkpt><trkpt lat="55.8091110" lon="49.1674940"><time>2021-09-11T08:33:00</time></trkpt><trkpt lat="55.8091210" lon="49.1674780"><time>2021-09-11T08:33:01</time></trkpt><trkpt lat="55.8091340" lon="49.1674630"><time>2021-09-11T08:33:02</time></trkpt><trkpt lat="55.8091510" lon="49.1674470"><time>2021-09-11T08:33:03</time></trkpt><trkpt lat="55.8091660" lon="49.1674320"><time>2021-09-11T08:33:04</time></trkpt><trkpt lat="55.8092260" lon="49.1673340"><time>2021-09-11T08:33:09</time></trkpt><trkpt lat="55.8092430" lon="49.1673190"><time>2021-09-11T08:33:10</time></trkpt><trkpt lat="55.8093050" lon="49.1672390"><time>2021-09-11T08:33:15</time></trkpt><trkpt lat="55.8093200" lon="49.1672260"><time>2021-09-11T08:33:16</time></trkpt><trkpt lat="55.8093540" lon="49.1671640"><time>2021-09-11T08:33:19</time></trkpt><trkpt lat="55.8093740" lon="49.1671490"><time>2021-09-11T08:33:20</time></trkpt><trkpt lat="55.8095160" lon="49.1669750"><time>2021-09-11T08:33:36</time></trkpt><trkpt lat="55.8095230" lon="49.1669540"><time>2021-09-11T08:33:37</time></trkpt><trkpt lat="55.8095270" lon="49.1667720"><time>2021-09-11T08:33:46</time></trkpt><trkpt lat="55.8093410" lon="49.1664870"><time>2021-09-11T08:34:04</time></trkpt><trkpt lat="55.8091630" lon="49.1662770"><time>2021-09-11T08:34:13</time></trkpt><trkpt lat="55.8090650" lon="49.1659230"><time>2021-09-11T08:34:22</time></trkpt><trkpt lat="55.8089080" lon="49.1656710"><time>2021-09-11T08:34:31</time></trkpt><trkpt lat="55.8087050" lon="49.1655080"><time>2021-09-11T08:34:40</time></trkpt><trkpt lat="55.8085230" lon="49.1653290"><time>2021-09-11T08:34:49</time></trkpt><trkpt lat="55.8083300" lon="49.1651610"><time>2021-09-11T08:34:58</time></trkpt><trkpt lat="55.8081400" lon="49.1649210"><time>2021-09-11T08:35:07</time></trkpt><trkpt lat="55.8079440" lon="49.1647800"><time>2021-09-11T08:35:15</time></trkpt><trkpt lat="55.8077410" lon="49.1647470"><time>2021-09-11T08:35:24</time></trkpt><trkpt lat="55.8075180" lon="49.1648110"><time>2021-09-11T08:35:35</time></trkpt><trkpt lat="55.8074280" lon="49.1648550"><time>2021-09-11T08:35:40</time></trkpt><trkpt lat="55.8073930" lon="49.1648500"><time>2021-09-11T08:35:43</time></trkpt><trkpt lat="55.8073940" lon="49.1648580"><time>2021-09-11T08:35:49</time></trkpt><trkpt lat="55.8074000" lon="49.1648530"><time>2021-09-11T08:35:50</time></trkpt><trkpt lat="55.8073720" lon="49.1648570"><time>2021-09-11T08:35:53</time></trkpt><trkpt lat="55.8073510" lon="49.1648630"><time>2021-09-11T08:35:54</time></trkpt><trkpt lat="55.8073320" lon="49.1648660"><time>2021-09-11T08:35:55</time></trkpt><trkpt lat="55.8073090" lon="49.1648630"><time>2021-09-11T08:35:56</time></trkpt><trkpt lat="55.8072870" lon="49.1648720"><time>2021-09-11T08:35:57</time></trkpt><trkpt lat="55.8072580" lon="49.1648720"><time>2021-09-11T08:35:58</time></trkpt><trkpt lat="55.8072350" lon="49.1648710"><time>2021-09-11T08:35:59</time></trkpt><trkpt lat="55.8072060" lon="49.1648730"><time>2021-09-11T08:36:00</time></trkpt><trkpt lat="55.8071760" lon="49.1648760"><time>2021-09-11T08:36:01</time></trkpt><trkpt lat="55.8070230" lon="49.1648130"><time>2021-09-11T08:36:07</time></trkpt><trkpt lat="55.8069960" lon="49.1647980"><time>2021-09-11T08:36:08</time></trkpt><trkpt lat="55.8069750" lon="49.1647720"><time>2021-09-11T08:36:09</time></trkpt><trkpt lat="55.8069630" lon="49.1647270"><time>2021-09-11T08:36:10</time></trkpt><trkpt lat="55.8069430" lon="49.1646950"><time>2021-09-11T08:36:11</time></trkpt><trkpt lat="55.8068630" lon="49.1643140"><time>2021-09-11T08:36:20</time></trkpt><trkpt lat="55.8067200" lon="49.1639830"><time>2021-09-11T08:36:29</time></trkpt><trkpt lat="55.8065380" lon="49.1637440"><time>2021-09-11T08:36:38</time></trkpt><trkpt lat="55.8063550" lon="49.1635980"><time>2021-09-11T08:36:47</time></trkpt><trkpt lat="55.8061730" lon="49.1634340"><time>2021-09-11T08:37:02</time></trkpt><trkpt lat="55.8061080" lon="49.1630120"><time>2021-09-11T08:37:12</time></trkpt><trkpt lat="55.8061420" lon="49.1626270"><time>2021-09-11T08:37:21</time></trkpt><trkpt lat="55.8061330" lon="49.1622420"><time>2021-09-11T08:37:30</time></trkpt><trkpt lat="55.8060780" lon="49.1619230"><time>2021-09-11T08:37:39</time></trkpt><trkpt lat="55.8060320" lon="49.1615900"><time>2021-09-11T08:37:48</time></trkpt><trkpt lat="55.8059910" lon="49.1612120"><time>2021-09-11T08:37:58</time></trkpt><trkpt lat="55.8059220" lon="49.1608990"><time>2021-09-11T08:38:06</time></trkpt><trkpt lat="55.8059310" lon="49.1606170"><time>2021-09-11T08:38:17</time></trkpt><trkpt lat="55.8059570" lon="49.1605910"><time>2021-09-11T08:38:19</time></trkpt><trkpt lat="55.8060840" lon="49.1603420"><time>2021-09-11T08:38:33</time></trkpt><trkpt lat="55.8060800" lon="49.1599610"><time>2021-09-11T08:38:41</time></trkpt><trkpt lat="55.8059990" lon="49.1595820"><time>2021-09-11T08:38:49</time></trkpt><trkpt lat="55.8059260" lon="49.1592320"><time>2021-09-11T08:38:57</time></trkpt><trkpt lat="55.8058440" lon="49.1589310"><time>2021-09-11T08:39:06</time></trkpt><trkpt lat="55.8058330" lon="49.1589180"><time>2021-09-11T08:39:07</time></trkpt><trkpt lat="55.8058420" lon="49.1590130"><time>2021-09-11T08:39:19</time></trkpt><trkpt lat="55.8058550" lon="49.1591380"><time>2021-09-11T08:39:27</time></trkpt><trkpt lat="55.8058490" lon="49.1591760"><time>2021-09-11T08:39:28</time></trkpt><trkpt lat="55.8058180" lon="49.1592920"><time>2021-09-11T08:39:31</time></trkpt><trkpt lat="55.8057990" lon="49.1593390"><time>2021-09-11T08:39:33</time></trkpt><trkpt lat="55.8057940" lon="49.1593640"><time>2021-09-11T08:39:34</time></trkpt><trkpt lat="55.8057790" lon="49.1593860"><time>2021-09-11T08:39:35</time></trkpt><trkpt lat="55.8057590" lon="49.1593900"><time>2021-09-11T08:39:36</time></trkpt><trkpt lat="55.8057370" lon="49.1593910"><time>2021-09-11T08:39:37</time></trkpt><trkpt lat="55.8056970" lon="49.1593940"><time>2021-09-11T08:39:39</time></trkpt><trkpt lat="55.8056800" lon="49.1594050"><time>2021-09-11T08:39:40</time></trkpt><trkpt lat="55.8056600" lon="49.1594250"><time>2021-09-11T08:39:41</time></trkpt><trkpt lat="55.8056510" lon="49.1594380"><time>2021-09-11T08:39:42</time></trkpt><trkpt lat="55.8056420" lon="49.1594490"><time>2021-09-11T08:39:43</time></trkpt><trkpt lat="55.8056320" lon="49.1594560"><time>2021-09-11T08:39:44</time></trkpt><trkpt lat="55.8056230" lon="49.1594590"><time>2021-09-11T08:39:45</time></trkpt><trkpt lat="55.8056130" lon="49.1594610"><time>2021-09-11T08:39:46</time></trkpt><trkpt lat="55.8055680" lon="49.1593960"><time>2021-09-11T08:39:56</time></trkpt><trkpt lat="55.8054350" lon="49.1591260"><time>2021-09-11T08:40:04</time></trkpt><trkpt lat="55.8053190" lon="49.1588490"><time>2021-09-11T08:40:11</time></trkpt><trkpt lat="55.8052480" lon="49.1584880"><time>2021-09-11T08:40:19</time></trkpt><trkpt lat="55.8052270" lon="49.1581100"><time>2021-09-11T08:40:27</time></trkpt><trkpt lat="55.8052070" lon="49.1578030"><time>2021-09-11T08:40:37</time></trkpt><trkpt lat="55.8052620" lon="49.1578710"><time>2021-09-11T08:40:56</time></trkpt><trkpt lat="55.8052720" lon="49.1579060"><time>2021-09-11T08:40:57</time></trkpt><trkpt lat="55.8052770" lon="49.1579410"><time>2021-09-11T08:40:58</time></trkpt><trkpt lat="55.8052780" lon="49.1579870"><time>2021-09-11T08:40:59</time></trkpt><trkpt lat="55.8052780" lon="49.1580350"><time>2021-09-11T08:41:00</time></trkpt><trkpt lat="55.8052750" lon="49.1580850"><time>2021-09-11T08:41:01</time></trkpt><trkpt lat="55.8052740" lon="49.1581380"><time>2021-09-11T08:41:02</time></trkpt><trkpt lat="55.8052740" lon="49.1581870"><time>2021-09-11T08:41:03</time></trkpt><trkpt lat="55.8052750" lon="49.1582330"><time>2021-09-11T08:41:04</time></trkpt><trkpt lat="55.8052750" lon="49.1582820"><time>2021-09-11T08:41:05</time></trkpt><trkpt lat="55.8052730" lon="49.1583280"><time>2021-09-11T08:41:06</time></trkpt><trkpt lat="55.8053160" lon="49.1586830"><time>2021-09-11T08:41:14</time></trkpt><trkpt lat="55.8054080" lon="49.1590270"><time>2021-09-11T08:41:23</time></trkpt><trkpt lat="55.8055280" lon="49.1593300"><time>2021-09-11T08:41:32</time></trkpt><trkpt lat="55.8056040" lon="49.1596740"><time>2021-09-11T08:41:41</time></trkpt><trkpt lat="55.8055750" lon="49.1600260"><time>2021-09-11T08:41:50</time></trkpt><trkpt lat="55.8055700" lon="49.1601380"><time>2021-09-11T08:41:54</time></trkpt><trkpt lat="55.8055580" lon="49.1601300"><time>2021-09-11T08:41:55</time></trkpt><trkpt lat="55.8055530" lon="49.1601040"><time>2021-09-11T08:41:56</time></trkpt><trkpt lat="55.8055500" lon="49.1600750"><time>2021-09-11T08:41:57</time></trkpt><trkpt lat="55.8055530" lon="49.1600380"><time>2021-09-11T08:41:58</time></trkpt><trkpt lat="55.8055570" lon="49.1600010"><time>2021-09-11T08:41:59</time></trkpt><trkpt lat="55.8055610" lon="49.1599580"><time>2021-09-11T08:42:00</time></trkpt><trkpt lat="55.8055910" lon="49.1598420"><time>2021-09-11T08:42:03</time></trkpt><trkpt lat="55.8056110" lon="49.1598190"><time>2021-09-11T08:42:04</time></trkpt><trkpt lat="55.8056310" lon="49.1598040"><time>2021-09-11T08:42:05</time></trkpt><trkpt lat="55.8056540" lon="49.1597930"><time>2021-09-11T08:42:06</time></trkpt><trkpt lat="55.8056780" lon="49.1597890"><time>2021-09-11T08:42:07</time></trkpt><trkpt lat="55.8057010" lon="49.1597920"><time>2021-09-11T08:42:08</time></trkpt><trkpt lat="55.8057200" lon="49.1598080"><time>2021-09-11T08:42:09</time></trkpt><trkpt lat="55.8057320" lon="49.1598390"><time>2021-09-11T08:42:10</time></trkpt><trkpt lat="55.8057390" lon="49.1598730"><time>2021-09-11T08:42:11</time></trkpt><trkpt lat="55.8057420" lon="49.1599130"><time>2021-09-11T08:42:12</time></trkpt><trkpt lat="55.8057480" lon="49.1599550"><time>2021-09-11T08:42:13</time></trkpt><trkpt lat="55.8057520" lon="49.1599940"><time>2021-09-11T08:42:14</time></trkpt><trkpt lat="55.8057550" lon="49.1600340"><time>2021-09-11T08:42:15</time></trkpt><trkpt lat="55.8058480" lon="49.1603580"><time>2021-09-11T08:42:26</time></trkpt><trkpt lat="55.8059050" lon="49.1607020"><time>2021-09-11T08:42:36</time></trkpt><trkpt lat="55.8059590" lon="49.1610420"><time>2021-09-11T08:42:45</time></trkpt><trkpt lat="55.8059910" lon="49.1613790"><time>2021-09-11T08:42:54</time></trkpt><trkpt lat="55.8060100" lon="49.1617290"><time>2021-09-11T08:43:03</time></trkpt><trkpt lat="55.8061230" lon="49.1620740"><time>2021-09-11T08:43:12</time></trkpt><trkpt lat="55.8061190" lon="49.1624250"><time>2021-09-11T08:43:21</time></trkpt><trkpt lat="55.8061120" lon="49.1627840"><time>2021-09-11T08:43:30</time></trkpt><trkpt lat="55.8061260" lon="49.1630280"><time>2021-09-11T08:43:39</time></trkpt><trkpt lat="55.8061200" lon="49.1630660"><time>2021-09-11T08:43:40</time></trkpt><trkpt lat="55.8061150" lon="49.1631020"><time>2021-09-11T08:43:41</time></trkpt><trkpt lat="55.8061180" lon="49.1631480"><time>2021-09-11T08:43:42</time></trkpt><trkpt lat="55.8061170" lon="49.1631970"><time>2021-09-11T08:43:43</time></trkpt><trkpt lat="55.8061120" lon="49.1632410"><time>2021-09-11T08:43:44</time></trkpt><trkpt lat="55.8061090" lon="49.1632820"><time>2021-09-11T08:43:45</time></trkpt><trkpt lat="55.8061110" lon="49.1633240"><time>2021-09-11T08:43:46</time></trkpt><trkpt lat="55.8061150" lon="49.1633670"><time>2021-09-11T08:43:47</time></trkpt><trkpt lat="55.8061180" lon="49.1634130"><time>2021-09-11T08:43:48</time></trkpt><trkpt lat="55.8061190" lon="49.1634580"><time>2021-09-11T08:43:49</time></trkpt><trkpt lat="55.8061200" lon="49.1635000"><time>2021-09-11T08:43:50</time></trkpt><trkpt lat="55.8061200" lon="49.1635400"><time>2021-09-11T08:43:51</time></trkpt><trkpt lat="55.8061240" lon="49.1635830"><time>2021-09-11T08:43:52</time></trkpt><trkpt lat="55.8061320" lon="49.1636260"><time>2021-09-11T08:43:53</time></trkpt><trkpt lat="55.8061380" lon="49.1636750"><time>2021-09-11T08:43:54</time></trkpt><trkpt lat="55.8061400" lon="49.1637280"><time>2021-09-11T08:43:55</time></trkpt><trkpt lat="55.8061420" lon="49.1637770"><time>2021-09-11T08:43:56</time></trkpt><trkpt lat="55.8060840" lon="49.1641470"><time>2021-09-11T08:44:04</time></trkpt><trkpt lat="55.8061320" lon="49.1644870"><time>2021-09-11T08:44:13</time></trkpt><trkpt lat="55.8061560" lon="49.1648600"><time>2021-09-11T08:44:22</time></trkpt><trkpt lat="55.8062110" lon="49.1652080"><time>2021-09-11T08:44:30</time></trkpt><trkpt lat="55.8062650" lon="49.1655890"><time>2021-09-11T08:44:39</time></trkpt><trkpt lat="55.8062890" lon="49.1659770"><time>2021-09-11T08:44:47</time></trkpt><trkpt lat="55.8062720" lon="49.1663450"><time>2021-09-11T08:44:55</time></trkpt><trkpt lat="55.8062770" lon="49.1663840"><time>2021-09-11T08:44:56</time></trkpt><trkpt lat="55.8062810" lon="49.1664270"><time>2021-09-11T08:44:57</time></trkpt><trkpt lat="55.8062780" lon="49.1664690"><time>2021-09-11T08:44:58</time></trkpt><trkpt lat="55.8062720" lon="49.1665100"><time>2021-09-11T08:44:59</time></trkpt><trkpt lat="55.8062630" lon="49.1665410"><time>2021-09-11T08:45:00</time></trkpt><trkpt lat="55.8062500" lon="49.1665680"><time>2021-09-11T08:45:01</time></trkpt><trkpt lat="55.8062420" lon="49.1665920"><time>2021-09-11T08:45:02</time></trkpt><trkpt lat="55.8062370" lon="49.1666140"><time>2021-09-11T08:45:03</time></trkpt><trkpt lat="55.8062380" lon="49.1666310"><time>2021-09-11T08:45:04</time></trkpt><trkpt lat="55.8062350" lon="49.1666440"><time>2021-09-11T08:45:05</time></trkpt><trkpt lat="55.8062360" lon="49.1666630"><time>2021-09-11T08:45:06</time></trkpt><trkpt lat="55.8062420" lon="49.1666750"><time>2021-09-11T08:45:07</time></trkpt><trkpt lat="55.8062480" lon="49.1666870"><time>2021-09-11T08:45:08</time></trkpt><trkpt lat="55.8062580" lon="49.1667050"><time>2021-09-11T08:45:09</time></trkpt><trkpt lat="55.8062780" lon="49.1667200"><time>2021-09-11T08:45:10</time></trkpt><trkpt lat="55.8062950" lon="49.1667430"><time>2021-09-11T08:45:11</time></trkpt><trkpt lat="55.8063110" lon="49.1667690"><time>2021-09-11T08:45:12</time></trkpt><trkpt lat="55.8063260" lon="49.1667920"><time>2021-09-11T08:45:13</time></trkpt><trkpt lat="55.8063470" lon="49.1668090"><time>2021-09-11T08:45:14</time></trkpt><trkpt lat="55.8063700" lon="49.1668250"><time>2021-09-11T08:45:15</time></trkpt><trkpt lat="55.8063910" lon="49.1668420"><time>2021-09-11T08:45:16</time></trkpt><trkpt lat="55.8064100" lon="49.1668630"><time>2021-09-11T08:45:17</time></trkpt><trkpt lat="55.8064220" lon="49.1668980"><time>2021-09-11T08:45:18</time></trkpt><trkpt lat="55.8064250" lon="49.1669390"><time>2021-09-11T08:45:19</time></trkpt><trkpt lat="55.8064180" lon="49.1669790"><time>2021-09-11T08:45:20</time></trkpt><trkpt lat="55.8063990" lon="49.1670140"><time>2021-09-11T08:45:21</time></trkpt><trkpt lat="55.8063830" lon="49.1670450"><time>2021-09-11T08:45:22</time></trkpt><trkpt lat="55.8062320" lon="49.1671890"><time>2021-09-11T08:45:32</time></trkpt><trkpt lat="55.8062140" lon="49.1672000"><time>2021-09-11T08:45:33</time></trkpt><trkpt lat="55.8061970" lon="49.1672140"><time>2021-09-11T08:45:34</time></trkpt><trkpt lat="55.8060560" lon="49.1673260"><time>2021-09-11T08:45:43</time></trkpt><trkpt lat="55.8060350" lon="49.1673260"><time>2021-09-11T08:45:44</time></trkpt><trkpt lat="55.8059880" lon="49.1673300"><time>2021-09-11T08:45:48</time></trkpt><trkpt lat="55.8059740" lon="49.1673300"><time>2021-09-11T08:45:49</time></trkpt><trkpt lat="55.8059610" lon="49.1673320"><time>2021-09-11T08:45:50</time></trkpt><trkpt lat="55.8059420" lon="49.1673320"><time>2021-09-11T08:45:51</time></trkpt><trkpt lat="55.8059220" lon="49.1673310"><time>2021-09-11T08:45:52</time></trkpt><trkpt lat="55.8058650" lon="49.1673630"><time>2021-09-11T08:45:57</time></trkpt><trkpt lat="55.8058520" lon="49.1673460"><time>2021-09-11T08:45:58</time></trkpt><trkpt lat="55.8058400" lon="49.1673320"><time>2021-09-11T08:45:59</time></trkpt><trkpt lat="55.8058250" lon="49.1673220"><time>2021-09-11T08:46:00</time></trkpt><trkpt lat="55.8058140" lon="49.1673140"><time>2021-09-11T08:46:01</time></trkpt><trkpt lat="55.8058020" lon="49.1673130"><time>2021-09-11T08:46:02</time></trkpt><trkpt lat="55.8057300" lon="49.1674140"><time>2021-09-11T08:46:16</time></trkpt><trkpt lat="55.8057250" lon="49.1674310"><time>2021-09-11T08:46:17</time></trkpt><trkpt lat="55.8057130" lon="49.1674450"><time>2021-09-11T08:46:18</time></trkpt><trkpt lat="55.8056940" lon="49.1674550"><time>2021-09-11T08:46:19</time></trkpt><trkpt lat="55.8055410" lon="49.1673810"><time>2021-09-11T08:46:36</time></trkpt><trkpt lat="55.8055310" lon="49.1673730"><time>2021-09-11T08:46:37</time></trkpt><trkpt lat="55.8054930" lon="49.1673340"><time>2021-09-11T08:46:41</time></trkpt><trkpt lat="55.8054820" lon="49.1673270"><time>2021-09-11T08:46:42</time></trkpt><trkpt lat="55.8054730" lon="49.1673210"><time>2021-09-11T08:46:43</time></trkpt><trkpt lat="55.8052490" lon="49.1671570"><time>2021-09-11T08:47:01</time></trkpt><trkpt lat="55.8050130" lon="49.1671400"><time>2021-09-11T08:47:20</time></trkpt><trkpt lat="55.8048930" lon="49.1671740"><time>2021-09-11T08:47:38</time></trkpt><trkpt lat="55.8048210" lon="49.1672050"><time>2021-09-11T08:47:47</time></trkpt><trkpt lat="55.8047920" lon="49.1671820"><time>2021-09-11T08:47:54</time></trkpt><trkpt lat="55.8047380" lon="49.1671660"><time>2021-09-11T08:48:04</time></trkpt><trkpt lat="55.8046990" lon="49.1671890"><time>2021-09-11T08:48:08</time></trkpt><trkpt lat="55.8046920" lon="49.1672010"><time>2021-09-11T08:48:09</time></trkpt><trkpt lat="55.8046350" lon="49.1671880"><time>2021-09-11T08:48:23</time></trkpt><trkpt lat="55.8045870" lon="49.1671730"><time>2021-09-11T08:48:35</time></trkpt><trkpt lat="55.8045690" lon="49.1671880"><time>2021-09-11T08:48:43</time></trkpt><trkpt lat="55.8045220" lon="49.1671250"><time>2021-09-11T08:48:56</time></trkpt><trkpt lat="55.8044950" lon="49.1671820"><time>2021-09-11T08:49:07</time></trkpt><trkpt lat="55.8044480" lon="49.1672590"><time>2021-09-11T08:49:13</time></trkpt><trkpt lat="55.8044390" lon="49.1672640"><time>2021-09-11T08:49:14</time></trkpt><trkpt lat="55.8043940" lon="49.1672710"><time>2021-09-11T08:49:19</time></trkpt><trkpt lat="55.8043690" lon="49.1673000"><time>2021-09-11T08:49:21</time></trkpt><trkpt lat="55.8043580" lon="49.1673140"><time>2021-09-11T08:49:22</time></trkpt><trkpt lat="55.8041960" lon="49.1675370"><time>2021-09-11T08:49:39</time></trkpt><trkpt lat="55.8040520" lon="49.1678420"><time>2021-09-11T08:49:50</time></trkpt><trkpt lat="55.8039280" lon="49.1681790"><time>2021-09-11T08:49:59</time></trkpt><trkpt lat="55.8038140" lon="49.1684890"><time>2021-09-11T08:50:08</time></trkpt><trkpt lat="55.8037110" lon="49.1687340"><time>2021-09-11T08:50:19</time></trkpt><trkpt lat="55.8037130" lon="49.1687690"><time>2021-09-11T08:50:20</time></trkpt><trkpt lat="55.8037170" lon="49.1687990"><time>2021-09-11T08:50:21</time></trkpt><trkpt lat="55.8037250" lon="49.1688280"><time>2021-09-11T08:50:22</time></trkpt><trkpt lat="55.8037320" lon="49.1688650"><time>2021-09-11T08:50:23</time></trkpt><trkpt lat="55.8037260" lon="49.1689010"><time>2021-09-11T08:50:24</time></trkpt><trkpt lat="55.8037100" lon="49.1689330"><time>2021-09-11T08:50:25</time></trkpt><trkpt lat="55.8036900" lon="49.1689520"><time>2021-09-11T08:50:26</time></trkpt><trkpt lat="55.8036730" lon="49.1689540"><time>2021-09-11T08:50:27</time></trkpt><trkpt lat="55.8036590" lon="49.1689530"><time>2021-09-11T08:50:28</time></trkpt><trkpt lat="55.8036360" lon="49.1689390"><time>2021-09-11T08:50:30</time></trkpt><trkpt lat="55.8034870" lon="49.1686980"><time>2021-09-11T08:50:39</time></trkpt><trkpt lat="55.8033170" lon="49.1685010"><time>2021-09-11T08:50:48</time></trkpt><trkpt lat="55.8031500" lon="49.1682900"><time>2021-09-11T08:50:57</time></trkpt><trkpt lat="55.8029970" lon="49.1680810"><time>2021-09-11T08:51:06</time></trkpt><trkpt lat="55.8028800" lon="49.1679140"><time>2021-09-11T08:51:15</time></trkpt><trkpt lat="55.8029280" lon="49.1679260"><time>2021-09-11T08:51:26</time></trkpt><trkpt lat="55.8029970" lon="49.1679960"><time>2021-09-11T08:51:46</time></trkpt><trkpt lat="55.8030630" lon="49.1679720"><time>2021-09-11T08:51:54</time></trkpt><trkpt lat="55.8030730" lon="49.1679740"><time>2021-09-11T08:51:55</time></trkpt><trkpt lat="55.8030800" lon="49.1679790"><time>2021-09-11T08:51:56</time></trkpt><trkpt lat="55.8031060" lon="49.1679450"><time>2021-09-11T08:52:00</time></trkpt><trkpt lat="55.8031140" lon="49.1679400"><time>2021-09-11T08:52:14</time></trkpt><trkpt lat="55.8030840" lon="49.1679030"><time>2021-09-11T08:52:18</time></trkpt><trkpt lat="55.8030680" lon="49.1678940"><time>2021-09-11T08:52:19</time></trkpt><trkpt lat="55.8030480" lon="49.1678850"><time>2021-09-11T08:52:20</time></trkpt><trkpt lat="55.8030320" lon="49.1678790"><time>2021-09-11T08:52:21</time></trkpt><trkpt lat="55.8030200" lon="49.1678720"><time>2021-09-11T08:52:22</time></trkpt><trkpt lat="55.8030100" lon="49.1678630"><time>2021-09-11T08:52:23</time></trkpt><trkpt lat="55.8030010" lon="49.1678570"><time>2021-09-11T08:52:24</time></trkpt><trkpt lat="55.8030240" lon="49.1678670"><time>2021-09-11T08:52:28</time></trkpt><trkpt lat="55.8031790" lon="49.1681460"><time>2021-09-11T08:52:43</time></trkpt><trkpt lat="55.8033660" lon="49.1683390"><time>2021-09-11T08:52:51</time></trkpt><trkpt lat="55.8034490" lon="49.1684140"><time>2021-09-11T08:52:56</time></trkpt><trkpt lat="55.8034560" lon="49.1684060"><time>2021-09-11T08:52:57</time></trkpt><trkpt lat="55.8034290" lon="49.1683510"><time>2021-09-11T08:53:03</time></trkpt><trkpt lat="55.8033760" lon="49.1682140"><time>2021-09-11T08:53:09</time></trkpt><trkpt lat="55.8033700" lon="49.1681920"><time>2021-09-11T08:53:10</time></trkpt><trkpt lat="55.8033590" lon="49.1681690"><time>2021-09-11T08:53:11</time></trkpt><trkpt lat="55.8033510" lon="49.1681430"><time>2021-09-11T08:53:12</time></trkpt><trkpt lat="55.8033430" lon="49.1681220"><time>2021-09-11T08:53:13</time></trkpt><trkpt lat="55.8033360" lon="49.1680980"><time>2021-09-11T08:53:14</time></trkpt><trkpt lat="55.8033320" lon="49.1680710"><time>2021-09-11T08:53:15</time></trkpt><trkpt lat="55.8033250" lon="49.1680410"><time>2021-09-11T08:53:16</time></trkpt><trkpt lat="55.8033180" lon="49.1680140"><time>2021-09-11T08:53:17</time></trkpt><trkpt lat="55.8033040" lon="49.1679910"><time>2021-09-11T08:53:18</time></trkpt><trkpt lat="55.8032980" lon="49.1679510"><time>2021-09-11T08:53:19</time></trkpt><trkpt lat="55.8032910" lon="49.1679080"><time>2021-09-11T08:53:20</time></trkpt><trkpt lat="55.8032860" lon="49.1678720"><time>2021-09-11T08:53:21</time></trkpt><trkpt lat="55.8032810" lon="49.1678460"><time>2021-09-11T08:53:22</time></trkpt><trkpt lat="55.8032760" lon="49.1678250"><time>2021-09-11T08:53:23</time></trkpt><trkpt lat="55.8032280" lon="49.1675010"><time>2021-09-11T08:53:33</time></trkpt><trkpt lat="55.8032070" lon="49.1674650"><time>2021-09-11T08:53:35</time></trkpt><trkpt lat="55.8031920" lon="49.1674490"><time>2021-09-11T08:53:36</time></trkpt><trkpt lat="55.8031780" lon="49.1674290"><time>2021-09-11T08:53:37</time></trkpt><trkpt lat="55.8031640" lon="49.1674030"><time>2021-09-11T08:53:38</time></trkpt><trkpt lat="55.8031500" lon="49.1673790"><time>2021-09-11T08:53:39</time></trkpt><trkpt lat="55.8031400" lon="49.1673540"><time>2021-09-11T08:53:40</time></trkpt><trkpt lat="55.8031310" lon="49.1673320"><time>2021-09-11T08:53:41</time></trkpt><trkpt lat="55.8031140" lon="49.1673210"><time>2021-09-11T08:53:42</time></trkpt><trkpt lat="55.8031020" lon="49.1673110"><time>2021-09-11T08:53:43</time></trkpt><trkpt lat="55.8030960" lon="49.1673090"><time>2021-09-11T08:53:44</time></trkpt><trkpt lat="55.8030580" lon="49.1673080"><time>2021-09-11T08:53:51</time></trkpt><trkpt lat="55.8030430" lon="49.1673130"><time>2021-09-11T08:53:52</time></trkpt><trkpt lat="55.8030290" lon="49.1673190"><time>2021-09-11T08:53:53</time></trkpt><trkpt lat="55.8028130" lon="49.1675410"><time>2021-09-11T08:54:06</time></trkpt><trkpt lat="55.8026900" lon="49.1676470"><time>2021-09-11T08:54:11</time></trkpt><trkpt lat="55.8026750" lon="49.1676780"><time>2021-09-11T08:54:12</time></trkpt><trkpt lat="55.8026630" lon="49.1677070"><time>2021-09-11T08:54:13</time></trkpt><trkpt lat="55.8026480" lon="49.1677310"><time>2021-09-11T08:54:14</time></trkpt><trkpt lat="55.8026470" lon="49.1677700"><time>2021-09-11T08:54:15</time></trkpt><trkpt lat="55.8026330" lon="49.1678090"><time>2021-09-11T08:54:16</time></trkpt><trkpt lat="55.8026200" lon="49.1678340"><time>2021-09-11T08:54:17</time></trkpt><trkpt lat="55.8026140" lon="49.1678770"><time>2021-09-11T08:54:18</time></trkpt><trkpt lat="55.8026090" lon="49.1679050"><time>2021-09-11T08:54:19</time></trkpt><trkpt lat="55.8026080" lon="49.1679620"><time>2021-09-11T08:54:22</time></trkpt><trkpt lat="55.8026140" lon="49.1679930"><time>2021-09-11T08:54:24</time></trkpt><trkpt lat="55.8026180" lon="49.1680060"><time>2021-09-11T08:54:25</time></trkpt><trkpt lat="55.8026340" lon="49.1680170"><time>2021-09-11T08:54:31</time></trkpt><trkpt lat="55.8026400" lon="49.1680040"><time>2021-09-11T08:54:32</time></trkpt><trkpt lat="55.8026480" lon="49.1679970"><time>2021-09-11T08:54:33</time></trkpt><trkpt lat="55.8027530" lon="49.1676740"><time>2021-09-11T08:54:49</time></trkpt><trkpt lat="55.8029140" lon="49.1673760"><time>2021-09-11T08:54:58</time></trkpt><trkpt lat="55.8030010" lon="49.1672130"><time>2021-09-11T08:55:03</time></trkpt><trkpt lat="55.8030180" lon="49.1671820"><time>2021-09-11T08:55:04</time></trkpt><trkpt lat="55.8030380" lon="49.1671550"><time>2021-09-11T08:55:05</time></trkpt><trkpt lat="55.8030500" lon="49.1671300"><time>2021-09-11T08:55:06</time></trkpt><trkpt lat="55.8030690" lon="49.1671000"><time>2021-09-11T08:55:07</time></trkpt><trkpt lat="55.8031850" lon="49.1667730"><time>2021-09-11T08:55:16</time></trkpt><trkpt lat="55.8032460" lon="49.1666100"><time>2021-09-11T08:55:21</time></trkpt><trkpt lat="55.8032400" lon="49.1665770"><time>2021-09-11T08:55:22</time></trkpt><trkpt lat="55.8032320" lon="49.1665550"><time>2021-09-11T08:55:23</time></trkpt><trkpt lat="55.8031790" lon="49.1662330"><time>2021-09-11T08:55:32</time></trkpt><trkpt lat="55.8031960" lon="49.1662030"><time>2021-09-11T08:55:33</time></trkpt><trkpt lat="55.8032090" lon="49.1661680"><time>2021-09-11T08:55:34</time></trkpt><trkpt lat="55.8032210" lon="49.1661320"><time>2021-09-11T08:55:35</time></trkpt><trkpt lat="55.8032310" lon="49.1660980"><time>2021-09-11T08:55:36</time></trkpt><trkpt lat="55.8033010" lon="49.1657460"><time>2021-09-11T08:55:45</time></trkpt><trkpt lat="55.8034420" lon="49.1654410"><time>2021-09-11T08:55:55</time></trkpt><trkpt lat="55.8034590" lon="49.1653270"><time>2021-09-11T08:55:58</time></trkpt><trkpt lat="55.8034490" lon="49.1652860"><time>2021-09-11T08:55:59</time></trkpt><trkpt lat="55.8033900" lon="49.1650720"><time>2021-09-11T08:56:04</time></trkpt><trkpt lat="55.8033170" lon="49.1649480"><time>2021-09-11T08:56:08</time></trkpt><trkpt lat="55.8031300" lon="49.1647590"><time>2021-09-11T08:56:17</time></trkpt><trkpt lat="55.8029590" lon="49.1645390"><time>2021-09-11T08:56:25</time></trkpt><trkpt lat="55.8029310" lon="49.1644650"><time>2021-09-11T08:56:29</time></trkpt><trkpt lat="55.8029270" lon="49.1644490"><time>2021-09-11T08:56:30</time></trkpt><trkpt lat="55.8029170" lon="49.1644280"><time>2021-09-11T08:56:31</time></trkpt><trkpt lat="55.8027690" lon="49.1641940"><time>2021-09-11T08:56:41</time></trkpt><trkpt lat="55.8026670" lon="49.1641190"><time>2021-09-11T08:56:49</time></trkpt><trkpt lat="55.8026500" lon="49.1641130"><time>2021-09-11T08:56:50</time></trkpt><trkpt lat="55.8026210" lon="49.1641130"><time>2021-09-11T08:56:51</time></trkpt><trkpt lat="55.8024070" lon="49.1639660"><time>2021-09-11T08:57:00</time></trkpt><trkpt lat="55.8021900" lon="49.1638790"><time>2021-09-11T08:57:08</time></trkpt><trkpt lat="55.8020020" lon="49.1637170"><time>2021-09-11T08:57:17</time></trkpt><trkpt lat="55.8018160" lon="49.1635520"><time>2021-09-11T08:57:26</time></trkpt><trkpt lat="55.8016270" lon="49.1633670"><time>2021-09-11T08:57:35</time></trkpt><trkpt lat="55.8014180" lon="49.1631120"><time>2021-09-11T08:57:45</time></trkpt><trkpt lat="55.8012370" lon="49.1629220"><time>2021-09-11T08:57:55</time></trkpt><trkpt lat="55.8012100" lon="49.1629210"><time>2021-09-11T08:57:57</time></trkpt><trkpt lat="55.8011330" lon="49.1629150"><time>2021-09-11T08:58:03</time></trkpt><trkpt lat="55.8011160" lon="49.1629260"><time>2021-09-11T08:58:04</time></trkpt><trkpt lat="55.8011020" lon="49.1629310"><time>2021-09-11T08:58:05</time></trkpt><trkpt lat="55.8010680" lon="49.1629490"><time>2021-09-11T08:58:08</time></trkpt><trkpt lat="55.8010570" lon="49.1629490"><time>2021-09-11T08:58:09</time></trkpt><trkpt lat="55.8010420" lon="49.1629550"><time>2021-09-11T08:58:10</time></trkpt><trkpt lat="55.8010270" lon="49.1629660"><time>2021-09-11T08:58:11</time></trkpt><trkpt lat="55.8010120" lon="49.1629730"><time>2021-09-11T08:58:12</time></trkpt><trkpt lat="55.8009960" lon="49.1629720"><time>2021-09-11T08:58:13</time></trkpt><trkpt lat="55.8009830" lon="49.1629690"><time>2021-09-11T08:58:14</time></trkpt><trkpt lat="55.8009680" lon="49.1629650"><time>2021-09-11T08:58:15</time></trkpt><trkpt lat="55.8009510" lon="49.1629620"><time>2021-09-11T08:58:16</time></trkpt><trkpt lat="55.8009370" lon="49.1629540"><time>2021-09-11T08:58:17</time></trkpt><trkpt lat="55.8009260" lon="49.1629490"><time>2021-09-11T08:58:18</time></trkpt><trkpt lat="55.8009070" lon="49.1629430"><time>2021-09-11T08:58:19</time></trkpt><trkpt lat="55.8007070" lon="49.1627720"><time>2021-09-11T08:58:29</time></trkpt><trkpt lat="55.8005100" lon="49.1626590"><time>2021-09-11T08:58:38</time></trkpt><trkpt lat="55.8003160" lon="49.1625260"><time>2021-09-11T08:58:52</time></trkpt><trkpt lat="55.8001900" lon="49.1625900"><time>2021-09-11T08:59:01</time></trkpt><trkpt lat="55.8001740" lon="49.1626050"><time>2021-09-11T08:59:02</time></trkpt><trkpt lat="55.8001560" lon="49.1626200"><time>2021-09-11T08:59:03</time></trkpt><trkpt lat="55.8001410" lon="49.1626310"><time>2021-09-11T08:59:04</time></trkpt><trkpt lat="55.8001250" lon="49.1626370"><time>2021-09-11T08:59:05</time></trkpt><trkpt lat="55.8001140" lon="49.1626400"><time>2021-09-11T08:59:06</time></trkpt><trkpt lat="55.8001300" lon="49.1626490"><time>2021-09-11T08:59:11</time></trkpt><trkpt lat="55.8001320" lon="49.1626600"><time>2021-09-11T08:59:12</time></trkpt><trkpt lat="55.8001790" lon="49.1626000"><time>2021-09-11T08:59:18</time></trkpt><trkpt lat="55.8001890" lon="49.1625740"><time>2021-09-11T08:59:19</time></trkpt><trkpt lat="55.8002100" lon="49.1625490"><time>2021-09-11T08:59:20</time></trkpt><trkpt lat="55.8002860" lon="49.1622960"><time>2021-09-11T08:59:28</time></trkpt><trkpt lat="55.8002630" lon="49.1621870"><time>2021-09-11T08:59:32</time></trkpt><trkpt lat="55.8002470" lon="49.1621640"><time>2021-09-11T08:59:33</time></trkpt><trkpt lat="55.8000600" lon="49.1619810"><time>2021-09-11T08:59:42</time></trkpt><trkpt lat="55.7999240" lon="49.1617000"><time>2021-09-11T08:59:52</time></trkpt><trkpt lat="55.7998720" lon="49.1613340"><time>2021-09-11T09:00:00</time></trkpt><trkpt lat="55.7998180" lon="49.1609680"><time>2021-09-11T09:00:08</time></trkpt><trkpt lat="55.7997880" lon="49.1606110"><time>2021-09-11T09:00:16</time></trkpt><trkpt lat="55.7997390" lon="49.1602750"><time>2021-09-11T09:00:24</time></trkpt><trkpt lat="55.7997930" lon="49.1599230"><time>2021-09-11T09:00:32</time></trkpt><trkpt lat="55.7998820" lon="49.1596030"><time>2021-09-11T09:00:40</time></trkpt><trkpt lat="55.8000180" lon="49.1593350"><time>2021-09-11T09:00:48</time></trkpt><trkpt lat="55.8001450" lon="49.1590620"><time>2021-09-11T09:00:56</time></trkpt><trkpt lat="55.8003190" lon="49.1587930"><time>2021-09-11T09:01:05</time></trkpt><trkpt lat="55.8004880" lon="49.1585530"><time>2021-09-11T09:01:13</time></trkpt><trkpt lat="55.8006460" lon="49.1582930"><time>2021-09-11T09:01:22</time></trkpt><trkpt lat="55.8007820" lon="49.1580170"><time>2021-09-11T09:01:31</time></trkpt><trkpt lat="55.8009300" lon="49.1577500"><time>2021-09-11T09:01:40</time></trkpt><trkpt lat="55.8011050" lon="49.1574900"><time>2021-09-11T09:01:49</time></trkpt><trkpt lat="55.8012450" lon="49.1572060"><time>2021-09-11T09:01:57</time></trkpt><trkpt lat="55.8014120" lon="49.1569340"><time>2021-09-11T09:02:06</time></trkpt><trkpt lat="55.8015730" lon="49.1567060"><time>2021-09-11T09:02:14</time></trkpt><trkpt lat="55.8017330" lon="49.1564840"><time>2021-09-11T09:02:22</time></trkpt><trkpt lat="55.8018900" lon="49.1562200"><time>2021-09-11T09:02:30</time></trkpt><trkpt lat="55.8020680" lon="49.1560140"><time>2021-09-11T09:02:38</time></trkpt><trkpt lat="55.8021400" lon="49.1558460"><time>2021-09-11T09:02:43</time></trkpt><trkpt lat="55.8022130" lon="49.1556690"><time>2021-09-11T09:02:48</time></trkpt><trkpt lat="55.8023080" lon="49.1553340"><time>2021-09-11T09:02:57</time></trkpt><trkpt lat="55.8024420" lon="49.1550640"><time>2021-09-11T09:03:05</time></trkpt><trkpt lat="55.8025950" lon="49.1548320"><time>2021-09-11T09:03:13</time></trkpt><trkpt lat="55.8027320" lon="49.1545650"><time>2021-09-11T09:03:21</time></trkpt><trkpt lat="55.8028880" lon="49.1542960"><time>2021-09-11T09:03:30</time></trkpt><trkpt lat="55.8030390" lon="49.1540670"><time>2021-09-11T09:03:38</time></trkpt><trkpt lat="55.8032270" lon="49.1539160"><time>2021-09-11T09:03:47</time></trkpt><trkpt lat="55.8034210" lon="49.1538290"><time>2021-09-11T09:03:55</time></trkpt><trkpt lat="55.8036130" lon="49.1536890"><time>2021-09-11T09:04:04</time></trkpt><trkpt lat="55.8037730" lon="49.1534250"><time>2021-09-11T09:04:13</time></trkpt><trkpt lat="55.8039420" lon="49.1531800"><time>2021-09-11T09:04:22</time></trkpt><trkpt lat="55.8041220" lon="49.1529600"><time>2021-09-11T09:04:31</time></trkpt><trkpt lat="55.8043170" lon="49.1528090"><time>2021-09-11T09:04:40</time></trkpt><trkpt lat="55.8045160" lon="49.1528180"><time>2021-09-11T09:04:52</time></trkpt><trkpt lat="55.8046970" lon="49.1530190"><time>2021-09-11T09:05:02</time></trkpt><trkpt lat="55.8046970" lon="49.1530600"><time>2021-09-11T09:05:03</time></trkpt><trkpt lat="55.8046930" lon="49.1531000"><time>2021-09-11T09:05:04</time></trkpt><trkpt lat="55.8046960" lon="49.1534750"><time>2021-09-11T09:05:13</time></trkpt><trkpt lat="55.8047280" lon="49.1538430"><time>2021-09-11T09:05:22</time></trkpt><trkpt lat="55.8047670" lon="49.1542280"><time>2021-09-11T09:05:31</time></trkpt><trkpt lat="55.8048150" lon="49.1545670"><time>2021-09-11T09:05:39</time></trkpt><trkpt lat="55.8048980" lon="49.1549030"><time>2021-09-11T09:05:47</time></trkpt><trkpt lat="55.8049750" lon="49.1552470"><time>2021-09-11T09:05:55</time></trkpt><trkpt lat="55.8050310" lon="49.1555770"><time>2021-09-11T09:06:03</time></trkpt><trkpt lat="55.8050630" lon="49.1559370"><time>2021-09-11T09:06:12</time></trkpt><trkpt lat="55.8051110" lon="49.1562720"><time>2021-09-11T09:06:20</time></trkpt><trkpt lat="55.8051650" lon="49.1566070"><time>2021-09-11T09:06:28</time></trkpt><trkpt lat="55.8052310" lon="49.1569210"><time>2021-09-11T09:06:36</time></trkpt><trkpt lat="55.8052310" lon="49.1569770"><time>2021-09-11T09:06:40</time></trkpt><trkpt lat="55.8052240" lon="49.1569550"><time>2021-09-11T09:06:41</time></trkpt><trkpt lat="55.8052170" lon="49.1569320"><time>2021-09-11T09:06:42</time></trkpt><trkpt lat="55.8052090" lon="49.1569080"><time>2021-09-11T09:06:43</time></trkpt><trkpt lat="55.8052030" lon="49.1568830"><time>2021-09-11T09:06:44</time></trkpt><trkpt lat="55.8052010" lon="49.1568580"><time>2021-09-11T09:06:45</time></trkpt><trkpt lat="55.8052010" lon="49.1568320"><time>2021-09-11T09:06:46</time></trkpt><trkpt lat="55.8051350" lon="49.1564770"><time>2021-09-11T09:06:56</time></trkpt><trkpt lat="55.8050790" lon="49.1561270"><time>2021-09-11T09:07:04</time></trkpt><trkpt lat="55.8050380" lon="49.1557530"><time>2021-09-11T09:07:13</time></trkpt><trkpt lat="55.8049900" lon="49.1553940"><time>2021-09-11T09:07:21</time></trkpt><trkpt lat="55.8049490" lon="49.1550340"><time>2021-09-11T09:07:29</time></trkpt><trkpt lat="55.8048960" lon="49.1546870"><time>2021-09-11T09:07:37</time></trkpt><trkpt lat="55.8048540" lon="49.1543400"><time>2021-09-11T09:07:45</time></trkpt><trkpt lat="55.8048040" lon="49.1540040"><time>2021-09-11T09:07:53</time></trkpt><trkpt lat="55.8047340" lon="49.1536960"><time>2021-09-11T09:08:01</time></trkpt><trkpt lat="55.8046950" lon="49.1533500"><time>2021-09-11T09:08:09</time></trkpt><trkpt lat="55.8047010" lon="49.1529990"><time>2021-09-11T09:08:17</time></trkpt><trkpt lat="55.8046970" lon="49.1529460"><time>2021-09-11T09:08:19</time></trkpt><trkpt lat="55.8046940" lon="49.1529340"><time>2021-09-11T09:08:20</time></trkpt><trkpt lat="55.8046860" lon="49.1529220"><time>2021-09-11T09:08:21</time></trkpt><trkpt lat="55.8046750" lon="49.1529140"><time>2021-09-11T09:08:22</time></trkpt><trkpt lat="55.8046650" lon="49.1529050"><time>2021-09-11T09:08:23</time></trkpt><trkpt lat="55.8046140" lon="49.1528440"><time>2021-09-11T09:08:29</time></trkpt><trkpt lat="55.8046060" lon="49.1528340"><time>2021-09-11T09:08:30</time></trkpt><trkpt lat="55.8046040" lon="49.1528150"><time>2021-09-11T09:08:31</time></trkpt><trkpt lat="55.8046060" lon="49.1528040"><time>2021-09-11T09:08:32</time></trkpt><trkpt lat="55.8046150" lon="49.1527940"><time>2021-09-11T09:08:33</time></trkpt><trkpt lat="55.8046200" lon="49.1527800"><time>2021-09-11T09:08:34</time></trkpt><trkpt lat="55.8046300" lon="49.1527740"><time>2021-09-11T09:08:35</time></trkpt><trkpt lat="55.8046370" lon="49.1527420"><time>2021-09-11T09:08:36</time></trkpt><trkpt lat="55.8046470" lon="49.1527110"><time>2021-09-11T09:08:37</time></trkpt><trkpt lat="55.8047210" lon="49.1523510"><time>2021-09-11T09:08:47</time></trkpt><trkpt lat="55.8048370" lon="49.1520250"><time>2021-09-11T09:08:56</time></trkpt><trkpt lat="55.8048040" lon="49.1516800"><time>2021-09-11T09:09:06</time></trkpt><trkpt lat="55.8046980" lon="49.1515220"><time>2021-09-11T09:09:16</time></trkpt><trkpt lat="55.8046850" lon="49.1515010"><time>2021-09-11T09:09:18</time></trkpt><trkpt lat="55.8046760" lon="49.1514860"><time>2021-09-11T09:09:19</time></trkpt><trkpt lat="55.8045240" lon="49.1511490"><time>2021-09-11T09:09:32</time></trkpt><trkpt lat="55.8045140" lon="49.1510700"><time>2021-09-11T09:09:34</time></trkpt><trkpt lat="55.8045130" lon="49.1510290"><time>2021-09-11T09:09:35</time></trkpt><trkpt lat="55.8045090" lon="49.1509900"><time>2021-09-11T09:09:36</time></trkpt><trkpt lat="55.8044980" lon="49.1509560"><time>2021-09-11T09:09:37</time></trkpt><trkpt lat="55.8044840" lon="49.1509130"><time>2021-09-11T09:09:38</time></trkpt><trkpt lat="55.8044760" lon="49.1508670"><time>2021-09-11T09:09:39</time></trkpt><trkpt lat="55.8044710" lon="49.1508220"><time>2021-09-11T09:09:40</time></trkpt><trkpt lat="55.8044120" lon="49.1505020"><time>2021-09-11T09:09:47</time></trkpt><trkpt lat="55.8044100" lon="49.1504680"><time>2021-09-11T09:09:48</time></trkpt><trkpt lat="55.8044020" lon="49.1504320"><time>2021-09-11T09:09:49</time></trkpt><trkpt lat="55.8043100" lon="49.1500970"><time>2021-09-11T09:09:58</time></trkpt><trkpt lat="55.8042380" lon="49.1497830"><time>2021-09-11T09:10:07</time></trkpt><trkpt lat="55.8042510" lon="49.1497550"><time>2021-09-11T09:10:08</time></trkpt><trkpt lat="55.8043130" lon="49.1495790"><time>2021-09-11T09:10:14</time></trkpt><trkpt lat="55.8043200" lon="49.1495530"><time>2021-09-11T09:10:15</time></trkpt><trkpt lat="55.8043290" lon="49.1495260"><time>2021-09-11T09:10:16</time></trkpt><trkpt lat="55.8043330" lon="49.1494960"><time>2021-09-11T09:10:17</time></trkpt><trkpt lat="55.8043380" lon="49.1494580"><time>2021-09-11T09:10:18</time></trkpt><trkpt lat="55.8043430" lon="49.1494220"><time>2021-09-11T09:10:19</time></trkpt><trkpt lat="55.8043510" lon="49.1493880"><time>2021-09-11T09:10:20</time></trkpt><trkpt lat="55.8043570" lon="49.1493410"><time>2021-09-11T09:10:21</time></trkpt><trkpt lat="55.8043680" lon="49.1493040"><time>2021-09-11T09:10:22</time></trkpt><trkpt lat="55.8043750" lon="49.1492730"><time>2021-09-11T09:10:23</time></trkpt><trkpt lat="55.8044200" lon="49.1489400"><time>2021-09-11T09:10:32</time></trkpt><trkpt lat="55.8045280" lon="49.1485140"><time>2021-09-11T09:10:41</time></trkpt><trkpt lat="55.8045770" lon="49.1480660"><time>2021-09-11T09:10:50</time></trkpt><trkpt lat="55.8046400" lon="49.1477100"><time>2021-09-11T09:10:58</time></trkpt><trkpt lat="55.8047080" lon="49.1473690"><time>2021-09-11T09:11:07</time></trkpt><trkpt lat="55.8046960" lon="49.1469880"><time>2021-09-11T09:11:15</time></trkpt><trkpt lat="55.8046320" lon="49.1466620"><time>2021-09-11T09:11:23</time></trkpt><trkpt lat="55.8044890" lon="49.1463800"><time>2021-09-11T09:11:31</time></trkpt><trkpt lat="55.8043550" lon="49.1460940"><time>2021-09-11T09:11:39</time></trkpt><trkpt lat="55.8042360" lon="49.1458450"><time>2021-09-11T09:11:47</time></trkpt><trkpt lat="55.8041490" lon="49.1455420"><time>2021-09-11T09:11:55</time></trkpt><trkpt lat="55.8040600" lon="49.1451800"><time>2021-09-11T09:12:04</time></trkpt><trkpt lat="55.8039220" lon="49.1448820"><time>2021-09-11T09:12:12</time></trkpt><trkpt lat="55.8039620" lon="49.1444570"><time>2021-09-11T09:12:20</time></trkpt><trkpt lat="55.8040270" lon="49.1442190"><time>2021-09-11T09:12:25</time></trkpt><trkpt lat="55.8040260" lon="49.1441770"><time>2021-09-11T09:12:26</time></trkpt><trkpt lat="55.8040200" lon="49.1441450"><time>2021-09-11T09:12:27</time></trkpt><trkpt lat="55.8040970" lon="49.1437930"><time>2021-09-11T09:12:35</time></trkpt><trkpt lat="55.8042010" lon="49.1434600"><time>2021-09-11T09:12:44</time></trkpt><trkpt lat="55.8041990" lon="49.1434510"><time>2021-09-11T09:12:45</time></trkpt><trkpt lat="55.8041850" lon="49.1434210"><time>2021-09-11T09:12:46</time></trkpt><trkpt lat="55.8040400" lon="49.1432040"><time>2021-09-11T09:12:55</time></trkpt><trkpt lat="55.8038630" lon="49.1430130"><time>2021-09-11T09:13:04</time></trkpt><trkpt lat="55.8036860" lon="49.1428260"><time>2021-09-11T09:13:12</time></trkpt><trkpt lat="55.8035260" lon="49.1426560"><time>2021-09-11T09:13:20</time></trkpt><trkpt lat="55.8034090" lon="49.1425030"><time>2021-09-11T09:13:28</time></trkpt><trkpt lat="55.8034020" lon="49.1424820"><time>2021-09-11T09:13:29</time></trkpt><trkpt lat="55.8033710" lon="49.1424180"><time>2021-09-11T09:13:33</time></trkpt><trkpt lat="55.8033190" lon="49.1423440"><time>2021-09-11T09:13:38</time></trkpt><trkpt lat="55.8031250" lon="49.1421520"><time>2021-09-11T09:13:57</time></trkpt><trkpt lat="55.8029690" lon="49.1419120"><time>2021-09-11T09:14:11</time></trkpt><trkpt lat="55.8028390" lon="49.1416160"><time>2021-09-11T09:14:22</time></trkpt><trkpt lat="55.8027110" lon="49.1413200"><time>2021-09-11T09:14:30</time></trkpt><trkpt lat="55.8026140" lon="49.1409960"><time>2021-09-11T09:14:38</time></trkpt><trkpt lat="55.8025280" lon="49.1406750"><time>2021-09-11T09:14:46</time></trkpt><trkpt lat="55.8024500" lon="49.1403530"><time>2021-09-11T09:14:54</time></trkpt><trkpt lat="55.8023820" lon="49.1399990"><time>2021-09-11T09:15:02</time></trkpt><trkpt lat="55.8023160" lon="49.1396510"><time>2021-09-11T09:15:10</time></trkpt><trkpt lat="55.8022710" lon="49.1394850"><time>2021-09-11T09:15:15</time></trkpt><trkpt lat="55.8021020" lon="49.1393810"><time>2021-09-11T09:15:25</time></trkpt><trkpt lat="55.8019070" lon="49.1395120"><time>2021-09-11T09:15:37</time></trkpt><trkpt lat="55.8016770" lon="49.1396190"><time>2021-09-11T09:15:50</time></trkpt><trkpt lat="55.8015410" lon="49.1397100"><time>2021-09-11T09:15:56</time></trkpt><trkpt lat="55.8013950" lon="49.1398060"><time>2021-09-11T09:16:01</time></trkpt><trkpt lat="55.8011910" lon="49.1401010"><time>2021-09-11T09:16:13</time></trkpt><trkpt lat="55.8011170" lon="49.1402540"><time>2021-09-11T09:16:27</time></trkpt><trkpt lat="55.8010980" lon="49.1403570"><time>2021-09-11T09:16:31</time></trkpt><trkpt lat="55.8011670" lon="49.1407580"><time>2021-09-11T09:16:44</time></trkpt><trkpt lat="55.8012540" lon="49.1411050"><time>2021-09-11T09:16:53</time></trkpt><trkpt lat="55.8013180" lon="49.1415050"><time>2021-09-11T09:17:02</time></trkpt><trkpt lat="55.8014690" lon="49.1418050"><time>2021-09-11T09:17:10</time></trkpt><trkpt lat="55.8015990" lon="49.1420880"><time>2021-09-11T09:17:18</time></trkpt><trkpt lat="55.8016980" lon="49.1423990"><time>2021-09-11T09:17:26</time></trkpt><trkpt lat="55.8018050" lon="49.1427000"><time>2021-09-11T09:17:34</time></trkpt><trkpt lat="55.8019090" lon="49.1430070"><time>2021-09-11T09:17:42</time></trkpt><trkpt lat="55.8020050" lon="49.1433090"><time>2021-09-11T09:17:50</time></trkpt><trkpt lat="55.8021110" lon="49.1436130"><time>2021-09-11T09:17:58</time></trkpt><trkpt lat="55.8022100" lon="49.1439200"><time>2021-09-11T09:18:06</time></trkpt><trkpt lat="55.8022940" lon="49.1442350"><time>2021-09-11T09:18:14</time></trkpt><trkpt lat="55.8023900" lon="49.1445490"><time>2021-09-11T09:18:22</time></trkpt><trkpt lat="55.8024990" lon="49.1448420"><time>2021-09-11T09:18:30</time></trkpt><trkpt lat="55.8025870" lon="49.1451510"><time>2021-09-11T09:18:38</time></trkpt><trkpt lat="55.8026790" lon="49.1454430"><time>2021-09-11T09:18:46</time></trkpt><trkpt lat="55.8027080" lon="49.1455810"><time>2021-09-11T09:18:50</time></trkpt><trkpt lat="55.8027040" lon="49.1456160"><time>2021-09-11T09:18:51</time></trkpt><trkpt lat="55.8026910" lon="49.1456510"><time>2021-09-11T09:18:52</time></trkpt><trkpt lat="55.8025440" lon="49.1458550"><time>2021-09-11T09:18:59</time></trkpt><trkpt lat="55.8023560" lon="49.1459850"><time>2021-09-11T09:19:08</time></trkpt><trkpt lat="55.8021700" lon="49.1461300"><time>2021-09-11T09:19:17</time></trkpt><trkpt lat="55.8019690" lon="49.1462720"><time>2021-09-11T09:19:26</time></trkpt><trkpt lat="55.8018430" lon="49.1463530"><time>2021-09-11T09:19:35</time></trkpt><trkpt lat="55.8016220" lon="49.1465240"><time>2021-09-11T09:19:49</time></trkpt><trkpt lat="55.8014570" lon="49.1466720"><time>2021-09-11T09:20:02</time></trkpt><trkpt lat="55.8014180" lon="49.1467170"><time>2021-09-11T09:20:06</time></trkpt><trkpt lat="55.8013940" lon="49.1467570"><time>2021-09-11T09:20:08</time></trkpt><trkpt lat="55.8013770" lon="49.1467760"><time>2021-09-11T09:20:09</time></trkpt><trkpt lat="55.8013630" lon="49.1467920"><time>2021-09-11T09:20:10</time></trkpt><trkpt lat="55.8013510" lon="49.1468110"><time>2021-09-11T09:20:11</time></trkpt><trkpt lat="55.8013390" lon="49.1468290"><time>2021-09-11T09:20:12</time></trkpt><trkpt lat="55.8012670" lon="49.1469200"><time>2021-09-11T09:20:18</time></trkpt><trkpt lat="55.8012580" lon="49.1469290"><time>2021-09-11T09:20:19</time></trkpt><trkpt lat="55.8012480" lon="49.1469360"><time>2021-09-11T09:20:20</time></trkpt><trkpt lat="55.8012410" lon="49.1469430"><time>2021-09-11T09:20:21</time></trkpt><trkpt lat="55.8012270" lon="49.1469590"><time>2021-09-11T09:20:22</time></trkpt><trkpt lat="55.8012140" lon="49.1469670"><time>2021-09-11T09:20:23</time></trkpt><trkpt lat="55.8012010" lon="49.1469740"><time>2021-09-11T09:20:24</time></trkpt><trkpt lat="55.8011870" lon="49.1469870"><time>2021-09-11T09:20:25</time></trkpt><trkpt lat="55.8011690" lon="49.1470080"><time>2021-09-11T09:20:27</time></trkpt><trkpt lat="55.8011550" lon="49.1470170"><time>2021-09-11T09:20:28</time></trkpt><trkpt lat="55.8011420" lon="49.1470330"><time>2021-09-11T09:20:29</time></trkpt><trkpt lat="55.8009760" lon="49.1470760"><time>2021-09-11T09:20:41</time></trkpt><trkpt lat="55.8007180" lon="49.1471070"><time>2021-09-11T09:21:02</time></trkpt><trkpt lat="55.8006770" lon="49.1471120"><time>2021-09-11T09:21:05</time></trkpt><trkpt lat="55.8006650" lon="49.1471090"><time>2021-09-11T09:21:06</time></trkpt><trkpt lat="55.8004180" lon="49.1471390"><time>2021-09-11T09:21:24</time></trkpt><trkpt lat="55.8003800" lon="49.1471400"><time>2021-09-11T09:21:26</time></trkpt><trkpt lat="55.8001200" lon="49.1471850"><time>2021-09-11T09:21:42</time></trkpt><trkpt lat="55.7999820" lon="49.1472980"><time>2021-09-11T09:21:58</time></trkpt><trkpt lat="55.7999120" lon="49.1473370"><time>2021-09-11T09:22:06</time></trkpt><trkpt lat="55.7998910" lon="49.1473260"><time>2021-09-11T09:22:07</time></trkpt><trkpt lat="55.7998810" lon="49.1473260"><time>2021-09-11T09:22:08</time></trkpt><trkpt lat="55.7998670" lon="49.1473250"><time>2021-09-11T09:22:09</time></trkpt><trkpt lat="55.7998560" lon="49.1473280"><time>2021-09-11T09:22:10</time></trkpt><trkpt lat="55.7998460" lon="49.1473250"><time>2021-09-11T09:22:11</time></trkpt><trkpt lat="55.7998400" lon="49.1473170"><time>2021-09-11T09:22:12</time></trkpt><trkpt lat="55.7997810" lon="49.1473180"><time>2021-09-11T09:22:18</time></trkpt><trkpt lat="55.7997630" lon="49.1473240"><time>2021-09-11T09:22:19</time></trkpt><trkpt lat="55.7997500" lon="49.1473300"><time>2021-09-11T09:22:20</time></trkpt><trkpt lat="55.7997110" lon="49.1473350"><time>2021-09-11T09:22:25</time></trkpt><trkpt lat="55.7994450" lon="49.1474010"><time>2021-09-11T09:22:46</time></trkpt><trkpt lat="55.7992190" lon="49.1474090"><time>2021-09-11T09:23:00</time></trkpt><trkpt lat="55.7989670" lon="49.1472930"><time>2021-09-11T09:23:19</time></trkpt><trkpt lat="55.7989540" lon="49.1472530"><time>2021-09-11T09:23:21</time></trkpt><trkpt lat="55.7989490" lon="49.1472340"><time>2021-09-11T09:23:22</time></trkpt><trkpt lat="55.7989400" lon="49.1472140"><time>2021-09-11T09:23:23</time></trkpt><trkpt lat="55.7989260" lon="49.1471940"><time>2021-09-11T09:23:24</time></trkpt><trkpt lat="55.7989160" lon="49.1471740"><time>2021-09-11T09:23:25</time></trkpt><trkpt lat="55.7988690" lon="49.1470740"><time>2021-09-11T09:23:30</time></trkpt><trkpt lat="55.7988690" lon="49.1470490"><time>2021-09-11T09:23:31</time></trkpt><trkpt lat="55.7988730" lon="49.1470220"><time>2021-09-11T09:23:32</time></trkpt><trkpt lat="55.7988660" lon="49.1469180"><time>2021-09-11T09:23:37</time></trkpt><trkpt lat="55.7988300" lon="49.1468820"><time>2021-09-11T09:23:40</time></trkpt><trkpt lat="55.7988160" lon="49.1468750"><time>2021-09-11T09:23:41</time></trkpt><trkpt lat="55.7987430" lon="49.1468330"><time>2021-09-11T09:23:46</time></trkpt><trkpt lat="55.7987320" lon="49.1468310"><time>2021-09-11T09:23:47</time></trkpt><trkpt lat="55.7985970" lon="49.1467270"><time>2021-09-11T09:24:02</time></trkpt><trkpt lat="55.7985850" lon="49.1467420"><time>2021-09-11T09:24:03</time></trkpt><trkpt lat="55.7985770" lon="49.1467610"><time>2021-09-11T09:24:04</time></trkpt><trkpt lat="55.7985730" lon="49.1467860"><time>2021-09-11T09:24:05</time></trkpt><trkpt lat="55.7985700" lon="49.1468070"><time>2021-09-11T09:24:06</time></trkpt><trkpt lat="55.7985680" lon="49.1468310"><time>2021-09-11T09:24:07</time></trkpt><trkpt lat="55.7985750" lon="49.1469290"><time>2021-09-11T09:24:12</time></trkpt><trkpt lat="55.7985150" lon="49.1471380"><time>2021-09-11T09:24:24</time></trkpt><trkpt lat="55.7984960" lon="49.1471470"><time>2021-09-11T09:24:25</time></trkpt><trkpt lat="55.7984730" lon="49.1471610"><time>2021-09-11T09:24:26</time></trkpt><trkpt lat="55.7984540" lon="49.1471660"><time>2021-09-11T09:24:27</time></trkpt><trkpt lat="55.7984250" lon="49.1471640"><time>2021-09-11T09:24:28</time></trkpt><trkpt lat="55.7984030" lon="49.1471680"><time>2021-09-11T09:24:29</time></trkpt><trkpt lat="55.7982260" lon="49.1472120"><time>2021-09-11T09:24:40</time></trkpt><trkpt lat="55.7982130" lon="49.1472200"><time>2021-09-11T09:24:41</time></trkpt><trkpt lat="55.7982000" lon="49.1472250"><time>2021-09-11T09:24:42</time></trkpt><trkpt lat="55.7979670" lon="49.1473640"><time>2021-09-11T09:25:06</time></trkpt><trkpt lat="55.7979490" lon="49.1473730"><time>2021-09-11T09:25:07</time></trkpt><trkpt lat="55.7979260" lon="49.1473870"><time>2021-09-11T09:25:08</time></trkpt><trkpt lat="55.7979060" lon="49.1473960"><time>2021-09-11T09:25:09</time></trkpt><trkpt lat="55.7978830" lon="49.1474080"><time>2021-09-11T09:25:10</time></trkpt><trkpt lat="55.7975670" lon="49.1475920"><time>2021-09-11T09:25:23</time></trkpt><trkpt lat="55.7973290" lon="49.1478410"><time>2021-09-11T09:25:35</time></trkpt><trkpt lat="55.7972660" lon="49.1479180"><time>2021-09-11T09:25:40</time></trkpt><trkpt lat="55.7972540" lon="49.1479580"><time>2021-09-11T09:25:41</time></trkpt><trkpt lat="55.7972360" lon="49.1480010"><time>2021-09-11T09:25:42</time></trkpt><trkpt lat="55.7972210" lon="49.1480360"><time>2021-09-11T09:25:43</time></trkpt><trkpt lat="55.7971980" lon="49.1480800"><time>2021-09-11T09:25:44</time></trkpt><trkpt lat="55.7971850" lon="49.1481310"><time>2021-09-11T09:25:45</time></trkpt><trkpt lat="55.7971710" lon="49.1481790"><time>2021-09-11T09:25:46</time></trkpt><trkpt lat="55.7971430" lon="49.1482430"><time>2021-09-11T09:25:47</time></trkpt><trkpt lat="55.7970040" lon="49.1486210"><time>2021-09-11T09:25:56</time></trkpt><trkpt lat="55.7969360" lon="49.1490200"><time>2021-09-11T09:26:05</time></trkpt><trkpt lat="55.7970610" lon="49.1493250"><time>2021-09-11T09:26:15</time></trkpt><trkpt lat="55.7972510" lon="49.1494750"><time>2021-09-11T09:26:24</time></trkpt><trkpt lat="55.7972930" lon="49.1495560"><time>2021-09-11T09:26:27</time></trkpt><trkpt lat="55.7972980" lon="49.1495920"><time>2021-09-11T09:26:28</time></trkpt><trkpt lat="55.7972990" lon="49.1496320"><time>2021-09-11T09:26:29</time></trkpt><trkpt lat="55.7972940" lon="49.1496700"><time>2021-09-11T09:26:30</time></trkpt><trkpt lat="55.7972850" lon="49.1497120"><time>2021-09-11T09:26:31</time></trkpt><trkpt lat="55.7972870" lon="49.1497520"><time>2021-09-11T09:26:32</time></trkpt><trkpt lat="55.7972850" lon="49.1497900"><time>2021-09-11T09:26:33</time></trkpt><trkpt lat="55.7972830" lon="49.1498240"><time>2021-09-11T09:26:34</time></trkpt><trkpt lat="55.7972850" lon="49.1498650"><time>2021-09-11T09:26:35</time></trkpt><trkpt lat="55.7972910" lon="49.1499040"><time>2021-09-11T09:26:36</time></trkpt><trkpt lat="55.7972950" lon="49.1499400"><time>2021-09-11T09:26:37</time></trkpt><trkpt lat="55.7972350" lon="49.1502920"><time>2021-09-11T09:26:48</time></trkpt><trkpt lat="55.7971440" lon="49.1503980"><time>2021-09-11T09:26:54</time></trkpt><trkpt lat="55.7970620" lon="49.1507620"><time>2021-09-11T09:27:04</time></trkpt><trkpt lat="55.7970330" lon="49.1509430"><time>2021-09-11T09:27:10</time></trkpt><trkpt lat="55.7969410" lon="49.1512920"><time>2021-09-11T09:27:20</time></trkpt><trkpt lat="55.7969180" lon="49.1513350"><time>2021-09-11T09:27:22</time></trkpt><trkpt lat="55.7969180" lon="49.1513530"><time>2021-09-11T09:27:23</time></trkpt><trkpt lat="55.7969080" lon="49.1513600"><time>2021-09-11T09:27:24</time></trkpt><trkpt lat="55.7968970" lon="49.1513730"><time>2021-09-11T09:27:25</time></trkpt><trkpt lat="55.7968880" lon="49.1513860"><time>2021-09-11T09:27:26</time></trkpt><trkpt lat="55.7968750" lon="49.1514040"><time>2021-09-11T09:27:27</time></trkpt><trkpt lat="55.7968570" lon="49.1514290"><time>2021-09-11T09:27:28</time></trkpt><trkpt lat="55.7968390" lon="49.1514480"><time>2021-09-11T09:27:29</time></trkpt><trkpt lat="55.7968180" lon="49.1514660"><time>2021-09-11T09:27:30</time></trkpt><trkpt lat="55.7965750" lon="49.1516430"><time>2021-09-11T09:27:42</time></trkpt><trkpt lat="55.7963320" lon="49.1518030"><time>2021-09-11T09:27:54</time></trkpt><trkpt lat="55.7961050" lon="49.1520650"><time>2021-09-11T09:28:07</time></trkpt><trkpt lat="55.7958610" lon="49.1522840"><time>2021-09-11T09:28:23</time></trkpt><trkpt lat="55.7956690" lon="49.1524240"><time>2021-09-11T09:28:33</time></trkpt><trkpt lat="55.7956540" lon="49.1524290"><time>2021-09-11T09:28:34</time></trkpt><trkpt lat="55.7956320" lon="49.1524550"><time>2021-09-11T09:28:36</time></trkpt><trkpt lat="55.7956200" lon="49.1524690"><time>2021-09-11T09:28:37</time></trkpt><trkpt lat="55.7956020" lon="49.1524740"><time>2021-09-11T09:28:38</time></trkpt><trkpt lat="55.7955810" lon="49.1524780"><time>2021-09-11T09:28:39</time></trkpt><trkpt lat="55.7955620" lon="49.1524820"><time>2021-09-11T09:28:40</time></trkpt><trkpt lat="55.7952740" lon="49.1524710"><time>2021-09-11T09:28:55</time></trkpt><trkpt lat="55.7951160" lon="49.1524500"><time>2021-09-11T09:29:04</time></trkpt><trkpt lat="55.7951010" lon="49.1524440"><time>2021-09-11T09:29:05</time></trkpt><trkpt lat="55.7950860" lon="49.1524410"><time>2021-09-11T09:29:06</time></trkpt><trkpt lat="55.7950690" lon="49.1524350"><time>2021-09-11T09:29:07</time></trkpt><trkpt lat="55.7950490" lon="49.1524250"><time>2021-09-11T09:29:08</time></trkpt><trkpt lat="55.7950330" lon="49.1524150"><time>2021-09-11T09:29:09</time></trkpt><trkpt lat="55.7947840" lon="49.1523650"><time>2021-09-11T09:29:25</time></trkpt><trkpt lat="55.7945540" lon="49.1522600"><time>2021-09-11T09:29:41</time></trkpt><trkpt lat="55.7943090" lon="49.1521600"><time>2021-09-11T09:29:58</time></trkpt><trkpt lat="55.7940640" lon="49.1521470"><time>2021-09-11T09:30:14</time></trkpt><trkpt lat="55.7938100" lon="49.1520730"><time>2021-09-11T09:30:30</time></trkpt><trkpt lat="55.7935750" lon="49.1521240"><time>2021-09-11T09:30:40</time></trkpt><trkpt lat="55.7935200" lon="49.1521750"><time>2021-09-11T09:30:43</time></trkpt><trkpt lat="55.7934920" lon="49.1521700"><time>2021-09-11T09:30:44</time></trkpt><trkpt lat="55.7934640" lon="49.1521590"><time>2021-09-11T09:30:45</time></trkpt><trkpt lat="55.7932680" lon="49.1520530"><time>2021-09-11T09:30:52</time></trkpt><trkpt lat="55.7930790" lon="49.1518960"><time>2021-09-11T09:31:00</time></trkpt><trkpt lat="55.7929970" lon="49.1518620"><time>2021-09-11T09:31:07</time></trkpt><trkpt lat="55.7929950" lon="49.1518780"><time>2021-09-11T09:31:08</time></trkpt><trkpt lat="55.7929960" lon="49.1518970"><time>2021-09-11T09:31:09</time></trkpt><trkpt lat="55.7929860" lon="49.1522360"><time>2021-09-11T09:31:28</time></trkpt><trkpt lat="55.7928350" lon="49.1520530"><time>2021-09-11T09:31:37</time></trkpt><trkpt lat="55.7928080" lon="49.1520030"><time>2021-09-11T09:31:38</time></trkpt><trkpt lat="55.7927680" lon="49.1519660"><time>2021-09-11T09:31:39</time></trkpt><trkpt lat="55.7927400" lon="49.1519370"><time>2021-09-11T09:31:40</time></trkpt><trkpt lat="55.7927240" lon="49.1519120"><time>2021-09-11T09:31:41</time></trkpt><trkpt lat="55.7927090" lon="49.1518870"><time>2021-09-11T09:31:42</time></trkpt><trkpt lat="55.7926800" lon="49.1518670"><time>2021-09-11T09:31:43</time></trkpt><trkpt lat="55.7926620" lon="49.1518430"><time>2021-09-11T09:31:44</time></trkpt><trkpt lat="55.7926420" lon="49.1518230"><time>2021-09-11T09:31:45</time></trkpt><trkpt lat="55.7926210" lon="49.1517110"><time>2021-09-11T09:31:54</time></trkpt><trkpt lat="55.7926020" lon="49.1516800"><time>2021-09-11T09:31:55</time></trkpt><trkpt lat="55.7926150" lon="49.1512680"><time>2021-09-11T09:32:06</time></trkpt><trkpt lat="55.7926290" lon="49.1510910"><time>2021-09-11T09:32:10</time></trkpt><trkpt lat="55.7926710" lon="49.1507780"><time>2021-09-11T09:32:18</time></trkpt><trkpt lat="55.7927430" lon="49.1503970"><time>2021-09-11T09:32:28</time></trkpt><trkpt lat="55.7927700" lon="49.1499730"><time>2021-09-11T09:32:39</time></trkpt><trkpt lat="55.7927760" lon="49.1496530"><time>2021-09-11T09:32:46</time></trkpt><trkpt lat="55.7927880" lon="49.1494770"><time>2021-09-11T09:32:50</time></trkpt><trkpt lat="55.7927870" lon="49.1494340"><time>2021-09-11T09:32:51</time></trkpt><trkpt lat="55.7927840" lon="49.1493910"><time>2021-09-11T09:32:52</time></trkpt><trkpt lat="55.7927760" lon="49.1493470"><time>2021-09-11T09:32:53</time></trkpt><trkpt lat="55.7927700" lon="49.1493060"><time>2021-09-11T09:32:54</time></trkpt><trkpt lat="55.7927650" lon="49.1492590"><time>2021-09-11T09:32:55</time></trkpt><trkpt lat="55.7927380" lon="49.1489080"><time>2021-09-11T09:33:04</time></trkpt><trkpt lat="55.7928690" lon="49.1486020"><time>2021-09-11T09:33:14</time></trkpt><trkpt lat="55.7930530" lon="49.1484340"><time>2021-09-11T09:33:23</time></trkpt><trkpt lat="55.7932260" lon="49.1481900"><time>2021-09-11T09:33:32</time></trkpt><trkpt lat="55.7933580" lon="49.1478590"><time>2021-09-11T09:33:42</time></trkpt><trkpt lat="55.7934350" lon="49.1474990"><time>2021-09-11T09:33:52</time></trkpt><trkpt lat="55.7934910" lon="49.1471090"><time>2021-09-11T09:34:02</time></trkpt><trkpt lat="55.7935720" lon="49.1467010"><time>2021-09-11T09:34:12</time></trkpt><trkpt lat="55.7936240" lon="49.1462770"><time>2021-09-11T09:34:22</time></trkpt><trkpt lat="55.7936820" lon="49.1458760"><time>2021-09-11T09:34:31</time></trkpt><trkpt lat="55.7937450" lon="49.1454880"><time>2021-09-11T09:34:40</time></trkpt><trkpt lat="55.7938030" lon="49.1450970"><time>2021-09-11T09:34:49</time></trkpt><trkpt lat="55.7938540" lon="49.1447010"><time>2021-09-11T09:34:58</time></trkpt><trkpt lat="55.7939330" lon="49.1443460"><time>2021-09-11T09:35:07</time></trkpt><trkpt lat="55.7940100" lon="49.1439950"><time>2021-09-11T09:35:16</time></trkpt><trkpt lat="55.7940240" lon="49.1439620"><time>2021-09-11T09:35:17</time></trkpt><trkpt lat="55.7940060" lon="49.1437170"><time>2021-09-11T09:35:23</time></trkpt><trkpt lat="55.7939830" lon="49.1436870"><time>2021-09-11T09:35:24</time></trkpt><trkpt lat="55.7939620" lon="49.1436660"><time>2021-09-11T09:35:25</time></trkpt><trkpt lat="55.7937980" lon="49.1434010"><time>2021-09-11T09:35:34</time></trkpt><trkpt lat="55.7936420" lon="49.1431550"><time>2021-09-11T09:35:43</time></trkpt><trkpt lat="55.7934900" lon="49.1428970"><time>2021-09-11T09:35:52</time></trkpt><trkpt lat="55.7933510" lon="49.1426320"><time>2021-09-11T09:36:00</time></trkpt><trkpt lat="55.7932120" lon="49.1423440"><time>2021-09-11T09:36:09</time></trkpt><trkpt lat="55.7930640" lon="49.1421620"><time>2021-09-11T09:36:18</time></trkpt><trkpt lat="55.7930630" lon="49.1421230"><time>2021-09-11T09:36:19</time></trkpt><trkpt lat="55.7930660" lon="49.1420800"><time>2021-09-11T09:36:20</time></trkpt><trkpt lat="55.7930700" lon="49.1420460"><time>2021-09-11T09:36:21</time></trkpt><trkpt lat="55.7930740" lon="49.1420120"><time>2021-09-11T09:36:22</time></trkpt><trkpt lat="55.7931270" lon="49.1416510"><time>2021-09-11T09:36:32</time></trkpt><trkpt lat="55.7931650" lon="49.1412600"><time>2021-09-11T09:36:42</time></trkpt><trkpt lat="55.7931680" lon="49.1408720"><time>2021-09-11T09:36:51</time></trkpt><trkpt lat="55.7931920" lon="49.1404890"><time>2021-09-11T09:37:01</time></trkpt><trkpt lat="55.7932450" lon="49.1400800"><time>2021-09-11T09:37:17</time></trkpt><trkpt lat="55.7932530" lon="49.1397710"><time>2021-09-11T09:37:30</time></trkpt><trkpt lat="55.7932590" lon="49.1397530"><time>2021-09-11T09:37:31</time></trkpt><trkpt lat="55.7932580" lon="49.1397320"><time>2021-09-11T09:37:32</time></trkpt><trkpt lat="55.7932810" lon="49.1396900"><time>2021-09-11T09:37:34</time></trkpt><trkpt lat="55.7932660" lon="49.1396590"><time>2021-09-11T09:37:35</time></trkpt><trkpt lat="55.7932470" lon="49.1396150"><time>2021-09-11T09:37:36</time></trkpt><trkpt lat="55.7932420" lon="49.1395810"><time>2021-09-11T09:37:37</time></trkpt><trkpt lat="55.7932440" lon="49.1395570"><time>2021-09-11T09:37:38</time></trkpt><trkpt lat="55.7932450" lon="49.1394650"><time>2021-09-11T09:37:42</time></trkpt><trkpt lat="55.7932440" lon="49.1394400"><time>2021-09-11T09:37:43</time></trkpt><trkpt lat="55.7932470" lon="49.1394160"><time>2021-09-11T09:37:44</time></trkpt><trkpt lat="55.7932530" lon="49.1393960"><time>2021-09-11T09:37:45</time></trkpt><trkpt lat="55.7932600" lon="49.1393780"><time>2021-09-11T09:37:46</time></trkpt><trkpt lat="55.7932690" lon="49.1393590"><time>2021-09-11T09:37:47</time></trkpt><trkpt lat="55.7932830" lon="49.1393360"><time>2021-09-11T09:37:48</time></trkpt><trkpt lat="55.7932950" lon="49.1393060"><time>2021-09-11T09:37:49</time></trkpt><trkpt lat="55.7932980" lon="49.1392830"><time>2021-09-11T09:37:50</time></trkpt><trkpt lat="55.7933030" lon="49.1392640"><time>2021-09-11T09:37:51</time></trkpt><trkpt lat="55.7933040" lon="49.1392400"><time>2021-09-11T09:37:52</time></trkpt><trkpt lat="55.7933140" lon="49.1392210"><time>2021-09-11T09:37:53</time></trkpt><trkpt lat="55.7933200" lon="49.1391980"><time>2021-09-11T09:37:54</time></trkpt><trkpt lat="55.7933160" lon="49.1391680"><time>2021-09-11T09:37:55</time></trkpt><trkpt lat="55.7933190" lon="49.1391450"><time>2021-09-11T09:37:56</time></trkpt><trkpt lat="55.7933250" lon="49.1391170"><time>2021-09-11T09:37:57</time></trkpt><trkpt lat="55.7933290" lon="49.1390910"><time>2021-09-11T09:37:58</time></trkpt><trkpt lat="55.7933730" lon="49.1388350"><time>2021-09-11T09:38:08</time></trkpt><trkpt lat="55.7933770" lon="49.1388180"><time>2021-09-11T09:38:09</time></trkpt><trkpt lat="55.7933790" lon="49.1387920"><time>2021-09-11T09:38:10</time></trkpt><trkpt lat="55.7933390" lon="49.1387220"><time>2021-09-11T09:38:12</time></trkpt><trkpt lat="55.7933310" lon="49.1386960"><time>2021-09-11T09:38:13</time></trkpt><trkpt lat="55.7933170" lon="49.1386360"><time>2021-09-11T09:38:17</time></trkpt><trkpt lat="55.7933220" lon="49.1385660"><time>2021-09-11T09:38:28</time></trkpt><trkpt lat="55.7933590" lon="49.1384310"><time>2021-09-11T09:38:35</time></trkpt><trkpt lat="55.7934250" lon="49.1380380"><time>2021-09-11T09:38:49</time></trkpt><trkpt lat="55.7934660" lon="49.1375380"><time>2021-09-11T09:39:00</time></trkpt><trkpt lat="55.7935190" lon="49.1371500"><time>2021-09-11T09:39:08</time></trkpt><trkpt lat="55.7935180" lon="49.1370310"><time>2021-09-11T09:39:10</time></trkpt><trkpt lat="55.7935180" lon="49.1367210"><time>2021-09-11T09:39:16</time></trkpt><trkpt lat="55.7934930" lon="49.1363330"><time>2021-09-11T09:39:24</time></trkpt><trkpt lat="55.7935350" lon="49.1359600"><time>2021-09-11T09:39:33</time></trkpt><trkpt lat="55.7935460" lon="49.1356050"><time>2021-09-11T09:39:41</time></trkpt><trkpt lat="55.7935870" lon="49.1355600"><time>2021-09-11T09:39:44</time></trkpt><trkpt lat="55.7935840" lon="49.1355420"><time>2021-09-11T09:39:45</time></trkpt><trkpt lat="55.7935640" lon="49.1355240"><time>2021-09-11T09:39:46</time></trkpt><trkpt lat="55.7935660" lon="49.1355090"><time>2021-09-11T09:39:47</time></trkpt><trkpt lat="55.7935610" lon="49.1354890"><time>2021-09-11T09:39:48</time></trkpt><trkpt lat="55.7935720" lon="49.1352950"><time>2021-09-11T09:39:59</time></trkpt><trkpt lat="55.7936070" lon="49.1351400"><time>2021-09-11T09:40:11</time></trkpt><trkpt lat="55.7936070" lon="49.1350980"><time>2021-09-11T09:40:12</time></trkpt><trkpt lat="55.7936100" lon="49.1350530"><time>2021-09-11T09:40:13</time></trkpt><trkpt lat="55.7936130" lon="49.1350050"><time>2021-09-11T09:40:14</time></trkpt><trkpt lat="55.7936170" lon="49.1349590"><time>2021-09-11T09:40:15</time></trkpt><trkpt lat="55.7936370" lon="49.1345680"><time>2021-09-11T09:40:24</time></trkpt><trkpt lat="55.7936680" lon="49.1342200"><time>2021-09-11T09:40:32</time></trkpt><trkpt lat="55.7936670" lon="49.1338460"><time>2021-09-11T09:40:40</time></trkpt><trkpt lat="55.7936750" lon="49.1335090"><time>2021-09-11T09:40:48</time></trkpt><trkpt lat="55.7937000" lon="49.1331300"><time>2021-09-11T09:40:57</time></trkpt><trkpt lat="55.7937170" lon="49.1327890"><time>2021-09-11T09:41:05</time></trkpt><trkpt lat="55.7937190" lon="49.1324160"><time>2021-09-11T09:41:17</time></trkpt><trkpt lat="55.7937450" lon="49.1320440"><time>2021-09-11T09:41:26</time></trkpt><trkpt lat="55.7937870" lon="49.1316650"><time>2021-09-11T09:41:35</time></trkpt><trkpt lat="55.7938520" lon="49.1312800"><time>2021-09-11T09:41:45</time></trkpt><trkpt lat="55.7939050" lon="49.1309030"><time>2021-09-11T09:41:54</time></trkpt><trkpt lat="55.7938820" lon="49.1305080"><time>2021-09-11T09:42:03</time></trkpt><trkpt lat="55.7939000" lon="49.1301150"><time>2021-09-11T09:42:13</time></trkpt><trkpt lat="55.7939000" lon="49.1297080"><time>2021-09-11T09:42:22</time></trkpt><trkpt lat="55.7938950" lon="49.1294970"><time>2021-09-11T09:42:28</time></trkpt><trkpt lat="55.7939010" lon="49.1294670"><time>2021-09-11T09:42:29</time></trkpt><trkpt lat="55.7939090" lon="49.1294300"><time>2021-09-11T09:42:30</time></trkpt><trkpt lat="55.7939870" lon="49.1292610"><time>2021-09-11T09:42:35</time></trkpt><trkpt lat="55.7939880" lon="49.1292210"><time>2021-09-11T09:42:36</time></trkpt><trkpt lat="55.7939880" lon="49.1291750"><time>2021-09-11T09:42:37</time></trkpt><trkpt lat="55.7941030" lon="49.1288990"><time>2021-09-11T09:42:45</time></trkpt><trkpt lat="55.7942100" lon="49.1285790"><time>2021-09-11T09:42:54</time></trkpt><trkpt lat="55.7942350" lon="49.1284780"><time>2021-09-11T09:42:57</time></trkpt><trkpt lat="55.7942300" lon="49.1284280"><time>2021-09-11T09:42:58</time></trkpt><trkpt lat="55.7942330" lon="49.1283710"><time>2021-09-11T09:42:59</time></trkpt><trkpt lat="55.7942190" lon="49.1283130"><time>2021-09-11T09:43:00</time></trkpt><trkpt lat="55.7942080" lon="49.1282610"><time>2021-09-11T09:43:01</time></trkpt><trkpt lat="55.7942000" lon="49.1282160"><time>2021-09-11T09:43:02</time></trkpt><trkpt lat="55.7941970" lon="49.1281680"><time>2021-09-11T09:43:03</time></trkpt><trkpt lat="55.7942250" lon="49.1277910"><time>2021-09-11T09:43:12</time></trkpt><trkpt lat="55.7942160" lon="49.1273590"><time>2021-09-11T09:43:22</time></trkpt><trkpt lat="55.7943050" lon="49.1269760"><time>2021-09-11T09:43:31</time></trkpt><trkpt lat="55.7943560" lon="49.1266030"><time>2021-09-11T09:43:40</time></trkpt><trkpt lat="55.7944280" lon="49.1262680"><time>2021-09-11T09:43:49</time></trkpt><trkpt lat="55.7945200" lon="49.1259620"><time>2021-09-11T09:43:57</time></trkpt><trkpt lat="55.7945430" lon="49.1257050"><time>2021-09-11T09:44:03</time></trkpt><trkpt lat="55.7945380" lon="49.1256470"><time>2021-09-11T09:44:04</time></trkpt><trkpt lat="55.7945370" lon="49.1254440"><time>2021-09-11T09:44:10</time></trkpt><trkpt lat="55.7945140" lon="49.1254150"><time>2021-09-11T09:44:11</time></trkpt><trkpt lat="55.7944290" lon="49.1253590"><time>2021-09-11T09:44:12</time></trkpt><trkpt lat="55.7943790" lon="49.1253100"><time>2021-09-11T09:44:13</time></trkpt><trkpt lat="55.7943550" lon="49.1252890"><time>2021-09-11T09:44:16</time></trkpt><trkpt lat="55.7943450" lon="49.1252830"><time>2021-09-11T09:44:17</time></trkpt><trkpt lat="55.7943240" lon="49.1252010"><time>2021-09-11T09:44:21</time></trkpt><trkpt lat="55.7943230" lon="49.1251780"><time>2021-09-11T09:44:22</time></trkpt><trkpt lat="55.7943500" lon="49.1248800"><time>2021-09-11T09:44:34</time></trkpt><trkpt lat="55.7943580" lon="49.1248680"><time>2021-09-11T09:44:35</time></trkpt><trkpt lat="55.7943570" lon="49.1248470"><time>2021-09-11T09:44:37</time></trkpt><trkpt lat="55.7943600" lon="49.1248310"><time>2021-09-11T09:44:38</time></trkpt><trkpt lat="55.7943480" lon="49.1245850"><time>2021-09-11T09:44:49</time></trkpt><trkpt lat="55.7943510" lon="49.1245330"><time>2021-09-11T09:44:53</time></trkpt><trkpt lat="55.7942030" lon="49.1243020"><time>2021-09-11T09:45:11</time></trkpt><trkpt lat="55.7941810" lon="49.1242210"><time>2021-09-11T09:45:17</time></trkpt><trkpt lat="55.7941530" lon="49.1241920"><time>2021-09-11T09:45:20</time></trkpt><trkpt lat="55.7941400" lon="49.1241860"><time>2021-09-11T09:45:21</time></trkpt><trkpt lat="55.7941210" lon="49.1241800"><time>2021-09-11T09:45:22</time></trkpt><trkpt lat="55.7941100" lon="49.1241630"><time>2021-09-11T09:45:23</time></trkpt><trkpt lat="55.7940880" lon="49.1241380"><time>2021-09-11T09:45:24</time></trkpt><trkpt lat="55.7940800" lon="49.1241220"><time>2021-09-11T09:45:25</time></trkpt><trkpt lat="55.7939660" lon="49.1240270"><time>2021-09-11T09:45:33</time></trkpt><trkpt lat="55.7939570" lon="49.1240200"><time>2021-09-11T09:45:34</time></trkpt><trkpt lat="55.7939490" lon="49.1240140"><time>2021-09-11T09:45:35</time></trkpt><trkpt lat="55.7939410" lon="49.1240080"><time>2021-09-11T09:45:36</time></trkpt><trkpt lat="55.7939320" lon="49.1239970"><time>2021-09-11T09:45:37</time></trkpt><trkpt lat="55.7939190" lon="49.1239840"><time>2021-09-11T09:45:38</time></trkpt><trkpt lat="55.7936630" lon="49.1238740"><time>2021-09-11T09:45:53</time></trkpt><trkpt lat="55.7934070" lon="49.1237500"><time>2021-09-11T09:46:05</time></trkpt><trkpt lat="55.7933920" lon="49.1237360"><time>2021-09-11T09:46:06</time></trkpt><trkpt lat="55.7933800" lon="49.1237230"><time>2021-09-11T09:46:07</time></trkpt><trkpt lat="55.7933460" lon="49.1236830"><time>2021-09-11T09:46:10</time></trkpt><trkpt lat="55.7933230" lon="49.1236510"><time>2021-09-11T09:46:13</time></trkpt><trkpt lat="55.7932840" lon="49.1235210"><time>2021-09-11T09:46:25</time></trkpt><trkpt lat="55.7932750" lon="49.1234880"><time>2021-09-11T09:46:28</time></trkpt><trkpt lat="55.7932320" lon="49.1233480"><time>2021-09-11T09:46:41</time></trkpt><trkpt lat="55.7932300" lon="49.1233440"><time>2021-09-11T09:46:43</time></trkpt><trkpt lat="55.7932270" lon="49.1233300"><time>2021-09-11T09:46:44</time></trkpt><trkpt lat="55.7932130" lon="49.1232770"><time>2021-09-11T09:46:47</time></trkpt><trkpt lat="55.7931110" lon="49.1232470"><time>2021-09-11T09:46:57</time></trkpt><trkpt lat="55.7930940" lon="49.1232510"><time>2021-09-11T09:46:58</time></trkpt><trkpt lat="55.7928390" lon="49.1232700"><time>2021-09-11T09:47:15</time></trkpt><trkpt lat="55.7925900" lon="49.1232470"><time>2021-09-11T09:47:28</time></trkpt><trkpt lat="55.7924020" lon="49.1229860"><time>2021-09-11T09:47:44</time></trkpt><trkpt lat="55.7922430" lon="49.1227850"><time>2021-09-11T09:47:57</time></trkpt><trkpt lat="55.7922300" lon="49.1227810"><time>2021-09-11T09:47:58</time></trkpt><trkpt lat="55.7922150" lon="49.1227770"><time>2021-09-11T09:47:59</time></trkpt><trkpt lat="55.7921980" lon="49.1227690"><time>2021-09-11T09:48:00</time></trkpt><trkpt lat="55.7921800" lon="49.1227630"><time>2021-09-11T09:48:01</time></trkpt><trkpt lat="55.7921600" lon="49.1227650"><time>2021-09-11T09:48:02</time></trkpt><trkpt lat="55.7921430" lon="49.1227610"><time>2021-09-11T09:48:03</time></trkpt><trkpt lat="55.7919260" lon="49.1225530"><time>2021-09-11T09:48:18</time></trkpt><trkpt lat="55.7919230" lon="49.1225280"><time>2021-09-11T09:48:19</time></trkpt><trkpt lat="55.7918940" lon="49.1224490"><time>2021-09-11T09:48:23</time></trkpt><trkpt lat="55.7917750" lon="49.1222170"><time>2021-09-11T09:48:37</time></trkpt><trkpt lat="55.7917700" lon="49.1219680"><time>2021-09-11T09:48:48</time></trkpt><trkpt lat="55.7917660" lon="49.1219450"><time>2021-09-11T09:48:49</time></trkpt><trkpt lat="55.7917630" lon="49.1219130"><time>2021-09-11T09:48:50</time></trkpt><trkpt lat="55.7917720" lon="49.1218810"><time>2021-09-11T09:48:51</time></trkpt><trkpt lat="55.7917620" lon="49.1218510"><time>2021-09-11T09:48:52</time></trkpt><trkpt lat="55.7917540" lon="49.1218200"><time>2021-09-11T09:48:53</time></trkpt><trkpt lat="55.7917240" lon="49.1217190"><time>2021-09-11T09:48:57</time></trkpt><trkpt lat="55.7917200" lon="49.1216930"><time>2021-09-11T09:48:58</time></trkpt><trkpt lat="55.7917120" lon="49.1216710"><time>2021-09-11T09:48:59</time></trkpt><trkpt lat="55.7917040" lon="49.1216470"><time>2021-09-11T09:49:00</time></trkpt><trkpt lat="55.7917010" lon="49.1216250"><time>2021-09-11T09:49:01</time></trkpt><trkpt lat="55.7916870" lon="49.1216080"><time>2021-09-11T09:49:02</time></trkpt><trkpt lat="55.7916810" lon="49.1215870"><time>2021-09-11T09:49:03</time></trkpt><trkpt lat="55.7916760" lon="49.1215640"><time>2021-09-11T09:49:04</time></trkpt><trkpt lat="55.7916670" lon="49.1215510"><time>2021-09-11T09:49:05</time></trkpt><trkpt lat="55.7915900" lon="49.1213240"><time>2021-09-11T09:49:13</time></trkpt><trkpt lat="55.7916150" lon="49.1212860"><time>2021-09-11T09:49:14</time></trkpt><trkpt lat="55.7916140" lon="49.1212500"><time>2021-09-11T09:49:15</time></trkpt><trkpt lat="55.7916140" lon="49.1212170"><time>2021-09-11T09:49:16</time></trkpt><trkpt lat="55.7916330" lon="49.1211920"><time>2021-09-11T09:49:17</time></trkpt><trkpt lat="55.7916470" lon="49.1211660"><time>2021-09-11T09:49:18</time></trkpt><trkpt lat="55.7916610" lon="49.1211420"><time>2021-09-11T09:49:19</time></trkpt><trkpt lat="55.7916980" lon="49.1208930"><time>2021-09-11T09:49:26</time></trkpt><trkpt lat="55.7916960" lon="49.1208600"><time>2021-09-11T09:49:27</time></trkpt><trkpt lat="55.7916960" lon="49.1206910"><time>2021-09-11T09:49:33</time></trkpt><trkpt lat="55.7916860" lon="49.1206590"><time>2021-09-11T09:49:34</time></trkpt><trkpt lat="55.7916870" lon="49.1206300"><time>2021-09-11T09:49:35</time></trkpt><trkpt lat="55.7916900" lon="49.1206030"><time>2021-09-11T09:49:36</time></trkpt><trkpt lat="55.7916950" lon="49.1205820"><time>2021-09-11T09:49:37</time></trkpt><trkpt lat="55.7917010" lon="49.1205630"><time>2021-09-11T09:49:38</time></trkpt><trkpt lat="55.7917050" lon="49.1205410"><time>2021-09-11T09:49:39</time></trkpt><trkpt lat="55.7917060" lon="49.1205160"><time>2021-09-11T09:49:40</time></trkpt><trkpt lat="55.7917170" lon="49.1204930"><time>2021-09-11T09:49:41</time></trkpt><trkpt lat="55.7917290" lon="49.1204710"><time>2021-09-11T09:49:42</time></trkpt><trkpt lat="55.7917390" lon="49.1204520"><time>2021-09-11T09:49:43</time></trkpt><trkpt lat="55.7918410" lon="49.1203090"><time>2021-09-11T09:49:51</time></trkpt><trkpt lat="55.7918540" lon="49.1202890"><time>2021-09-11T09:49:52</time></trkpt><trkpt lat="55.7918610" lon="49.1202660"><time>2021-09-11T09:49:53</time></trkpt><trkpt lat="55.7918630" lon="49.1202470"><time>2021-09-11T09:49:54</time></trkpt><trkpt lat="55.7918680" lon="49.1202260"><time>2021-09-11T09:49:55</time></trkpt><trkpt lat="55.7918790" lon="49.1201970"><time>2021-09-11T09:49:56</time></trkpt><trkpt lat="55.7918880" lon="49.1201710"><time>2021-09-11T09:49:57</time></trkpt><trkpt lat="55.7918950" lon="49.1201510"><time>2021-09-11T09:49:58</time></trkpt><trkpt lat="55.7919030" lon="49.1201270"><time>2021-09-11T09:49:59</time></trkpt><trkpt lat="55.7919140" lon="49.1200310"><time>2021-09-11T09:50:03</time></trkpt><trkpt lat="55.7918900" lon="49.1199550"><time>2021-09-11T09:50:13</time></trkpt><trkpt lat="55.7917630" lon="49.1196300"><time>2021-09-11T09:50:27</time></trkpt><trkpt lat="55.7916200" lon="49.1193770"><time>2021-09-11T09:50:35</time></trkpt><trkpt lat="55.7914660" lon="49.1191340"><time>2021-09-11T09:50:44</time></trkpt><trkpt lat="55.7913050" lon="49.1189010"><time>2021-09-11T09:50:53</time></trkpt><trkpt lat="55.7911560" lon="49.1186620"><time>2021-09-11T09:51:02</time></trkpt><trkpt lat="55.7910110" lon="49.1184110"><time>2021-09-11T09:51:11</time></trkpt><trkpt lat="55.7908670" lon="49.1181720"><time>2021-09-11T09:51:20</time></trkpt><trkpt lat="55.7907110" lon="49.1179480"><time>2021-09-11T09:51:31</time></trkpt><trkpt lat="55.7906420" lon="49.1178360"><time>2021-09-11T09:51:43</time></trkpt><trkpt lat="55.7906290" lon="49.1178130"><time>2021-09-11T09:51:44</time></trkpt><trkpt lat="55.7906220" lon="49.1177910"><time>2021-09-11T09:51:45</time></trkpt><trkpt lat="55.7906010" lon="49.1177620"><time>2021-09-11T09:51:46</time></trkpt><trkpt lat="55.7905850" lon="49.1177310"><time>2021-09-11T09:51:47</time></trkpt><trkpt lat="55.7905690" lon="49.1177090"><time>2021-09-11T09:51:48</time></trkpt><trkpt lat="55.7905480" lon="49.1176870"><time>2021-09-11T09:51:49</time></trkpt><trkpt lat="55.7905270" lon="49.1176620"><time>2021-09-11T09:51:50</time></trkpt><trkpt lat="55.7905080" lon="49.1176450"><time>2021-09-11T09:51:51</time></trkpt><trkpt lat="55.7904900" lon="49.1176200"><time>2021-09-11T09:51:52</time></trkpt><trkpt lat="55.7904740" lon="49.1176030"><time>2021-09-11T09:51:53</time></trkpt><trkpt lat="55.7904570" lon="49.1175960"><time>2021-09-11T09:51:54</time></trkpt><trkpt lat="55.7904410" lon="49.1175760"><time>2021-09-11T09:51:55</time></trkpt><trkpt lat="55.7904210" lon="49.1175620"><time>2021-09-11T09:51:56</time></trkpt><trkpt lat="55.7904090" lon="49.1175480"><time>2021-09-11T09:51:57</time></trkpt><trkpt lat="55.7903880" lon="49.1175480"><time>2021-09-11T09:51:58</time></trkpt><trkpt lat="55.7903710" lon="49.1175300"><time>2021-09-11T09:51:59</time></trkpt><trkpt lat="55.7903540" lon="49.1175130"><time>2021-09-11T09:52:00</time></trkpt><trkpt lat="55.7903370" lon="49.1174830"><time>2021-09-11T09:52:01</time></trkpt><trkpt lat="55.7903160" lon="49.1174510"><time>2021-09-11T09:52:02</time></trkpt><trkpt lat="55.7902950" lon="49.1174180"><time>2021-09-11T09:52:03</time></trkpt><trkpt lat="55.7900850" lon="49.1171540"><time>2021-09-11T09:52:12</time></trkpt><trkpt lat="55.7900460" lon="49.1171010"><time>2021-09-11T09:52:15</time></trkpt><trkpt lat="55.7900340" lon="49.1170960"><time>2021-09-11T09:52:16</time></trkpt><trkpt lat="55.7900190" lon="49.1170910"><time>2021-09-11T09:52:17</time></trkpt><trkpt lat="55.7899390" lon="49.1169000"><time>2021-09-11T09:52:27</time></trkpt><trkpt lat="55.7898980" lon="49.1166820"><time>2021-09-11T09:53:03</time></trkpt><trkpt lat="55.7899130" lon="49.1166500"><time>2021-09-11T09:53:04</time></trkpt><trkpt lat="55.7899310" lon="49.1166150"><time>2021-09-11T09:53:05</time></trkpt><trkpt lat="55.7900390" lon="49.1162750"><time>2021-09-11T09:53:14</time></trkpt><trkpt lat="55.7901450" lon="49.1159920"><time>2021-09-11T09:53:23</time></trkpt><trkpt lat="55.7903050" lon="49.1157660"><time>2021-09-11T09:53:31</time></trkpt><trkpt lat="55.7904490" lon="49.1155030"><time>2021-09-11T09:53:39</time></trkpt><trkpt lat="55.7905580" lon="49.1151920"><time>2021-09-11T09:53:47</time></trkpt><trkpt lat="55.7906650" lon="49.1148840"><time>2021-09-11T09:53:55</time></trkpt><trkpt lat="55.7907950" lon="49.1146320"><time>2021-09-11T09:54:03</time></trkpt><trkpt lat="55.7908190" lon="49.1146160"><time>2021-09-11T09:54:04</time></trkpt><trkpt lat="55.7908420" lon="49.1145920"><time>2021-09-11T09:54:05</time></trkpt><trkpt lat="55.7909740" lon="49.1143440"><time>2021-09-11T09:54:13</time></trkpt><trkpt lat="55.7911410" lon="49.1140660"><time>2021-09-11T09:54:22</time></trkpt><trkpt lat="55.7912970" lon="49.1138070"><time>2021-09-11T09:54:30</time></trkpt><trkpt lat="55.7914370" lon="49.1135520"><time>2021-09-11T09:54:38</time></trkpt><trkpt lat="55.7915720" lon="49.1132900"><time>2021-09-11T09:54:47</time></trkpt><trkpt lat="55.7916180" lon="49.1131800"><time>2021-09-11T09:54:50</time></trkpt><trkpt lat="55.7916840" lon="49.1129370"><time>2021-09-11T09:54:55</time></trkpt><trkpt lat="55.7917760" lon="49.1126790"><time>2021-09-11T09:55:04</time></trkpt><trkpt lat="55.7919420" lon="49.1124550"><time>2021-09-11T09:55:13</time></trkpt><trkpt lat="55.7920390" lon="49.1121920"><time>2021-09-11T09:55:21</time></trkpt><trkpt lat="55.7921500" lon="49.1119040"><time>2021-09-11T09:55:30</time></trkpt><trkpt lat="55.7922970" lon="49.1116040"><time>2021-09-11T09:55:40</time></trkpt><trkpt lat="55.7924450" lon="49.1113240"><time>2021-09-11T09:55:49</time></trkpt><trkpt lat="55.7926060" lon="49.1110820"><time>2021-09-11T09:55:58</time></trkpt><trkpt lat="55.7927250" lon="49.1108830"><time>2021-09-11T09:56:07</time></trkpt><trkpt lat="55.7928120" lon="49.1107020"><time>2021-09-11T09:56:14</time></trkpt><trkpt lat="55.7928210" lon="49.1106830"><time>2021-09-11T09:56:15</time></trkpt><trkpt lat="55.7928960" lon="49.1103990"><time>2021-09-11T09:56:29</time></trkpt><trkpt lat="55.7928930" lon="49.1103830"><time>2021-09-11T09:56:30</time></trkpt><trkpt lat="55.7929410" lon="49.1102630"><time>2021-09-11T09:56:38</time></trkpt><trkpt lat="55.7929440" lon="49.1102450"><time>2021-09-11T09:56:39</time></trkpt><trkpt lat="55.7929690" lon="49.1101970"><time>2021-09-11T09:56:42</time></trkpt><trkpt lat="55.7929770" lon="49.1101830"><time>2021-09-11T09:56:43</time></trkpt><trkpt lat="55.7929820" lon="49.1101660"><time>2021-09-11T09:56:44</time></trkpt><trkpt lat="55.7929860" lon="49.1101450"><time>2021-09-11T09:56:45</time></trkpt><trkpt lat="55.7929840" lon="49.1101200"><time>2021-09-11T09:56:46</time></trkpt><trkpt lat="55.7930000" lon="49.1099890"><time>2021-09-11T09:56:53</time></trkpt><trkpt lat="55.7929980" lon="49.1099710"><time>2021-09-11T09:56:54</time></trkpt><trkpt lat="55.7930090" lon="49.1099540"><time>2021-09-11T09:56:55</time></trkpt><trkpt lat="55.7930120" lon="49.1099320"><time>2021-09-11T09:56:56</time></trkpt><trkpt lat="55.7930180" lon="49.1099120"><time>2021-09-11T09:56:57</time></trkpt><trkpt lat="55.7930320" lon="49.1098870"><time>2021-09-11T09:56:58</time></trkpt><trkpt lat="55.7930520" lon="49.1098700"><time>2021-09-11T09:56:59</time></trkpt><trkpt lat="55.7930600" lon="49.1098510"><time>2021-09-11T09:57:00</time></trkpt><trkpt lat="55.7931000" lon="49.1097800"><time>2021-09-11T09:57:04</time></trkpt><trkpt lat="55.7931760" lon="49.1095800"><time>2021-09-11T09:57:13</time></trkpt><trkpt lat="55.7933440" lon="49.1093670"><time>2021-09-11T09:57:25</time></trkpt><trkpt lat="55.7933260" lon="49.1093320"><time>2021-09-11T09:57:26</time></trkpt><trkpt lat="55.7933250" lon="49.1093090"><time>2021-09-11T09:57:27</time></trkpt><trkpt lat="55.7933380" lon="49.1092960"><time>2021-09-11T09:57:28</time></trkpt><trkpt lat="55.7933810" lon="49.1092950"><time>2021-09-11T09:57:29</time></trkpt><trkpt lat="55.7934110" lon="49.1092940"><time>2021-09-11T09:57:30</time></trkpt><trkpt lat="55.7935710" lon="49.1092040"><time>2021-09-11T09:57:44</time></trkpt><trkpt lat="55.7935770" lon="49.1092420"><time>2021-09-11T09:57:47</time></trkpt><trkpt lat="55.7935810" lon="49.1092510"><time>2021-09-11T09:57:48</time></trkpt><trkpt lat="55.7935930" lon="49.1092540"><time>2021-09-11T09:57:50</time></trkpt><trkpt lat="55.7937280" lon="49.1094490"><time>2021-09-11T09:58:06</time></trkpt><trkpt lat="55.7938730" lon="49.1097370"><time>2021-09-11T09:58:21</time></trkpt><trkpt lat="55.7938830" lon="49.1097440"><time>2021-09-11T09:58:22</time></trkpt><trkpt lat="55.7939230" lon="49.1097640"><time>2021-09-11T09:58:31</time></trkpt><trkpt lat="55.7939300" lon="49.1097720"><time>2021-09-11T09:58:32</time></trkpt><trkpt lat="55.7939370" lon="49.1097730"><time>2021-09-11T09:58:33</time></trkpt><trkpt lat="55.7939420" lon="49.1097820"><time>2021-09-11T09:58:34</time></trkpt><trkpt lat="55.7939650" lon="49.1098160"><time>2021-09-11T09:58:39</time></trkpt><trkpt lat="55.7940390" lon="49.1097100"><time>2021-09-11T09:58:47</time></trkpt><trkpt lat="55.7940480" lon="49.1096880"><time>2021-09-11T09:58:48</time></trkpt><trkpt lat="55.7940570" lon="49.1096640"><time>2021-09-11T09:58:49</time></trkpt><trkpt lat="55.7940660" lon="49.1096440"><time>2021-09-11T09:58:50</time></trkpt><trkpt lat="55.7940810" lon="49.1096290"><time>2021-09-11T09:58:51</time></trkpt><trkpt lat="55.7941010" lon="49.1096160"><time>2021-09-11T09:58:52</time></trkpt><trkpt lat="55.7941190" lon="49.1096030"><time>2021-09-11T09:58:53</time></trkpt><trkpt lat="55.7942930" lon="49.1093930"><time>2021-09-11T09:59:06</time></trkpt><trkpt lat="55.7943080" lon="49.1093770"><time>2021-09-11T09:59:07</time></trkpt><trkpt lat="55.7943190" lon="49.1093600"><time>2021-09-11T09:59:08</time></trkpt><trkpt lat="55.7942870" lon="49.1093190"><time>2021-09-11T09:59:09</time></trkpt><trkpt lat="55.7942560" lon="49.1092850"><time>2021-09-11T09:59:10</time></trkpt><trkpt lat="55.7942640" lon="49.1092600"><time>2021-09-11T09:59:11</time></trkpt><trkpt lat="55.7942670" lon="49.1092320"><time>2021-09-11T09:59:12</time></trkpt><trkpt lat="55.7942660" lon="49.1091770"><time>2021-09-11T09:59:14</time></trkpt><trkpt lat="55.7942690" lon="49.1091530"><time>2021-09-11T09:59:15</time></trkpt><trkpt lat="55.7942760" lon="49.1091270"><time>2021-09-11T09:59:16</time></trkpt><trkpt lat="55.7944020" lon="49.1087630"><time>2021-09-11T09:59:31</time></trkpt><trkpt lat="55.7944210" lon="49.1087410"><time>2021-09-11T09:59:32</time></trkpt><trkpt lat="55.7944240" lon="49.1087190"><time>2021-09-11T09:59:33</time></trkpt><trkpt lat="55.7944510" lon="49.1087010"><time>2021-09-11T09:59:34</time></trkpt><trkpt lat="55.7944550" lon="49.1086770"><time>2021-09-11T09:59:35</time></trkpt><trkpt lat="55.7944620" lon="49.1086570"><time>2021-09-11T09:59:36</time></trkpt><trkpt lat="55.7944710" lon="49.1086320"><time>2021-09-11T09:59:37</time></trkpt><trkpt lat="55.7944840" lon="49.1085670"><time>2021-09-11T09:59:40</time></trkpt><trkpt lat="55.7944980" lon="49.1085540"><time>2021-09-11T09:59:41</time></trkpt><trkpt lat="55.7945010" lon="49.1085360"><time>2021-09-11T09:59:42</time></trkpt><trkpt lat="55.7945070" lon="49.1085180"><time>2021-09-11T09:59:43</time></trkpt><trkpt lat="55.7945200" lon="49.1084950"><time>2021-09-11T09:59:44</time></trkpt><trkpt lat="55.7945350" lon="49.1084720"><time>2021-09-11T09:59:45</time></trkpt><trkpt lat="55.7945310" lon="49.1084490"><time>2021-09-11T09:59:46</time></trkpt><trkpt lat="55.7945400" lon="49.1084310"><time>2021-09-11T09:59:47</time></trkpt><trkpt lat="55.7945460" lon="49.1084130"><time>2021-09-11T09:59:48</time></trkpt><trkpt lat="55.7945360" lon="49.1083870"><time>2021-09-11T09:59:49</time></trkpt><trkpt lat="55.7945480" lon="49.1083660"><time>2021-09-11T09:59:50</time></trkpt><trkpt lat="55.7945490" lon="49.1083440"><time>2021-09-11T09:59:51</time></trkpt><trkpt lat="55.7945540" lon="49.1083240"><time>2021-09-11T09:59:52</time></trkpt><trkpt lat="55.7945580" lon="49.1083050"><time>2021-09-11T09:59:53</time></trkpt><trkpt lat="55.7945630" lon="49.1082800"><time>2021-09-11T09:59:54</time></trkpt><trkpt lat="55.7945720" lon="49.1082600"><time>2021-09-11T09:59:55</time></trkpt><trkpt lat="55.7945790" lon="49.1082400"><time>2021-09-11T09:59:56</time></trkpt><trkpt lat="55.7945870" lon="49.1082180"><time>2021-09-11T09:59:57</time></trkpt><trkpt lat="55.7945950" lon="49.1081950"><time>2021-09-11T09:59:58</time></trkpt><trkpt lat="55.7947430" lon="49.1078520"><time>2021-09-11T10:00:14</time></trkpt><trkpt lat="55.7949290" lon="49.1075210"><time>2021-09-11T10:00:30</time></trkpt><trkpt lat="55.7950120" lon="49.1073210"><time>2021-09-11T10:00:40</time></trkpt><trkpt lat="55.7950470" lon="49.1072640"><time>2021-09-11T10:00:44</time></trkpt><trkpt lat="55.7950600" lon="49.1072460"><time>2021-09-11T10:00:45</time></trkpt><trkpt lat="55.7950520" lon="49.1072250"><time>2021-09-11T10:00:46</time></trkpt><trkpt lat="55.7950610" lon="49.1072080"><time>2021-09-11T10:00:47</time></trkpt><trkpt lat="55.7950830" lon="49.1071890"><time>2021-09-11T10:00:48</time></trkpt><trkpt lat="55.7950840" lon="49.1071490"><time>2021-09-11T10:00:50</time></trkpt><trkpt lat="55.7950970" lon="49.1070820"><time>2021-09-11T10:00:54</time></trkpt><trkpt lat="55.7951080" lon="49.1070630"><time>2021-09-11T10:00:55</time></trkpt><trkpt lat="55.7951350" lon="49.1070490"><time>2021-09-11T10:00:56</time></trkpt><trkpt lat="55.7952380" lon="49.1069820"><time>2021-09-11T10:01:01</time></trkpt><trkpt lat="55.7953280" lon="49.1069290"><time>2021-09-11T10:01:06</time></trkpt><trkpt lat="55.7953380" lon="49.1069150"><time>2021-09-11T10:01:07</time></trkpt><trkpt lat="55.7954110" lon="49.1068560"><time>2021-09-11T10:01:22</time></trkpt><trkpt lat="55.7954860" lon="49.1068680"><time>2021-09-11T10:01:36</time></trkpt><trkpt lat="55.7955000" lon="49.1068810"><time>2021-09-11T10:01:37</time></trkpt><trkpt lat="55.7955530" lon="49.1069160"><time>2021-09-11T10:01:41</time></trkpt><trkpt lat="55.7955640" lon="49.1069260"><time>2021-09-11T10:01:42</time></trkpt><trkpt lat="55.7955740" lon="49.1069390"><time>2021-09-11T10:01:43</time></trkpt><trkpt lat="55.7955790" lon="49.1069490"><time>2021-09-11T10:01:44</time></trkpt><trkpt lat="55.7956280" lon="49.1069830"><time>2021-09-11T10:01:50</time></trkpt><trkpt lat="55.7956420" lon="49.1069810"><time>2021-09-11T10:01:51</time></trkpt><trkpt lat="55.7956490" lon="49.1069710"><time>2021-09-11T10:01:52</time></trkpt><trkpt lat="55.7956620" lon="49.1069600"><time>2021-09-11T10:01:53</time></trkpt><trkpt lat="55.7956740" lon="49.1069580"><time>2021-09-11T10:01:54</time></trkpt><trkpt lat="55.7956870" lon="49.1069630"><time>2021-09-11T10:01:55</time></trkpt><trkpt lat="55.7956990" lon="49.1069680"><time>2021-09-11T10:01:56</time></trkpt><trkpt lat="55.7957130" lon="49.1069760"><time>2021-09-11T10:01:57</time></trkpt><trkpt lat="55.7957270" lon="49.1069850"><time>2021-09-11T10:01:58</time></trkpt><trkpt lat="55.7959060" lon="49.1072410"><time>2021-09-11T10:02:13</time></trkpt><trkpt lat="55.7959150" lon="49.1072650"><time>2021-09-11T10:02:14</time></trkpt><trkpt lat="55.7959240" lon="49.1072920"><time>2021-09-11T10:02:15</time></trkpt><trkpt lat="55.7959310" lon="49.1073150"><time>2021-09-11T10:02:16</time></trkpt><trkpt lat="55.7959380" lon="49.1073340"><time>2021-09-11T10:02:17</time></trkpt><trkpt lat="55.7959500" lon="49.1073520"><time>2021-09-11T10:02:18</time></trkpt><trkpt lat="55.7959590" lon="49.1073700"><time>2021-09-11T10:02:19</time></trkpt><trkpt lat="55.7961030" lon="49.1076120"><time>2021-09-11T10:02:33</time></trkpt><trkpt lat="55.7961120" lon="49.1076260"><time>2021-09-11T10:02:34</time></trkpt><trkpt lat="55.7961310" lon="49.1076860"><time>2021-09-11T10:02:39</time></trkpt><trkpt lat="55.7961360" lon="49.1077070"><time>2021-09-11T10:02:40</time></trkpt><trkpt lat="55.7961430" lon="49.1077550"><time>2021-09-11T10:02:43</time></trkpt><trkpt lat="55.7961610" lon="49.1078920"><time>2021-09-11T10:02:57</time></trkpt><trkpt lat="55.7962240" lon="49.1080190"><time>2021-09-11T10:03:07</time></trkpt><trkpt lat="55.7962330" lon="49.1080380"><time>2021-09-11T10:03:08</time></trkpt><trkpt lat="55.7962460" lon="49.1080540"><time>2021-09-11T10:03:09</time></trkpt><trkpt lat="55.7962510" lon="49.1080690"><time>2021-09-11T10:03:10</time></trkpt><trkpt lat="55.7962640" lon="49.1080870"><time>2021-09-11T10:03:11</time></trkpt><trkpt lat="55.7964740" lon="49.1081490"><time>2021-09-11T10:03:27</time></trkpt><trkpt lat="55.7966830" lon="49.1080810"><time>2021-09-11T10:03:38</time></trkpt><trkpt lat="55.7968210" lon="49.1081870"><time>2021-09-11T10:03:45</time></trkpt><trkpt lat="55.7967590" lon="49.1081970"><time>2021-09-11T10:03:46</time></trkpt><trkpt lat="55.7967110" lon="49.1082000"><time>2021-09-11T10:03:47</time></trkpt><trkpt lat="55.7966070" lon="49.1082470"><time>2021-09-11T10:03:51</time></trkpt><trkpt lat="55.7964330" lon="49.1084390"><time>2021-09-11T10:04:01</time></trkpt><trkpt lat="55.7964200" lon="49.1085340"><time>2021-09-11T10:04:04</time></trkpt><trkpt lat="55.7964830" lon="49.1085860"><time>2021-09-11T10:04:05</time></trkpt><trkpt lat="55.7965240" lon="49.1086280"><time>2021-09-11T10:04:06</time></trkpt><trkpt lat="55.7965630" lon="49.1086660"><time>2021-09-11T10:04:07</time></trkpt><trkpt lat="55.7965880" lon="49.1087030"><time>2021-09-11T10:04:08</time></trkpt><trkpt lat="55.7965970" lon="49.1088510"><time>2021-09-11T10:04:15</time></trkpt><trkpt lat="55.7966740" lon="49.1090220"><time>2021-09-11T10:04:26</time></trkpt><trkpt lat="55.7968270" lon="49.1091650"><time>2021-09-11T10:04:35</time></trkpt><trkpt lat="55.7968470" lon="49.1091730"><time>2021-09-11T10:04:36</time></trkpt><trkpt lat="55.7968700" lon="49.1091840"><time>2021-09-11T10:04:37</time></trkpt><trkpt lat="55.7968970" lon="49.1091980"><time>2021-09-11T10:04:38</time></trkpt><trkpt lat="55.7969240" lon="49.1092050"><time>2021-09-11T10:04:39</time></trkpt><trkpt lat="55.7971320" lon="49.1091160"><time>2021-09-11T10:04:54</time></trkpt><trkpt lat="55.7973390" lon="49.1090360"><time>2021-09-11T10:05:05</time></trkpt><trkpt lat="55.7975360" lon="49.1089120"><time>2021-09-11T10:05:14</time></trkpt><trkpt lat="55.7977270" lon="49.1088390"><time>2021-09-11T10:05:23</time></trkpt><trkpt lat="55.7979050" lon="49.1088270"><time>2021-09-11T10:05:33</time></trkpt><trkpt lat="55.7980920" lon="49.1088880"><time>2021-09-11T10:05:43</time></trkpt><trkpt lat="55.7983240" lon="49.1089890"><time>2021-09-11T10:05:54</time></trkpt><trkpt lat="55.7985620" lon="49.1090640"><time>2021-09-11T10:06:04</time></trkpt><trkpt lat="55.7986460" lon="49.1091060"><time>2021-09-11T10:06:08</time></trkpt><trkpt lat="55.7986560" lon="49.1091220"><time>2021-09-11T10:06:09</time></trkpt><trkpt lat="55.7987370" lon="49.1093970"><time>2021-09-11T10:06:37</time></trkpt><trkpt lat="55.7987580" lon="49.1094060"><time>2021-09-11T10:06:38</time></trkpt><trkpt lat="55.7987800" lon="49.1094090"><time>2021-09-11T10:06:39</time></trkpt><trkpt lat="55.7988040" lon="49.1094090"><time>2021-09-11T10:06:40</time></trkpt><trkpt lat="55.7988310" lon="49.1094150"><time>2021-09-11T10:06:41</time></trkpt><trkpt lat="55.7988510" lon="49.1094300"><time>2021-09-11T10:06:42</time></trkpt><trkpt lat="55.7988680" lon="49.1094620"><time>2021-09-11T10:06:43</time></trkpt><trkpt lat="55.7988810" lon="49.1095000"><time>2021-09-11T10:06:44</time></trkpt><trkpt lat="55.7988900" lon="49.1095420"><time>2021-09-11T10:06:45</time></trkpt><trkpt lat="55.7988920" lon="49.1095820"><time>2021-09-11T10:06:46</time></trkpt><trkpt lat="55.7988940" lon="49.1096140"><time>2021-09-11T10:06:47</time></trkpt><trkpt lat="55.7989100" lon="49.1096490"><time>2021-09-11T10:06:49</time></trkpt><trkpt lat="55.7989310" lon="49.1096560"><time>2021-09-11T10:06:50</time></trkpt><trkpt lat="55.7989570" lon="49.1096590"><time>2021-09-11T10:06:51</time></trkpt><trkpt lat="55.7989810" lon="49.1096510"><time>2021-09-11T10:06:52</time></trkpt><trkpt lat="55.7990000" lon="49.1096310"><time>2021-09-11T10:06:53</time></trkpt><trkpt lat="55.7990190" lon="49.1096000"><time>2021-09-11T10:06:54</time></trkpt><trkpt lat="55.7990340" lon="49.1095700"><time>2021-09-11T10:06:55</time></trkpt><trkpt lat="55.7992170" lon="49.1093940"><time>2021-09-11T10:07:04</time></trkpt><trkpt lat="55.7994000" lon="49.1092220"><time>2021-09-11T10:07:13</time></trkpt><trkpt lat="55.7996130" lon="49.1090830"><time>2021-09-11T10:07:22</time></trkpt><trkpt lat="55.7998220" lon="49.1089530"><time>2021-09-11T10:07:31</time></trkpt><trkpt lat="55.8000180" lon="49.1087770"><time>2021-09-11T10:07:40</time></trkpt><trkpt lat="55.8001920" lon="49.1086330"><time>2021-09-11T10:07:49</time></trkpt><trkpt lat="55.8003720" lon="49.1084550"><time>2021-09-11T10:07:59</time></trkpt><trkpt lat="55.8005730" lon="49.1082680"><time>2021-09-11T10:08:09</time></trkpt><trkpt lat="55.8007980" lon="49.1081260"><time>2021-09-11T10:08:18</time></trkpt><trkpt lat="55.8009900" lon="49.1079860"><time>2021-09-11T10:08:27</time></trkpt><trkpt lat="55.8011660" lon="49.1078830"><time>2021-09-11T10:08:36</time></trkpt><trkpt lat="55.8012300" lon="49.1078500"><time>2021-09-11T10:08:40</time></trkpt><trkpt lat="55.8012540" lon="49.1078580"><time>2021-09-11T10:08:41</time></trkpt><trkpt lat="55.8012760" lon="49.1078670"><time>2021-09-11T10:08:42</time></trkpt><trkpt lat="55.8013010" lon="49.1078720"><time>2021-09-11T10:08:43</time></trkpt><trkpt lat="55.8013220" lon="49.1078760"><time>2021-09-11T10:08:44</time></trkpt><trkpt lat="55.8013410" lon="49.1078820"><time>2021-09-11T10:08:45</time></trkpt><trkpt lat="55.8013610" lon="49.1078850"><time>2021-09-11T10:08:46</time></trkpt><trkpt lat="55.8013790" lon="49.1078850"><time>2021-09-11T10:08:47</time></trkpt><trkpt lat="55.8016010" lon="49.1078650"><time>2021-09-11T10:08:56</time></trkpt><trkpt lat="55.8018410" lon="49.1078550"><time>2021-09-11T10:09:05</time></trkpt><trkpt lat="55.8020650" lon="49.1078470"><time>2021-09-11T10:09:14</time></trkpt><trkpt lat="55.8022730" lon="49.1078860"><time>2021-09-11T10:09:29</time></trkpt><trkpt lat="55.8023400" lon="49.1078980"><time>2021-09-11T10:09:42</time></trkpt><trkpt lat="55.8023470" lon="49.1078930"><time>2021-09-11T10:09:43</time></trkpt><trkpt lat="55.8023590" lon="49.1078910"><time>2021-09-11T10:09:44</time></trkpt><trkpt lat="55.8023710" lon="49.1078930"><time>2021-09-11T10:09:45</time></trkpt><trkpt lat="55.8023850" lon="49.1079010"><time>2021-09-11T10:09:46</time></trkpt><trkpt lat="55.8023980" lon="49.1079090"><time>2021-09-11T10:09:47</time></trkpt><trkpt lat="55.8024120" lon="49.1079220"><time>2021-09-11T10:09:48</time></trkpt><trkpt lat="55.8024250" lon="49.1079390"><time>2021-09-11T10:09:49</time></trkpt><trkpt lat="55.8024340" lon="49.1079600"><time>2021-09-11T10:09:50</time></trkpt><trkpt lat="55.8024390" lon="49.1079870"><time>2021-09-11T10:09:51</time></trkpt><trkpt lat="55.8024420" lon="49.1080180"><time>2021-09-11T10:09:52</time></trkpt><trkpt lat="55.8024410" lon="49.1080490"><time>2021-09-11T10:09:53</time></trkpt><trkpt lat="55.8024430" lon="49.1080770"><time>2021-09-11T10:09:54</time></trkpt><trkpt lat="55.8024440" lon="49.1081080"><time>2021-09-11T10:09:55</time></trkpt><trkpt lat="55.8024600" lon="49.1082800"><time>2021-09-11T10:10:01</time></trkpt><trkpt lat="55.8024650" lon="49.1083010"><time>2021-09-11T10:10:02</time></trkpt><trkpt lat="55.8024980" lon="49.1083800"><time>2021-09-11T10:10:06</time></trkpt><trkpt lat="55.8025650" lon="49.1085120"><time>2021-09-11T10:10:12</time></trkpt><trkpt lat="55.8025710" lon="49.1085390"><time>2021-09-11T10:10:13</time></trkpt><trkpt lat="55.8025740" lon="49.1085650"><time>2021-09-11T10:10:14</time></trkpt><trkpt lat="55.8025830" lon="49.1085890"><time>2021-09-11T10:10:15</time></trkpt><trkpt lat="55.8025890" lon="49.1086150"><time>2021-09-11T10:10:16</time></trkpt><trkpt lat="55.8025930" lon="49.1086410"><time>2021-09-11T10:10:17</time></trkpt><trkpt lat="55.8025950" lon="49.1086690"><time>2021-09-11T10:10:18</time></trkpt><trkpt lat="55.8026030" lon="49.1086920"><time>2021-09-11T10:10:19</time></trkpt><trkpt lat="55.8026110" lon="49.1087130"><time>2021-09-11T10:10:20</time></trkpt><trkpt lat="55.8027010" lon="49.1090380"><time>2021-09-11T10:10:33</time></trkpt><trkpt lat="55.8027490" lon="49.1094090"><time>2021-09-11T10:10:49</time></trkpt><trkpt lat="55.8027770" lon="49.1098240"><time>2021-09-11T10:11:05</time></trkpt><trkpt lat="55.8027690" lon="49.1098470"><time>2021-09-11T10:11:06</time></trkpt><trkpt lat="55.8027590" lon="49.1098860"><time>2021-09-11T10:11:08</time></trkpt><trkpt lat="55.8027560" lon="49.1099130"><time>2021-09-11T10:11:09</time></trkpt><trkpt lat="55.8027470" lon="49.1099570"><time>2021-09-11T10:11:16</time></trkpt><trkpt lat="55.8027480" lon="49.1099380"><time>2021-09-11T10:11:17</time></trkpt><trkpt lat="55.8027010" lon="49.1096560"><time>2021-09-11T10:11:29</time></trkpt><trkpt lat="55.8026940" lon="49.1093220"><time>2021-09-11T10:11:42</time></trkpt><trkpt lat="55.8026770" lon="49.1089870"><time>2021-09-11T10:11:55</time></trkpt><trkpt lat="55.8026710" lon="49.1086440"><time>2021-09-11T10:12:09</time></trkpt><trkpt lat="55.8026780" lon="49.1082820"><time>2021-09-11T10:12:23</time></trkpt><trkpt lat="55.8026820" lon="49.1080170"><time>2021-09-11T10:12:34</time></trkpt><trkpt lat="55.8026730" lon="49.1079970"><time>2021-09-11T10:12:35</time></trkpt><trkpt lat="55.8026650" lon="49.1079730"><time>2021-09-11T10:12:36</time></trkpt><trkpt lat="55.8026550" lon="49.1079580"><time>2021-09-11T10:12:37</time></trkpt><trkpt lat="55.8026450" lon="49.1079460"><time>2021-09-11T10:12:38</time></trkpt><trkpt lat="55.8026390" lon="49.1079280"><time>2021-09-11T10:12:39</time></trkpt><trkpt lat="55.8026350" lon="49.1079050"><time>2021-09-11T10:12:40</time></trkpt><trkpt lat="55.8026320" lon="49.1078810"><time>2021-09-11T10:12:41</time></trkpt><trkpt lat="55.8026360" lon="49.1078510"><time>2021-09-11T10:12:42</time></trkpt><trkpt lat="55.8026430" lon="49.1078200"><time>2021-09-11T10:12:43</time></trkpt><trkpt lat="55.8026480" lon="49.1077930"><time>2021-09-11T10:12:44</time></trkpt><trkpt lat="55.8026470" lon="49.1074420"><time>2021-09-11T10:12:57</time></trkpt><trkpt lat="55.8026590" lon="49.1070430"><time>2021-09-11T10:13:12</time></trkpt><trkpt lat="55.8026410" lon="49.1066760"><time>2021-09-11T10:13:28</time></trkpt><trkpt lat="55.8025670" lon="49.1061870"><time>2021-09-11T10:13:48</time></trkpt><trkpt lat="55.8025590" lon="49.1061060"><time>2021-09-11T10:13:51</time></trkpt><trkpt lat="55.8025540" lon="49.1060760"><time>2021-09-11T10:13:52</time></trkpt><trkpt lat="55.8025340" lon="49.1056200"><time>2021-09-11T10:14:04</time></trkpt><trkpt lat="55.8024870" lon="49.1052090"><time>2021-09-11T10:14:13</time></trkpt><trkpt lat="55.8024350" lon="49.1048450"><time>2021-09-11T10:14:22</time></trkpt><trkpt lat="55.8023640" lon="49.1044670"><time>2021-09-11T10:14:32</time></trkpt><trkpt lat="55.8022830" lon="49.1041090"><time>2021-09-11T10:14:41</time></trkpt><trkpt lat="55.8021770" lon="49.1037590"><time>2021-09-11T10:14:50</time></trkpt><trkpt lat="55.8020830" lon="49.1034330"><time>2021-09-11T10:14:59</time></trkpt><trkpt lat="55.8019730" lon="49.1031090"><time>2021-09-11T10:15:08</time></trkpt><trkpt lat="55.8018770" lon="49.1027820"><time>2021-09-11T10:15:17</time></trkpt><trkpt lat="55.8017900" lon="49.1024390"><time>2021-09-11T10:15:27</time></trkpt><trkpt lat="55.8017630" lon="49.1020870"><time>2021-09-11T10:15:37</time></trkpt><trkpt lat="55.8017570" lon="49.1020480"><time>2021-09-11T10:15:38</time></trkpt><trkpt lat="55.8017090" lon="49.1019010"><time>2021-09-11T10:15:44</time></trkpt><trkpt lat="55.8016520" lon="49.1018680"><time>2021-09-11T10:15:45</time></trkpt><trkpt lat="55.8016480" lon="49.1018160"><time>2021-09-11T10:15:46</time></trkpt><trkpt lat="55.8016240" lon="49.1017910"><time>2021-09-11T10:15:47</time></trkpt><trkpt lat="55.8016080" lon="49.1017290"><time>2021-09-11T10:15:48</time></trkpt><trkpt lat="55.8016020" lon="49.1016840"><time>2021-09-11T10:15:49</time></trkpt><trkpt lat="55.8014340" lon="49.1014110"><time>2021-09-11T10:15:58</time></trkpt><trkpt lat="55.8012920" lon="49.1011160"><time>2021-09-11T10:16:07</time></trkpt><trkpt lat="55.8011860" lon="49.1008370"><time>2021-09-11T10:16:15</time></trkpt><trkpt lat="55.8010540" lon="49.1005650"><time>2021-09-11T10:16:23</time></trkpt><trkpt lat="55.8008870" lon="49.1002810"><time>2021-09-11T10:16:32</time></trkpt><trkpt lat="55.8007420" lon="49.0999690"><time>2021-09-11T10:16:42</time></trkpt><trkpt lat="55.8006090" lon="49.0996930"><time>2021-09-11T10:16:53</time></trkpt><trkpt lat="55.8004430" lon="49.0994900"><time>2021-09-11T10:17:09</time></trkpt><trkpt lat="55.8004090" lon="49.0994400"><time>2021-09-11T10:17:12</time></trkpt><trkpt lat="55.8002200" lon="49.0992690"><time>2021-09-11T10:17:26</time></trkpt><trkpt lat="55.8001820" lon="49.0991780"><time>2021-09-11T10:17:31</time></trkpt><trkpt lat="55.8001690" lon="49.0991680"><time>2021-09-11T10:17:32</time></trkpt><trkpt lat="55.8001570" lon="49.0991570"><time>2021-09-11T10:17:33</time></trkpt><trkpt lat="55.8001460" lon="49.0991390"><time>2021-09-11T10:17:34</time></trkpt><trkpt lat="55.8001400" lon="49.0991200"><time>2021-09-11T10:17:35</time></trkpt><trkpt lat="55.8001270" lon="49.0990850"><time>2021-09-11T10:17:36</time></trkpt><trkpt lat="55.8001160" lon="49.0990360"><time>2021-09-11T10:17:37</time></trkpt><trkpt lat="55.8001050" lon="49.0990030"><time>2021-09-11T10:17:38</time></trkpt><trkpt lat="55.7999640" lon="49.0986320"><time>2021-09-11T10:17:53</time></trkpt><trkpt lat="55.7998660" lon="49.0983870"><time>2021-09-11T10:18:03</time></trkpt><trkpt lat="55.7997410" lon="49.0980800"><time>2021-09-11T10:18:18</time></trkpt><trkpt lat="55.7996740" lon="49.0978040"><time>2021-09-11T10:18:30</time></trkpt><trkpt lat="55.7996800" lon="49.0977840"><time>2021-09-11T10:18:31</time></trkpt><trkpt lat="55.7996870" lon="49.0977690"><time>2021-09-11T10:18:32</time></trkpt><trkpt lat="55.7996930" lon="49.0977580"><time>2021-09-11T10:18:33</time></trkpt><trkpt lat="55.7996430" lon="49.0977600"><time>2021-09-11T10:18:41</time></trkpt><trkpt lat="55.7996300" lon="49.0977430"><time>2021-09-11T10:18:42</time></trkpt><trkpt lat="55.7996160" lon="49.0977230"><time>2021-09-11T10:18:43</time></trkpt><trkpt lat="55.7994560" lon="49.0974590"><time>2021-09-11T10:18:58</time></trkpt><trkpt lat="55.7992820" lon="49.0972630"><time>2021-09-11T10:19:14</time></trkpt><trkpt lat="55.7991480" lon="49.0971640"><time>2021-09-11T10:19:29</time></trkpt><trkpt lat="55.7991160" lon="49.0971750"><time>2021-09-11T10:19:32</time></trkpt><trkpt lat="55.7990960" lon="49.0971750"><time>2021-09-11T10:19:33</time></trkpt><trkpt lat="55.7990810" lon="49.0971790"><time>2021-09-11T10:19:34</time></trkpt><trkpt lat="55.7990680" lon="49.0971790"><time>2021-09-11T10:19:35</time></trkpt><trkpt lat="55.7990550" lon="49.0971740"><time>2021-09-11T10:19:36</time></trkpt><trkpt lat="55.7990440" lon="49.0971580"><time>2021-09-11T10:19:37</time></trkpt><trkpt lat="55.7990340" lon="49.0971360"><time>2021-09-11T10:19:38</time></trkpt><trkpt lat="55.7989050" lon="49.0968370"><time>2021-09-11T10:19:52</time></trkpt><trkpt lat="55.7987270" lon="49.0965730"><time>2021-09-11T10:20:07</time></trkpt><trkpt lat="55.7985710" lon="49.0962310"><time>2021-09-11T10:20:23</time></trkpt><trkpt lat="55.7984350" lon="49.0959210"><time>2021-09-11T10:20:37</time></trkpt><trkpt lat="55.7983390" lon="49.0956990"><time>2021-09-11T10:20:48</time></trkpt><trkpt lat="55.7983300" lon="49.0956770"><time>2021-09-11T10:20:49</time></trkpt><trkpt lat="55.7983220" lon="49.0956600"><time>2021-09-11T10:20:50</time></trkpt><trkpt lat="55.7983130" lon="49.0956430"><time>2021-09-11T10:20:51</time></trkpt><trkpt lat="55.7983040" lon="49.0956270"><time>2021-09-11T10:20:52</time></trkpt><trkpt lat="55.7983010" lon="49.0956070"><time>2021-09-11T10:20:53</time></trkpt><trkpt lat="55.7982940" lon="49.0955880"><time>2021-09-11T10:20:54</time></trkpt><trkpt lat="55.7982810" lon="49.0955680"><time>2021-09-11T10:20:55</time></trkpt><trkpt lat="55.7982740" lon="49.0955430"><time>2021-09-11T10:20:56</time></trkpt><trkpt lat="55.7982310" lon="49.0954440"><time>2021-09-11T10:21:01</time></trkpt><trkpt lat="55.7981960" lon="49.0953720"><time>2021-09-11T10:21:04</time></trkpt><trkpt lat="55.7980660" lon="49.0951460"><time>2021-09-11T10:21:14</time></trkpt><trkpt lat="55.7980560" lon="49.0951190"><time>2021-09-11T10:21:15</time></trkpt><trkpt lat="55.7978840" lon="49.0948440"><time>2021-09-11T10:21:30</time></trkpt><trkpt lat="55.7977500" lon="49.0944780"><time>2021-09-11T10:21:45</time></trkpt><trkpt lat="55.7976000" lon="49.0941920"><time>2021-09-11T10:21:58</time></trkpt><trkpt lat="55.7974730" lon="49.0938640"><time>2021-09-11T10:22:11</time></trkpt><trkpt lat="55.7973360" lon="49.0936160"><time>2021-09-11T10:22:24</time></trkpt><trkpt lat="55.7971850" lon="49.0932520"><time>2021-09-11T10:22:38</time></trkpt><trkpt lat="55.7970340" lon="49.0929800"><time>2021-09-11T10:22:54</time></trkpt><trkpt lat="55.7969030" lon="49.0926710"><time>2021-09-11T10:23:07</time></trkpt><trkpt lat="55.7967520" lon="49.0923870"><time>2021-09-11T10:23:22</time></trkpt><trkpt lat="55.7965880" lon="49.0920360"><time>2021-09-11T10:23:40</time></trkpt><trkpt lat="55.7964280" lon="49.0918090"><time>2021-09-11T10:23:50</time></trkpt><trkpt lat="55.7964300" lon="49.0917840"><time>2021-09-11T10:23:51</time></trkpt><trkpt lat="55.7964340" lon="49.0917560"><time>2021-09-11T10:23:52</time></trkpt><trkpt lat="55.7964340" lon="49.0917240"><time>2021-09-11T10:23:53</time></trkpt><trkpt lat="55.7964320" lon="49.0916980"><time>2021-09-11T10:23:54</time></trkpt><trkpt lat="55.7963660" lon="49.0915320"><time>2021-09-11T10:24:05</time></trkpt><trkpt lat="55.7963650" lon="49.0915080"><time>2021-09-11T10:24:06</time></trkpt><trkpt lat="55.7963650" lon="49.0914760"><time>2021-09-11T10:24:07</time></trkpt><trkpt lat="55.7963390" lon="49.0910150"><time>2021-09-11T10:24:22</time></trkpt><trkpt lat="55.7963320" lon="49.0906250"><time>2021-09-11T10:24:30</time></trkpt><trkpt lat="55.7963410" lon="49.0902310"><time>2021-09-11T10:24:39</time></trkpt><trkpt lat="55.7963480" lon="49.0898860"><time>2021-09-11T10:24:47</time></trkpt><trkpt lat="55.7963960" lon="49.0895220"><time>2021-09-11T10:24:56</time></trkpt><trkpt lat="55.7964640" lon="49.0891750"><time>2021-09-11T10:25:05</time></trkpt><trkpt lat="55.7965220" lon="49.0888370"><time>2021-09-11T10:25:14</time></trkpt><trkpt lat="55.7966160" lon="49.0885320"><time>2021-09-11T10:25:23</time></trkpt><trkpt lat="55.7967780" lon="49.0882730"><time>2021-09-11T10:25:32</time></trkpt><trkpt lat="55.7969700" lon="49.0881850"><time>2021-09-11T10:25:41</time></trkpt><trkpt lat="55.7971760" lon="49.0881460"><time>2021-09-11T10:25:51</time></trkpt><trkpt lat="55.7973610" lon="49.0879950"><time>2021-09-11T10:26:02</time></trkpt><trkpt lat="55.7973630" lon="49.0879600"><time>2021-09-11T10:26:03</time></trkpt><trkpt lat="55.7973610" lon="49.0879270"><time>2021-09-11T10:26:04</time></trkpt><trkpt lat="55.7973560" lon="49.0878940"><time>2021-09-11T10:26:05</time></trkpt><trkpt lat="55.7973500" lon="49.0878620"><time>2021-09-11T10:26:06</time></trkpt><trkpt lat="55.7973070" lon="49.0877730"><time>2021-09-11T10:26:10</time></trkpt><trkpt lat="55.7972870" lon="49.0877680"><time>2021-09-11T10:26:11</time></trkpt><trkpt lat="55.7972660" lon="49.0877690"><time>2021-09-11T10:26:12</time></trkpt><trkpt lat="55.7972440" lon="49.0877690"><time>2021-09-11T10:26:13</time></trkpt><trkpt lat="55.7972260" lon="49.0877600"><time>2021-09-11T10:26:14</time></trkpt><trkpt lat="55.7972050" lon="49.0877530"><time>2021-09-11T10:26:15</time></trkpt><trkpt lat="55.7971820" lon="49.0877480"><time>2021-09-11T10:26:16</time></trkpt><trkpt lat="55.7970320" lon="49.0878940"><time>2021-09-11T10:26:31</time></trkpt><trkpt lat="55.7969940" lon="49.0879410"><time>2021-09-11T10:26:34</time></trkpt><trkpt lat="55.7969770" lon="49.0879460"><time>2021-09-11T10:26:35</time></trkpt><trkpt lat="55.7969650" lon="49.0879470"><time>2021-09-11T10:26:36</time></trkpt><trkpt lat="55.7969460" lon="49.0879480"><time>2021-09-11T10:26:37</time></trkpt><trkpt lat="55.7969320" lon="49.0879460"><time>2021-09-11T10:26:38</time></trkpt><trkpt lat="55.7968600" lon="49.0879150"><time>2021-09-11T10:26:43</time></trkpt><trkpt lat="55.7968590" lon="49.0878920"><time>2021-09-11T10:26:44</time></trkpt><trkpt lat="55.7968530" lon="49.0878480"><time>2021-09-11T10:26:46</time></trkpt><trkpt lat="55.7968560" lon="49.0878220"><time>2021-09-11T10:26:47</time></trkpt><trkpt lat="55.7968550" lon="49.0877940"><time>2021-09-11T10:26:48</time></trkpt><trkpt lat="55.7968840" lon="49.0874090"><time>2021-09-11T10:27:00</time></trkpt><trkpt lat="55.7969530" lon="49.0870550"><time>2021-09-11T10:27:09</time></trkpt><trkpt lat="55.7969450" lon="49.0866640"><time>2021-09-11T10:27:18</time></trkpt><trkpt lat="55.7969810" lon="49.0863020"><time>2021-09-11T10:27:27</time></trkpt><trkpt lat="55.7970320" lon="49.0859460"><time>2021-09-11T10:27:36</time></trkpt><trkpt lat="55.7970810" lon="49.0855880"><time>2021-09-11T10:27:45</time></trkpt><trkpt lat="55.7971270" lon="49.0852220"><time>2021-09-11T10:27:54</time></trkpt><trkpt lat="55.7971570" lon="49.0848730"><time>2021-09-11T10:28:02</time></trkpt><trkpt lat="55.7972480" lon="49.0845370"><time>2021-09-11T10:28:11</time></trkpt><trkpt lat="55.7972710" lon="49.0842030"><time>2021-09-11T10:28:19</time></trkpt><trkpt lat="55.7973010" lon="49.0838710"><time>2021-09-11T10:28:27</time></trkpt><trkpt lat="55.7974040" lon="49.0835480"><time>2021-09-11T10:28:36</time></trkpt><trkpt lat="55.7974940" lon="49.0832320"><time>2021-09-11T10:28:45</time></trkpt><trkpt lat="55.7975040" lon="49.0832010"><time>2021-09-11T10:28:46</time></trkpt><trkpt lat="55.7975710" lon="49.0829090"><time>2021-09-11T10:28:54</time></trkpt><trkpt lat="55.7976110" lon="49.0825360"><time>2021-09-11T10:29:03</time></trkpt><trkpt lat="55.7976640" lon="49.0821900"><time>2021-09-11T10:29:12</time></trkpt><trkpt lat="55.7977350" lon="49.0818480"><time>2021-09-11T10:29:21</time></trkpt><trkpt lat="55.7977270" lon="49.0814970"><time>2021-09-11T10:29:30</time></trkpt><trkpt lat="55.7977740" lon="49.0811430"><time>2021-09-11T10:29:39</time></trkpt><trkpt lat="55.7978620" lon="49.0808180"><time>2021-09-11T10:29:48</time></trkpt><trkpt lat="55.7979030" lon="49.0806050"><time>2021-09-11T10:29:56</time></trkpt><trkpt lat="55.7979030" lon="49.0805850"><time>2021-09-11T10:29:57</time></trkpt><trkpt lat="55.7979010" lon="49.0805700"><time>2021-09-11T10:29:58</time></trkpt><trkpt lat="55.7979030" lon="49.0805530"><time>2021-09-11T10:29:59</time></trkpt><trkpt lat="55.7979020" lon="49.0805360"><time>2021-09-11T10:30:00</time></trkpt><trkpt lat="55.7978950" lon="49.0805190"><time>2021-09-11T10:30:01</time></trkpt><trkpt lat="55.7978870" lon="49.0805050"><time>2021-09-11T10:30:02</time></trkpt><trkpt lat="55.7978420" lon="49.0804440"><time>2021-09-11T10:30:16</time></trkpt><trkpt lat="55.7978310" lon="49.0803480"><time>2021-09-11T10:30:24</time></trkpt><trkpt lat="55.7978870" lon="49.0799420"><time>2021-09-11T10:30:42</time></trkpt><trkpt lat="55.7979470" lon="49.0796250"><time>2021-09-11T10:30:54</time></trkpt><trkpt lat="55.7980270" lon="49.0792000"><time>2021-09-11T10:31:12</time></trkpt><trkpt lat="55.7980730" lon="49.0789350"><time>2021-09-11T10:31:23</time></trkpt><trkpt lat="55.7980760" lon="49.0789040"><time>2021-09-11T10:31:24</time></trkpt><trkpt lat="55.7980770" lon="49.0788750"><time>2021-09-11T10:31:25</time></trkpt><trkpt lat="55.7980780" lon="49.0788500"><time>2021-09-11T10:31:26</time></trkpt><trkpt lat="55.7980770" lon="49.0788230"><time>2021-09-11T10:31:27</time></trkpt><trkpt lat="55.7980760" lon="49.0787980"><time>2021-09-11T10:31:28</time></trkpt><trkpt lat="55.7981490" lon="49.0783850"><time>2021-09-11T10:31:45</time></trkpt><trkpt lat="55.7981470" lon="49.0783590"><time>2021-09-11T10:31:46</time></trkpt><trkpt lat="55.7981490" lon="49.0783340"><time>2021-09-11T10:31:47</time></trkpt><trkpt lat="55.7981490" lon="49.0783080"><time>2021-09-11T10:31:48</time></trkpt><trkpt lat="55.7981540" lon="49.0782850"><time>2021-09-11T10:31:49</time></trkpt><trkpt lat="55.7981590" lon="49.0782620"><time>2021-09-11T10:31:50</time></trkpt><trkpt lat="55.7981640" lon="49.0782380"><time>2021-09-11T10:31:51</time></trkpt><trkpt lat="55.7981630" lon="49.0782160"><time>2021-09-11T10:31:52</time></trkpt><trkpt lat="55.7981630" lon="49.0781900"><time>2021-09-11T10:31:53</time></trkpt><trkpt lat="55.7982100" lon="49.0779480"><time>2021-09-11T10:32:03</time></trkpt><trkpt lat="55.7982200" lon="49.0778880"><time>2021-09-11T10:32:05</time></trkpt><trkpt lat="55.7982600" lon="49.0776320"><time>2021-09-11T10:32:13</time></trkpt><trkpt lat="55.7983070" lon="49.0774650"><time>2021-09-11T10:32:19</time></trkpt><trkpt lat="55.7984110" lon="49.0770830"><time>2021-09-11T10:32:32</time></trkpt><trkpt lat="55.7984820" lon="49.0766380"><time>2021-09-11T10:32:47</time></trkpt><trkpt lat="55.7985150" lon="49.0764190"><time>2021-09-11T10:32:52</time></trkpt><trkpt lat="55.7985130" lon="49.0763700"><time>2021-09-11T10:32:53</time></trkpt><trkpt lat="55.7985180" lon="49.0763190"><time>2021-09-11T10:32:54</time></trkpt><trkpt lat="55.7985250" lon="49.0762710"><time>2021-09-11T10:32:55</time></trkpt><trkpt lat="55.7985330" lon="49.0762260"><time>2021-09-11T10:32:56</time></trkpt><trkpt lat="55.7985850" lon="49.0758500"><time>2021-09-11T10:33:05</time></trkpt><trkpt lat="55.7986800" lon="49.0755170"><time>2021-09-11T10:33:14</time></trkpt><trkpt lat="55.7987710" lon="49.0751680"><time>2021-09-11T10:33:23</time></trkpt><trkpt lat="55.7989020" lon="49.0748580"><time>2021-09-11T10:33:32</time></trkpt><trkpt lat="55.7990100" lon="49.0745510"><time>2021-09-11T10:33:41</time></trkpt><trkpt lat="55.7991000" lon="49.0742260"><time>2021-09-11T10:33:50</time></trkpt><trkpt lat="55.7992250" lon="49.0739250"><time>2021-09-11T10:33:59</time></trkpt><trkpt lat="55.7993670" lon="49.0736440"><time>2021-09-11T10:34:08</time></trkpt><trkpt lat="55.7995160" lon="49.0733920"><time>2021-09-11T10:34:16</time></trkpt><trkpt lat="55.7996650" lon="49.0731210"><time>2021-09-11T10:34:25</time></trkpt><trkpt lat="55.7998090" lon="49.0728360"><time>2021-09-11T10:34:34</time></trkpt><trkpt lat="55.7999400" lon="49.0725350"><time>2021-09-11T10:34:43</time></trkpt><trkpt lat="55.8000490" lon="49.0722320"><time>2021-09-11T10:34:52</time></trkpt><trkpt lat="55.8001870" lon="49.0719520"><time>2021-09-11T10:35:01</time></trkpt><trkpt lat="55.8003310" lon="49.0716520"><time>2021-09-11T10:35:10</time></trkpt><trkpt lat="55.8004690" lon="49.0714100"><time>2021-09-11T10:35:18</time></trkpt><trkpt lat="55.8006020" lon="49.0711230"><time>2021-09-11T10:35:27</time></trkpt><trkpt lat="55.8007620" lon="49.0709420"><time>2021-09-11T10:35:35</time></trkpt><trkpt lat="55.8008360" lon="49.0708720"><time>2021-09-11T10:35:40</time></trkpt><trkpt lat="55.8008460" lon="49.0708440"><time>2021-09-11T10:35:41</time></trkpt><trkpt lat="55.8008620" lon="49.0708100"><time>2021-09-11T10:35:42</time></trkpt><trkpt lat="55.8008780" lon="49.0707730"><time>2021-09-11T10:35:43</time></trkpt><trkpt lat="55.8008900" lon="49.0707310"><time>2021-09-11T10:35:44</time></trkpt><trkpt lat="55.8009010" lon="49.0706910"><time>2021-09-11T10:35:45</time></trkpt><trkpt lat="55.8010170" lon="49.0704100"><time>2021-09-11T10:35:54</time></trkpt><trkpt lat="55.8010370" lon="49.0702680"><time>2021-09-11T10:36:10</time></trkpt><trkpt lat="55.8010560" lon="49.0702420"><time>2021-09-11T10:36:17</time></trkpt><trkpt lat="55.8010730" lon="49.0702230"><time>2021-09-11T10:36:18</time></trkpt><trkpt lat="55.8012140" lon="49.0700510"><time>2021-09-11T10:36:26</time></trkpt><trkpt lat="55.8012360" lon="49.0700560"><time>2021-09-11T10:36:27</time></trkpt><trkpt lat="55.8012580" lon="49.0700710"><time>2021-09-11T10:36:28</time></trkpt><trkpt lat="55.8013720" lon="49.0702100"><time>2021-09-11T10:36:35</time></trkpt><trkpt lat="55.8014190" lon="49.0702780"><time>2021-09-11T10:36:38</time></trkpt><trkpt lat="55.8015780" lon="49.0705010"><time>2021-09-11T10:36:48</time></trkpt><trkpt lat="55.8017170" lon="49.0707630"><time>2021-09-11T10:36:57</time></trkpt><trkpt lat="55.8018410" lon="49.0710530"><time>2021-09-11T10:37:07</time></trkpt><trkpt lat="55.8020200" lon="49.0712570"><time>2021-09-11T10:37:17</time></trkpt><trkpt lat="55.8022380" lon="49.0714480"><time>2021-09-11T10:37:26</time></trkpt><trkpt lat="55.8024130" lon="49.0716520"><time>2021-09-11T10:37:35</time></trkpt><trkpt lat="55.8024630" lon="49.0717020"><time>2021-09-11T10:37:40</time></trkpt><trkpt lat="55.8024770" lon="49.0717000"><time>2021-09-11T10:37:41</time></trkpt><trkpt lat="55.8024910" lon="49.0716960"><time>2021-09-11T10:37:42</time></trkpt><trkpt lat="55.8025220" lon="49.0716630"><time>2021-09-11T10:37:45</time></trkpt><trkpt lat="55.8025280" lon="49.0716430"><time>2021-09-11T10:37:46</time></trkpt><trkpt lat="55.8025350" lon="49.0716220"><time>2021-09-11T10:37:47</time></trkpt><trkpt lat="55.8025440" lon="49.0716000"><time>2021-09-11T10:37:48</time></trkpt><trkpt lat="55.8025550" lon="49.0715810"><time>2021-09-11T10:37:49</time></trkpt><trkpt lat="55.8025640" lon="49.0715630"><time>2021-09-11T10:37:50</time></trkpt><trkpt lat="55.8025720" lon="49.0715400"><time>2021-09-11T10:37:51</time></trkpt><trkpt lat="55.8025860" lon="49.0715190"><time>2021-09-11T10:37:52</time></trkpt><trkpt lat="55.8026000" lon="49.0714990"><time>2021-09-11T10:37:53</time></trkpt><trkpt lat="55.8026290" lon="49.0714480"><time>2021-09-11T10:37:56</time></trkpt><trkpt lat="55.8026290" lon="49.0714220"><time>2021-09-11T10:37:57</time></trkpt><trkpt lat="55.8026360" lon="49.0713990"><time>2021-09-11T10:37:58</time></trkpt><trkpt lat="55.8026430" lon="49.0713780"><time>2021-09-11T10:37:59</time></trkpt><trkpt lat="55.8026440" lon="49.0713560"><time>2021-09-11T10:38:00</time></trkpt><trkpt lat="55.8026350" lon="49.0713330"><time>2021-09-11T10:38:01</time></trkpt><trkpt lat="55.8026310" lon="49.0713100"><time>2021-09-11T10:38:02</time></trkpt><trkpt lat="55.8026280" lon="49.0712840"><time>2021-09-11T10:38:03</time></trkpt><trkpt lat="55.8026300" lon="49.0712620"><time>2021-09-11T10:38:04</time></trkpt><trkpt lat="55.8026330" lon="49.0712400"><time>2021-09-11T10:38:05</time></trkpt><trkpt lat="55.8026390" lon="49.0712190"><time>2021-09-11T10:38:06</time></trkpt><trkpt lat="55.8026470" lon="49.0712010"><time>2021-09-11T10:38:07</time></trkpt><trkpt lat="55.8026580" lon="49.0711840"><time>2021-09-11T10:38:08</time></trkpt><trkpt lat="55.8026620" lon="49.0711680"><time>2021-09-11T10:38:09</time></trkpt><trkpt lat="55.8026660" lon="49.0711490"><time>2021-09-11T10:38:10</time></trkpt><trkpt lat="55.8026690" lon="49.0711240"><time>2021-09-11T10:38:11</time></trkpt><trkpt lat="55.8026700" lon="49.0711010"><time>2021-09-11T10:38:12</time></trkpt><trkpt lat="55.8026770" lon="49.0709770"><time>2021-09-11T10:38:17</time></trkpt><trkpt lat="55.8026860" lon="49.0709600"><time>2021-09-11T10:38:18</time></trkpt><trkpt lat="55.8026860" lon="49.0709330"><time>2021-09-11T10:38:19</time></trkpt><trkpt lat="55.8026820" lon="49.0709070"><time>2021-09-11T10:38:20</time></trkpt><trkpt lat="55.8026900" lon="49.0708810"><time>2021-09-11T10:38:21</time></trkpt><trkpt lat="55.8026920" lon="49.0708610"><time>2021-09-11T10:38:22</time></trkpt><trkpt lat="55.8026940" lon="49.0708380"><time>2021-09-11T10:38:23</time></trkpt><trkpt lat="55.8026980" lon="49.0708140"><time>2021-09-11T10:38:24</time></trkpt><trkpt lat="55.8026970" lon="49.0707890"><time>2021-09-11T10:38:25</time></trkpt><trkpt lat="55.8026970" lon="49.0707660"><time>2021-09-11T10:38:26</time></trkpt><trkpt lat="55.8026950" lon="49.0707400"><time>2021-09-11T10:38:27</time></trkpt><trkpt lat="55.8026920" lon="49.0707040"><time>2021-09-11T10:38:28</time></trkpt><trkpt lat="55.8026860" lon="49.0706740"><time>2021-09-11T10:38:29</time></trkpt><trkpt lat="55.8026870" lon="49.0706520"><time>2021-09-11T10:38:30</time></trkpt><trkpt lat="55.8026870" lon="49.0706290"><time>2021-09-11T10:38:31</time></trkpt><trkpt lat="55.8026880" lon="49.0706010"><time>2021-09-11T10:38:32</time></trkpt><trkpt lat="55.8027700" lon="49.0702660"><time>2021-09-11T10:38:47</time></trkpt><trkpt lat="55.8028050" lon="49.0701940"><time>2021-09-11T10:38:51</time></trkpt><trkpt lat="55.8028130" lon="49.0701720"><time>2021-09-11T10:38:52</time></trkpt><trkpt lat="55.8028210" lon="49.0701530"><time>2021-09-11T10:38:53</time></trkpt><trkpt lat="55.8028300" lon="49.0701380"><time>2021-09-11T10:38:54</time></trkpt><trkpt lat="55.8028410" lon="49.0701280"><time>2021-09-11T10:38:55</time></trkpt><trkpt lat="55.8028490" lon="49.0701130"><time>2021-09-11T10:38:56</time></trkpt><trkpt lat="55.8028560" lon="49.0700950"><time>2021-09-11T10:38:57</time></trkpt><trkpt lat="55.8028660" lon="49.0700840"><time>2021-09-11T10:38:58</time></trkpt><trkpt lat="55.8028790" lon="49.0700750"><time>2021-09-11T10:38:59</time></trkpt><trkpt lat="55.8028910" lon="49.0700640"><time>2021-09-11T10:39:00</time></trkpt><trkpt lat="55.8028940" lon="49.0700430"><time>2021-09-11T10:39:01</time></trkpt><trkpt lat="55.8029010" lon="49.0700250"><time>2021-09-11T10:39:02</time></trkpt><trkpt lat="55.8029100" lon="49.0700060"><time>2021-09-11T10:39:03</time></trkpt><trkpt lat="55.8029320" lon="49.0699730"><time>2021-09-11T10:39:04</time></trkpt><trkpt lat="55.8029450" lon="49.0699580"><time>2021-09-11T10:39:05</time></trkpt><trkpt lat="55.8029590" lon="49.0699390"><time>2021-09-11T10:39:06</time></trkpt><trkpt lat="55.8029880" lon="49.0698930"><time>2021-09-11T10:39:07</time></trkpt><trkpt lat="55.8029990" lon="49.0698080"><time>2021-09-11T10:39:09</time></trkpt><trkpt lat="55.8030000" lon="49.0697570"><time>2021-09-11T10:39:10</time></trkpt><trkpt lat="55.8030100" lon="49.0697130"><time>2021-09-11T10:39:11</time></trkpt><trkpt lat="55.8030540" lon="49.0692270"><time>2021-09-11T10:39:25</time></trkpt><trkpt lat="55.8032950" lon="49.0689500"><time>2021-09-11T10:39:39</time></trkpt><trkpt lat="55.8034680" lon="49.0686970"><time>2021-09-11T10:39:52</time></trkpt><trkpt lat="55.8035170" lon="49.0685590"><time>2021-09-11T10:39:58</time></trkpt><trkpt lat="55.8035200" lon="49.0685350"><time>2021-09-11T10:39:59</time></trkpt><trkpt lat="55.8035300" lon="49.0684550"><time>2021-09-11T10:40:03</time></trkpt><trkpt lat="55.8035280" lon="49.0684340"><time>2021-09-11T10:40:04</time></trkpt><trkpt lat="55.8035280" lon="49.0684130"><time>2021-09-11T10:40:05</time></trkpt><trkpt lat="55.8035250" lon="49.0683940"><time>2021-09-11T10:40:06</time></trkpt><trkpt lat="55.8035260" lon="49.0683740"><time>2021-09-11T10:40:07</time></trkpt><trkpt lat="55.8035290" lon="49.0683590"><time>2021-09-11T10:40:08</time></trkpt><trkpt lat="55.8035510" lon="49.0682840"><time>2021-09-11T10:40:13</time></trkpt><trkpt lat="55.8035790" lon="49.0682150"><time>2021-09-11T10:40:26</time></trkpt><trkpt lat="55.8036240" lon="49.0681560"><time>2021-09-11T10:40:40</time></trkpt><trkpt lat="55.8036320" lon="49.0681520"><time>2021-09-11T10:40:41</time></trkpt><trkpt lat="55.8036410" lon="49.0681290"><time>2021-09-11T10:40:45</time></trkpt><trkpt lat="55.8036600" lon="49.0681240"><time>2021-09-11T10:40:49</time></trkpt><trkpt lat="55.8036660" lon="49.0681340"><time>2021-09-11T10:40:50</time></trkpt><trkpt lat="55.8036520" lon="49.0682120"><time>2021-09-11T10:41:03</time></trkpt><trkpt lat="55.8036410" lon="49.0682210"><time>2021-09-11T10:41:04</time></trkpt><trkpt lat="55.8036360" lon="49.0682340"><time>2021-09-11T10:41:06</time></trkpt><trkpt lat="55.8035630" lon="49.0683020"><time>2021-09-11T10:41:25</time></trkpt><trkpt lat="55.8035730" lon="49.0683030"><time>2021-09-11T10:41:29</time></trkpt><trkpt lat="55.8035720" lon="49.0683200"><time>2021-09-11T10:41:30</time></trkpt><trkpt lat="55.8036140" lon="49.0683200"><time>2021-09-11T10:41:41</time></trkpt><trkpt lat="55.8036280" lon="49.0681950"><time>2021-09-11T10:42:28</time></trkpt><trkpt lat="55.8036920" lon="49.0681760"><time>2021-09-11T10:42:42</time></trkpt><trkpt lat="55.8039600" lon="49.0682900"><time>2021-09-11T10:42:56</time></trkpt><trkpt lat="55.8041750" lon="49.0684480"><time>2021-09-11T10:43:10</time></trkpt><trkpt lat="55.8042960" lon="49.0686130"><time>2021-09-11T10:43:40</time></trkpt><trkpt lat="55.8042760" lon="49.0685870"><time>2021-09-11T10:43:48</time></trkpt><trkpt lat="55.8042660" lon="49.0685810"><time>2021-09-11T10:43:49</time></trkpt><trkpt lat="55.8041980" lon="49.0685200"><time>2021-09-11T10:43:55</time></trkpt><trkpt lat="55.8039440" lon="49.0683560"><time>2021-09-11T10:44:11</time></trkpt><trkpt lat="55.8037510" lon="49.0682510"><time>2021-09-11T10:44:25</time></trkpt><trkpt lat="55.8036740" lon="49.0682480"><time>2021-09-11T10:44:31</time></trkpt><trkpt lat="55.8036630" lon="49.0682590"><time>2021-09-11T10:44:32</time></trkpt><trkpt lat="55.8036530" lon="49.0682770"><time>2021-09-11T10:44:33</time></trkpt><trkpt lat="55.8034800" lon="49.0685400"><time>2021-09-11T10:44:49</time></trkpt><trkpt lat="55.8034030" lon="49.0688830"><time>2021-09-11T10:45:03</time></trkpt><trkpt lat="55.8033870" lon="49.0689190"><time>2021-09-11T10:45:04</time></trkpt><trkpt lat="55.8033680" lon="49.0689540"><time>2021-09-11T10:45:05</time></trkpt><trkpt lat="55.8033570" lon="49.0690000"><time>2021-09-11T10:45:06</time></trkpt><trkpt lat="55.8033430" lon="49.0690430"><time>2021-09-11T10:45:07</time></trkpt><trkpt lat="55.8033310" lon="49.0690850"><time>2021-09-11T10:45:08</time></trkpt><trkpt lat="55.8031840" lon="49.0693670"><time>2021-09-11T10:45:16</time></trkpt><trkpt lat="55.8030710" lon="49.0696710"><time>2021-09-11T10:45:24</time></trkpt><trkpt lat="55.8029770" lon="49.0700060"><time>2021-09-11T10:45:33</time></trkpt><trkpt lat="55.8028560" lon="49.0703250"><time>2021-09-11T10:45:42</time></trkpt><trkpt lat="55.8027830" lon="49.0706950"><time>2021-09-11T10:45:51</time></trkpt><trkpt lat="55.8027090" lon="49.0710200"><time>2021-09-11T10:45:59</time></trkpt><trkpt lat="55.8026370" lon="49.0713510"><time>2021-09-11T10:46:07</time></trkpt><trkpt lat="55.8025440" lon="49.0716720"><time>2021-09-11T10:46:16</time></trkpt><trkpt lat="55.8025090" lon="49.0719270"><time>2021-09-11T10:46:23</time></trkpt><trkpt lat="55.8025240" lon="49.0719520"><time>2021-09-11T10:46:24</time></trkpt><trkpt lat="55.8027010" lon="49.0721650"><time>2021-09-11T10:46:34</time></trkpt><trkpt lat="55.8028240" lon="49.0723230"><time>2021-09-11T10:46:40</time></trkpt><trkpt lat="55.8029090" lon="49.0724160"><time>2021-09-11T10:46:44</time></trkpt><trkpt lat="55.8030790" lon="49.0726550"><time>2021-09-11T10:46:54</time></trkpt><trkpt lat="55.8032450" lon="49.0729240"><time>2021-09-11T10:47:04</time></trkpt><trkpt lat="55.8034030" lon="49.0731950"><time>2021-09-11T10:47:14</time></trkpt><trkpt lat="55.8035940" lon="49.0734520"><time>2021-09-11T10:47:24</time></trkpt><trkpt lat="55.8037720" lon="49.0737070"><time>2021-09-11T10:47:34</time></trkpt><trkpt lat="55.8039650" lon="49.0739230"><time>2021-09-11T10:47:44</time></trkpt><trkpt lat="55.8041840" lon="49.0739790"><time>2021-09-11T10:47:54</time></trkpt><trkpt lat="55.8043980" lon="49.0739020"><time>2021-09-11T10:48:05</time></trkpt><trkpt lat="55.8046240" lon="49.0738130"><time>2021-09-11T10:48:16</time></trkpt><trkpt lat="55.8048750" lon="49.0737130"><time>2021-09-11T10:48:26</time></trkpt><trkpt lat="55.8050550" lon="49.0734490"><time>2021-09-11T10:48:35</time></trkpt><trkpt lat="55.8051960" lon="49.0731880"><time>2021-09-11T10:48:43</time></trkpt><trkpt lat="55.8053290" lon="49.0729310"><time>2021-09-11T10:48:52</time></trkpt><trkpt lat="55.8054540" lon="49.0726600"><time>2021-09-11T10:49:00</time></trkpt><trkpt lat="55.8055850" lon="49.0723790"><time>2021-09-11T10:49:09</time></trkpt><trkpt lat="55.8057300" lon="49.0721010"><time>2021-09-11T10:49:18</time></trkpt><trkpt lat="55.8058720" lon="49.0718730"><time>2021-09-11T10:49:26</time></trkpt><trkpt lat="55.8060120" lon="49.0716580"><time>2021-09-11T10:49:34</time></trkpt><trkpt lat="55.8061190" lon="49.0713570"><time>2021-09-11T10:49:43</time></trkpt><trkpt lat="55.8061560" lon="49.0712130"><time>2021-09-11T10:49:48</time></trkpt><trkpt lat="55.8061500" lon="49.0711730"><time>2021-09-11T10:49:49</time></trkpt><trkpt lat="55.8061410" lon="49.0711370"><time>2021-09-11T10:49:50</time></trkpt><trkpt lat="55.8061300" lon="49.0710990"><time>2021-09-11T10:49:51</time></trkpt><trkpt lat="55.8061180" lon="49.0710580"><time>2021-09-11T10:49:52</time></trkpt><trkpt lat="55.8059580" lon="49.0708130"><time>2021-09-11T10:50:01</time></trkpt><trkpt lat="55.8057850" lon="49.0706320"><time>2021-09-11T10:50:09</time></trkpt><trkpt lat="55.8056210" lon="49.0704320"><time>2021-09-11T10:50:18</time></trkpt><trkpt lat="55.8054520" lon="49.0702110"><time>2021-09-11T10:50:27</time></trkpt><trkpt lat="55.8052850" lon="49.0699820"><time>2021-09-11T10:50:37</time></trkpt><trkpt lat="55.8051350" lon="49.0697680"><time>2021-09-11T10:50:46</time></trkpt><trkpt lat="55.8051300" lon="49.0697770"><time>2021-09-11T10:50:50</time></trkpt><trkpt lat="55.8051470" lon="49.0698070"><time>2021-09-11T10:50:51</time></trkpt><trkpt lat="55.8051670" lon="49.0698300"><time>2021-09-11T10:50:52</time></trkpt><trkpt lat="55.8053300" lon="49.0700270"><time>2021-09-11T10:51:01</time></trkpt><trkpt lat="55.8055260" lon="49.0702160"><time>2021-09-11T10:51:10</time></trkpt><trkpt lat="55.8057290" lon="49.0704060"><time>2021-09-11T10:51:20</time></trkpt><trkpt lat="55.8059250" lon="49.0705810"><time>2021-09-11T10:51:35</time></trkpt><trkpt lat="55.8061320" lon="49.0707870"><time>2021-09-11T10:51:53</time></trkpt><trkpt lat="55.8062780" lon="49.0708640"><time>2021-09-11T10:52:03</time></trkpt><trkpt lat="55.8062940" lon="49.0709040"><time>2021-09-11T10:52:04</time></trkpt><trkpt lat="55.8063050" lon="49.0709440"><time>2021-09-11T10:52:05</time></trkpt><trkpt lat="55.8064390" lon="49.0713260"><time>2021-09-11T10:52:14</time></trkpt><trkpt lat="55.8065850" lon="49.0715910"><time>2021-09-11T10:52:23</time></trkpt><trkpt lat="55.8067280" lon="49.0718780"><time>2021-09-11T10:52:32</time></trkpt><trkpt lat="55.8068460" lon="49.0722180"><time>2021-09-11T10:52:41</time></trkpt><trkpt lat="55.8069740" lon="49.0724870"><time>2021-09-11T10:52:49</time></trkpt><trkpt lat="55.8070820" lon="49.0728020"><time>2021-09-11T10:52:58</time></trkpt><trkpt lat="55.8072030" lon="49.0731070"><time>2021-09-11T10:53:07</time></trkpt><trkpt lat="55.8072890" lon="49.0734300"><time>2021-09-11T10:53:16</time></trkpt><trkpt lat="55.8073550" lon="49.0737090"><time>2021-09-11T10:53:24</time></trkpt><trkpt lat="55.8073830" lon="49.0737810"><time>2021-09-11T10:53:26</time></trkpt><trkpt lat="55.8074320" lon="49.0741440"><time>2021-09-11T10:53:35</time></trkpt><trkpt lat="55.8074090" lon="49.0742880"><time>2021-09-11T10:53:39</time></trkpt><trkpt lat="55.8073940" lon="49.0743170"><time>2021-09-11T10:53:40</time></trkpt><trkpt lat="55.8073770" lon="49.0743370"><time>2021-09-11T10:53:41</time></trkpt><trkpt lat="55.8073620" lon="49.0743510"><time>2021-09-11T10:53:42</time></trkpt><trkpt lat="55.8073480" lon="49.0743590"><time>2021-09-11T10:53:43</time></trkpt><trkpt lat="55.8073290" lon="49.0743610"><time>2021-09-11T10:53:44</time></trkpt><trkpt lat="55.8073080" lon="49.0743640"><time>2021-09-11T10:53:45</time></trkpt><trkpt lat="55.8071330" lon="49.0745000"><time>2021-09-11T10:53:53</time></trkpt><trkpt lat="55.8071130" lon="49.0745260"><time>2021-09-11T10:53:54</time></trkpt><trkpt lat="55.8070920" lon="49.0745480"><time>2021-09-11T10:53:55</time></trkpt><trkpt lat="55.8070720" lon="49.0745660"><time>2021-09-11T10:53:56</time></trkpt><trkpt lat="55.8070500" lon="49.0745840"><time>2021-09-11T10:53:57</time></trkpt><trkpt lat="55.8068800" lon="49.0747720"><time>2021-09-11T10:54:09</time></trkpt><trkpt lat="55.8067750" lon="49.0747770"><time>2021-09-11T10:54:25</time></trkpt><trkpt lat="55.8067640" lon="49.0747800"><time>2021-09-11T10:54:26</time></trkpt><trkpt lat="55.8067520" lon="49.0747830"><time>2021-09-11T10:54:27</time></trkpt><trkpt lat="55.8067440" lon="49.0747850"><time>2021-09-11T10:54:28</time></trkpt><trkpt lat="55.8067330" lon="49.0747910"><time>2021-09-11T10:54:29</time></trkpt><trkpt lat="55.8067200" lon="49.0747950"><time>2021-09-11T10:54:30</time></trkpt><trkpt lat="55.8067080" lon="49.0748030"><time>2021-09-11T10:54:31</time></trkpt><trkpt lat="55.8065450" lon="49.0749180"><time>2021-09-11T10:54:43</time></trkpt><trkpt lat="55.8065690" lon="49.0755210"><time>2021-09-11T10:54:57</time></trkpt><trkpt lat="55.8067040" lon="49.0755340"><time>2021-09-11T10:54:58</time></trkpt><trkpt lat="55.8067140" lon="49.0755520"><time>2021-09-11T10:54:59</time></trkpt><trkpt lat="55.8067560" lon="49.0755340"><time>2021-09-11T10:55:00</time></trkpt><trkpt lat="55.8068800" lon="49.0755290"><time>2021-09-11T10:55:10</time></trkpt><trkpt lat="55.8068860" lon="49.0755320"><time>2021-09-11T10:55:11</time></trkpt><trkpt lat="55.8068930" lon="49.0755380"><time>2021-09-11T10:55:12</time></trkpt><trkpt lat="55.8069020" lon="49.0755450"><time>2021-09-11T10:55:13</time></trkpt><trkpt lat="55.8069110" lon="49.0755570"><time>2021-09-11T10:55:14</time></trkpt><trkpt lat="55.8069200" lon="49.0755690"><time>2021-09-11T10:55:15</time></trkpt><trkpt lat="55.8069270" lon="49.0755840"><time>2021-09-11T10:55:16</time></trkpt><trkpt lat="55.8069350" lon="49.0756100"><time>2021-09-11T10:55:17</time></trkpt><trkpt lat="55.8069430" lon="49.0756470"><time>2021-09-11T10:55:18</time></trkpt><trkpt lat="55.8069470" lon="49.0756860"><time>2021-09-11T10:55:19</time></trkpt><trkpt lat="55.8069520" lon="49.0757240"><time>2021-09-11T10:55:20</time></trkpt><trkpt lat="55.8069750" lon="49.0757820"><time>2021-09-11T10:55:22</time></trkpt><trkpt lat="55.8069940" lon="49.0757940"><time>2021-09-11T10:55:23</time></trkpt><trkpt lat="55.8071920" lon="49.0758560"><time>2021-09-11T10:55:32</time></trkpt><trkpt lat="55.8073830" lon="49.0758690"><time>2021-09-11T10:55:41</time></trkpt><trkpt lat="55.8075720" lon="49.0758580"><time>2021-09-11T10:55:49</time></trkpt><trkpt lat="55.8078050" lon="49.0758560"><time>2021-09-11T10:55:58</time></trkpt><trkpt lat="55.8080110" lon="49.0758840"><time>2021-09-11T10:56:07</time></trkpt><trkpt lat="55.8081850" lon="49.0759260"><time>2021-09-11T10:56:16</time></trkpt><trkpt lat="55.8083580" lon="49.0760030"><time>2021-09-11T10:56:25</time></trkpt><trkpt lat="55.8083770" lon="49.0760350"><time>2021-09-11T10:56:26</time></trkpt><trkpt lat="55.8083880" lon="49.0760710"><time>2021-09-11T10:56:27</time></trkpt><trkpt lat="55.8083960" lon="49.0761060"><time>2021-09-11T10:56:28</time></trkpt><trkpt lat="55.8084010" lon="49.0761460"><time>2021-09-11T10:56:29</time></trkpt><trkpt lat="55.8083970" lon="49.0765040"><time>2021-09-11T10:56:38</time></trkpt><trkpt lat="55.8083770" lon="49.0768850"><time>2021-09-11T10:56:47</time></trkpt><trkpt lat="55.8083450" lon="49.0772380"><time>2021-09-11T10:56:56</time></trkpt><trkpt lat="55.8083000" lon="49.0776160"><time>2021-09-11T10:57:05</time></trkpt><trkpt lat="55.8082810" lon="49.0779900"><time>2021-09-11T10:57:14</time></trkpt><trkpt lat="55.8082700" lon="49.0783630"><time>2021-09-11T10:57:23</time></trkpt><trkpt lat="55.8082580" lon="49.0786470"><time>2021-09-11T10:57:30</time></trkpt><trkpt lat="55.8082510" lon="49.0786840"><time>2021-09-11T10:57:31</time></trkpt><trkpt lat="55.8082460" lon="49.0787250"><time>2021-09-11T10:57:32</time></trkpt><trkpt lat="55.8082480" lon="49.0787650"><time>2021-09-11T10:57:33</time></trkpt><trkpt lat="55.8082490" lon="49.0788040"><time>2021-09-11T10:57:34</time></trkpt><trkpt lat="55.8082490" lon="49.0788440"><time>2021-09-11T10:57:35</time></trkpt><trkpt lat="55.8082320" lon="49.0789910"><time>2021-09-11T10:57:46</time></trkpt><trkpt lat="55.8082300" lon="49.0790150"><time>2021-09-11T10:57:47</time></trkpt><trkpt lat="55.8082280" lon="49.0790410"><time>2021-09-11T10:57:48</time></trkpt><trkpt lat="55.8082340" lon="49.0791270"><time>2021-09-11T10:57:52</time></trkpt><trkpt lat="55.8082450" lon="49.0791530"><time>2021-09-11T10:57:53</time></trkpt><trkpt lat="55.8082570" lon="49.0791890"><time>2021-09-11T10:57:54</time></trkpt><trkpt lat="55.8082700" lon="49.0792280"><time>2021-09-11T10:57:55</time></trkpt><trkpt lat="55.8082760" lon="49.0792720"><time>2021-09-11T10:57:56</time></trkpt><trkpt lat="55.8082890" lon="49.0793210"><time>2021-09-11T10:57:57</time></trkpt><trkpt lat="55.8082940" lon="49.0793630"><time>2021-09-11T10:57:58</time></trkpt><trkpt lat="55.8083020" lon="49.0794090"><time>2021-09-11T10:57:59</time></trkpt><trkpt lat="55.8083090" lon="49.0798120"><time>2021-09-11T10:58:09</time></trkpt><trkpt lat="55.8082890" lon="49.0801840"><time>2021-09-11T10:58:20</time></trkpt><trkpt lat="55.8083030" lon="49.0805870"><time>2021-09-11T10:58:29</time></trkpt><trkpt lat="55.8082670" lon="49.0809770"><time>2021-09-11T10:58:40</time></trkpt><trkpt lat="55.8082590" lon="49.0813850"><time>2021-09-11T10:58:50</time></trkpt><trkpt lat="55.8082520" lon="49.0818040"><time>2021-09-11T10:59:01</time></trkpt><trkpt lat="55.8082780" lon="49.0818680"><time>2021-09-11T10:59:03</time></trkpt><trkpt lat="55.8082860" lon="49.0819010"><time>2021-09-11T10:59:04</time></trkpt><trkpt lat="55.8082880" lon="49.0819300"><time>2021-09-11T10:59:05</time></trkpt><trkpt lat="55.8082870" lon="49.0819570"><time>2021-09-11T10:59:06</time></trkpt><trkpt lat="55.8082890" lon="49.0819930"><time>2021-09-11T10:59:07</time></trkpt><trkpt lat="55.8082900" lon="49.0820310"><time>2021-09-11T10:59:08</time></trkpt><trkpt lat="55.8082870" lon="49.0820680"><time>2021-09-11T10:59:09</time></trkpt><trkpt lat="55.8082900" lon="49.0821110"><time>2021-09-11T10:59:10</time></trkpt><trkpt lat="55.8082910" lon="49.0821490"><time>2021-09-11T10:59:11</time></trkpt><trkpt lat="55.8083050" lon="49.0825800"><time>2021-09-11T10:59:20</time></trkpt><trkpt lat="55.8083360" lon="49.0830260"><time>2021-09-11T10:59:29</time></trkpt><trkpt lat="55.8083670" lon="49.0834030"><time>2021-09-11T10:59:38</time></trkpt><trkpt lat="55.8083870" lon="49.0837900"><time>2021-09-11T10:59:48</time></trkpt><trkpt lat="55.8083820" lon="49.0841280"><time>2021-09-11T11:00:01</time></trkpt><trkpt lat="55.8083830" lon="49.0841470"><time>2021-09-11T11:00:02</time></trkpt><trkpt lat="55.8083750" lon="49.0841660"><time>2021-09-11T11:00:03</time></trkpt><trkpt lat="55.8083610" lon="49.0841780"><time>2021-09-11T11:00:04</time></trkpt><trkpt lat="55.8083490" lon="49.0841840"><time>2021-09-11T11:00:05</time></trkpt><trkpt lat="55.8083320" lon="49.0842640"><time>2021-09-11T11:00:24</time></trkpt><trkpt lat="55.8083380" lon="49.0842780"><time>2021-09-11T11:00:25</time></trkpt><trkpt lat="55.8083410" lon="49.0842970"><time>2021-09-11T11:00:26</time></trkpt><trkpt lat="55.8083680" lon="49.0845240"><time>2021-09-11T11:00:35</time></trkpt><trkpt lat="55.8083770" lon="49.0847070"><time>2021-09-11T11:00:40</time></trkpt><trkpt lat="55.8084040" lon="49.0850930"><time>2021-09-11T11:00:49</time></trkpt><trkpt lat="55.8083990" lon="49.0854320"><time>2021-09-11T11:00:57</time></trkpt><trkpt lat="55.8083550" lon="49.0857650"><time>2021-09-11T11:01:06</time></trkpt><trkpt lat="55.8083120" lon="49.0861160"><time>2021-09-11T11:01:15</time></trkpt><trkpt lat="55.8082770" lon="49.0864810"><time>2021-09-11T11:01:24</time></trkpt><trkpt lat="55.8082530" lon="49.0868650"><time>2021-09-11T11:01:33</time></trkpt><trkpt lat="55.8082100" lon="49.0872340"><time>2021-09-11T11:01:44</time></trkpt><trkpt lat="55.8082050" lon="49.0876630"><time>2021-09-11T11:01:55</time></trkpt><trkpt lat="55.8081930" lon="49.0880590"><time>2021-09-11T11:02:04</time></trkpt><trkpt lat="55.8081360" lon="49.0884210"><time>2021-09-11T11:02:12</time></trkpt><trkpt lat="55.8080890" lon="49.0888100"><time>2021-09-11T11:02:21</time></trkpt><trkpt lat="55.8080490" lon="49.0891850"><time>2021-09-11T11:02:30</time></trkpt><trkpt lat="55.8080230" lon="49.0895500"><time>2021-09-11T11:02:39</time></trkpt><trkpt lat="55.8080190" lon="49.0899030"><time>2021-09-11T11:02:48</time></trkpt><trkpt lat="55.8079780" lon="49.0902640"><time>2021-09-11T11:02:57</time></trkpt><trkpt lat="55.8079300" lon="49.0906350"><time>2021-09-11T11:03:06</time></trkpt><trkpt lat="55.8078990" lon="49.0909900"><time>2021-09-11T11:03:15</time></trkpt><trkpt lat="55.8078970" lon="49.0913100"><time>2021-09-11T11:03:23</time></trkpt><trkpt lat="55.8078920" lon="49.0913510"><time>2021-09-11T11:03:24</time></trkpt><trkpt lat="55.8078900" lon="49.0913870"><time>2021-09-11T11:03:25</time></trkpt><trkpt lat="55.8078790" lon="49.0914220"><time>2021-09-11T11:03:26</time></trkpt><trkpt lat="55.8078710" lon="49.0914580"><time>2021-09-11T11:03:27</time></trkpt><trkpt lat="55.8078650" lon="49.0914960"><time>2021-09-11T11:03:28</time></trkpt><trkpt lat="55.8078440" lon="49.0916550"><time>2021-09-11T11:03:32</time></trkpt><trkpt lat="55.8078420" lon="49.0916960"><time>2021-09-11T11:03:33</time></trkpt><trkpt lat="55.8078400" lon="49.0917410"><time>2021-09-11T11:03:34</time></trkpt><trkpt lat="55.8078320" lon="49.0918600"><time>2021-09-11T11:03:37</time></trkpt><trkpt lat="55.8078510" lon="49.0921980"><time>2021-09-11T11:03:46</time></trkpt><trkpt lat="55.8079800" lon="49.0925260"><time>2021-09-11T11:03:56</time></trkpt><trkpt lat="55.8081930" lon="49.0927190"><time>2021-09-11T11:04:05</time></trkpt><trkpt lat="55.8083590" lon="49.0929250"><time>2021-09-11T11:04:15</time></trkpt><trkpt lat="55.8085330" lon="49.0930890"><time>2021-09-11T11:04:23</time></trkpt><trkpt lat="55.8086970" lon="49.0932750"><time>2021-09-11T11:04:31</time></trkpt><trkpt lat="55.8088700" lon="49.0934760"><time>2021-09-11T11:04:40</time></trkpt><trkpt lat="55.8090510" lon="49.0936690"><time>2021-09-11T11:04:49</time></trkpt><trkpt lat="55.8092310" lon="49.0938680"><time>2021-09-11T11:04:58</time></trkpt><trkpt lat="55.8093730" lon="49.0940900"><time>2021-09-11T11:05:07</time></trkpt><trkpt lat="55.8095230" lon="49.0943380"><time>2021-09-11T11:05:19</time></trkpt><trkpt lat="55.8095860" lon="49.0944760"><time>2021-09-11T11:05:28</time></trkpt><trkpt lat="55.8095740" lon="49.0945100"><time>2021-09-11T11:05:30</time></trkpt><trkpt lat="55.8095650" lon="49.0945700"><time>2021-09-11T11:05:33</time></trkpt><trkpt lat="55.8095610" lon="49.0945910"><time>2021-09-11T11:05:34</time></trkpt><trkpt lat="55.8095590" lon="49.0949220"><time>2021-09-11T11:05:47</time></trkpt><trkpt lat="55.8095520" lon="49.0949390"><time>2021-09-11T11:05:48</time></trkpt><trkpt lat="55.8095480" lon="49.0949590"><time>2021-09-11T11:05:49</time></trkpt><trkpt lat="55.8094920" lon="49.0951100"><time>2021-09-11T11:05:56</time></trkpt><trkpt lat="55.8094840" lon="49.0951370"><time>2021-09-11T11:05:57</time></trkpt><trkpt lat="55.8094760" lon="49.0951610"><time>2021-09-11T11:05:58</time></trkpt><trkpt lat="55.8094740" lon="49.0951810"><time>2021-09-11T11:05:59</time></trkpt><trkpt lat="55.8094710" lon="49.0952020"><time>2021-09-11T11:06:00</time></trkpt><trkpt lat="55.8094670" lon="49.0952280"><time>2021-09-11T11:06:01</time></trkpt><trkpt lat="55.8094120" lon="49.0954130"><time>2021-09-11T11:06:08</time></trkpt><trkpt lat="55.8093260" lon="49.0956130"><time>2021-09-11T11:06:16</time></trkpt><trkpt lat="55.8093240" lon="49.0956380"><time>2021-09-11T11:06:17</time></trkpt><trkpt lat="55.8093150" lon="49.0956690"><time>2021-09-11T11:06:18</time></trkpt><trkpt lat="55.8093110" lon="49.0956970"><time>2021-09-11T11:06:19</time></trkpt><trkpt lat="55.8093010" lon="49.0957330"><time>2021-09-11T11:06:20</time></trkpt><trkpt lat="55.8092920" lon="49.0957680"><time>2021-09-11T11:06:21</time></trkpt><trkpt lat="55.8092880" lon="49.0957940"><time>2021-09-11T11:06:22</time></trkpt><trkpt lat="55.8092820" lon="49.0958180"><time>2021-09-11T11:06:23</time></trkpt><trkpt lat="55.8092730" lon="49.0958420"><time>2021-09-11T11:06:24</time></trkpt><trkpt lat="55.8092650" lon="49.0958670"><time>2021-09-11T11:06:25</time></trkpt><trkpt lat="55.8092540" lon="49.0958900"><time>2021-09-11T11:06:26</time></trkpt><trkpt lat="55.8092820" lon="49.0962230"><time>2021-09-11T11:06:41</time></trkpt><trkpt lat="55.8093410" lon="49.0963970"><time>2021-09-11T11:06:50</time></trkpt><trkpt lat="55.8093500" lon="49.0964080"><time>2021-09-11T11:06:51</time></trkpt><trkpt lat="55.8093570" lon="49.0964220"><time>2021-09-11T11:06:52</time></trkpt><trkpt lat="55.8095080" lon="49.0966850"><time>2021-09-11T11:07:08</time></trkpt><trkpt lat="55.8095450" lon="49.0967360"><time>2021-09-11T11:07:12</time></trkpt><trkpt lat="55.8095520" lon="49.0967520"><time>2021-09-11T11:07:13</time></trkpt><trkpt lat="55.8096840" lon="49.0969430"><time>2021-09-11T11:07:23</time></trkpt><trkpt lat="55.8096960" lon="49.0969580"><time>2021-09-11T11:07:24</time></trkpt><trkpt lat="55.8097940" lon="49.0970370"><time>2021-09-11T11:07:30</time></trkpt><trkpt lat="55.8098490" lon="49.0970870"><time>2021-09-11T11:07:35</time></trkpt><trkpt lat="55.8098590" lon="49.0970940"><time>2021-09-11T11:07:36</time></trkpt><trkpt lat="55.8098760" lon="49.0971030"><time>2021-09-11T11:07:37</time></trkpt><trkpt lat="55.8098860" lon="49.0971110"><time>2021-09-11T11:07:38</time></trkpt><trkpt lat="55.8099000" lon="49.0971120"><time>2021-09-11T11:07:39</time></trkpt><trkpt lat="55.8099210" lon="49.0971320"><time>2021-09-11T11:07:42</time></trkpt><trkpt lat="55.8099150" lon="49.0971490"><time>2021-09-11T11:07:43</time></trkpt><trkpt lat="55.8099100" lon="49.0971610"><time>2021-09-11T11:07:44</time></trkpt><trkpt lat="55.8098960" lon="49.0972030"><time>2021-09-11T11:07:48</time></trkpt><trkpt lat="55.8098880" lon="49.0972230"><time>2021-09-11T11:07:49</time></trkpt><trkpt lat="55.8098830" lon="49.0972420"><time>2021-09-11T11:07:50</time></trkpt><trkpt lat="55.8098760" lon="49.0972620"><time>2021-09-11T11:07:51</time></trkpt><trkpt lat="55.8098650" lon="49.0972870"><time>2021-09-11T11:07:52</time></trkpt><trkpt lat="55.8096900" lon="49.0977370"><time>2021-09-11T11:08:02</time></trkpt><trkpt lat="55.8096750" lon="49.0977840"><time>2021-09-11T11:08:03</time></trkpt><trkpt lat="55.8096190" lon="49.0980900"><time>2021-09-11T11:08:10</time></trkpt><trkpt lat="55.8096010" lon="49.0981160"><time>2021-09-11T11:08:11</time></trkpt><trkpt lat="55.8094000" lon="49.0982650"><time>2021-09-11T11:08:22</time></trkpt><trkpt lat="55.8091970" lon="49.0983870"><time>2021-09-11T11:08:33</time></trkpt><trkpt lat="55.8089980" lon="49.0985870"><time>2021-09-11T11:08:43</time></trkpt><trkpt lat="55.8087520" lon="49.0987990"><time>2021-09-11T11:08:53</time></trkpt><trkpt lat="55.8085310" lon="49.0990030"><time>2021-09-11T11:09:03</time></trkpt><trkpt lat="55.8084390" lon="49.0991200"><time>2021-09-11T11:09:17</time></trkpt><trkpt lat="55.8083650" lon="49.0991820"><time>2021-09-11T11:09:31</time></trkpt><trkpt lat="55.8083770" lon="49.0992400"><time>2021-09-11T11:09:35</time></trkpt><trkpt lat="55.8083820" lon="49.0992560"><time>2021-09-11T11:09:36</time></trkpt><trkpt lat="55.8084650" lon="49.0996030"><time>2021-09-11T11:09:53</time></trkpt><trkpt lat="55.8084650" lon="49.0996280"><time>2021-09-11T11:09:54</time></trkpt><trkpt lat="55.8084640" lon="49.0996530"><time>2021-09-11T11:09:55</time></trkpt><trkpt lat="55.8084660" lon="49.0996800"><time>2021-09-11T11:09:56</time></trkpt><trkpt lat="55.8084700" lon="49.0997050"><time>2021-09-11T11:09:57</time></trkpt><trkpt lat="55.8084740" lon="49.0997290"><time>2021-09-11T11:09:58</time></trkpt><trkpt lat="55.8084810" lon="49.0997540"><time>2021-09-11T11:09:59</time></trkpt><trkpt lat="55.8084860" lon="49.0997810"><time>2021-09-11T11:10:00</time></trkpt><trkpt lat="55.8085590" lon="49.1001800"><time>2021-09-11T11:10:14</time></trkpt><trkpt lat="55.8085800" lon="49.1002840"><time>2021-09-11T11:10:18</time></trkpt><trkpt lat="55.8085830" lon="49.1003070"><time>2021-09-11T11:10:19</time></trkpt><trkpt lat="55.8085850" lon="49.1003330"><time>2021-09-11T11:10:20</time></trkpt><trkpt lat="55.8085860" lon="49.1003840"><time>2021-09-11T11:10:22</time></trkpt><trkpt lat="55.8086100" lon="49.1005510"><time>2021-09-11T11:10:29</time></trkpt><trkpt lat="55.8086110" lon="49.1005880"><time>2021-09-11T11:10:30</time></trkpt><trkpt lat="55.8086190" lon="49.1006170"><time>2021-09-11T11:10:31</time></trkpt><trkpt lat="55.8086790" lon="49.1008410"><time>2021-09-11T11:10:40</time></trkpt><trkpt lat="55.8086280" lon="49.1012200"><time>2021-09-11T11:10:51</time></trkpt><trkpt lat="55.8086030" lon="49.1013360"><time>2021-09-11T11:10:55</time></trkpt><trkpt lat="55.8085890" lon="49.1013520"><time>2021-09-11T11:10:56</time></trkpt><trkpt lat="55.8083650" lon="49.1014960"><time>2021-09-11T11:11:07</time></trkpt><trkpt lat="55.8082690" lon="49.1014420"><time>2021-09-11T11:11:14</time></trkpt><trkpt lat="55.8082850" lon="49.1014440"><time>2021-09-11T11:11:15</time></trkpt><trkpt lat="55.8083030" lon="49.1014480"><time>2021-09-11T11:11:16</time></trkpt><trkpt lat="55.8083200" lon="49.1014730"><time>2021-09-11T11:11:17</time></trkpt><trkpt lat="55.8083330" lon="49.1014840"><time>2021-09-11T11:11:18</time></trkpt><trkpt lat="55.8083460" lon="49.1014920"><time>2021-09-11T11:11:19</time></trkpt><trkpt lat="55.8084700" lon="49.1014440"><time>2021-09-11T11:11:32</time></trkpt><trkpt lat="55.8085620" lon="49.1012690"><time>2021-09-11T11:11:42</time></trkpt><trkpt lat="55.8085600" lon="49.1012300"><time>2021-09-11T11:11:43</time></trkpt><trkpt lat="55.8085630" lon="49.1012020"><time>2021-09-11T11:11:44</time></trkpt><trkpt lat="55.8085640" lon="49.1011810"><time>2021-09-11T11:11:45</time></trkpt><trkpt lat="55.8085720" lon="49.1011670"><time>2021-09-11T11:11:46</time></trkpt><trkpt lat="55.8085790" lon="49.1011510"><time>2021-09-11T11:11:47</time></trkpt><trkpt lat="55.8085850" lon="49.1011360"><time>2021-09-11T11:11:48</time></trkpt><trkpt lat="55.8085890" lon="49.1011230"><time>2021-09-11T11:11:49</time></trkpt><trkpt lat="55.8085940" lon="49.1011080"><time>2021-09-11T11:11:50</time></trkpt><trkpt lat="55.8085980" lon="49.1010920"><time>2021-09-11T11:11:51</time></trkpt><trkpt lat="55.8085990" lon="49.1010690"><time>2021-09-11T11:11:52</time></trkpt><trkpt lat="55.8085990" lon="49.1010490"><time>2021-09-11T11:11:53</time></trkpt><trkpt lat="55.8085960" lon="49.1010270"><time>2021-09-11T11:11:54</time></trkpt><trkpt lat="55.8085920" lon="49.1010050"><time>2021-09-11T11:11:55</time></trkpt><trkpt lat="55.8085920" lon="49.1009850"><time>2021-09-11T11:11:56</time></trkpt><trkpt lat="55.8085940" lon="49.1009680"><time>2021-09-11T11:11:57</time></trkpt><trkpt lat="55.8085870" lon="49.1008090"><time>2021-09-11T11:12:05</time></trkpt><trkpt lat="55.8085890" lon="49.1007900"><time>2021-09-11T11:12:06</time></trkpt><trkpt lat="55.8085940" lon="49.1007680"><time>2021-09-11T11:12:07</time></trkpt><trkpt lat="55.8086020" lon="49.1007500"><time>2021-09-11T11:12:08</time></trkpt><trkpt lat="55.8086080" lon="49.1007390"><time>2021-09-11T11:12:09</time></trkpt><trkpt lat="55.8086140" lon="49.1007060"><time>2021-09-11T11:12:10</time></trkpt><trkpt lat="55.8086040" lon="49.1003060"><time>2021-09-11T11:12:25</time></trkpt><trkpt lat="55.8085680" lon="49.1001210"><time>2021-09-11T11:12:32</time></trkpt><trkpt lat="55.8085670" lon="49.1001000"><time>2021-09-11T11:12:33</time></trkpt><trkpt lat="55.8085630" lon="49.1000800"><time>2021-09-11T11:12:34</time></trkpt><trkpt lat="55.8085590" lon="49.1000590"><time>2021-09-11T11:12:35</time></trkpt><trkpt lat="55.8085560" lon="49.1000360"><time>2021-09-11T11:12:36</time></trkpt><trkpt lat="55.8085530" lon="49.1000130"><time>2021-09-11T11:12:37</time></trkpt><trkpt lat="55.8085480" lon="49.0999930"><time>2021-09-11T11:12:38</time></trkpt><trkpt lat="55.8085410" lon="49.0999730"><time>2021-09-11T11:12:39</time></trkpt><trkpt lat="55.8085340" lon="49.0999500"><time>2021-09-11T11:12:40</time></trkpt><trkpt lat="55.8085270" lon="49.0999260"><time>2021-09-11T11:12:41</time></trkpt><trkpt lat="55.8085210" lon="49.0999050"><time>2021-09-11T11:12:42</time></trkpt><trkpt lat="55.8084680" lon="49.0996210"><time>2021-09-11T11:12:54</time></trkpt><trkpt lat="55.8083900" lon="49.0992380"><time>2021-09-11T11:13:13</time></trkpt><trkpt lat="55.8084440" lon="49.0991590"><time>2021-09-11T11:13:23</time></trkpt><trkpt lat="55.8084640" lon="49.0991490"><time>2021-09-11T11:13:24</time></trkpt><trkpt lat="55.8086620" lon="49.0989480"><time>2021-09-11T11:13:44</time></trkpt><trkpt lat="55.8088860" lon="49.0987840"><time>2021-09-11T11:13:55</time></trkpt><trkpt lat="55.8089400" lon="49.0987640"><time>2021-09-11T11:13:57</time></trkpt><trkpt lat="55.8089600" lon="49.0987560"><time>2021-09-11T11:13:58</time></trkpt><trkpt lat="55.8089850" lon="49.0987480"><time>2021-09-11T11:13:59</time></trkpt><trkpt lat="55.8091780" lon="49.0985710"><time>2021-09-11T11:14:10</time></trkpt><trkpt lat="55.8094010" lon="49.0984500"><time>2021-09-11T11:14:21</time></trkpt><trkpt lat="55.8095890" lon="49.0981660"><time>2021-09-11T11:14:32</time></trkpt><trkpt lat="55.8096980" lon="49.0978200"><time>2021-09-11T11:14:42</time></trkpt><trkpt lat="55.8098650" lon="49.0975090"><time>2021-09-11T11:14:51</time></trkpt><trkpt lat="55.8100690" lon="49.0973940"><time>2021-09-11T11:15:02</time></trkpt><trkpt lat="55.8102860" lon="49.0973530"><time>2021-09-11T11:15:10</time></trkpt><trkpt lat="55.8104780" lon="49.0974170"><time>2021-09-11T11:15:20</time></trkpt><trkpt lat="55.8106600" lon="49.0973190"><time>2021-09-11T11:15:29</time></trkpt><trkpt lat="55.8108410" lon="49.0972510"><time>2021-09-11T11:15:37</time></trkpt><trkpt lat="55.8110160" lon="49.0972220"><time>2021-09-11T11:15:47</time></trkpt><trkpt lat="55.8112150" lon="49.0971010"><time>2021-09-11T11:15:57</time></trkpt><trkpt lat="55.8113320" lon="49.0970070"><time>2021-09-11T11:16:04</time></trkpt><trkpt lat="55.8114340" lon="49.0967830"><time>2021-09-11T11:16:14</time></trkpt><trkpt lat="55.8114430" lon="49.0967780"><time>2021-09-11T11:16:15</time></trkpt><trkpt lat="55.8114660" lon="49.0967380"><time>2021-09-11T11:16:19</time></trkpt><trkpt lat="55.8114700" lon="49.0967230"><time>2021-09-11T11:16:20</time></trkpt><trkpt lat="55.8114720" lon="49.0967080"><time>2021-09-11T11:16:21</time></trkpt><trkpt lat="55.8114770" lon="49.0966930"><time>2021-09-11T11:16:22</time></trkpt><trkpt lat="55.8114780" lon="49.0966750"><time>2021-09-11T11:16:23</time></trkpt><trkpt lat="55.8114800" lon="49.0966560"><time>2021-09-11T11:16:24</time></trkpt><trkpt lat="55.8114800" lon="49.0966380"><time>2021-09-11T11:16:25</time></trkpt><trkpt lat="55.8114810" lon="49.0966210"><time>2021-09-11T11:16:26</time></trkpt><trkpt lat="55.8114830" lon="49.0966030"><time>2021-09-11T11:16:27</time></trkpt><trkpt lat="55.8114880" lon="49.0965870"><time>2021-09-11T11:16:28</time></trkpt><trkpt lat="55.8114780" lon="49.0965420"><time>2021-09-11T11:16:32</time></trkpt><trkpt lat="55.8115310" lon="49.0963570"><time>2021-09-11T11:16:43</time></trkpt><trkpt lat="55.8116010" lon="49.0963200"><time>2021-09-11T11:16:49</time></trkpt><trkpt lat="55.8116050" lon="49.0963060"><time>2021-09-11T11:16:50</time></trkpt><trkpt lat="55.8116930" lon="49.0962230"><time>2021-09-11T11:16:57</time></trkpt><trkpt lat="55.8118350" lon="49.0961420"><time>2021-09-11T11:17:06</time></trkpt><trkpt lat="55.8120210" lon="49.0959860"><time>2021-09-11T11:17:20</time></trkpt><trkpt lat="55.8120940" lon="49.0958720"><time>2021-09-11T11:17:25</time></trkpt><trkpt lat="55.8121130" lon="49.0958490"><time>2021-09-11T11:17:26</time></trkpt><trkpt lat="55.8121280" lon="49.0958330"><time>2021-09-11T11:17:27</time></trkpt><trkpt lat="55.8121530" lon="49.0958200"><time>2021-09-11T11:17:28</time></trkpt><trkpt lat="55.8121690" lon="49.0958110"><time>2021-09-11T11:17:29</time></trkpt><trkpt lat="55.8121950" lon="49.0958040"><time>2021-09-11T11:17:30</time></trkpt><trkpt lat="55.8122260" lon="49.0958020"><time>2021-09-11T11:17:31</time></trkpt><trkpt lat="55.8122590" lon="49.0957970"><time>2021-09-11T11:17:32</time></trkpt><trkpt lat="55.8124710" lon="49.0956500"><time>2021-09-11T11:17:41</time></trkpt><trkpt lat="55.8126590" lon="49.0954830"><time>2021-09-11T11:17:49</time></trkpt><trkpt lat="55.8128470" lon="49.0953290"><time>2021-09-11T11:17:58</time></trkpt><trkpt lat="55.8130310" lon="49.0951540"><time>2021-09-11T11:18:07</time></trkpt><trkpt lat="55.8132120" lon="49.0950280"><time>2021-09-11T11:18:16</time></trkpt><trkpt lat="55.8134030" lon="49.0948660"><time>2021-09-11T11:18:25</time></trkpt><trkpt lat="55.8135440" lon="49.0947130"><time>2021-09-11T11:18:33</time></trkpt><trkpt lat="55.8135420" lon="49.0946810"><time>2021-09-11T11:18:34</time></trkpt><trkpt lat="55.8135370" lon="49.0946510"><time>2021-09-11T11:18:35</time></trkpt><trkpt lat="55.8135290" lon="49.0946180"><time>2021-09-11T11:18:36</time></trkpt><trkpt lat="55.8135190" lon="49.0945850"><time>2021-09-11T11:18:37</time></trkpt><trkpt lat="55.8134250" lon="49.0942510"><time>2021-09-11T11:18:47</time></trkpt><trkpt lat="55.8133330" lon="49.0939230"><time>2021-09-11T11:18:56</time></trkpt><trkpt lat="55.8132260" lon="49.0936110"><time>2021-09-11T11:19:05</time></trkpt><trkpt lat="55.8131920" lon="49.0932920"><time>2021-09-11T11:19:14</time></trkpt><trkpt lat="55.8133650" lon="49.0930250"><time>2021-09-11T11:19:23</time></trkpt><trkpt lat="55.8135420" lon="49.0928300"><time>2021-09-11T11:19:32</time></trkpt><trkpt lat="55.8137260" lon="49.0926790"><time>2021-09-11T11:19:41</time></trkpt><trkpt lat="55.8137630" lon="49.0925470"><time>2021-09-11T11:19:45</time></trkpt><trkpt lat="55.8137530" lon="49.0924970"><time>2021-09-11T11:19:46</time></trkpt><trkpt lat="55.8136780" lon="49.0921620"><time>2021-09-11T11:19:54</time></trkpt><trkpt lat="55.8135790" lon="49.0918600"><time>2021-09-11T11:20:02</time></trkpt><trkpt lat="55.8134820" lon="49.0915490"><time>2021-09-11T11:20:11</time></trkpt><trkpt lat="55.8135000" lon="49.0914230"><time>2021-09-11T11:20:14</time></trkpt><trkpt lat="55.8135180" lon="49.0913860"><time>2021-09-11T11:20:15</time></trkpt><trkpt lat="55.8135350" lon="49.0913600"><time>2021-09-11T11:20:16</time></trkpt><trkpt lat="55.8137490" lon="49.0912240"><time>2021-09-11T11:20:25</time></trkpt><trkpt lat="55.8139560" lon="49.0911110"><time>2021-09-11T11:20:34</time></trkpt><trkpt lat="55.8141610" lon="49.0909600"><time>2021-09-11T11:20:44</time></trkpt><trkpt lat="55.8142740" lon="49.0908360"><time>2021-09-11T11:20:51</time></trkpt><trkpt lat="55.8142710" lon="49.0907860"><time>2021-09-11T11:20:53</time></trkpt><trkpt lat="55.8142650" lon="49.0907520"><time>2021-09-11T11:20:54</time></trkpt><trkpt lat="55.8142620" lon="49.0907260"><time>2021-09-11T11:20:55</time></trkpt><trkpt lat="55.8142600" lon="49.0907010"><time>2021-09-11T11:20:56</time></trkpt><trkpt lat="55.8142600" lon="49.0906650"><time>2021-09-11T11:20:57</time></trkpt><trkpt lat="55.8142560" lon="49.0906320"><time>2021-09-11T11:20:58</time></trkpt><trkpt lat="55.8142420" lon="49.0905920"><time>2021-09-11T11:21:00</time></trkpt><trkpt lat="55.8142430" lon="49.0905720"><time>2021-09-11T11:21:01</time></trkpt><trkpt lat="55.8142440" lon="49.0905560"><time>2021-09-11T11:21:02</time></trkpt><trkpt lat="55.8142370" lon="49.0905220"><time>2021-09-11T11:21:04</time></trkpt><trkpt lat="55.8142280" lon="49.0904240"><time>2021-09-11T11:21:09</time></trkpt><trkpt lat="55.8142240" lon="49.0903840"><time>2021-09-11T11:21:10</time></trkpt><trkpt lat="55.8142240" lon="49.0903580"><time>2021-09-11T11:21:11</time></trkpt><trkpt lat="55.8142270" lon="49.0903280"><time>2021-09-11T11:21:12</time></trkpt><trkpt lat="55.8142200" lon="49.0902990"><time>2021-09-11T11:21:13</time></trkpt><trkpt lat="55.8142160" lon="49.0902690"><time>2021-09-11T11:21:14</time></trkpt><trkpt lat="55.8141240" lon="49.0898530"><time>2021-09-11T11:21:29</time></trkpt><trkpt lat="55.8141040" lon="49.0897860"><time>2021-09-11T11:21:32</time></trkpt><trkpt lat="55.8141150" lon="49.0897650"><time>2021-09-11T11:21:33</time></trkpt><trkpt lat="55.8141200" lon="49.0897480"><time>2021-09-11T11:21:34</time></trkpt><trkpt lat="55.8141240" lon="49.0897300"><time>2021-09-11T11:21:35</time></trkpt><trkpt lat="55.8141290" lon="49.0897070"><time>2021-09-11T11:21:36</time></trkpt><trkpt lat="55.8141310" lon="49.0896860"><time>2021-09-11T11:21:37</time></trkpt><trkpt lat="55.8141300" lon="49.0896570"><time>2021-09-11T11:21:38</time></trkpt><trkpt lat="55.8141280" lon="49.0896280"><time>2021-09-11T11:21:39</time></trkpt><trkpt lat="55.8140980" lon="49.0893440"><time>2021-09-11T11:21:52</time></trkpt><trkpt lat="55.8141140" lon="49.0893270"><time>2021-09-11T11:21:53</time></trkpt><trkpt lat="55.8141290" lon="49.0893180"><time>2021-09-11T11:21:54</time></trkpt><trkpt lat="55.8141430" lon="49.0893060"><time>2021-09-11T11:21:55</time></trkpt><trkpt lat="55.8141580" lon="49.0892990"><time>2021-09-11T11:21:56</time></trkpt><trkpt lat="55.8142510" lon="49.0891670"><time>2021-09-11T11:22:03</time></trkpt><trkpt lat="55.8142640" lon="49.0891560"><time>2021-09-11T11:22:04</time></trkpt><trkpt lat="55.8142770" lon="49.0891490"><time>2021-09-11T11:22:05</time></trkpt><trkpt lat="55.8142870" lon="49.0891440"><time>2021-09-11T11:22:06</time></trkpt><trkpt lat="55.8143000" lon="49.0891340"><time>2021-09-11T11:22:07</time></trkpt><trkpt lat="55.8143170" lon="49.0891200"><time>2021-09-11T11:22:08</time></trkpt><trkpt lat="55.8143300" lon="49.0891050"><time>2021-09-11T11:22:09</time></trkpt><trkpt lat="55.8143420" lon="49.0891050"><time>2021-09-11T11:22:10</time></trkpt><trkpt lat="55.8143550" lon="49.0891000"><time>2021-09-11T11:22:11</time></trkpt><trkpt lat="55.8143720" lon="49.0890930"><time>2021-09-11T11:22:12</time></trkpt><trkpt lat="55.8143860" lon="49.0890850"><time>2021-09-11T11:22:13</time></trkpt><trkpt lat="55.8143990" lon="49.0890780"><time>2021-09-11T11:22:14</time></trkpt><trkpt lat="55.8145860" lon="49.0889420"><time>2021-09-11T11:22:31</time></trkpt><trkpt lat="55.8147840" lon="49.0887800"><time>2021-09-11T11:22:46</time></trkpt><trkpt lat="55.8147910" lon="49.0887690"><time>2021-09-11T11:22:47</time></trkpt><trkpt lat="55.8148010" lon="49.0887520"><time>2021-09-11T11:22:48</time></trkpt><trkpt lat="55.8148160" lon="49.0887400"><time>2021-09-11T11:22:49</time></trkpt><trkpt lat="55.8148310" lon="49.0887250"><time>2021-09-11T11:22:50</time></trkpt><trkpt lat="55.8148450" lon="49.0887100"><time>2021-09-11T11:22:51</time></trkpt><trkpt lat="55.8149510" lon="49.0886500"><time>2021-09-11T11:22:58</time></trkpt><trkpt lat="55.8149600" lon="49.0886620"><time>2021-09-11T11:22:59</time></trkpt><trkpt lat="55.8149680" lon="49.0886790"><time>2021-09-11T11:23:00</time></trkpt><trkpt lat="55.8149770" lon="49.0886920"><time>2021-09-11T11:23:01</time></trkpt><trkpt lat="55.8149890" lon="49.0887020"><time>2021-09-11T11:23:02</time></trkpt><trkpt lat="55.8150020" lon="49.0887110"><time>2021-09-11T11:23:03</time></trkpt><trkpt lat="55.8150130" lon="49.0887200"><time>2021-09-11T11:23:04</time></trkpt><trkpt lat="55.8150360" lon="49.0887250"><time>2021-09-11T11:23:06</time></trkpt><trkpt lat="55.8150430" lon="49.0887050"><time>2021-09-11T11:23:07</time></trkpt><trkpt lat="55.8150460" lon="49.0886800"><time>2021-09-11T11:23:08</time></trkpt><trkpt lat="55.8150520" lon="49.0886590"><time>2021-09-11T11:23:09</time></trkpt><trkpt lat="55.8150580" lon="49.0886390"><time>2021-09-11T11:23:10</time></trkpt><trkpt lat="55.8150830" lon="49.0885560"><time>2021-09-11T11:23:14</time></trkpt><trkpt lat="55.8150900" lon="49.0885400"><time>2021-09-11T11:23:15</time></trkpt><trkpt lat="55.8151020" lon="49.0885280"><time>2021-09-11T11:23:16</time></trkpt><trkpt lat="55.8151170" lon="49.0885160"><time>2021-09-11T11:23:17</time></trkpt><trkpt lat="55.8151310" lon="49.0885020"><time>2021-09-11T11:23:18</time></trkpt><trkpt lat="55.8151440" lon="49.0884890"><time>2021-09-11T11:23:19</time></trkpt><trkpt lat="55.8151550" lon="49.0884830"><time>2021-09-11T11:23:20</time></trkpt><trkpt lat="55.8151650" lon="49.0884830"><time>2021-09-11T11:23:21</time></trkpt><trkpt lat="55.8151690" lon="49.0884900"><time>2021-09-11T11:23:22</time></trkpt><trkpt lat="55.8151710" lon="49.0885020"><time>2021-09-11T11:23:23</time></trkpt><trkpt lat="55.8151730" lon="49.0885210"><time>2021-09-11T11:23:24</time></trkpt><trkpt lat="55.8152630" lon="49.0888690"><time>2021-09-11T11:23:39</time></trkpt><trkpt lat="55.8153740" lon="49.0892040"><time>2021-09-11T11:23:54</time></trkpt><trkpt lat="55.8154490" lon="49.0895440"><time>2021-09-11T11:24:07</time></trkpt><trkpt lat="55.8155080" lon="49.0898810"><time>2021-09-11T11:24:21</time></trkpt><trkpt lat="55.8156050" lon="49.0901940"><time>2021-09-11T11:24:35</time></trkpt><trkpt lat="55.8156870" lon="49.0904140"><time>2021-09-11T11:24:46</time></trkpt><trkpt lat="55.8156950" lon="49.0904360"><time>2021-09-11T11:24:47</time></trkpt><trkpt lat="55.8156930" lon="49.0904630"><time>2021-09-11T11:24:48</time></trkpt><trkpt lat="55.8156960" lon="49.0904910"><time>2021-09-11T11:24:49</time></trkpt><trkpt lat="55.8157060" lon="49.0905210"><time>2021-09-11T11:24:50</time></trkpt><trkpt lat="55.8157230" lon="49.0905510"><time>2021-09-11T11:24:51</time></trkpt><trkpt lat="55.8157360" lon="49.0905800"><time>2021-09-11T11:24:52</time></trkpt><trkpt lat="55.8158240" lon="49.0908670"><time>2021-09-11T11:25:00</time></trkpt><trkpt lat="55.8158420" lon="49.0909340"><time>2021-09-11T11:25:02</time></trkpt><trkpt lat="55.8158760" lon="49.0911000"><time>2021-09-11T11:25:06</time></trkpt><trkpt lat="55.8158840" lon="49.0911390"><time>2021-09-11T11:25:07</time></trkpt><trkpt lat="55.8158930" lon="49.0911780"><time>2021-09-11T11:25:08</time></trkpt><trkpt lat="55.8158980" lon="49.0912190"><time>2021-09-11T11:25:09</time></trkpt><trkpt lat="55.8159050" lon="49.0912630"><time>2021-09-11T11:25:10</time></trkpt><trkpt lat="55.8159150" lon="49.0913050"><time>2021-09-11T11:25:11</time></trkpt><trkpt lat="55.8160060" lon="49.0916440"><time>2021-09-11T11:25:20</time></trkpt><trkpt lat="55.8161210" lon="49.0919910"><time>2021-09-11T11:25:29</time></trkpt><trkpt lat="55.8162100" lon="49.0923240"><time>2021-09-11T11:25:37</time></trkpt><trkpt lat="55.8162560" lon="49.0925020"><time>2021-09-11T11:25:42</time></trkpt><trkpt lat="55.8162730" lon="49.0925100"><time>2021-09-11T11:25:43</time></trkpt><trkpt lat="55.8162940" lon="49.0925100"><time>2021-09-11T11:25:44</time></trkpt><trkpt lat="55.8163100" lon="49.0925180"><time>2021-09-11T11:25:45</time></trkpt><trkpt lat="55.8163190" lon="49.0925180"><time>2021-09-11T11:25:46</time></trkpt><trkpt lat="55.8163880" lon="49.0924700"><time>2021-09-11T11:26:01</time></trkpt><trkpt lat="55.8164250" lon="49.0923720"><time>2021-09-11T11:26:51</time></trkpt><trkpt lat="55.8164630" lon="49.0923830"><time>2021-09-11T11:27:03</time></trkpt><trkpt lat="55.8166570" lon="49.0922360"><time>2021-09-11T11:27:12</time></trkpt><trkpt lat="55.8168580" lon="49.0920880"><time>2021-09-11T11:27:21</time></trkpt><trkpt lat="55.8170370" lon="49.0919120"><time>2021-09-11T11:27:30</time></trkpt><trkpt lat="55.8172300" lon="49.0917650"><time>2021-09-11T11:27:39</time></trkpt><trkpt lat="55.8173960" lon="49.0915960"><time>2021-09-11T11:27:47</time></trkpt><trkpt lat="55.8176270" lon="49.0914900"><time>2021-09-11T11:27:55</time></trkpt><trkpt lat="55.8178140" lon="49.0913070"><time>2021-09-11T11:28:04</time></trkpt><trkpt lat="55.8179910" lon="49.0911010"><time>2021-09-11T11:28:15</time></trkpt><trkpt lat="55.8181700" lon="49.0909080"><time>2021-09-11T11:28:25</time></trkpt><trkpt lat="55.8183610" lon="49.0907290"><time>2021-09-11T11:28:34</time></trkpt><trkpt lat="55.8184440" lon="49.0906230"><time>2021-09-11T11:28:39</time></trkpt><trkpt lat="55.8184590" lon="49.0905980"><time>2021-09-11T11:28:40</time></trkpt><trkpt lat="55.8186850" lon="49.0904260"><time>2021-09-11T11:28:50</time></trkpt><trkpt lat="55.8188920" lon="49.0902320"><time>2021-09-11T11:28:59</time></trkpt><trkpt lat="55.8190600" lon="49.0900730"><time>2021-09-11T11:29:08</time></trkpt><trkpt lat="55.8192480" lon="49.0899200"><time>2021-09-11T11:29:17</time></trkpt><trkpt lat="55.8194610" lon="49.0898400"><time>2021-09-11T11:29:26</time></trkpt><trkpt lat="55.8194850" lon="49.0898430"><time>2021-09-11T11:29:27</time></trkpt><trkpt lat="55.8195140" lon="49.0898610"><time>2021-09-11T11:29:28</time></trkpt><trkpt lat="55.8195320" lon="49.0898900"><time>2021-09-11T11:29:29</time></trkpt><trkpt lat="55.8195470" lon="49.0899220"><time>2021-09-11T11:29:30</time></trkpt><trkpt lat="55.8195660" lon="49.0899580"><time>2021-09-11T11:29:31</time></trkpt><trkpt lat="55.8195820" lon="49.0899800"><time>2021-09-11T11:29:32</time></trkpt><trkpt lat="55.8195990" lon="49.0900020"><time>2021-09-11T11:29:33</time></trkpt><trkpt lat="55.8196310" lon="49.0900210"><time>2021-09-11T11:29:34</time></trkpt><trkpt lat="55.8196600" lon="49.0900300"><time>2021-09-11T11:29:35</time></trkpt><trkpt lat="55.8196870" lon="49.0900390"><time>2021-09-11T11:29:36</time></trkpt><trkpt lat="55.8197120" lon="49.0900600"><time>2021-09-11T11:29:37</time></trkpt><trkpt lat="55.8197310" lon="49.0900860"><time>2021-09-11T11:29:38</time></trkpt><trkpt lat="55.8197510" lon="49.0901170"><time>2021-09-11T11:29:39</time></trkpt><trkpt lat="55.8197720" lon="49.0901550"><time>2021-09-11T11:29:40</time></trkpt><trkpt lat="55.8199180" lon="49.0904510"><time>2021-09-11T11:29:49</time></trkpt><trkpt lat="55.8200690" lon="49.0907060"><time>2021-09-11T11:29:58</time></trkpt><trkpt lat="55.8201630" lon="49.0908390"><time>2021-09-11T11:30:04</time></trkpt><trkpt lat="55.8202030" lon="49.0908920"><time>2021-09-11T11:30:21</time></trkpt><trkpt lat="55.8202150" lon="49.0908390"><time>2021-09-11T11:30:24</time></trkpt><trkpt lat="55.8202900" lon="49.0907550"><time>2021-09-11T11:30:29</time></trkpt><trkpt lat="55.8203110" lon="49.0907430"><time>2021-09-11T11:30:30</time></trkpt><trkpt lat="55.8203380" lon="49.0907300"><time>2021-09-11T11:30:31</time></trkpt><trkpt lat="55.8203620" lon="49.0907110"><time>2021-09-11T11:30:32</time></trkpt><trkpt lat="55.8203800" lon="49.0906880"><time>2021-09-11T11:30:33</time></trkpt><trkpt lat="55.8203990" lon="49.0906620"><time>2021-09-11T11:30:34</time></trkpt><trkpt lat="55.8205640" lon="49.0904450"><time>2021-09-11T11:30:43</time></trkpt><trkpt lat="55.8207470" lon="49.0902230"><time>2021-09-11T11:30:53</time></trkpt><trkpt lat="55.8209100" lon="49.0899720"><time>2021-09-11T11:31:03</time></trkpt><trkpt lat="55.8210600" lon="49.0897250"><time>2021-09-11T11:31:13</time></trkpt><trkpt lat="55.8212210" lon="49.0894760"><time>2021-09-11T11:31:23</time></trkpt><trkpt lat="55.8214080" lon="49.0892440"><time>2021-09-11T11:31:33</time></trkpt><trkpt lat="55.8215690" lon="49.0890220"><time>2021-09-11T11:31:45</time></trkpt><trkpt lat="55.8215840" lon="49.0889790"><time>2021-09-11T11:31:51</time></trkpt><trkpt lat="55.8216220" lon="49.0889500"><time>2021-09-11T11:32:08</time></trkpt><trkpt lat="55.8216310" lon="49.0889390"><time>2021-09-11T11:32:09</time></trkpt><trkpt lat="55.8217900" lon="49.0887590"><time>2021-09-11T11:32:24</time></trkpt><trkpt lat="55.8219630" lon="49.0885380"><time>2021-09-11T11:32:38</time></trkpt><trkpt lat="55.8221350" lon="49.0883090"><time>2021-09-11T11:32:53</time></trkpt><trkpt lat="55.8222080" lon="49.0882100"><time>2021-09-11T11:32:58</time></trkpt><trkpt lat="55.8222250" lon="49.0881940"><time>2021-09-11T11:32:59</time></trkpt><trkpt lat="55.8224170" lon="49.0881530"><time>2021-09-11T11:33:18</time></trkpt><trkpt lat="55.8224250" lon="49.0881640"><time>2021-09-11T11:33:19</time></trkpt><trkpt lat="55.8224430" lon="49.0881800"><time>2021-09-11T11:33:21</time></trkpt><trkpt lat="55.8226840" lon="49.0884340"><time>2021-09-11T11:33:40</time></trkpt><trkpt lat="55.8228050" lon="49.0885790"><time>2021-09-11T11:33:48</time></trkpt><trkpt lat="55.8228900" lon="49.0887010"><time>2021-09-11T11:33:55</time></trkpt><trkpt lat="55.8230530" lon="49.0889460"><time>2021-09-11T11:34:10</time></trkpt><trkpt lat="55.8230620" lon="49.0889650"><time>2021-09-11T11:34:11</time></trkpt><trkpt lat="55.8230740" lon="49.0889860"><time>2021-09-11T11:34:12</time></trkpt><trkpt lat="55.8232750" lon="49.0892210"><time>2021-09-11T11:34:28</time></trkpt><trkpt lat="55.8234800" lon="49.0894030"><time>2021-09-11T11:34:37</time></trkpt><trkpt lat="55.8236880" lon="49.0896400"><time>2021-09-11T11:34:46</time></trkpt><trkpt lat="55.8238830" lon="49.0898740"><time>2021-09-11T11:34:55</time></trkpt><trkpt lat="55.8240670" lon="49.0899050"><time>2021-09-11T11:35:05</time></trkpt><trkpt lat="55.8241140" lon="49.0898780"><time>2021-09-11T11:35:07</time></trkpt><trkpt lat="55.8241380" lon="49.0898870"><time>2021-09-11T11:35:08</time></trkpt><trkpt lat="55.8241620" lon="49.0899040"><time>2021-09-11T11:35:09</time></trkpt><trkpt lat="55.8243530" lon="49.0900190"><time>2021-09-11T11:35:17</time></trkpt><trkpt lat="55.8244230" lon="49.0900770"><time>2021-09-11T11:35:20</time></trkpt><trkpt lat="55.8244360" lon="49.0901090"><time>2021-09-11T11:35:21</time></trkpt><trkpt lat="55.8244520" lon="49.0901380"><time>2021-09-11T11:35:22</time></trkpt><trkpt lat="55.8245160" lon="49.0902490"><time>2021-09-11T11:35:26</time></trkpt><trkpt lat="55.8245300" lon="49.0902820"><time>2021-09-11T11:35:27</time></trkpt><trkpt lat="55.8245420" lon="49.0903180"><time>2021-09-11T11:35:28</time></trkpt><trkpt lat="55.8245500" lon="49.0903490"><time>2021-09-11T11:35:29</time></trkpt><trkpt lat="55.8245940" lon="49.0906610"><time>2021-09-11T11:35:38</time></trkpt><trkpt lat="55.8246040" lon="49.0906900"><time>2021-09-11T11:35:39</time></trkpt><trkpt lat="55.8246170" lon="49.0907160"><time>2021-09-11T11:35:40</time></trkpt><trkpt lat="55.8246300" lon="49.0907380"><time>2021-09-11T11:35:41</time></trkpt><trkpt lat="55.8246480" lon="49.0907590"><time>2021-09-11T11:35:42</time></trkpt><trkpt lat="55.8246630" lon="49.0907820"><time>2021-09-11T11:35:43</time></trkpt><trkpt lat="55.8246790" lon="49.0908070"><time>2021-09-11T11:35:44</time></trkpt><trkpt lat="55.8248090" lon="49.0910440"><time>2021-09-11T11:35:53</time></trkpt><trkpt lat="55.8248310" lon="49.0914190"><time>2021-09-11T11:36:04</time></trkpt><trkpt lat="55.8248150" lon="49.0916590"><time>2021-09-11T11:36:11</time></trkpt><trkpt lat="55.8247780" lon="49.0920380"><time>2021-09-11T11:36:21</time></trkpt><trkpt lat="55.8247960" lon="49.0921060"><time>2021-09-11T11:36:23</time></trkpt><trkpt lat="55.8248110" lon="49.0921420"><time>2021-09-11T11:36:24</time></trkpt><trkpt lat="55.8248280" lon="49.0921740"><time>2021-09-11T11:36:25</time></trkpt><trkpt lat="55.8248370" lon="49.0922070"><time>2021-09-11T11:36:26</time></trkpt><trkpt lat="55.8248540" lon="49.0922420"><time>2021-09-11T11:36:27</time></trkpt><trkpt lat="55.8248650" lon="49.0922760"><time>2021-09-11T11:36:28</time></trkpt><trkpt lat="55.8249030" lon="49.0924470"><time>2021-09-11T11:36:35</time></trkpt><trkpt lat="55.8249120" lon="49.0924680"><time>2021-09-11T11:36:36</time></trkpt><trkpt lat="55.8249670" lon="49.0925540"><time>2021-09-11T11:36:42</time></trkpt><trkpt lat="55.8249840" lon="49.0925650"><time>2021-09-11T11:36:44</time></trkpt><trkpt lat="55.8249940" lon="49.0925650"><time>2021-09-11T11:36:45</time></trkpt><trkpt lat="55.8250070" lon="49.0925650"><time>2021-09-11T11:36:46</time></trkpt><trkpt lat="55.8250170" lon="49.0925650"><time>2021-09-11T11:36:47</time></trkpt><trkpt lat="55.8250300" lon="49.0925640"><time>2021-09-11T11:36:48</time></trkpt><trkpt lat="55.8252850" lon="49.0925460"><time>2021-09-11T11:37:05</time></trkpt><trkpt lat="55.8253480" lon="49.0925320"><time>2021-09-11T11:37:09</time></trkpt><trkpt lat="55.8253630" lon="49.0925470"><time>2021-09-11T11:37:10</time></trkpt><trkpt lat="55.8253760" lon="49.0925660"><time>2021-09-11T11:37:11</time></trkpt><trkpt lat="55.8253870" lon="49.0925880"><time>2021-09-11T11:37:12</time></trkpt><trkpt lat="55.8253980" lon="49.0926090"><time>2021-09-11T11:37:13</time></trkpt><trkpt lat="55.8255700" lon="49.0928770"><time>2021-09-11T11:37:29</time></trkpt><trkpt lat="55.8255880" lon="49.0929450"><time>2021-09-11T11:37:33</time></trkpt><trkpt lat="55.8255900" lon="49.0929660"><time>2021-09-11T11:37:34</time></trkpt><trkpt lat="55.8256350" lon="49.0931540"><time>2021-09-11T11:37:47</time></trkpt><trkpt lat="55.8256600" lon="49.0935480"><time>2021-09-11T11:38:05</time></trkpt><trkpt lat="55.8255950" lon="49.0936100"><time>2021-09-11T11:38:08</time></trkpt><trkpt lat="55.8253730" lon="49.0937460"><time>2021-09-11T11:38:19</time></trkpt><trkpt lat="55.8252810" lon="49.0938440"><time>2021-09-11T11:38:26</time></trkpt><trkpt lat="55.8252720" lon="49.0938680"><time>2021-09-11T11:38:27</time></trkpt><trkpt lat="55.8252230" lon="49.0939510"><time>2021-09-11T11:38:35</time></trkpt><trkpt lat="55.8251980" lon="49.0939990"><time>2021-09-11T11:38:38</time></trkpt><trkpt lat="55.8251970" lon="49.0940280"><time>2021-09-11T11:38:39</time></trkpt><trkpt lat="55.8251900" lon="49.0940710"><time>2021-09-11T11:38:40</time></trkpt><trkpt lat="55.8251250" lon="49.0944020"><time>2021-09-11T11:38:49</time></trkpt><trkpt lat="55.8251110" lon="49.0945560"><time>2021-09-11T11:39:10</time></trkpt><trkpt lat="55.8251110" lon="49.0945780"><time>2021-09-11T11:39:11</time></trkpt><trkpt lat="55.8251180" lon="49.0946150"><time>2021-09-11T11:39:12</time></trkpt><trkpt lat="55.8251680" lon="49.0949620"><time>2021-09-11T11:39:23</time></trkpt><trkpt lat="55.8252300" lon="49.0951680"><time>2021-09-11T11:39:32</time></trkpt><trkpt lat="55.8252540" lon="49.0951770"><time>2021-09-11T11:39:33</time></trkpt><trkpt lat="55.8254610" lon="49.0951030"><time>2021-09-11T11:39:42</time></trkpt><trkpt lat="55.8256170" lon="49.0951660"><time>2021-09-11T11:39:48</time></trkpt><trkpt lat="55.8256440" lon="49.0952230"><time>2021-09-11T11:39:49</time></trkpt><trkpt lat="55.8256630" lon="49.0952680"><time>2021-09-11T11:39:50</time></trkpt><trkpt lat="55.8256740" lon="49.0953230"><time>2021-09-11T11:39:51</time></trkpt><trkpt lat="55.8256850" lon="49.0953700"><time>2021-09-11T11:39:52</time></trkpt><trkpt lat="55.8257390" lon="49.0955790"><time>2021-09-11T11:39:58</time></trkpt><trkpt lat="55.8257750" lon="49.0955880"><time>2021-09-11T11:39:59</time></trkpt><trkpt lat="55.8257980" lon="49.0956050"><time>2021-09-11T11:40:00</time></trkpt><trkpt lat="55.8258230" lon="49.0956160"><time>2021-09-11T11:40:01</time></trkpt><trkpt lat="55.8258460" lon="49.0956220"><time>2021-09-11T11:40:02</time></trkpt><trkpt lat="55.8258640" lon="49.0956370"><time>2021-09-11T11:40:03</time></trkpt><trkpt lat="55.8258780" lon="49.0956580"><time>2021-09-11T11:40:04</time></trkpt><trkpt lat="55.8258830" lon="49.0956820"><time>2021-09-11T11:40:05</time></trkpt><trkpt lat="55.8258820" lon="49.0957110"><time>2021-09-11T11:40:06</time></trkpt><trkpt lat="55.8258880" lon="49.0957400"><time>2021-09-11T11:40:08</time></trkpt><trkpt lat="55.8258660" lon="49.0958350"><time>2021-09-11T11:40:14</time></trkpt><trkpt lat="55.8258640" lon="49.0958550"><time>2021-09-11T11:40:15</time></trkpt><trkpt lat="55.8259670" lon="49.0962060"><time>2021-09-11T11:40:34</time></trkpt><trkpt lat="55.8259730" lon="49.0962340"><time>2021-09-11T11:40:35</time></trkpt><trkpt lat="55.8259770" lon="49.0962620"><time>2021-09-11T11:40:36</time></trkpt><trkpt lat="55.8259750" lon="49.0963100"><time>2021-09-11T11:40:37</time></trkpt><trkpt lat="55.8259780" lon="49.0963640"><time>2021-09-11T11:40:38</time></trkpt><trkpt lat="55.8259810" lon="49.0964080"><time>2021-09-11T11:40:39</time></trkpt><trkpt lat="55.8259740" lon="49.0964640"><time>2021-09-11T11:40:40</time></trkpt><trkpt lat="55.8259840" lon="49.0965050"><time>2021-09-11T11:40:41</time></trkpt><trkpt lat="55.8259990" lon="49.0965430"><time>2021-09-11T11:40:42</time></trkpt><trkpt lat="55.8260230" lon="49.0965860"><time>2021-09-11T11:40:43</time></trkpt><trkpt lat="55.8260360" lon="49.0966230"><time>2021-09-11T11:40:44</time></trkpt><trkpt lat="55.8260410" lon="49.0966680"><time>2021-09-11T11:40:45</time></trkpt><trkpt lat="55.8260480" lon="49.0967150"><time>2021-09-11T11:40:46</time></trkpt><trkpt lat="55.8260600" lon="49.0968110"><time>2021-09-11T11:40:49</time></trkpt><trkpt lat="55.8260670" lon="49.0968350"><time>2021-09-11T11:40:50</time></trkpt><trkpt lat="55.8260830" lon="49.0971970"><time>2021-09-11T11:41:04</time></trkpt><trkpt lat="55.8260940" lon="49.0972170"><time>2021-09-11T11:41:05</time></trkpt><trkpt lat="55.8261060" lon="49.0972380"><time>2021-09-11T11:41:06</time></trkpt><trkpt lat="55.8261440" lon="49.0973860"><time>2021-09-11T11:41:12</time></trkpt><trkpt lat="55.8261560" lon="49.0974200"><time>2021-09-11T11:41:13</time></trkpt><trkpt lat="55.8261710" lon="49.0974410"><time>2021-09-11T11:41:14</time></trkpt><trkpt lat="55.8261870" lon="49.0974590"><time>2021-09-11T11:41:15</time></trkpt><trkpt lat="55.8261950" lon="49.0974790"><time>2021-09-11T11:41:16</time></trkpt><trkpt lat="55.8262030" lon="49.0975020"><time>2021-09-11T11:41:17</time></trkpt><trkpt lat="55.8262100" lon="49.0975230"><time>2021-09-11T11:41:18</time></trkpt><trkpt lat="55.8262380" lon="49.0976110"><time>2021-09-11T11:41:22</time></trkpt><trkpt lat="55.8262460" lon="49.0976450"><time>2021-09-11T11:41:23</time></trkpt><trkpt lat="55.8262540" lon="49.0976670"><time>2021-09-11T11:41:24</time></trkpt><trkpt lat="55.8262790" lon="49.0978240"><time>2021-09-11T11:41:31</time></trkpt><trkpt lat="55.8262740" lon="49.0978510"><time>2021-09-11T11:41:32</time></trkpt><trkpt lat="55.8262690" lon="49.0978730"><time>2021-09-11T11:41:33</time></trkpt><trkpt lat="55.8262930" lon="49.0979360"><time>2021-09-11T11:41:38</time></trkpt><trkpt lat="55.8265210" lon="49.0980630"><time>2021-09-11T11:41:50</time></trkpt><trkpt lat="55.8265370" lon="49.0980780"><time>2021-09-11T11:41:51</time></trkpt><trkpt lat="55.8265450" lon="49.0980980"><time>2021-09-11T11:41:52</time></trkpt><trkpt lat="55.8265530" lon="49.0981230"><time>2021-09-11T11:41:53</time></trkpt><trkpt lat="55.8265650" lon="49.0981420"><time>2021-09-11T11:41:54</time></trkpt><trkpt lat="55.8265690" lon="49.0981670"><time>2021-09-11T11:41:55</time></trkpt><trkpt lat="55.8265730" lon="49.0981930"><time>2021-09-11T11:41:56</time></trkpt><trkpt lat="55.8265780" lon="49.0982150"><time>2021-09-11T11:41:57</time></trkpt><trkpt lat="55.8265900" lon="49.0982730"><time>2021-09-11T11:42:00</time></trkpt><trkpt lat="55.8265930" lon="49.0982930"><time>2021-09-11T11:42:01</time></trkpt><trkpt lat="55.8266000" lon="49.0983110"><time>2021-09-11T11:42:02</time></trkpt><trkpt lat="55.8266020" lon="49.0983350"><time>2021-09-11T11:42:03</time></trkpt><trkpt lat="55.8266090" lon="49.0983620"><time>2021-09-11T11:42:04</time></trkpt><trkpt lat="55.8266120" lon="49.0983890"><time>2021-09-11T11:42:05</time></trkpt><trkpt lat="55.8266150" lon="49.0984140"><time>2021-09-11T11:42:06</time></trkpt><trkpt lat="55.8266230" lon="49.0984370"><time>2021-09-11T11:42:07</time></trkpt><trkpt lat="55.8266290" lon="49.0984640"><time>2021-09-11T11:42:08</time></trkpt><trkpt lat="55.8266360" lon="49.0984860"><time>2021-09-11T11:42:09</time></trkpt><trkpt lat="55.8266390" lon="49.0985050"><time>2021-09-11T11:42:10</time></trkpt><trkpt lat="55.8266450" lon="49.0985300"><time>2021-09-11T11:42:11</time></trkpt><trkpt lat="55.8266570" lon="49.0986950"><time>2021-09-11T11:42:17</time></trkpt><trkpt lat="55.8266590" lon="49.0987260"><time>2021-09-11T11:42:18</time></trkpt><trkpt lat="55.8266560" lon="49.0987610"><time>2021-09-11T11:42:19</time></trkpt><trkpt lat="55.8266540" lon="49.0987940"><time>2021-09-11T11:42:20</time></trkpt><trkpt lat="55.8266540" lon="49.0988200"><time>2021-09-11T11:42:21</time></trkpt><trkpt lat="55.8266750" lon="49.0989360"><time>2021-09-11T11:42:27</time></trkpt><trkpt lat="55.8267110" lon="49.0991500"><time>2021-09-11T11:42:35</time></trkpt><trkpt lat="55.8267220" lon="49.0991740"><time>2021-09-11T11:42:36</time></trkpt><trkpt lat="55.8267290" lon="49.0992000"><time>2021-09-11T11:42:37</time></trkpt><trkpt lat="55.8267330" lon="49.0992250"><time>2021-09-11T11:42:38</time></trkpt><trkpt lat="55.8267360" lon="49.0992530"><time>2021-09-11T11:42:39</time></trkpt><trkpt lat="55.8267700" lon="49.0996590"><time>2021-09-11T11:42:54</time></trkpt><trkpt lat="55.8268060" lon="49.1000950"><time>2021-09-11T11:43:10</time></trkpt><trkpt lat="55.8268270" lon="49.1002640"><time>2021-09-11T11:43:16</time></trkpt><trkpt lat="55.8268200" lon="49.1004170"><time>2021-09-11T11:43:22</time></trkpt><trkpt lat="55.8268190" lon="49.1004390"><time>2021-09-11T11:43:23</time></trkpt><trkpt lat="55.8268180" lon="49.1005950"><time>2021-09-11T11:43:30</time></trkpt><trkpt lat="55.8268240" lon="49.1006230"><time>2021-09-11T11:43:31</time></trkpt><trkpt lat="55.8268300" lon="49.1006460"><time>2021-09-11T11:43:32</time></trkpt><trkpt lat="55.8268780" lon="49.1006240"><time>2021-09-11T11:43:49</time></trkpt><trkpt lat="55.8268370" lon="49.1006270"><time>2021-09-11T11:44:06</time></trkpt><trkpt lat="55.8275290" lon="49.1008090"><time>2021-09-11T11:44:33</time></trkpt><trkpt lat="55.8274960" lon="49.1005700"><time>2021-09-11T11:44:39</time></trkpt><trkpt lat="55.8274410" lon="49.1003410"><time>2021-09-11T11:44:51</time></trkpt><trkpt lat="55.8274440" lon="49.1003110"><time>2021-09-11T11:44:52</time></trkpt><trkpt lat="55.8274480" lon="49.1002610"><time>2021-09-11T11:44:55</time></trkpt><trkpt lat="55.8274510" lon="49.1002700"><time>2021-09-11T11:44:56</time></trkpt><trkpt lat="55.8274560" lon="49.1002830"><time>2021-09-11T11:44:57</time></trkpt><trkpt lat="55.8274100" lon="49.1006300"><time>2021-09-11T11:45:12</time></trkpt><trkpt lat="55.8273550" lon="49.1009760"><time>2021-09-11T11:45:21</time></trkpt><trkpt lat="55.8273890" lon="49.1012160"><time>2021-09-11T11:45:28</time></trkpt><trkpt lat="55.8274020" lon="49.1012290"><time>2021-09-11T11:45:29</time></trkpt><trkpt lat="55.8274230" lon="49.1012390"><time>2021-09-11T11:45:30</time></trkpt><trkpt lat="55.8274520" lon="49.1012460"><time>2021-09-11T11:45:31</time></trkpt><trkpt lat="55.8274820" lon="49.1012520"><time>2021-09-11T11:45:32</time></trkpt><trkpt lat="55.8276920" lon="49.1012970"><time>2021-09-11T11:45:40</time></trkpt><trkpt lat="55.8278800" lon="49.1012850"><time>2021-09-11T11:45:48</time></trkpt><trkpt lat="55.8280730" lon="49.1012670"><time>2021-09-11T11:45:56</time></trkpt><trkpt lat="55.8282700" lon="49.1011990"><time>2021-09-11T11:46:05</time></trkpt><trkpt lat="55.8284500" lon="49.1011970"><time>2021-09-11T11:46:13</time></trkpt><trkpt lat="55.8286400" lon="49.1011080"><time>2021-09-11T11:46:22</time></trkpt><trkpt lat="55.8288200" lon="49.1010410"><time>2021-09-11T11:46:31</time></trkpt><trkpt lat="55.8290130" lon="49.1010560"><time>2021-09-11T11:46:39</time></trkpt><trkpt lat="55.8292190" lon="49.1011800"><time>2021-09-11T11:46:47</time></trkpt><trkpt lat="55.8294010" lon="49.1011530"><time>2021-09-11T11:46:55</time></trkpt><trkpt lat="55.8295980" lon="49.1011740"><time>2021-09-11T11:47:03</time></trkpt><trkpt lat="55.8297960" lon="49.1012340"><time>2021-09-11T11:47:11</time></trkpt><trkpt lat="55.8299850" lon="49.1012590"><time>2021-09-11T11:47:19</time></trkpt><trkpt lat="55.8301750" lon="49.1012900"><time>2021-09-11T11:47:27</time></trkpt><trkpt lat="55.8303670" lon="49.1013130"><time>2021-09-11T11:47:36</time></trkpt><trkpt lat="55.8305540" lon="49.1013510"><time>2021-09-11T11:47:44</time></trkpt><trkpt lat="55.8307370" lon="49.1013940"><time>2021-09-11T11:47:52</time></trkpt><trkpt lat="55.8309220" lon="49.1014100"><time>2021-09-11T11:48:00</time></trkpt><trkpt lat="55.8310840" lon="49.1013610"><time>2021-09-11T11:48:08</time></trkpt><trkpt lat="55.8312170" lon="49.1013450"><time>2021-09-11T11:48:24</time></trkpt><trkpt lat="55.8314460" lon="49.1013850"><time>2021-09-11T11:48:39</time></trkpt><trkpt lat="55.8316640" lon="49.1014110"><time>2021-09-11T11:48:57</time></trkpt><trkpt lat="55.8316850" lon="49.1014060"><time>2021-09-11T11:48:59</time></trkpt><trkpt lat="55.8319380" lon="49.1013960"><time>2021-09-11T11:49:12</time></trkpt><trkpt lat="55.8321860" lon="49.1014230"><time>2021-09-11T11:49:20</time></trkpt><trkpt lat="55.8324030" lon="49.1014340"><time>2021-09-11T11:49:28</time></trkpt><trkpt lat="55.8326030" lon="49.1014770"><time>2021-09-11T11:49:36</time></trkpt><trkpt lat="55.8327180" lon="49.1015110"><time>2021-09-11T11:49:41</time></trkpt><trkpt lat="55.8327290" lon="49.1015300"><time>2021-09-11T11:49:42</time></trkpt><trkpt lat="55.8327360" lon="49.1015470"><time>2021-09-11T11:49:43</time></trkpt><trkpt lat="55.8327480" lon="49.1015710"><time>2021-09-11T11:49:44</time></trkpt><trkpt lat="55.8327680" lon="49.1015860"><time>2021-09-11T11:49:45</time></trkpt><trkpt lat="55.8327890" lon="49.1015880"><time>2021-09-11T11:49:46</time></trkpt><trkpt lat="55.8328110" lon="49.1015920"><time>2021-09-11T11:49:47</time></trkpt><trkpt lat="55.8329850" lon="49.1017210"><time>2021-09-11T11:49:56</time></trkpt><trkpt lat="55.8330850" lon="49.1020340"><time>2021-09-11T11:50:06</time></trkpt><trkpt lat="55.8331130" lon="49.1024160"><time>2021-09-11T11:50:16</time></trkpt><trkpt lat="55.8331140" lon="49.1028080"><time>2021-09-11T11:50:26</time></trkpt><trkpt lat="55.8331120" lon="49.1031500"><time>2021-09-11T11:50:36</time></trkpt><trkpt lat="55.8331380" lon="49.1035780"><time>2021-09-11T11:50:46</time></trkpt><trkpt lat="55.8331150" lon="49.1039700"><time>2021-09-11T11:50:55</time></trkpt><trkpt lat="55.8331440" lon="49.1043420"><time>2021-09-11T11:51:04</time></trkpt><trkpt lat="55.8331540" lon="49.1047090"><time>2021-09-11T11:51:13</time></trkpt><trkpt lat="55.8331150" lon="49.1048040"><time>2021-09-11T11:51:16</time></trkpt><trkpt lat="55.8329050" lon="49.1048430"><time>2021-09-11T11:51:25</time></trkpt><trkpt lat="55.8326930" lon="49.1048200"><time>2021-09-11T11:51:35</time></trkpt><trkpt lat="55.8324600" lon="49.1048010"><time>2021-09-11T11:51:44</time></trkpt><trkpt lat="55.8322130" lon="49.1047720"><time>2021-09-11T11:51:54</time></trkpt><trkpt lat="55.8320270" lon="49.1047860"><time>2021-09-11T11:52:02</time></trkpt><trkpt lat="55.8318390" lon="49.1047600"><time>2021-09-11T11:52:12</time></trkpt><trkpt lat="55.8316050" lon="49.1047770"><time>2021-09-11T11:52:21</time></trkpt><trkpt lat="55.8314630" lon="49.1050250"><time>2021-09-11T11:52:30</time></trkpt><trkpt lat="55.8313670" lon="49.1052540"><time>2021-09-11T11:52:40</time></trkpt><trkpt lat="55.8313540" lon="49.1052580"><time>2021-09-11T11:52:41</time></trkpt><trkpt lat="55.8313390" lon="49.1052650"><time>2021-09-11T11:52:42</time></trkpt><trkpt lat="55.8313230" lon="49.1052660"><time>2021-09-11T11:52:43</time></trkpt><trkpt lat="55.8313070" lon="49.1052680"><time>2021-09-11T11:52:44</time></trkpt><trkpt lat="55.8310900" lon="49.1052930"><time>2021-09-11T11:52:59</time></trkpt><trkpt lat="55.8308880" lon="49.1053020"><time>2021-09-11T11:53:13</time></trkpt><trkpt lat="55.8307980" lon="49.1053020"><time>2021-09-11T11:53:20</time></trkpt><trkpt lat="55.8307860" lon="49.1053040"><time>2021-09-11T11:53:21</time></trkpt><trkpt lat="55.8307690" lon="49.1053040"><time>2021-09-11T11:53:22</time></trkpt><trkpt lat="55.8307560" lon="49.1053060"><time>2021-09-11T11:53:23</time></trkpt><trkpt lat="55.8307450" lon="49.1053090"><time>2021-09-11T11:53:24</time></trkpt><trkpt lat="55.8307370" lon="49.1053190"><time>2021-09-11T11:53:25</time></trkpt><trkpt lat="55.8307290" lon="49.1053410"><time>2021-09-11T11:53:26</time></trkpt><trkpt lat="55.8307240" lon="49.1053610"><time>2021-09-11T11:53:27</time></trkpt><trkpt lat="55.8307190" lon="49.1053810"><time>2021-09-11T11:53:28</time></trkpt><trkpt lat="55.8307160" lon="49.1054010"><time>2021-09-11T11:53:29</time></trkpt><trkpt lat="55.8307130" lon="49.1054220"><time>2021-09-11T11:53:30</time></trkpt><trkpt lat="55.8307090" lon="49.1054420"><time>2021-09-11T11:53:31</time></trkpt><trkpt lat="55.8307070" lon="49.1054590"><time>2021-09-11T11:53:32</time></trkpt><trkpt lat="55.8307050" lon="49.1054780"><time>2021-09-11T11:53:33</time></trkpt><trkpt lat="55.8307030" lon="49.1055060"><time>2021-09-11T11:53:34</time></trkpt><trkpt lat="55.8306990" lon="49.1055330"><time>2021-09-11T11:53:35</time></trkpt><trkpt lat="55.8306970" lon="49.1055490"><time>2021-09-11T11:53:36</time></trkpt><trkpt lat="55.8306980" lon="49.1055670"><time>2021-09-11T11:53:37</time></trkpt><trkpt lat="55.8307010" lon="49.1055930"><time>2021-09-11T11:53:38</time></trkpt><trkpt lat="55.8307050" lon="49.1056230"><time>2021-09-11T11:53:39</time></trkpt><trkpt lat="55.8307070" lon="49.1056500"><time>2021-09-11T11:53:40</time></trkpt><trkpt lat="55.8307080" lon="49.1056750"><time>2021-09-11T11:53:41</time></trkpt><trkpt lat="55.8307080" lon="49.1057030"><time>2021-09-11T11:53:42</time></trkpt><trkpt lat="55.8307090" lon="49.1057290"><time>2021-09-11T11:53:43</time></trkpt><trkpt lat="55.8306900" lon="49.1060900"><time>2021-09-11T11:53:52</time></trkpt><trkpt lat="55.8306680" lon="49.1064750"><time>2021-09-11T11:54:01</time></trkpt><trkpt lat="55.8306450" lon="49.1068670"><time>2021-09-11T11:54:10</time></trkpt><trkpt lat="55.8305970" lon="49.1072290"><time>2021-09-11T11:54:19</time></trkpt><trkpt lat="55.8304540" lon="49.1074800"><time>2021-09-11T11:54:29</time></trkpt><trkpt lat="55.8302760" lon="49.1076550"><time>2021-09-11T11:54:40</time></trkpt><trkpt lat="55.8301010" lon="49.1079040"><time>2021-09-11T11:54:51</time></trkpt><trkpt lat="55.8299080" lon="49.1081650"><time>2021-09-11T11:55:01</time></trkpt><trkpt lat="55.8297180" lon="49.1084100"><time>2021-09-11T11:55:11</time></trkpt><trkpt lat="55.8295490" lon="49.1086990"><time>2021-09-11T11:55:21</time></trkpt><trkpt lat="55.8293560" lon="49.1088990"><time>2021-09-11T11:55:31</time></trkpt><trkpt lat="55.8293130" lon="49.1089350"><time>2021-09-11T11:55:33</time></trkpt><trkpt lat="55.8293000" lon="49.1089570"><time>2021-09-11T11:55:34</time></trkpt><trkpt lat="55.8292800" lon="49.1089790"><time>2021-09-11T11:55:35</time></trkpt><trkpt lat="55.8291430" lon="49.1091270"><time>2021-09-11T11:55:42</time></trkpt><trkpt lat="55.8290010" lon="49.1093330"><time>2021-09-11T11:55:50</time></trkpt><trkpt lat="55.8289770" lon="49.1093290"><time>2021-09-11T11:55:51</time></trkpt><trkpt lat="55.8289520" lon="49.1093190"><time>2021-09-11T11:55:52</time></trkpt><trkpt lat="55.8287370" lon="49.1091380"><time>2021-09-11T11:56:02</time></trkpt><trkpt lat="55.8285660" lon="49.1089070"><time>2021-09-11T11:56:14</time></trkpt><trkpt lat="55.8283690" lon="49.1086960"><time>2021-09-11T11:56:31</time></trkpt><trkpt lat="55.8283360" lon="49.1087410"><time>2021-09-11T11:56:35</time></trkpt><trkpt lat="55.8282230" lon="49.1088650"><time>2021-09-11T11:56:54</time></trkpt><trkpt lat="55.8282230" lon="49.1088650"><time>2021-09-11T11:57:23</time></trkpt><trkpt lat="55.8282230" lon="49.1088650"><time>2021-09-11T11:57:25</time></trkpt><trkpt lat="55.8282230" lon="49.1088650"><time>2021-09-11T11:57:26</time></trkpt><trkpt lat="55.8282230" lon="49.1088650"><time>2021-09-11T11:57:45</time></trkpt><trkpt lat="55.8282230" lon="49.1088650"><time>2021-09-11T11:58:07</time></trkpt><trkpt lat="55.8282230" lon="49.1088650"><time>2021-09-11T11:58:09</time></trkpt><trkpt lat="55.8283750" lon="49.1087590"><time>2021-09-11T11:58:19</time></trkpt><trkpt lat="55.8283820" lon="49.1087600"><time>2021-09-11T11:58:20</time></trkpt><trkpt lat="55.8283920" lon="49.1087640"><time>2021-09-11T11:58:21</time></trkpt><trkpt lat="55.8285210" lon="49.1088870"><time>2021-09-11T11:58:33</time></trkpt><trkpt lat="55.8285290" lon="49.1088910"><time>2021-09-11T11:58:34</time></trkpt><trkpt lat="55.8285410" lon="49.1088990"><time>2021-09-11T11:58:35</time></trkpt><trkpt lat="55.8285520" lon="49.1089080"><time>2021-09-11T11:58:36</time></trkpt><trkpt lat="55.8285620" lon="49.1089230"><time>2021-09-11T11:58:37</time></trkpt><trkpt lat="55.8285710" lon="49.1089420"><time>2021-09-11T11:58:38</time></trkpt><trkpt lat="55.8285820" lon="49.1089630"><time>2021-09-11T11:58:39</time></trkpt><trkpt lat="55.8285950" lon="49.1089830"><time>2021-09-11T11:58:40</time></trkpt><trkpt lat="55.8286070" lon="49.1089980"><time>2021-09-11T11:58:41</time></trkpt><trkpt lat="55.8287760" lon="49.1091930"><time>2021-09-11T11:58:55</time></trkpt><trkpt lat="55.8289410" lon="49.1094050"><time>2021-09-11T11:59:09</time></trkpt><trkpt lat="55.8289500" lon="49.1094160"><time>2021-09-11T11:59:10</time></trkpt><trkpt lat="55.8289620" lon="49.1094270"><time>2021-09-11T11:59:11</time></trkpt><trkpt lat="55.8290750" lon="49.1094420"><time>2021-09-11T11:59:19</time></trkpt><trkpt lat="55.8290870" lon="49.1094330"><time>2021-09-11T11:59:20</time></trkpt><trkpt lat="55.8291010" lon="49.1094290"><time>2021-09-11T11:59:21</time></trkpt><trkpt lat="55.8293120" lon="49.1093240"><time>2021-09-11T11:59:35</time></trkpt><trkpt lat="55.8294830" lon="49.1092180"><time>2021-09-11T11:59:48</time></trkpt><trkpt lat="55.8296580" lon="49.1091110"><time>2021-09-11T12:00:02</time></trkpt><trkpt lat="55.8298450" lon="49.1090250"><time>2021-09-11T12:00:15</time></trkpt><trkpt lat="55.8300370" lon="49.1089190"><time>2021-09-11T12:00:29</time></trkpt><trkpt lat="55.8301850" lon="49.1087500"><time>2021-09-11T12:00:43</time></trkpt><trkpt lat="55.8303780" lon="49.1086460"><time>2021-09-11T12:00:57</time></trkpt><trkpt lat="55.8305030" lon="49.1085480"><time>2021-09-11T12:01:07</time></trkpt><trkpt lat="55.8305190" lon="49.1085110"><time>2021-09-11T12:01:10</time></trkpt><trkpt lat="55.8305270" lon="49.1084970"><time>2021-09-11T12:01:11</time></trkpt><trkpt lat="55.8305880" lon="49.1084340"><time>2021-09-11T12:01:16</time></trkpt><trkpt lat="55.8307780" lon="49.1083380"><time>2021-09-11T12:01:29</time></trkpt><trkpt lat="55.8309510" lon="49.1081960"><time>2021-09-11T12:01:42</time></trkpt><trkpt lat="55.8311400" lon="49.1081220"><time>2021-09-11T12:01:55</time></trkpt><trkpt lat="55.8313380" lon="49.1081270"><time>2021-09-11T12:02:09</time></trkpt><trkpt lat="55.8315500" lon="49.1082630"><time>2021-09-11T12:02:23</time></trkpt><trkpt lat="55.8317120" lon="49.1085050"><time>2021-09-11T12:02:40</time></trkpt><trkpt lat="55.8317170" lon="49.1086560"><time>2021-09-11T12:02:47</time></trkpt><trkpt lat="55.8317160" lon="49.1086780"><time>2021-09-11T12:02:48</time></trkpt><trkpt lat="55.8317110" lon="49.1087030"><time>2021-09-11T12:02:49</time></trkpt><trkpt lat="55.8317120" lon="49.1087270"><time>2021-09-11T12:02:50</time></trkpt><trkpt lat="55.8317160" lon="49.1087460"><time>2021-09-11T12:02:51</time></trkpt><trkpt lat="55.8317130" lon="49.1087710"><time>2021-09-11T12:02:52</time></trkpt><trkpt lat="55.8317220" lon="49.1090630"><time>2021-09-11T12:03:01</time></trkpt><trkpt lat="55.8317240" lon="49.1090860"><time>2021-09-11T12:03:02</time></trkpt><trkpt lat="55.8317160" lon="49.1091210"><time>2021-09-11T12:03:03</time></trkpt><trkpt lat="55.8317120" lon="49.1091500"><time>2021-09-11T12:03:04</time></trkpt><trkpt lat="55.8317280" lon="49.1096050"><time>2021-09-11T12:03:24</time></trkpt><trkpt lat="55.8318080" lon="49.1100370"><time>2021-09-11T12:03:41</time></trkpt><trkpt lat="55.8318430" lon="49.1100920"><time>2021-09-11T12:03:45</time></trkpt><trkpt lat="55.8318520" lon="49.1101140"><time>2021-09-11T12:03:46</time></trkpt><trkpt lat="55.8318860" lon="49.1103030"><time>2021-09-11T12:03:53</time></trkpt><trkpt lat="55.8318860" lon="49.1103350"><time>2021-09-11T12:03:54</time></trkpt><trkpt lat="55.8318840" lon="49.1103690"><time>2021-09-11T12:03:55</time></trkpt><trkpt lat="55.8318830" lon="49.1104000"><time>2021-09-11T12:03:56</time></trkpt><trkpt lat="55.8318850" lon="49.1104270"><time>2021-09-11T12:03:57</time></trkpt><trkpt lat="55.8318890" lon="49.1104520"><time>2021-09-11T12:03:58</time></trkpt><trkpt lat="55.8319000" lon="49.1104720"><time>2021-09-11T12:03:59</time></trkpt><trkpt lat="55.8319070" lon="49.1105030"><time>2021-09-11T12:04:00</time></trkpt><trkpt lat="55.8319120" lon="49.1105330"><time>2021-09-11T12:04:01</time></trkpt><trkpt lat="55.8319120" lon="49.1105670"><time>2021-09-11T12:04:02</time></trkpt><trkpt lat="55.8319140" lon="49.1105930"><time>2021-09-11T12:04:03</time></trkpt><trkpt lat="55.8319150" lon="49.1106180"><time>2021-09-11T12:04:04</time></trkpt><trkpt lat="55.8319140" lon="49.1106530"><time>2021-09-11T12:04:05</time></trkpt><trkpt lat="55.8319080" lon="49.1106920"><time>2021-09-11T12:04:06</time></trkpt><trkpt lat="55.8319070" lon="49.1107430"><time>2021-09-11T12:04:07</time></trkpt><trkpt lat="55.8319060" lon="49.1107890"><time>2021-09-11T12:04:08</time></trkpt><trkpt lat="55.8318960" lon="49.1111680"><time>2021-09-11T12:04:18</time></trkpt><trkpt lat="55.8318940" lon="49.1115470"><time>2021-09-11T12:04:29</time></trkpt><trkpt lat="55.8318770" lon="49.1119700"><time>2021-09-11T12:04:39</time></trkpt><trkpt lat="55.8318940" lon="49.1123340"><time>2021-09-11T12:04:48</time></trkpt><trkpt lat="55.8318350" lon="49.1126630"><time>2021-09-11T12:04:57</time></trkpt><trkpt lat="55.8318490" lon="49.1130220"><time>2021-09-11T12:05:06</time></trkpt><trkpt lat="55.8318630" lon="49.1133920"><time>2021-09-11T12:05:15</time></trkpt><trkpt lat="55.8318710" lon="49.1137440"><time>2021-09-11T12:05:24</time></trkpt><trkpt lat="55.8318650" lon="49.1140910"><time>2021-09-11T12:05:33</time></trkpt><trkpt lat="55.8318460" lon="49.1144640"><time>2021-09-11T12:05:44</time></trkpt><trkpt lat="55.8319030" lon="49.1148440"><time>2021-09-11T12:05:55</time></trkpt><trkpt lat="55.8319120" lon="49.1148750"><time>2021-09-11T12:05:56</time></trkpt><trkpt lat="55.8319150" lon="49.1149110"><time>2021-09-11T12:05:57</time></trkpt><trkpt lat="55.8319370" lon="49.1152780"><time>2021-09-11T12:06:07</time></trkpt><trkpt lat="55.8319250" lon="49.1156890"><time>2021-09-11T12:06:18</time></trkpt><trkpt lat="55.8319300" lon="49.1160870"><time>2021-09-11T12:06:28</time></trkpt><trkpt lat="55.8319390" lon="49.1165130"><time>2021-09-11T12:06:39</time></trkpt><trkpt lat="55.8319290" lon="49.1169380"><time>2021-09-11T12:06:50</time></trkpt><trkpt lat="55.8319100" lon="49.1173450"><time>2021-09-11T12:07:00</time></trkpt><trkpt lat="55.8319080" lon="49.1177220"><time>2021-09-11T12:07:11</time></trkpt><trkpt lat="55.8318680" lon="49.1180430"><time>2021-09-11T12:07:19</time></trkpt><trkpt lat="55.8318690" lon="49.1181390"><time>2021-09-11T12:07:22</time></trkpt><trkpt lat="55.8319310" lon="49.1184650"><time>2021-09-11T12:07:33</time></trkpt><trkpt lat="55.8319440" lon="49.1184890"><time>2021-09-11T12:07:34</time></trkpt><trkpt lat="55.8320340" lon="49.1188700"><time>2021-09-11T12:07:45</time></trkpt><trkpt lat="55.8319350" lon="49.1191970"><time>2021-09-11T12:07:56</time></trkpt><trkpt lat="55.8318600" lon="49.1195430"><time>2021-09-11T12:08:09</time></trkpt><trkpt lat="55.8318210" lon="49.1199650"><time>2021-09-11T12:08:18</time></trkpt><trkpt lat="55.8318520" lon="49.1202170"><time>2021-09-11T12:08:25</time></trkpt><trkpt lat="55.8318590" lon="49.1202410"><time>2021-09-11T12:08:26</time></trkpt><trkpt lat="55.8318720" lon="49.1202610"><time>2021-09-11T12:08:27</time></trkpt><trkpt lat="55.8319610" lon="49.1206250"><time>2021-09-11T12:08:37</time></trkpt><trkpt lat="55.8320100" lon="49.1208300"><time>2021-09-11T12:08:43</time></trkpt><trkpt lat="55.8320380" lon="49.1208450"><time>2021-09-11T12:08:44</time></trkpt><trkpt lat="55.8320650" lon="49.1208530"><time>2021-09-11T12:08:45</time></trkpt><trkpt lat="55.8322840" lon="49.1208310"><time>2021-09-11T12:08:54</time></trkpt><trkpt lat="55.8324810" lon="49.1207970"><time>2021-09-11T12:09:02</time></trkpt><trkpt lat="55.8326760" lon="49.1207920"><time>2021-09-11T12:09:10</time></trkpt><trkpt lat="55.8328620" lon="49.1208080"><time>2021-09-11T12:09:18</time></trkpt><trkpt lat="55.8330470" lon="49.1207970"><time>2021-09-11T12:09:26</time></trkpt><trkpt lat="55.8332300" lon="49.1207830"><time>2021-09-11T12:09:34</time></trkpt><trkpt lat="55.8334240" lon="49.1207920"><time>2021-09-11T12:09:43</time></trkpt><trkpt lat="55.8335920" lon="49.1208320"><time>2021-09-11T12:09:51</time></trkpt><trkpt lat="55.8337710" lon="49.1208370"><time>2021-09-11T12:09:59</time></trkpt><trkpt lat="55.8339510" lon="49.1208250"><time>2021-09-11T12:10:07</time></trkpt><trkpt lat="55.8341370" lon="49.1208000"><time>2021-09-11T12:10:15</time></trkpt><trkpt lat="55.8343380" lon="49.1207830"><time>2021-09-11T12:10:24</time></trkpt><trkpt lat="55.8345010" lon="49.1207900"><time>2021-09-11T12:10:32</time></trkpt><trkpt lat="55.8346860" lon="49.1208160"><time>2021-09-11T12:10:40</time></trkpt><trkpt lat="55.8348750" lon="49.1208580"><time>2021-09-11T12:10:48</time></trkpt><trkpt lat="55.8350580" lon="49.1208810"><time>2021-09-11T12:10:56</time></trkpt><trkpt lat="55.8352380" lon="49.1208870"><time>2021-09-11T12:11:04</time></trkpt><trkpt lat="55.8354300" lon="49.1208800"><time>2021-09-11T12:11:12</time></trkpt><trkpt lat="55.8356050" lon="49.1209860"><time>2021-09-11T12:11:20</time></trkpt><trkpt lat="55.8356520" lon="49.1213040"><time>2021-09-11T12:11:29</time></trkpt><trkpt lat="55.8356530" lon="49.1213250"><time>2021-09-11T12:11:30</time></trkpt><trkpt lat="55.8356670" lon="49.1213380"><time>2021-09-11T12:11:31</time></trkpt><trkpt lat="55.8356800" lon="49.1213450"><time>2021-09-11T12:11:32</time></trkpt><trkpt lat="55.8358430" lon="49.1213310"><time>2021-09-11T12:11:57</time></trkpt><trkpt lat="55.8358410" lon="49.1213250"><time>2021-09-11T12:12:00</time></trkpt><trkpt lat="55.8358460" lon="49.1213200"><time>2021-09-11T12:12:04</time></trkpt><trkpt lat="55.8358460" lon="49.1213200"><time>2021-09-11T12:12:08</time></trkpt><trkpt lat="55.8358690" lon="49.1213020"><time>2021-09-11T12:12:12</time></trkpt><trkpt lat="55.8358720" lon="49.1212990"><time>2021-09-11T12:12:14</time></trkpt><trkpt lat="55.8358660" lon="49.1213090"><time>2021-09-11T12:12:23</time></trkpt><trkpt lat="55.8358620" lon="49.1213040"><time>2021-09-11T12:12:27</time></trkpt><trkpt lat="55.8358610" lon="49.1213020"><time>2021-09-11T12:12:28</time></trkpt><trkpt lat="55.8358590" lon="49.1212930"><time>2021-09-11T12:12:30</time></trkpt><trkpt lat="55.8358550" lon="49.1213230"><time>2021-09-11T12:12:54</time></trkpt><trkpt lat="55.8358530" lon="49.1213340"><time>2021-09-11T12:13:19</time></trkpt><trkpt lat="55.8360660" lon="49.1213210"><time>2021-09-11T12:13:36</time></trkpt><trkpt lat="55.8361370" lon="49.1213540"><time>2021-09-11T12:13:39</time></trkpt><trkpt lat="55.8361510" lon="49.1213890"><time>2021-09-11T12:13:40</time></trkpt><trkpt lat="55.8361850" lon="49.1214020"><time>2021-09-11T12:13:44</time></trkpt><trkpt lat="55.8362050" lon="49.1213920"><time>2021-09-11T12:13:45</time></trkpt><trkpt lat="55.8362270" lon="49.1213870"><time>2021-09-11T12:13:46</time></trkpt><trkpt lat="55.8362520" lon="49.1213930"><time>2021-09-11T12:13:47</time></trkpt><trkpt lat="55.8362750" lon="49.1214080"><time>2021-09-11T12:13:48</time></trkpt><trkpt lat="55.8362990" lon="49.1214280"><time>2021-09-11T12:13:49</time></trkpt><trkpt lat="55.8364640" lon="49.1216130"><time>2021-09-11T12:13:57</time></trkpt><trkpt lat="55.8364700" lon="49.1219530"><time>2021-09-11T12:14:06</time></trkpt><trkpt lat="55.8364100" lon="49.1220350"><time>2021-09-11T12:14:09</time></trkpt><trkpt lat="55.8362130" lon="49.1221100"><time>2021-09-11T12:14:18</time></trkpt><trkpt lat="55.8361950" lon="49.1221320"><time>2021-09-11T12:14:19</time></trkpt><trkpt lat="55.8361810" lon="49.1221640"><time>2021-09-11T12:14:20</time></trkpt><trkpt lat="55.8361710" lon="49.1222040"><time>2021-09-11T12:14:21</time></trkpt><trkpt lat="55.8361650" lon="49.1222460"><time>2021-09-11T12:14:22</time></trkpt><trkpt lat="55.8361630" lon="49.1222960"><time>2021-09-11T12:14:23</time></trkpt><trkpt lat="55.8361580" lon="49.1223410"><time>2021-09-11T12:14:24</time></trkpt><trkpt lat="55.8361520" lon="49.1223790"><time>2021-09-11T12:14:25</time></trkpt><trkpt lat="55.8361150" lon="49.1227430"><time>2021-09-11T12:14:34</time></trkpt><trkpt lat="55.8360880" lon="49.1231270"><time>2021-09-11T12:14:43</time></trkpt><trkpt lat="55.8361230" lon="49.1231880"><time>2021-09-11T12:14:46</time></trkpt><trkpt lat="55.8361510" lon="49.1231860"><time>2021-09-11T12:14:47</time></trkpt><trkpt lat="55.8361780" lon="49.1231800"><time>2021-09-11T12:14:48</time></trkpt><trkpt lat="55.8361990" lon="49.1231660"><time>2021-09-11T12:14:52</time></trkpt><trkpt lat="55.8361870" lon="49.1231680"><time>2021-09-11T12:14:53</time></trkpt><trkpt lat="55.8361730" lon="49.1231750"><time>2021-09-11T12:14:54</time></trkpt><trkpt lat="55.8361580" lon="49.1231920"><time>2021-09-11T12:14:55</time></trkpt><trkpt lat="55.8361420" lon="49.1232200"><time>2021-09-11T12:14:56</time></trkpt><trkpt lat="55.8361340" lon="49.1232520"><time>2021-09-11T12:14:57</time></trkpt><trkpt lat="55.8361270" lon="49.1232960"><time>2021-09-11T12:14:58</time></trkpt><trkpt lat="55.8360900" lon="49.1236770"><time>2021-09-11T12:15:07</time></trkpt><trkpt lat="55.8360760" lon="49.1240750"><time>2021-09-11T12:15:17</time></trkpt><trkpt lat="55.8361070" lon="49.1244840"><time>2021-09-11T12:15:27</time></trkpt><trkpt lat="55.8361060" lon="49.1248750"><time>2021-09-11T12:15:36</time></trkpt><trkpt lat="55.8360830" lon="49.1251460"><time>2021-09-11T12:15:43</time></trkpt><trkpt lat="55.8360860" lon="49.1252740"><time>2021-09-11T12:15:46</time></trkpt><trkpt lat="55.8360710" lon="49.1256460"><time>2021-09-11T12:15:55</time></trkpt><trkpt lat="55.8360360" lon="49.1260340"><time>2021-09-11T12:16:04</time></trkpt><trkpt lat="55.8360550" lon="49.1264160"><time>2021-09-11T12:16:14</time></trkpt><trkpt lat="55.8360680" lon="49.1268290"><time>2021-09-11T12:16:24</time></trkpt><trkpt lat="55.8360460" lon="49.1272090"><time>2021-09-11T12:16:32</time></trkpt><trkpt lat="55.8360440" lon="49.1275570"><time>2021-09-11T12:16:42</time></trkpt><trkpt lat="55.8361370" lon="49.1279500"><time>2021-09-11T12:16:51</time></trkpt><trkpt lat="55.8361430" lon="49.1283240"><time>2021-09-11T12:17:01</time></trkpt><trkpt lat="55.8362070" lon="49.1286460"><time>2021-09-11T12:17:10</time></trkpt><trkpt lat="55.8361890" lon="49.1289160"><time>2021-09-11T12:17:17</time></trkpt><trkpt lat="55.8361670" lon="49.1289380"><time>2021-09-11T12:17:18</time></trkpt><trkpt lat="55.8361400" lon="49.1289530"><time>2021-09-11T12:17:19</time></trkpt><trkpt lat="55.8361080" lon="49.1289630"><time>2021-09-11T12:17:20</time></trkpt><trkpt lat="55.8360780" lon="49.1289770"><time>2021-09-11T12:17:21</time></trkpt><trkpt lat="55.8360450" lon="49.1289910"><time>2021-09-11T12:17:22</time></trkpt><trkpt lat="55.8360110" lon="49.1290000"><time>2021-09-11T12:17:23</time></trkpt><trkpt lat="55.8359350" lon="49.1290230"><time>2021-09-11T12:17:26</time></trkpt><trkpt lat="55.8359180" lon="49.1290450"><time>2021-09-11T12:17:27</time></trkpt><trkpt lat="55.8359080" lon="49.1290680"><time>2021-09-11T12:17:28</time></trkpt><trkpt lat="55.8358960" lon="49.1290950"><time>2021-09-11T12:17:29</time></trkpt><trkpt lat="55.8358840" lon="49.1291270"><time>2021-09-11T12:17:30</time></trkpt><trkpt lat="55.8358750" lon="49.1291570"><time>2021-09-11T12:17:31</time></trkpt><trkpt lat="55.8358660" lon="49.1291830"><time>2021-09-11T12:17:32</time></trkpt><trkpt lat="55.8356560" lon="49.1295660"><time>2021-09-11T12:17:45</time></trkpt><trkpt lat="55.8356080" lon="49.1299490"><time>2021-09-11T12:18:01</time></trkpt><trkpt lat="55.8356050" lon="49.1299680"><time>2021-09-11T12:18:02</time></trkpt><trkpt lat="55.8356060" lon="49.1303760"><time>2021-09-11T12:18:19</time></trkpt><trkpt lat="55.8355880" lon="49.1308150"><time>2021-09-11T12:18:35</time></trkpt><trkpt lat="55.8356310" lon="49.1312280"><time>2021-09-11T12:18:50</time></trkpt><trkpt lat="55.8356360" lon="49.1312550"><time>2021-09-11T12:18:51</time></trkpt><trkpt lat="55.8356380" lon="49.1312810"><time>2021-09-11T12:18:52</time></trkpt><trkpt lat="55.8356430" lon="49.1313040"><time>2021-09-11T12:18:53</time></trkpt><trkpt lat="55.8356380" lon="49.1313320"><time>2021-09-11T12:18:54</time></trkpt><trkpt lat="55.8356340" lon="49.1313580"><time>2021-09-11T12:18:55</time></trkpt><trkpt lat="55.8356070" lon="49.1318160"><time>2021-09-11T12:19:11</time></trkpt><trkpt lat="55.8356160" lon="49.1322280"><time>2021-09-11T12:19:27</time></trkpt><trkpt lat="55.8356470" lon="49.1326660"><time>2021-09-11T12:19:45</time></trkpt><trkpt lat="55.8356830" lon="49.1331470"><time>2021-09-11T12:20:03</time></trkpt><trkpt lat="55.8357190" lon="49.1334580"><time>2021-09-11T12:20:55</time></trkpt><trkpt lat="55.8357090" lon="49.1335390"><time>2021-09-11T12:21:24</time></trkpt><trkpt lat="55.8357070" lon="49.1335690"><time>2021-09-11T12:21:25</time></trkpt><trkpt lat="55.8357120" lon="49.1336150"><time>2021-09-11T12:21:26</time></trkpt><trkpt lat="55.8357160" lon="49.1336460"><time>2021-09-11T12:21:27</time></trkpt><trkpt lat="55.8357200" lon="49.1336830"><time>2021-09-11T12:21:28</time></trkpt><trkpt lat="55.8357230" lon="49.1337270"><time>2021-09-11T12:21:29</time></trkpt><trkpt lat="55.8357670" lon="49.1341070"><time>2021-09-11T12:21:38</time></trkpt><trkpt lat="55.8357530" lon="49.1344800"><time>2021-09-11T12:21:47</time></trkpt><trkpt lat="55.8357640" lon="49.1348430"><time>2021-09-11T12:21:56</time></trkpt><trkpt lat="55.8357870" lon="49.1352190"><time>2021-09-11T12:22:05</time></trkpt><trkpt lat="55.8358220" lon="49.1355940"><time>2021-09-11T12:22:14</time></trkpt><trkpt lat="55.8358440" lon="49.1359600"><time>2021-09-11T12:22:23</time></trkpt><trkpt lat="55.8358590" lon="49.1363270"><time>2021-09-11T12:22:32</time></trkpt><trkpt lat="55.8358710" lon="49.1366760"><time>2021-09-11T12:22:41</time></trkpt><trkpt lat="55.8358360" lon="49.1370300"><time>2021-09-11T12:22:49</time></trkpt><trkpt lat="55.8358310" lon="49.1373500"><time>2021-09-11T12:22:57</time></trkpt><trkpt lat="55.8358010" lon="49.1377060"><time>2021-09-11T12:23:06</time></trkpt><trkpt lat="55.8358240" lon="49.1380610"><time>2021-09-11T12:23:15</time></trkpt><trkpt lat="55.8358190" lon="49.1384040"><time>2021-09-11T12:23:23</time></trkpt><trkpt lat="55.8358130" lon="49.1387760"><time>2021-09-11T12:23:32</time></trkpt><trkpt lat="55.8358150" lon="49.1391270"><time>2021-09-11T12:23:41</time></trkpt><trkpt lat="55.8358280" lon="49.1394950"><time>2021-09-11T12:23:50</time></trkpt><trkpt lat="55.8358320" lon="49.1398810"><time>2021-09-11T12:23:59</time></trkpt><trkpt lat="55.8358280" lon="49.1399190"><time>2021-09-11T12:24:00</time></trkpt><trkpt lat="55.8358430" lon="49.1402400"><time>2021-09-11T12:24:08</time></trkpt><trkpt lat="55.8358200" lon="49.1404600"><time>2021-09-11T12:24:14</time></trkpt><trkpt lat="55.8358030" lon="49.1404710"><time>2021-09-11T12:24:15</time></trkpt><trkpt lat="55.8357790" lon="49.1404730"><time>2021-09-11T12:24:16</time></trkpt><trkpt lat="55.8355570" lon="49.1404340"><time>2021-09-11T12:24:28</time></trkpt><trkpt lat="55.8352790" lon="49.1404780"><time>2021-09-11T12:24:38</time></trkpt><trkpt lat="55.8349800" lon="49.1405530"><time>2021-09-11T12:24:48</time></trkpt><trkpt lat="55.8347400" lon="49.1405330"><time>2021-09-11T12:24:58</time></trkpt><trkpt lat="55.8345320" lon="49.1404820"><time>2021-09-11T12:25:08</time></trkpt><trkpt lat="55.8342950" lon="49.1405490"><time>2021-09-11T12:25:22</time></trkpt><trkpt lat="55.8340610" lon="49.1405200"><time>2021-09-11T12:25:40</time></trkpt><trkpt lat="55.8340280" lon="49.1405060"><time>2021-09-11T12:25:43</time></trkpt><trkpt lat="55.8340140" lon="49.1404970"><time>2021-09-11T12:25:44</time></trkpt><trkpt lat="55.8339930" lon="49.1404920"><time>2021-09-11T12:25:45</time></trkpt><trkpt lat="55.8339770" lon="49.1404870"><time>2021-09-11T12:25:46</time></trkpt><trkpt lat="55.8339540" lon="49.1404860"><time>2021-09-11T12:25:47</time></trkpt><trkpt lat="55.8339330" lon="49.1404830"><time>2021-09-11T12:25:48</time></trkpt><trkpt lat="55.8339160" lon="49.1404760"><time>2021-09-11T12:25:49</time></trkpt><trkpt lat="55.8338970" lon="49.1404650"><time>2021-09-11T12:25:50</time></trkpt><trkpt lat="55.8338810" lon="49.1404520"><time>2021-09-11T12:25:51</time></trkpt><trkpt lat="55.8338650" lon="49.1404450"><time>2021-09-11T12:25:52</time></trkpt><trkpt lat="55.8338480" lon="49.1404430"><time>2021-09-11T12:25:53</time></trkpt><trkpt lat="55.8338270" lon="49.1404500"><time>2021-09-11T12:25:54</time></trkpt><trkpt lat="55.8338080" lon="49.1404580"><time>2021-09-11T12:25:55</time></trkpt><trkpt lat="55.8337930" lon="49.1404590"><time>2021-09-11T12:25:56</time></trkpt><trkpt lat="55.8337750" lon="49.1404620"><time>2021-09-11T12:25:57</time></trkpt><trkpt lat="55.8335780" lon="49.1404660"><time>2021-09-11T12:26:11</time></trkpt><trkpt lat="55.8333770" lon="49.1404860"><time>2021-09-11T12:26:27</time></trkpt><trkpt lat="55.8331660" lon="49.1404530"><time>2021-09-11T12:26:45</time></trkpt><trkpt lat="55.8331590" lon="49.1404850"><time>2021-09-11T12:26:47</time></trkpt><trkpt lat="55.8330790" lon="49.1406860"><time>2021-09-11T12:26:59</time></trkpt><trkpt lat="55.8330630" lon="49.1406910"><time>2021-09-11T12:27:00</time></trkpt><trkpt lat="55.8330470" lon="49.1406940"><time>2021-09-11T12:27:01</time></trkpt><trkpt lat="55.8328350" lon="49.1407310"><time>2021-09-11T12:27:19</time></trkpt><trkpt lat="55.8325900" lon="49.1407670"><time>2021-09-11T12:27:35</time></trkpt><trkpt lat="55.8323700" lon="49.1407990"><time>2021-09-11T12:27:44</time></trkpt><trkpt lat="55.8321260" lon="49.1407770"><time>2021-09-11T12:27:53</time></trkpt><trkpt lat="55.8318810" lon="49.1408130"><time>2021-09-11T12:28:02</time></trkpt><trkpt lat="55.8316590" lon="49.1408320"><time>2021-09-11T12:28:11</time></trkpt><trkpt lat="55.8315690" lon="49.1408920"><time>2021-09-11T12:28:17</time></trkpt><trkpt lat="55.8315540" lon="49.1408970"><time>2021-09-11T12:28:18</time></trkpt><trkpt lat="55.8314260" lon="49.1408750"><time>2021-09-11T12:28:24</time></trkpt><trkpt lat="55.8314130" lon="49.1408510"><time>2021-09-11T12:28:25</time></trkpt><trkpt lat="55.8314020" lon="49.1408270"><time>2021-09-11T12:28:26</time></trkpt><trkpt lat="55.8313890" lon="49.1408070"><time>2021-09-11T12:28:27</time></trkpt><trkpt lat="55.8313730" lon="49.1407850"><time>2021-09-11T12:28:28</time></trkpt><trkpt lat="55.8313520" lon="49.1407820"><time>2021-09-11T12:28:29</time></trkpt><trkpt lat="55.8313330" lon="49.1407800"><time>2021-09-11T12:28:30</time></trkpt><trkpt lat="55.8313140" lon="49.1407810"><time>2021-09-11T12:28:31</time></trkpt><trkpt lat="55.8312930" lon="49.1407910"><time>2021-09-11T12:28:32</time></trkpt><trkpt lat="55.8312740" lon="49.1407930"><time>2021-09-11T12:28:33</time></trkpt><trkpt lat="55.8312550" lon="49.1407930"><time>2021-09-11T12:28:34</time></trkpt><trkpt lat="55.8310280" lon="49.1408110"><time>2021-09-11T12:28:44</time></trkpt><trkpt lat="55.8307920" lon="49.1408720"><time>2021-09-11T12:28:54</time></trkpt><trkpt lat="55.8305830" lon="49.1408100"><time>2021-09-11T12:29:04</time></trkpt><trkpt lat="55.8303950" lon="49.1406690"><time>2021-09-11T12:29:14</time></trkpt><trkpt lat="55.8303590" lon="49.1406100"><time>2021-09-11T12:29:17</time></trkpt><trkpt lat="55.8301880" lon="49.1403210"><time>2021-09-11T12:29:27</time></trkpt><trkpt lat="55.8300240" lon="49.1399630"><time>2021-09-11T12:29:37</time></trkpt><trkpt lat="55.8298400" lon="49.1396850"><time>2021-09-11T12:29:54</time></trkpt><trkpt lat="55.8296540" lon="49.1394310"><time>2021-09-11T12:30:09</time></trkpt><trkpt lat="55.8294810" lon="49.1391750"><time>2021-09-11T12:30:22</time></trkpt><trkpt lat="55.8293540" lon="49.1390130"><time>2021-09-11T12:30:35</time></trkpt><trkpt lat="55.8293410" lon="49.1390000"><time>2021-09-11T12:30:36</time></trkpt><trkpt lat="55.8292810" lon="49.1389680"><time>2021-09-11T12:30:41</time></trkpt><trkpt lat="55.8292690" lon="49.1389580"><time>2021-09-11T12:30:42</time></trkpt><trkpt lat="55.8292610" lon="49.1389430"><time>2021-09-11T12:30:43</time></trkpt><trkpt lat="55.8292400" lon="49.1389300"><time>2021-09-11T12:30:45</time></trkpt><trkpt lat="55.8291580" lon="49.1388830"><time>2021-09-11T12:30:52</time></trkpt><trkpt lat="55.8291400" lon="49.1388760"><time>2021-09-11T12:30:53</time></trkpt><trkpt lat="55.8289340" lon="49.1387900"><time>2021-09-11T12:31:07</time></trkpt><trkpt lat="55.8289070" lon="49.1387030"><time>2021-09-11T12:31:13</time></trkpt><trkpt lat="55.8289050" lon="49.1386760"><time>2021-09-11T12:31:14</time></trkpt><trkpt lat="55.8289040" lon="49.1386570"><time>2021-09-11T12:31:15</time></trkpt><trkpt lat="55.8288830" lon="49.1382230"><time>2021-09-11T12:31:28</time></trkpt><trkpt lat="55.8288510" lon="49.1378140"><time>2021-09-11T12:31:37</time></trkpt><trkpt lat="55.8288110" lon="49.1373980"><time>2021-09-11T12:31:46</time></trkpt><trkpt lat="55.8288240" lon="49.1370130"><time>2021-09-11T12:31:54</time></trkpt><trkpt lat="55.8288030" lon="49.1367830"><time>2021-09-11T12:31:59</time></trkpt><trkpt lat="55.8287880" lon="49.1366010"><time>2021-09-11T12:32:03</time></trkpt><trkpt lat="55.8287380" lon="49.1362270"><time>2021-09-11T12:32:11</time></trkpt><trkpt lat="55.8286670" lon="49.1359220"><time>2021-09-11T12:32:20</time></trkpt><trkpt lat="55.8286520" lon="49.1359190"><time>2021-09-11T12:32:21</time></trkpt><trkpt lat="55.8286260" lon="49.1359260"><time>2021-09-11T12:32:22</time></trkpt><trkpt lat="55.8286120" lon="49.1359240"><time>2021-09-11T12:32:23</time></trkpt><trkpt lat="55.8286060" lon="49.1359190"><time>2021-09-11T12:32:24</time></trkpt><trkpt lat="55.8285970" lon="49.1359140"><time>2021-09-11T12:32:25</time></trkpt><trkpt lat="55.8285930" lon="49.1358890"><time>2021-09-11T12:32:26</time></trkpt><trkpt lat="55.8285740" lon="49.1358560"><time>2021-09-11T12:32:27</time></trkpt><trkpt lat="55.8285710" lon="49.1358130"><time>2021-09-11T12:32:28</time></trkpt><trkpt lat="55.8285530" lon="49.1357710"><time>2021-09-11T12:32:29</time></trkpt><trkpt lat="55.8285360" lon="49.1357290"><time>2021-09-11T12:32:30</time></trkpt><trkpt lat="55.8284700" lon="49.1354000"><time>2021-09-11T12:32:39</time></trkpt><trkpt lat="55.8284390" lon="49.1353940"><time>2021-09-11T12:32:40</time></trkpt><trkpt lat="55.8284130" lon="49.1353860"><time>2021-09-11T12:32:41</time></trkpt><trkpt lat="55.8281740" lon="49.1353460"><time>2021-09-11T12:32:50</time></trkpt><trkpt lat="55.8281390" lon="49.1353080"><time>2021-09-11T12:32:52</time></trkpt><trkpt lat="55.8281410" lon="49.1352700"><time>2021-09-11T12:32:53</time></trkpt><trkpt lat="55.8281380" lon="49.1352390"><time>2021-09-11T12:32:54</time></trkpt><trkpt lat="55.8281350" lon="49.1352230"><time>2021-09-11T12:32:55</time></trkpt><trkpt lat="55.8281290" lon="49.1351950"><time>2021-09-11T12:32:56</time></trkpt><trkpt lat="55.8281190" lon="49.1351860"><time>2021-09-11T12:32:57</time></trkpt><trkpt lat="55.8281060" lon="49.1351650"><time>2021-09-11T12:32:58</time></trkpt><trkpt lat="55.8280920" lon="49.1351340"><time>2021-09-11T12:32:59</time></trkpt><trkpt lat="55.8280730" lon="49.1351080"><time>2021-09-11T12:33:00</time></trkpt><trkpt lat="55.8280520" lon="49.1350980"><time>2021-09-11T12:33:01</time></trkpt><trkpt lat="55.8280300" lon="49.1350890"><time>2021-09-11T12:33:02</time></trkpt><trkpt lat="55.8278400" lon="49.1349800"><time>2021-09-11T12:33:10</time></trkpt><trkpt lat="55.8276690" lon="49.1347860"><time>2021-09-11T12:33:18</time></trkpt><trkpt lat="55.8274860" lon="49.1346390"><time>2021-09-11T12:33:27</time></trkpt><trkpt lat="55.8273380" lon="49.1345550"><time>2021-09-11T12:33:48</time></trkpt><trkpt lat="55.8273600" lon="49.1344850"><time>2021-09-11T12:33:53</time></trkpt><trkpt lat="55.8274420" lon="49.1342640"><time>2021-09-11T12:34:03</time></trkpt><trkpt lat="55.8268160" lon="49.1344680"><time>2021-09-11T12:34:28</time></trkpt><trkpt lat="55.8267770" lon="49.1344310"><time>2021-09-11T12:34:38</time></trkpt><trkpt lat="55.8267660" lon="49.1344270"><time>2021-09-11T12:34:39</time></trkpt><trkpt lat="55.8267140" lon="49.1344110"><time>2021-09-11T12:34:43</time></trkpt><trkpt lat="55.8266990" lon="49.1344150"><time>2021-09-11T12:34:44</time></trkpt><trkpt lat="55.8266790" lon="49.1344010"><time>2021-09-11T12:34:46</time></trkpt><trkpt lat="55.8266650" lon="49.1343860"><time>2021-09-11T12:34:47</time></trkpt><trkpt lat="55.8266490" lon="49.1343790"><time>2021-09-11T12:34:48</time></trkpt><trkpt lat="55.8266130" lon="49.1344110"><time>2021-09-11T12:34:49</time></trkpt><trkpt lat="55.8265370" lon="49.1344410"><time>2021-09-11T12:34:53</time></trkpt><trkpt lat="55.8262130" lon="49.1344820"><time>2021-09-11T12:35:08</time></trkpt><trkpt lat="55.8259690" lon="49.1344890"><time>2021-09-11T12:35:18</time></trkpt><trkpt lat="55.8257570" lon="49.1344980"><time>2021-09-11T12:35:26</time></trkpt><trkpt lat="55.8255490" lon="49.1344780"><time>2021-09-11T12:35:35</time></trkpt><trkpt lat="55.8253660" lon="49.1344450"><time>2021-09-11T12:35:44</time></trkpt><trkpt lat="55.8251730" lon="49.1344280"><time>2021-09-11T12:35:55</time></trkpt><trkpt lat="55.8249560" lon="49.1344570"><time>2021-09-11T12:36:06</time></trkpt><trkpt lat="55.8247400" lon="49.1344830"><time>2021-09-11T12:36:16</time></trkpt><trkpt lat="55.8245000" lon="49.1345270"><time>2021-09-11T12:36:26</time></trkpt><trkpt lat="55.8242780" lon="49.1345760"><time>2021-09-11T12:36:36</time></trkpt><trkpt lat="55.8240560" lon="49.1346090"><time>2021-09-11T12:36:46</time></trkpt><trkpt lat="55.8238390" lon="49.1346120"><time>2021-09-11T12:36:56</time></trkpt><trkpt lat="55.8236320" lon="49.1345980"><time>2021-09-11T12:37:06</time></trkpt><trkpt lat="55.8233620" lon="49.1346340"><time>2021-09-11T12:37:18</time></trkpt><trkpt lat="55.8233000" lon="49.1346600"><time>2021-09-11T12:37:19</time></trkpt><trkpt lat="55.8232390" lon="49.1346850"><time>2021-09-11T12:37:20</time></trkpt><trkpt lat="55.8231770" lon="49.1347110"><time>2021-09-11T12:37:37</time></trkpt><trkpt lat="55.8231160" lon="49.1347360"><time>2021-09-11T12:37:38</time></trkpt><trkpt lat="55.8226740" lon="49.1353260"><time>2021-09-11T12:37:55</time></trkpt><trkpt lat="55.8224410" lon="49.1354690"><time>2021-09-11T12:38:04</time></trkpt><trkpt lat="55.8222430" lon="49.1355030"><time>2021-09-11T12:38:15</time></trkpt><trkpt lat="55.8220090" lon="49.1355730"><time>2021-09-11T12:38:25</time></trkpt><trkpt lat="55.8219860" lon="49.1355690"><time>2021-09-11T12:38:26</time></trkpt><trkpt lat="55.8218170" lon="49.1355480"><time>2021-09-11T12:38:39</time></trkpt><trkpt lat="55.8218100" lon="49.1354370"><time>2021-09-11T12:38:42</time></trkpt><trkpt lat="55.8218070" lon="49.1354120"><time>2021-09-11T12:38:43</time></trkpt><trkpt lat="55.8217970" lon="49.1353500"><time>2021-09-11T12:38:56</time></trkpt><trkpt lat="55.8218040" lon="49.1354000"><time>2021-09-11T12:38:58</time></trkpt><trkpt lat="55.8218190" lon="49.1354270"><time>2021-09-11T12:38:59</time></trkpt><trkpt lat="55.8218260" lon="49.1354570"><time>2021-09-11T12:39:00</time></trkpt><trkpt lat="55.8218260" lon="49.1354820"><time>2021-09-11T12:39:01</time></trkpt><trkpt lat="55.8218210" lon="49.1354960"><time>2021-09-11T12:39:02</time></trkpt><trkpt lat="55.8218040" lon="49.1355010"><time>2021-09-11T12:39:03</time></trkpt><trkpt lat="55.8217870" lon="49.1354990"><time>2021-09-11T12:39:04</time></trkpt><trkpt lat="55.8217650" lon="49.1354970"><time>2021-09-11T12:39:05</time></trkpt><trkpt lat="55.8217490" lon="49.1354930"><time>2021-09-11T12:39:06</time></trkpt><trkpt lat="55.8216470" lon="49.1354440"><time>2021-09-11T12:39:13</time></trkpt><trkpt lat="55.8216150" lon="49.1353980"><time>2021-09-11T12:39:17</time></trkpt><trkpt lat="55.8215980" lon="49.1353900"><time>2021-09-11T12:39:19</time></trkpt><trkpt lat="55.8215830" lon="49.1353860"><time>2021-09-11T12:39:20</time></trkpt><trkpt lat="55.8215640" lon="49.1353770"><time>2021-09-11T12:39:21</time></trkpt><trkpt lat="55.8215470" lon="49.1353710"><time>2021-09-11T12:39:22</time></trkpt><trkpt lat="55.8215350" lon="49.1353680"><time>2021-09-11T12:39:23</time></trkpt><trkpt lat="55.8215220" lon="49.1353670"><time>2021-09-11T12:39:24</time></trkpt><trkpt lat="55.8213790" lon="49.1353630"><time>2021-09-11T12:39:35</time></trkpt><trkpt lat="55.8213630" lon="49.1353700"><time>2021-09-11T12:39:36</time></trkpt><trkpt lat="55.8213450" lon="49.1353800"><time>2021-09-11T12:39:37</time></trkpt><trkpt lat="55.8213260" lon="49.1353970"><time>2021-09-11T12:39:38</time></trkpt><trkpt lat="55.8213090" lon="49.1353820"><time>2021-09-11T12:39:40</time></trkpt><trkpt lat="55.8212880" lon="49.1354000"><time>2021-09-11T12:39:41</time></trkpt><trkpt lat="55.8212830" lon="49.1353840"><time>2021-09-11T12:39:42</time></trkpt><trkpt lat="55.8209950" lon="49.1352620"><time>2021-09-11T12:40:01</time></trkpt><trkpt lat="55.8209850" lon="49.1352770"><time>2021-09-11T12:40:02</time></trkpt><trkpt lat="55.8209210" lon="49.1353120"><time>2021-09-11T12:40:07</time></trkpt><trkpt lat="55.8208690" lon="49.1352910"><time>2021-09-11T12:40:11</time></trkpt><trkpt lat="55.8206920" lon="49.1349040"><time>2021-09-11T12:40:28</time></trkpt><trkpt lat="55.8205730" lon="49.1345460"><time>2021-09-11T12:40:44</time></trkpt><trkpt lat="55.8203880" lon="49.1344960"><time>2021-09-11T12:41:01</time></trkpt><trkpt lat="55.8203780" lon="49.1344950"><time>2021-09-11T12:41:02</time></trkpt><trkpt lat="55.8203660" lon="49.1344930"><time>2021-09-11T12:41:03</time></trkpt><trkpt lat="55.8203550" lon="49.1344830"><time>2021-09-11T12:41:04</time></trkpt><trkpt lat="55.8203490" lon="49.1344640"><time>2021-09-11T12:41:05</time></trkpt><trkpt lat="55.8203200" lon="49.1344350"><time>2021-09-11T12:41:08</time></trkpt><trkpt lat="55.8202540" lon="49.1344330"><time>2021-09-11T12:41:14</time></trkpt><trkpt lat="55.8202050" lon="49.1344460"><time>2021-09-11T12:41:18</time></trkpt><trkpt lat="55.8199720" lon="49.1345280"><time>2021-09-11T12:41:35</time></trkpt><trkpt lat="55.8198690" lon="49.1346640"><time>2021-09-11T12:41:57</time></trkpt><trkpt lat="55.8198580" lon="49.1346680"><time>2021-09-11T12:41:58</time></trkpt><trkpt lat="55.8197820" lon="49.1346260"><time>2021-09-11T12:42:06</time></trkpt><trkpt lat="55.8197550" lon="49.1345910"><time>2021-09-11T12:42:13</time></trkpt><trkpt lat="55.8197020" lon="49.1344300"><time>2021-09-11T12:42:18</time></trkpt><trkpt lat="55.8197020" lon="49.1343770"><time>2021-09-11T12:42:20</time></trkpt><trkpt lat="55.8197070" lon="49.1343410"><time>2021-09-11T12:42:21</time></trkpt><trkpt lat="55.8196200" lon="49.1336100"><time>2021-09-11T12:42:46</time></trkpt><trkpt lat="55.8197240" lon="49.1332370"><time>2021-09-11T12:43:11</time></trkpt><trkpt lat="55.8197330" lon="49.1331530"><time>2021-09-11T12:43:23</time></trkpt><trkpt lat="55.8197080" lon="49.1331690"><time>2021-09-11T12:43:31</time></trkpt><trkpt lat="55.8196950" lon="49.1331620"><time>2021-09-11T12:43:32</time></trkpt><trkpt lat="55.8196570" lon="49.1331660"><time>2021-09-11T12:43:36</time></trkpt><trkpt lat="55.8196460" lon="49.1331540"><time>2021-09-11T12:43:37</time></trkpt><trkpt lat="55.8196350" lon="49.1331560"><time>2021-09-11T12:43:38</time></trkpt><trkpt lat="55.8196240" lon="49.1331570"><time>2021-09-11T12:43:39</time></trkpt><trkpt lat="55.8196150" lon="49.1331500"><time>2021-09-11T12:43:40</time></trkpt><trkpt lat="55.8196040" lon="49.1331400"><time>2021-09-11T12:43:41</time></trkpt><trkpt lat="55.8195850" lon="49.1331390"><time>2021-09-11T12:43:43</time></trkpt><trkpt lat="55.8196240" lon="49.1331230"><time>2021-09-11T12:43:46</time></trkpt><trkpt lat="55.8196390" lon="49.1331240"><time>2021-09-11T12:43:47</time></trkpt><trkpt lat="55.8196350" lon="49.1331360"><time>2021-09-11T12:43:54</time></trkpt><trkpt lat="55.8196230" lon="49.1331320"><time>2021-09-11T12:43:55</time></trkpt><trkpt lat="55.8194640" lon="49.1330730"><time>2021-09-11T12:44:07</time></trkpt><trkpt lat="55.8194380" lon="49.1328810"><time>2021-09-11T12:44:11</time></trkpt><trkpt lat="55.8194230" lon="49.1328530"><time>2021-09-11T12:44:12</time></trkpt><trkpt lat="55.8192790" lon="49.1324490"><time>2021-09-11T12:44:22</time></trkpt><trkpt lat="55.8192210" lon="49.1320840"><time>2021-09-11T12:44:31</time></trkpt><trkpt lat="55.8192110" lon="49.1317180"><time>2021-09-11T12:44:40</time></trkpt><trkpt lat="55.8191980" lon="49.1313440"><time>2021-09-11T12:44:49</time></trkpt><trkpt lat="55.8191870" lon="49.1309620"><time>2021-09-11T12:44:58</time></trkpt><trkpt lat="55.8191990" lon="49.1305750"><time>2021-09-11T12:45:07</time></trkpt><trkpt lat="55.8192010" lon="49.1302180"><time>2021-09-11T12:45:16</time></trkpt><trkpt lat="55.8192170" lon="49.1298260"><time>2021-09-11T12:45:25</time></trkpt><trkpt lat="55.8192170" lon="49.1294640"><time>2021-09-11T12:45:34</time></trkpt><trkpt lat="55.8191720" lon="49.1291600"><time>2021-09-11T12:45:42</time></trkpt><trkpt lat="55.8191730" lon="49.1291100"><time>2021-09-11T12:45:43</time></trkpt><trkpt lat="55.8191870" lon="49.1287530"><time>2021-09-11T12:45:52</time></trkpt><trkpt lat="55.8192070" lon="49.1283970"><time>2021-09-11T12:46:01</time></trkpt><trkpt lat="55.8192020" lon="49.1280190"><time>2021-09-11T12:46:10</time></trkpt><trkpt lat="55.8192080" lon="49.1279420"><time>2021-09-11T12:46:12</time></trkpt><trkpt lat="55.8192170" lon="49.1279100"><time>2021-09-11T12:46:13</time></trkpt><trkpt lat="55.8192260" lon="49.1278810"><time>2021-09-11T12:46:14</time></trkpt><trkpt lat="55.8192440" lon="49.1275230"><time>2021-09-11T12:46:23</time></trkpt><trkpt lat="55.8192450" lon="49.1271540"><time>2021-09-11T12:46:32</time></trkpt><trkpt lat="55.8192740" lon="49.1268100"><time>2021-09-11T12:46:41</time></trkpt><trkpt lat="55.8191210" lon="49.1266460"><time>2021-09-11T12:46:51</time></trkpt><trkpt lat="55.8189020" lon="49.1266750"><time>2021-09-11T12:47:01</time></trkpt><trkpt lat="55.8186630" lon="49.1267040"><time>2021-09-11T12:47:10</time></trkpt><trkpt lat="55.8184650" lon="49.1267230"><time>2021-09-11T12:47:18</time></trkpt><trkpt lat="55.8184200" lon="49.1267390"><time>2021-09-11T12:47:20</time></trkpt><trkpt lat="55.8183430" lon="49.1267560"><time>2021-09-11T12:47:24</time></trkpt><trkpt lat="55.8183220" lon="49.1267660"><time>2021-09-11T12:47:25</time></trkpt><trkpt lat="55.8183040" lon="49.1267750"><time>2021-09-11T12:47:26</time></trkpt><trkpt lat="55.8182890" lon="49.1267970"><time>2021-09-11T12:47:27</time></trkpt><trkpt lat="55.8182710" lon="49.1268260"><time>2021-09-11T12:47:28</time></trkpt><trkpt lat="55.8182570" lon="49.1268390"><time>2021-09-11T12:47:29</time></trkpt><trkpt lat="55.8182380" lon="49.1268530"><time>2021-09-11T12:47:30</time></trkpt><trkpt lat="55.8182200" lon="49.1268610"><time>2021-09-11T12:47:31</time></trkpt><trkpt lat="55.8181990" lon="49.1268720"><time>2021-09-11T12:47:32</time></trkpt><trkpt lat="55.8181730" lon="49.1268850"><time>2021-09-11T12:47:33</time></trkpt><trkpt lat="55.8181480" lon="49.1268910"><time>2021-09-11T12:47:34</time></trkpt><trkpt lat="55.8179280" lon="49.1269350"><time>2021-09-11T12:47:44</time></trkpt><trkpt lat="55.8177210" lon="49.1269480"><time>2021-09-11T12:47:52</time></trkpt><trkpt lat="55.8174870" lon="49.1269910"><time>2021-09-11T12:48:01</time></trkpt><trkpt lat="55.8174450" lon="49.1270090"><time>2021-09-11T12:48:03</time></trkpt><trkpt lat="55.8172740" lon="49.1270470"><time>2021-09-11T12:48:11</time></trkpt><trkpt lat="55.8172550" lon="49.1270410"><time>2021-09-11T12:48:12</time></trkpt><trkpt lat="55.8172310" lon="49.1270440"><time>2021-09-11T12:48:13</time></trkpt><trkpt lat="55.8172080" lon="49.1270530"><time>2021-09-11T12:48:14</time></trkpt><trkpt lat="55.8171830" lon="49.1270520"><time>2021-09-11T12:48:15</time></trkpt><trkpt lat="55.8171580" lon="49.1270540"><time>2021-09-11T12:48:16</time></trkpt><trkpt lat="55.8171310" lon="49.1270510"><time>2021-09-11T12:48:17</time></trkpt><trkpt lat="55.8169180" lon="49.1270500"><time>2021-09-11T12:48:26</time></trkpt><trkpt lat="55.8166780" lon="49.1271640"><time>2021-09-11T12:48:37</time></trkpt><trkpt lat="55.8164630" lon="49.1273870"><time>2021-09-11T12:48:48</time></trkpt><trkpt lat="55.8164320" lon="49.1273790"><time>2021-09-11T12:48:59</time></trkpt><trkpt lat="55.8163640" lon="49.1272200"><time>2021-09-11T12:49:26</time></trkpt><trkpt lat="55.8163560" lon="49.1271990"><time>2021-09-11T12:49:27</time></trkpt><trkpt lat="55.8163890" lon="49.1268920"><time>2021-09-11T12:49:34</time></trkpt><trkpt lat="55.8163920" lon="49.1268470"><time>2021-09-11T12:49:35</time></trkpt><trkpt lat="55.8163840" lon="49.1265690"><time>2021-09-11T12:49:41</time></trkpt><trkpt lat="55.8163470" lon="49.1264010"><time>2021-09-11T12:49:47</time></trkpt><trkpt lat="55.8163330" lon="49.1263990"><time>2021-09-11T12:49:48</time></trkpt><trkpt lat="55.8161410" lon="49.1264130"><time>2021-09-11T12:49:58</time></trkpt><trkpt lat="55.8159220" lon="49.1264240"><time>2021-09-11T12:50:07</time></trkpt><trkpt lat="55.8156820" lon="49.1264950"><time>2021-09-11T12:50:17</time></trkpt><trkpt lat="55.8154890" lon="49.1264900"><time>2021-09-11T12:50:26</time></trkpt><trkpt lat="55.8153280" lon="49.1264540"><time>2021-09-11T12:50:36</time></trkpt><trkpt lat="55.8153370" lon="49.1264160"><time>2021-09-11T12:50:37</time></trkpt><trkpt lat="55.8153480" lon="49.1264030"><time>2021-09-11T12:50:38</time></trkpt><trkpt lat="55.8153610" lon="49.1264030"><time>2021-09-11T12:50:39</time></trkpt><trkpt lat="55.8153750" lon="49.1264070"><time>2021-09-11T12:50:40</time></trkpt><trkpt lat="55.8153930" lon="49.1264090"><time>2021-09-11T12:50:41</time></trkpt><trkpt lat="55.8154130" lon="49.1264160"><time>2021-09-11T12:50:42</time></trkpt><trkpt lat="55.8154290" lon="49.1264180"><time>2021-09-11T12:50:43</time></trkpt><trkpt lat="55.8154460" lon="49.1264140"><time>2021-09-11T12:50:44</time></trkpt><trkpt lat="55.8154670" lon="49.1263930"><time>2021-09-11T12:50:45</time></trkpt><trkpt lat="55.8154940" lon="49.1263640"><time>2021-09-11T12:50:46</time></trkpt><trkpt lat="55.8155190" lon="49.1263600"><time>2021-09-11T12:50:47</time></trkpt><trkpt lat="55.8155520" lon="49.1263400"><time>2021-09-11T12:50:48</time></trkpt><trkpt lat="55.8155800" lon="49.1263290"><time>2021-09-11T12:50:49</time></trkpt><trkpt lat="55.8156090" lon="49.1263140"><time>2021-09-11T12:50:50</time></trkpt><trkpt lat="55.8156370" lon="49.1263000"><time>2021-09-11T12:50:51</time></trkpt><trkpt lat="55.8158490" lon="49.1262570"><time>2021-09-11T12:51:00</time></trkpt><trkpt lat="55.8160640" lon="49.1262360"><time>2021-09-11T12:51:09</time></trkpt><trkpt lat="55.8162540" lon="49.1262250"><time>2021-09-11T12:51:17</time></trkpt><trkpt lat="55.8164660" lon="49.1262570"><time>2021-09-11T12:51:27</time></trkpt><trkpt lat="55.8165720" lon="49.1265750"><time>2021-09-11T12:51:37</time></trkpt><trkpt lat="55.8166570" lon="49.1269020"><time>2021-09-11T12:51:49</time></trkpt><trkpt lat="55.8166460" lon="49.1273340"><time>2021-09-11T12:51:59</time></trkpt><trkpt lat="55.8166810" lon="49.1277290"><time>2021-09-11T12:52:08</time></trkpt><trkpt lat="55.8166250" lon="49.1281110"><time>2021-09-11T12:52:17</time></trkpt><trkpt lat="55.8165130" lon="49.1285140"><time>2021-09-11T12:52:27</time></trkpt><trkpt lat="55.8163930" lon="49.1288940"><time>2021-09-11T12:52:36</time></trkpt><trkpt lat="55.8163130" lon="49.1292100"><time>2021-09-11T12:52:44</time></trkpt><trkpt lat="55.8162260" lon="49.1295050"><time>2021-09-11T12:52:52</time></trkpt><trkpt lat="55.8161580" lon="49.1297990"><time>2021-09-11T12:53:00</time></trkpt><trkpt lat="55.8160760" lon="49.1301260"><time>2021-09-11T12:53:09</time></trkpt><trkpt lat="55.8160330" lon="49.1304350"><time>2021-09-11T12:53:21</time></trkpt><trkpt lat="55.8160230" lon="49.1304770"><time>2021-09-11T12:53:23</time></trkpt><trkpt lat="55.8160160" lon="49.1305050"><time>2021-09-11T12:53:24</time></trkpt><trkpt lat="55.8160120" lon="49.1305380"><time>2021-09-11T12:53:25</time></trkpt><trkpt lat="55.8160080" lon="49.1305640"><time>2021-09-11T12:53:26</time></trkpt><trkpt lat="55.8160030" lon="49.1305870"><time>2021-09-11T12:53:27</time></trkpt><trkpt lat="55.8159980" lon="49.1306070"><time>2021-09-11T12:53:28</time></trkpt><trkpt lat="55.8159060" lon="49.1309230"><time>2021-09-11T12:53:45</time></trkpt><trkpt lat="55.8158180" lon="49.1312980"><time>2021-09-11T12:54:01</time></trkpt><trkpt lat="55.8158130" lon="49.1313270"><time>2021-09-11T12:54:02</time></trkpt><trkpt lat="55.8157950" lon="49.1317110"><time>2021-09-11T12:54:17</time></trkpt><trkpt lat="55.8157970" lon="49.1317310"><time>2021-09-11T12:54:18</time></trkpt><trkpt lat="55.8157980" lon="49.1317640"><time>2021-09-11T12:54:19</time></trkpt><trkpt lat="55.8157980" lon="49.1318070"><time>2021-09-11T12:54:20</time></trkpt><trkpt lat="55.8158000" lon="49.1318540"><time>2021-09-11T12:54:21</time></trkpt><trkpt lat="55.8158010" lon="49.1318990"><time>2021-09-11T12:54:22</time></trkpt><trkpt lat="55.8158050" lon="49.1323260"><time>2021-09-11T12:54:31</time></trkpt><trkpt lat="55.8158010" lon="49.1327500"><time>2021-09-11T12:54:40</time></trkpt><trkpt lat="55.8158310" lon="49.1330740"><time>2021-09-11T12:54:50</time></trkpt><trkpt lat="55.8158310" lon="49.1330980"><time>2021-09-11T12:54:51</time></trkpt><trkpt lat="55.8158370" lon="49.1331330"><time>2021-09-11T12:54:52</time></trkpt><trkpt lat="55.8158500" lon="49.1334760"><time>2021-09-11T12:55:00</time></trkpt><trkpt lat="55.8158440" lon="49.1338450"><time>2021-09-11T12:55:08</time></trkpt><trkpt lat="55.8158150" lon="49.1342050"><time>2021-09-11T12:55:17</time></trkpt><trkpt lat="55.8157920" lon="49.1342650"><time>2021-09-11T12:55:19</time></trkpt><trkpt lat="55.8157740" lon="49.1342820"><time>2021-09-11T12:55:20</time></trkpt><trkpt lat="55.8157560" lon="49.1342920"><time>2021-09-11T12:55:21</time></trkpt><trkpt lat="55.8157290" lon="49.1342970"><time>2021-09-11T12:55:22</time></trkpt><trkpt lat="55.8157040" lon="49.1342990"><time>2021-09-11T12:55:23</time></trkpt><trkpt lat="55.8155080" lon="49.1342780"><time>2021-09-11T12:55:34</time></trkpt><trkpt lat="55.8154960" lon="49.1342860"><time>2021-09-11T12:55:35</time></trkpt><trkpt lat="55.8152490" lon="49.1343800"><time>2021-09-11T12:55:48</time></trkpt><trkpt lat="55.8150150" lon="49.1344420"><time>2021-09-11T12:55:59</time></trkpt><trkpt lat="55.8147390" lon="49.1345100"><time>2021-09-11T12:56:09</time></trkpt><trkpt lat="55.8145280" lon="49.1345280"><time>2021-09-11T12:56:18</time></trkpt><trkpt lat="55.8142760" lon="49.1346060"><time>2021-09-11T12:56:29</time></trkpt><trkpt lat="55.8140510" lon="49.1346310"><time>2021-09-11T12:56:38</time></trkpt><trkpt lat="55.8138230" lon="49.1346080"><time>2021-09-11T12:56:48</time></trkpt><trkpt lat="55.8135990" lon="49.1346660"><time>2021-09-11T12:56:58</time></trkpt><trkpt lat="55.8133610" lon="49.1346960"><time>2021-09-11T12:57:06</time></trkpt><trkpt lat="55.8131340" lon="49.1347170"><time>2021-09-11T12:57:15</time></trkpt><trkpt lat="55.8129210" lon="49.1347100"><time>2021-09-11T12:57:24</time></trkpt><trkpt lat="55.8127100" lon="49.1345900"><time>2021-09-11T12:57:36</time></trkpt><trkpt lat="55.8126440" lon="49.1344640"><time>2021-09-11T12:57:42</time></trkpt><trkpt lat="55.8126270" lon="49.1344520"><time>2021-09-11T12:57:43</time></trkpt><trkpt lat="55.8126110" lon="49.1344410"><time>2021-09-11T12:57:44</time></trkpt><trkpt lat="55.8124070" lon="49.1342450"><time>2021-09-11T12:58:02</time></trkpt><trkpt lat="55.8123210" lon="49.1341940"><time>2021-09-11T12:58:11</time></trkpt><trkpt lat="55.8123130" lon="49.1341770"><time>2021-09-11T12:58:12</time></trkpt><trkpt lat="55.8123080" lon="49.1341650"><time>2021-09-11T12:58:13</time></trkpt><trkpt lat="55.8123000" lon="49.1341440"><time>2021-09-11T12:58:14</time></trkpt><trkpt lat="55.8122890" lon="49.1341300"><time>2021-09-11T12:58:15</time></trkpt><trkpt lat="55.8122760" lon="49.1341200"><time>2021-09-11T12:58:16</time></trkpt><trkpt lat="55.8122640" lon="49.1341130"><time>2021-09-11T12:58:17</time></trkpt><trkpt lat="55.8120620" lon="49.1340660"><time>2021-09-11T12:58:32</time></trkpt><trkpt lat="55.8118390" lon="49.1340960"><time>2021-09-11T12:58:46</time></trkpt><trkpt lat="55.8116720" lon="49.1341530"><time>2021-09-11T12:58:59</time></trkpt><trkpt lat="55.8114920" lon="49.1342660"><time>2021-09-11T12:59:13</time></trkpt><trkpt lat="55.8113130" lon="49.1344640"><time>2021-09-11T12:59:26</time></trkpt><trkpt lat="55.8111210" lon="49.1346570"><time>2021-09-11T12:59:41</time></trkpt><trkpt lat="55.8111110" lon="49.1346650"><time>2021-09-11T12:59:42</time></trkpt><trkpt lat="55.8111030" lon="49.1346760"><time>2021-09-11T12:59:43</time></trkpt><trkpt lat="55.8110490" lon="49.1347160"><time>2021-09-11T12:59:48</time></trkpt><trkpt lat="55.8110390" lon="49.1347090"><time>2021-09-11T12:59:49</time></trkpt><trkpt lat="55.8110270" lon="49.1347140"><time>2021-09-11T12:59:50</time></trkpt><trkpt lat="55.8108100" lon="49.1348680"><time>2021-09-11T13:00:03</time></trkpt><trkpt lat="55.8106130" lon="49.1350120"><time>2021-09-11T13:00:12</time></trkpt><trkpt lat="55.8104190" lon="49.1351620"><time>2021-09-11T13:00:21</time></trkpt><trkpt lat="55.8102290" lon="49.1353250"><time>2021-09-11T13:00:30</time></trkpt><trkpt lat="55.8100530" lon="49.1355240"><time>2021-09-11T13:00:39</time></trkpt><trkpt lat="55.8098710" lon="49.1357430"><time>2021-09-11T13:00:48</time></trkpt><trkpt lat="55.8097000" lon="49.1359430"><time>2021-09-11T13:00:57</time></trkpt><trkpt lat="55.8095240" lon="49.1361390"><time>2021-09-11T13:01:06</time></trkpt><trkpt lat="55.8093740" lon="49.1363970"><time>2021-09-11T13:01:15</time></trkpt><trkpt lat="55.8092300" lon="49.1366180"><time>2021-09-11T13:01:23</time></trkpt><trkpt lat="55.8090870" lon="49.1368720"><time>2021-09-11T13:01:31</time></trkpt><trkpt lat="55.8089350" lon="49.1371270"><time>2021-09-11T13:01:40</time></trkpt><trkpt lat="55.8088130" lon="49.1374060"><time>2021-09-11T13:01:49</time></trkpt><trkpt lat="55.8087370" lon="49.1377290"><time>2021-09-11T13:01:59</time></trkpt><trkpt lat="55.8087780" lon="49.1379180"><time>2021-09-11T13:02:04</time></trkpt><trkpt lat="55.8088080" lon="49.1381100"><time>2021-09-11T13:02:09</time></trkpt><trkpt lat="55.8088140" lon="49.1381570"><time>2021-09-11T13:02:11</time></trkpt><trkpt lat="55.8088210" lon="49.1381680"><time>2021-09-11T13:02:12</time></trkpt><trkpt lat="55.8088590" lon="49.1382210"><time>2021-09-11T13:02:20</time></trkpt><trkpt lat="55.8088690" lon="49.1383300"><time>2021-09-11T13:02:27</time></trkpt><trkpt lat="55.8088590" lon="49.1383600"><time>2021-09-11T13:02:28</time></trkpt><trkpt lat="55.8088500" lon="49.1383920"><time>2021-09-11T13:02:29</time></trkpt><trkpt lat="55.8088370" lon="49.1384260"><time>2021-09-11T13:02:30</time></trkpt><trkpt lat="55.8088230" lon="49.1384600"><time>2021-09-11T13:02:31</time></trkpt><trkpt lat="55.8088090" lon="49.1384930"><time>2021-09-11T13:02:32</time></trkpt><trkpt lat="55.8086800" lon="49.1388260"><time>2021-09-11T13:02:41</time></trkpt><trkpt lat="55.8086360" lon="49.1389890"><time>2021-09-11T13:02:46</time></trkpt><trkpt lat="55.8086390" lon="49.1390210"><time>2021-09-11T13:02:47</time></trkpt><trkpt lat="55.8086430" lon="49.1390510"><time>2021-09-11T13:02:48</time></trkpt><trkpt lat="55.8086430" lon="49.1390870"><time>2021-09-11T13:02:49</time></trkpt><trkpt lat="55.8086390" lon="49.1391310"><time>2021-09-11T13:02:50</time></trkpt><trkpt lat="55.8085710" lon="49.1394730"><time>2021-09-11T13:02:59</time></trkpt><trkpt lat="55.8084770" lon="49.1397800"><time>2021-09-11T13:03:11</time></trkpt><trkpt lat="55.8084760" lon="49.1398300"><time>2021-09-11T13:03:14</time></trkpt><trkpt lat="55.8085080" lon="49.1398330"><time>2021-09-11T13:03:19</time></trkpt><trkpt lat="55.8087110" lon="49.1399410"><time>2021-09-11T13:03:36</time></trkpt><trkpt lat="55.8088860" lon="49.1402070"><time>2021-09-11T13:03:54</time></trkpt><trkpt lat="55.8090160" lon="49.1405400"><time>2021-09-11T13:04:11</time></trkpt><trkpt lat="55.8091420" lon="49.1408860"><time>2021-09-11T13:04:32</time></trkpt><trkpt lat="55.8091630" lon="49.1408930"><time>2021-09-11T13:04:34</time></trkpt><trkpt lat="55.8094160" lon="49.1409640"><time>2021-09-11T13:04:51</time></trkpt><trkpt lat="55.8096440" lon="49.1410930"><time>2021-09-11T13:05:01</time></trkpt><trkpt lat="55.8098240" lon="49.1412850"><time>2021-09-11T13:05:10</time></trkpt><trkpt lat="55.8099930" lon="49.1415350"><time>2021-09-11T13:05:20</time></trkpt><trkpt lat="55.8101480" lon="49.1417870"><time>2021-09-11T13:05:30</time></trkpt><trkpt lat="55.8103200" lon="49.1420210"><time>2021-09-11T13:05:40</time></trkpt><trkpt lat="55.8104870" lon="49.1422870"><time>2021-09-11T13:05:50</time></trkpt><trkpt lat="55.8106330" lon="49.1425550"><time>2021-09-11T13:05:59</time></trkpt><trkpt lat="55.8107920" lon="49.1427910"><time>2021-09-11T13:06:09</time></trkpt><trkpt lat="55.8109370" lon="49.1430320"><time>2021-09-11T13:06:18</time></trkpt><trkpt lat="55.8110930" lon="49.1432410"><time>2021-09-11T13:06:27</time></trkpt><trkpt lat="55.8112730" lon="49.1434480"><time>2021-09-11T13:06:37</time></trkpt><trkpt lat="55.8114740" lon="49.1435870"><time>2021-09-11T13:06:47</time></trkpt><trkpt lat="55.8116840" lon="49.1437320"><time>2021-09-11T13:06:57</time></trkpt><trkpt lat="55.8118710" lon="49.1439270"><time>2021-09-11T13:07:07</time></trkpt><trkpt lat="55.8120710" lon="49.1440800"><time>2021-09-11T13:07:17</time></trkpt><trkpt lat="55.8122070" lon="49.1443380"><time>2021-09-11T13:07:26</time></trkpt><trkpt lat="55.8123410" lon="49.1446180"><time>2021-09-11T13:07:37</time></trkpt><trkpt lat="55.8125070" lon="49.1448790"><time>2021-09-11T13:07:47</time></trkpt><trkpt lat="55.8127010" lon="49.1450790"><time>2021-09-11T13:07:57</time></trkpt><trkpt lat="55.8128600" lon="49.1453040"><time>2021-09-11T13:08:06</time></trkpt><trkpt lat="55.8130360" lon="49.1455460"><time>2021-09-11T13:08:16</time></trkpt><trkpt lat="55.8131810" lon="49.1458210"><time>2021-09-11T13:08:25</time></trkpt><trkpt lat="55.8133050" lon="49.1461480"><time>2021-09-11T13:08:34</time></trkpt><trkpt lat="55.8134030" lon="49.1464590"><time>2021-09-11T13:08:43</time></trkpt><trkpt lat="55.8134560" lon="49.1468140"><time>2021-09-11T13:08:52</time></trkpt><trkpt lat="55.8134860" lon="49.1471550"><time>2021-09-11T13:09:01</time></trkpt><trkpt lat="55.8135160" lon="49.1474820"><time>2021-09-11T13:09:09</time></trkpt><trkpt lat="55.8135840" lon="49.1478130"><time>2021-09-11T13:09:18</time></trkpt><trkpt lat="55.8136910" lon="49.1480960"><time>2021-09-11T13:09:27</time></trkpt><trkpt lat="55.8138480" lon="49.1482750"><time>2021-09-11T13:09:36</time></trkpt><trkpt lat="55.8139390" lon="49.1483880"><time>2021-09-11T13:09:46</time></trkpt><trkpt lat="55.8139340" lon="49.1484090"><time>2021-09-11T13:09:47</time></trkpt><trkpt lat="55.8139330" lon="49.1484300"><time>2021-09-11T13:09:48</time></trkpt><trkpt lat="55.8139380" lon="49.1484520"><time>2021-09-11T13:09:49</time></trkpt><trkpt lat="55.8139490" lon="49.1484770"><time>2021-09-11T13:09:50</time></trkpt><trkpt lat="55.8139670" lon="49.1484980"><time>2021-09-11T13:09:51</time></trkpt><trkpt lat="55.8139850" lon="49.1485220"><time>2021-09-11T13:09:52</time></trkpt><trkpt lat="55.8141770" lon="49.1486280"><time>2021-09-11T13:10:01</time></trkpt><trkpt lat="55.8143670" lon="49.1487100"><time>2021-09-11T13:10:09</time></trkpt><trkpt lat="55.8145640" lon="49.1488030"><time>2021-09-11T13:10:18</time></trkpt><trkpt lat="55.8147420" lon="49.1488960"><time>2021-09-11T13:10:26</time></trkpt><trkpt lat="55.8149130" lon="49.1490780"><time>2021-09-11T13:10:35</time></trkpt><trkpt lat="55.8150830" lon="49.1492590"><time>2021-09-11T13:10:45</time></trkpt><trkpt lat="55.8152580" lon="49.1494470"><time>2021-09-11T13:10:54</time></trkpt><trkpt lat="55.8154120" lon="49.1496910"><time>2021-09-11T13:11:03</time></trkpt><trkpt lat="55.8155610" lon="49.1499280"><time>2021-09-11T13:11:12</time></trkpt><trkpt lat="55.8157250" lon="49.1501390"><time>2021-09-11T13:11:22</time></trkpt><trkpt lat="55.8158710" lon="49.1503690"><time>2021-09-11T13:11:31</time></trkpt><trkpt lat="55.8160070" lon="49.1506260"><time>2021-09-11T13:11:41</time></trkpt><trkpt lat="55.8160870" lon="49.1507410"><time>2021-09-11T13:11:51</time></trkpt><trkpt lat="55.8160940" lon="49.1507540"><time>2021-09-11T13:11:52</time></trkpt><trkpt lat="55.8161010" lon="49.1507700"><time>2021-09-11T13:11:53</time></trkpt><trkpt lat="55.8161600" lon="49.1509270"><time>2021-09-11T13:12:03</time></trkpt><trkpt lat="55.8161510" lon="49.1509780"><time>2021-09-11T13:12:06</time></trkpt><trkpt lat="55.8161080" lon="49.1510990"><time>2021-09-11T13:12:13</time></trkpt><trkpt lat="55.8161010" lon="49.1511140"><time>2021-09-11T13:12:14</time></trkpt><trkpt lat="55.8160930" lon="49.1511270"><time>2021-09-11T13:12:15</time></trkpt><trkpt lat="55.8160840" lon="49.1511440"><time>2021-09-11T13:12:16</time></trkpt><trkpt lat="55.8160690" lon="49.1511620"><time>2021-09-11T13:12:17</time></trkpt><trkpt lat="55.8160530" lon="49.1511870"><time>2021-09-11T13:12:18</time></trkpt><trkpt lat="55.8158360" lon="49.1513210"><time>2021-09-11T13:12:28</time></trkpt><trkpt lat="55.8156480" lon="49.1514640"><time>2021-09-11T13:12:40</time></trkpt><trkpt lat="55.8155450" lon="49.1515200"><time>2021-09-11T13:12:48</time></trkpt><trkpt lat="55.8155320" lon="49.1515260"><time>2021-09-11T13:12:49</time></trkpt><trkpt lat="55.8154050" lon="49.1516870"><time>2021-09-11T13:13:03</time></trkpt><trkpt lat="55.8154030" lon="49.1517070"><time>2021-09-11T13:13:04</time></trkpt><trkpt lat="55.8153780" lon="49.1518740"><time>2021-09-11T13:13:13</time></trkpt><trkpt lat="55.8153780" lon="49.1518960"><time>2021-09-11T13:13:14</time></trkpt><trkpt lat="55.8153490" lon="49.1520810"><time>2021-09-11T13:13:23</time></trkpt><trkpt lat="55.8153400" lon="49.1520970"><time>2021-09-11T13:13:24</time></trkpt><trkpt lat="55.8153290" lon="49.1521150"><time>2021-09-11T13:13:25</time></trkpt><trkpt lat="55.8153190" lon="49.1521360"><time>2021-09-11T13:13:26</time></trkpt><trkpt lat="55.8153100" lon="49.1521540"><time>2021-09-11T13:13:27</time></trkpt><trkpt lat="55.8153020" lon="49.1521840"><time>2021-09-11T13:13:28</time></trkpt><trkpt lat="55.8152940" lon="49.1522030"><time>2021-09-11T13:13:29</time></trkpt><trkpt lat="55.8152880" lon="49.1522160"><time>2021-09-11T13:13:30</time></trkpt><trkpt lat="55.8152770" lon="49.1522260"><time>2021-09-11T13:13:31</time></trkpt><trkpt lat="55.8152050" lon="49.1522820"><time>2021-09-11T13:13:37</time></trkpt><trkpt lat="55.8148990" lon="49.1525080"><time>2021-09-11T13:13:57</time></trkpt><trkpt lat="55.8148900" lon="49.1525320"><time>2021-09-11T13:13:58</time></trkpt><trkpt lat="55.8148810" lon="49.1525530"><time>2021-09-11T13:13:59</time></trkpt><trkpt lat="55.8148670" lon="49.1525710"><time>2021-09-11T13:14:00</time></trkpt><trkpt lat="55.8147340" lon="49.1526640"><time>2021-09-11T13:14:10</time></trkpt><trkpt lat="55.8147230" lon="49.1526630"><time>2021-09-11T13:14:11</time></trkpt><trkpt lat="55.8147090" lon="49.1526610"><time>2021-09-11T13:14:12</time></trkpt><trkpt lat="55.8146700" lon="49.1526490"><time>2021-09-11T13:14:16</time></trkpt><trkpt lat="55.8146610" lon="49.1526450"><time>2021-09-11T13:14:17</time></trkpt><trkpt lat="55.8146480" lon="49.1526460"><time>2021-09-11T13:14:18</time></trkpt><trkpt lat="55.8146330" lon="49.1526510"><time>2021-09-11T13:14:19</time></trkpt><trkpt lat="55.8146130" lon="49.1526660"><time>2021-09-11T13:14:20</time></trkpt><trkpt lat="55.8145970" lon="49.1526880"><time>2021-09-11T13:14:21</time></trkpt><trkpt lat="55.8145830" lon="49.1527070"><time>2021-09-11T13:14:22</time></trkpt><trkpt lat="55.8145730" lon="49.1527150"><time>2021-09-11T13:14:23</time></trkpt><trkpt lat="55.8145600" lon="49.1527240"><time>2021-09-11T13:14:24</time></trkpt><trkpt lat="55.8145420" lon="49.1527360"><time>2021-09-11T13:14:25</time></trkpt><trkpt lat="55.8145280" lon="49.1527620"><time>2021-09-11T13:14:26</time></trkpt><trkpt lat="55.8144900" lon="49.1528160"><time>2021-09-11T13:14:29</time></trkpt><trkpt lat="55.8144520" lon="49.1528680"><time>2021-09-11T13:14:33</time></trkpt><trkpt lat="55.8144450" lon="49.1528880"><time>2021-09-11T13:14:34</time></trkpt><trkpt lat="55.8144360" lon="49.1529070"><time>2021-09-11T13:14:35</time></trkpt><trkpt lat="55.8144250" lon="49.1529270"><time>2021-09-11T13:14:36</time></trkpt><trkpt lat="55.8144150" lon="49.1529400"><time>2021-09-11T13:14:37</time></trkpt><trkpt lat="55.8144060" lon="49.1529500"><time>2021-09-11T13:14:38</time></trkpt><trkpt lat="55.8143040" lon="49.1530420"><time>2021-09-11T13:14:48</time></trkpt><trkpt lat="55.8142950" lon="49.1530450"><time>2021-09-11T13:14:49</time></trkpt><trkpt lat="55.8142830" lon="49.1530560"><time>2021-09-11T13:14:50</time></trkpt><trkpt lat="55.8140850" lon="49.1532810"><time>2021-09-11T13:15:09</time></trkpt><trkpt lat="55.8140570" lon="49.1537140"><time>2021-09-11T13:15:28</time></trkpt><trkpt lat="55.8140850" lon="49.1541040"><time>2021-09-11T13:15:44</time></trkpt><trkpt lat="55.8141390" lon="49.1544400"><time>2021-09-11T13:15:59</time></trkpt><trkpt lat="55.8142310" lon="49.1547800"><time>2021-09-11T13:16:14</time></trkpt><trkpt lat="55.8142950" lon="49.1551170"><time>2021-09-11T13:16:28</time></trkpt><trkpt lat="55.8144000" lon="49.1554300"><time>2021-09-11T13:16:45</time></trkpt><trkpt lat="55.8144640" lon="49.1556840"><time>2021-09-11T13:16:56</time></trkpt><trkpt lat="55.8144710" lon="49.1556960"><time>2021-09-11T13:16:57</time></trkpt><trkpt lat="55.8144780" lon="49.1557120"><time>2021-09-11T13:16:58</time></trkpt><trkpt lat="55.8144840" lon="49.1557340"><time>2021-09-11T13:16:59</time></trkpt><trkpt lat="55.8144890" lon="49.1557590"><time>2021-09-11T13:17:00</time></trkpt><trkpt lat="55.8145300" lon="49.1559280"><time>2021-09-11T13:17:09</time></trkpt><trkpt lat="55.8145570" lon="49.1559660"><time>2021-09-11T13:17:12</time></trkpt><trkpt lat="55.8146330" lon="49.1560430"><time>2021-09-11T13:17:19</time></trkpt><trkpt lat="55.8146440" lon="49.1560530"><time>2021-09-11T13:17:20</time></trkpt><trkpt lat="55.8146310" lon="49.1561300"><time>2021-09-11T13:17:47</time></trkpt><trkpt lat="55.8146180" lon="49.1561260"><time>2021-09-11T13:17:48</time></trkpt><trkpt lat="55.8146060" lon="49.1561190"><time>2021-09-11T13:17:49</time></trkpt><trkpt lat="55.8145310" lon="49.1560540"><time>2021-09-11T13:17:55</time></trkpt><trkpt lat="55.8145220" lon="49.1560260"><time>2021-09-11T13:17:56</time></trkpt><trkpt lat="55.8145140" lon="49.1560110"><time>2021-09-11T13:17:57</time></trkpt><trkpt lat="55.8145080" lon="49.1559960"><time>2021-09-11T13:17:58</time></trkpt><trkpt lat="55.8145020" lon="49.1559800"><time>2021-09-11T13:17:59</time></trkpt><trkpt lat="55.8144760" lon="49.1558960"><time>2021-09-11T13:18:03</time></trkpt><trkpt lat="55.8143580" lon="49.1555180"><time>2021-09-11T13:18:23</time></trkpt><trkpt lat="55.8142890" lon="49.1553730"><time>2021-09-11T13:18:32</time></trkpt><trkpt lat="55.8141700" lon="49.1549260"><time>2021-09-11T13:18:47</time></trkpt><trkpt lat="55.8141130" lon="49.1546830"><time>2021-09-11T13:18:59</time></trkpt><trkpt lat="55.8140380" lon="49.1542770"><time>2021-09-11T13:19:15</time></trkpt><trkpt lat="55.8140120" lon="49.1539120"><time>2021-09-11T13:19:33</time></trkpt><trkpt lat="55.8139170" lon="49.1535700"><time>2021-09-11T13:19:50</time></trkpt><trkpt lat="55.8139130" lon="49.1535130"><time>2021-09-11T13:19:53</time></trkpt><trkpt lat="55.8139140" lon="49.1534950"><time>2021-09-11T13:19:54</time></trkpt><trkpt lat="55.8139050" lon="49.1534500"><time>2021-09-11T13:19:57</time></trkpt><trkpt lat="55.8137890" lon="49.1532320"><time>2021-09-11T13:20:06</time></trkpt><trkpt lat="55.8137950" lon="49.1531930"><time>2021-09-11T13:20:07</time></trkpt><trkpt lat="55.8137980" lon="49.1531520"><time>2021-09-11T13:20:08</time></trkpt><trkpt lat="55.8137770" lon="49.1528510"><time>2021-09-11T13:20:18</time></trkpt><trkpt lat="55.8137800" lon="49.1528240"><time>2021-09-11T13:20:19</time></trkpt><trkpt lat="55.8137850" lon="49.1527980"><time>2021-09-11T13:20:20</time></trkpt><trkpt lat="55.8137900" lon="49.1527700"><time>2021-09-11T13:20:21</time></trkpt><trkpt lat="55.8137930" lon="49.1527430"><time>2021-09-11T13:20:22</time></trkpt><trkpt lat="55.8138150" lon="49.1523110"><time>2021-09-11T13:20:39</time></trkpt><trkpt lat="55.8138190" lon="49.1518680"><time>2021-09-11T13:20:51</time></trkpt><trkpt lat="55.8138640" lon="49.1517750"><time>2021-09-11T13:20:58</time></trkpt><trkpt lat="55.8138720" lon="49.1517760"><time>2021-09-11T13:20:59</time></trkpt><trkpt lat="55.8138820" lon="49.1517760"><time>2021-09-11T13:21:00</time></trkpt><trkpt lat="55.8138930" lon="49.1517740"><time>2021-09-11T13:21:01</time></trkpt><trkpt lat="55.8139070" lon="49.1517750"><time>2021-09-11T13:21:02</time></trkpt><trkpt lat="55.8140680" lon="49.1519370"><time>2021-09-11T13:21:13</time></trkpt><trkpt lat="55.8142690" lon="49.1521270"><time>2021-09-11T13:21:24</time></trkpt><trkpt lat="55.8144010" lon="49.1522440"><time>2021-09-11T13:21:33</time></trkpt><trkpt lat="55.8144120" lon="49.1522480"><time>2021-09-11T13:21:34</time></trkpt><trkpt lat="55.8144250" lon="49.1522480"><time>2021-09-11T13:21:35</time></trkpt><trkpt lat="55.8146200" lon="49.1521350"><time>2021-09-11T13:21:48</time></trkpt><trkpt lat="55.8147380" lon="49.1520620"><time>2021-09-11T13:21:57</time></trkpt><trkpt lat="55.8149870" lon="49.1521320"><time>2021-09-11T13:22:12</time></trkpt><trkpt lat="55.8150480" lon="49.1521070"><time>2021-09-11T13:22:21</time></trkpt><trkpt lat="55.8150560" lon="49.1521000"><time>2021-09-11T13:22:22</time></trkpt><trkpt lat="55.8151190" lon="49.1520830"><time>2021-09-11T13:22:31</time></trkpt><trkpt lat="55.8151340" lon="49.1520740"><time>2021-09-11T13:22:32</time></trkpt><trkpt lat="55.8151430" lon="49.1520610"><time>2021-09-11T13:22:33</time></trkpt><trkpt lat="55.8151530" lon="49.1520480"><time>2021-09-11T13:22:34</time></trkpt><trkpt lat="55.8151660" lon="49.1520380"><time>2021-09-11T13:22:35</time></trkpt><trkpt lat="55.8151740" lon="49.1520290"><time>2021-09-11T13:22:36</time></trkpt><trkpt lat="55.8151950" lon="49.1520280"><time>2021-09-11T13:22:38</time></trkpt><trkpt lat="55.8152090" lon="49.1520440"><time>2021-09-11T13:22:40</time></trkpt><trkpt lat="55.8152130" lon="49.1520580"><time>2021-09-11T13:22:41</time></trkpt><trkpt lat="55.8152390" lon="49.1520810"><time>2021-09-11T13:22:45</time></trkpt><trkpt lat="55.8152530" lon="49.1520600"><time>2021-09-11T13:22:46</time></trkpt><trkpt lat="55.8152650" lon="49.1520370"><time>2021-09-11T13:22:47</time></trkpt><trkpt lat="55.8152750" lon="49.1520090"><time>2021-09-11T13:22:48</time></trkpt><trkpt lat="55.8152840" lon="49.1519780"><time>2021-09-11T13:22:49</time></trkpt><trkpt lat="55.8154160" lon="49.1516900"><time>2021-09-11T13:22:59</time></trkpt><trkpt lat="55.8155960" lon="49.1515430"><time>2021-09-11T13:23:08</time></trkpt><trkpt lat="55.8157760" lon="49.1513890"><time>2021-09-11T13:23:16</time></trkpt><trkpt lat="55.8159410" lon="49.1512430"><time>2021-09-11T13:23:24</time></trkpt><trkpt lat="55.8161180" lon="49.1511300"><time>2021-09-11T13:23:34</time></trkpt><trkpt lat="55.8162480" lon="49.1510310"><time>2021-09-11T13:23:47</time></trkpt><trkpt lat="55.8162580" lon="49.1510390"><time>2021-09-11T13:23:48</time></trkpt><trkpt lat="55.8164350" lon="49.1512070"><time>2021-09-11T13:24:02</time></trkpt><trkpt lat="55.8166180" lon="49.1514240"><time>2021-09-11T13:24:12</time></trkpt><trkpt lat="55.8167960" lon="49.1516650"><time>2021-09-11T13:24:22</time></trkpt><trkpt lat="55.8169450" lon="49.1519390"><time>2021-09-11T13:24:31</time></trkpt><trkpt lat="55.8170880" lon="49.1522380"><time>2021-09-11T13:24:40</time></trkpt><trkpt lat="55.8172350" lon="49.1524530"><time>2021-09-11T13:24:49</time></trkpt><trkpt lat="55.8174050" lon="49.1526050"><time>2021-09-11T13:24:58</time></trkpt><trkpt lat="55.8175520" lon="49.1528150"><time>2021-09-11T13:25:07</time></trkpt><trkpt lat="55.8175730" lon="49.1528180"><time>2021-09-11T13:25:08</time></trkpt><trkpt lat="55.8175940" lon="49.1528150"><time>2021-09-11T13:25:09</time></trkpt><trkpt lat="55.8176890" lon="49.1527550"><time>2021-09-11T13:25:17</time></trkpt><trkpt lat="55.8176980" lon="49.1527520"><time>2021-09-11T13:25:18</time></trkpt><trkpt lat="55.8178920" lon="49.1528110"><time>2021-09-11T13:25:33</time></trkpt><trkpt lat="55.8180620" lon="49.1530980"><time>2021-09-11T13:25:43</time></trkpt><trkpt lat="55.8182370" lon="49.1533480"><time>2021-09-11T13:25:52</time></trkpt><trkpt lat="55.8183840" lon="49.1536120"><time>2021-09-11T13:26:01</time></trkpt><trkpt lat="55.8185710" lon="49.1536870"><time>2021-09-11T13:26:10</time></trkpt><trkpt lat="55.8187610" lon="49.1536280"><time>2021-09-11T13:26:18</time></trkpt><trkpt lat="55.8188850" lon="49.1533620"><time>2021-09-11T13:26:28</time></trkpt><trkpt lat="55.8189830" lon="49.1530390"><time>2021-09-11T13:26:37</time></trkpt><trkpt lat="55.8190830" lon="49.1527830"><time>2021-09-11T13:26:46</time></trkpt><trkpt lat="55.8190920" lon="49.1527740"><time>2021-09-11T13:26:47</time></trkpt><trkpt lat="55.8191010" lon="49.1527640"><time>2021-09-11T13:26:48</time></trkpt><trkpt lat="55.8191340" lon="49.1527020"><time>2021-09-11T13:26:52</time></trkpt><trkpt lat="55.8191460" lon="49.1526700"><time>2021-09-11T13:26:53</time></trkpt><trkpt lat="55.8191630" lon="49.1526410"><time>2021-09-11T13:26:54</time></trkpt><trkpt lat="55.8191810" lon="49.1526230"><time>2021-09-11T13:26:55</time></trkpt><trkpt lat="55.8192060" lon="49.1526210"><time>2021-09-11T13:26:56</time></trkpt><trkpt lat="55.8192290" lon="49.1526190"><time>2021-09-11T13:26:57</time></trkpt><trkpt lat="55.8192470" lon="49.1526160"><time>2021-09-11T13:26:58</time></trkpt><trkpt lat="55.8192630" lon="49.1526150"><time>2021-09-11T13:26:59</time></trkpt><trkpt lat="55.8192810" lon="49.1526110"><time>2021-09-11T13:27:00</time></trkpt><trkpt lat="55.8193020" lon="49.1526090"><time>2021-09-11T13:27:01</time></trkpt><trkpt lat="55.8193250" lon="49.1526090"><time>2021-09-11T13:27:02</time></trkpt><trkpt lat="55.8193470" lon="49.1526110"><time>2021-09-11T13:27:03</time></trkpt><trkpt lat="55.8193690" lon="49.1526130"><time>2021-09-11T13:27:04</time></trkpt><trkpt lat="55.8195540" lon="49.1527720"><time>2021-09-11T13:27:14</time></trkpt><trkpt lat="55.8197100" lon="49.1530230"><time>2021-09-11T13:27:23</time></trkpt><trkpt lat="55.8198550" lon="49.1532940"><time>2021-09-11T13:27:32</time></trkpt><trkpt lat="55.8200120" lon="49.1535670"><time>2021-09-11T13:27:41</time></trkpt><trkpt lat="55.8201660" lon="49.1537870"><time>2021-09-11T13:27:50</time></trkpt><trkpt lat="55.8201870" lon="49.1538130"><time>2021-09-11T13:27:53</time></trkpt><trkpt lat="55.8201980" lon="49.1538230"><time>2021-09-11T13:27:54</time></trkpt><trkpt lat="55.8202800" lon="49.1539520"><time>2021-09-11T13:28:02</time></trkpt><trkpt lat="55.8203730" lon="49.1540890"><time>2021-09-11T13:28:10</time></trkpt><trkpt lat="55.8205540" lon="49.1543570"><time>2021-09-11T13:28:28</time></trkpt><trkpt lat="55.8207470" lon="49.1546200"><time>2021-09-11T13:28:42</time></trkpt><trkpt lat="55.8208200" lon="49.1547770"><time>2021-09-11T13:28:51</time></trkpt><trkpt lat="55.8208910" lon="49.1551760"><time>2021-09-11T13:29:11</time></trkpt><trkpt lat="55.8213360" lon="49.1548150"><time>2021-09-11T13:29:39</time></trkpt><trkpt lat="55.8213850" lon="49.1548170"><time>2021-09-11T13:29:48</time></trkpt><trkpt lat="55.8213950" lon="49.1548320"><time>2021-09-11T13:29:49</time></trkpt><trkpt lat="55.8213990" lon="49.1548410"><time>2021-09-11T13:29:50</time></trkpt><trkpt lat="55.8214100" lon="49.1548410"><time>2021-09-11T13:29:51</time></trkpt><trkpt lat="55.8214290" lon="49.1548340"><time>2021-09-11T13:29:52</time></trkpt><trkpt lat="55.8214510" lon="49.1548140"><time>2021-09-11T13:29:53</time></trkpt><trkpt lat="55.8214720" lon="49.1547930"><time>2021-09-11T13:29:54</time></trkpt><trkpt lat="55.8215000" lon="49.1547690"><time>2021-09-11T13:29:55</time></trkpt><trkpt lat="55.8215210" lon="49.1547520"><time>2021-09-11T13:29:56</time></trkpt><trkpt lat="55.8215430" lon="49.1547360"><time>2021-09-11T13:29:57</time></trkpt><trkpt lat="55.8217320" lon="49.1546250"><time>2021-09-11T13:30:05</time></trkpt><trkpt lat="55.8219190" lon="49.1546520"><time>2021-09-11T13:30:15</time></trkpt><trkpt lat="55.8221300" lon="49.1548130"><time>2021-09-11T13:30:26</time></trkpt><trkpt lat="55.8222810" lon="49.1548760"><time>2021-09-11T13:30:33</time></trkpt><trkpt lat="55.8224190" lon="49.1547930"><time>2021-09-11T13:30:40</time></trkpt><trkpt lat="55.8226200" lon="49.1548930"><time>2021-09-11T13:30:50</time></trkpt><trkpt lat="55.8226370" lon="49.1549060"><time>2021-09-11T13:30:51</time></trkpt><trkpt lat="55.8226550" lon="49.1549200"><time>2021-09-11T13:30:52</time></trkpt><trkpt lat="55.8226750" lon="49.1549270"><time>2021-09-11T13:30:53</time></trkpt><trkpt lat="55.8226940" lon="49.1549280"><time>2021-09-11T13:30:54</time></trkpt><trkpt lat="55.8227120" lon="49.1549220"><time>2021-09-11T13:30:55</time></trkpt><trkpt lat="55.8227330" lon="49.1549120"><time>2021-09-11T13:30:56</time></trkpt><trkpt lat="55.8227540" lon="49.1548940"><time>2021-09-11T13:30:57</time></trkpt><trkpt lat="55.8227760" lon="49.1548760"><time>2021-09-11T13:30:58</time></trkpt><trkpt lat="55.8228980" lon="49.1545830"><time>2021-09-11T13:31:07</time></trkpt><trkpt lat="55.8230530" lon="49.1543420"><time>2021-09-11T13:31:17</time></trkpt><trkpt lat="55.8231660" lon="49.1539510"><time>2021-09-11T13:31:26</time></trkpt><trkpt lat="55.8233310" lon="49.1537750"><time>2021-09-11T13:31:34</time></trkpt><trkpt lat="55.8235170" lon="49.1537250"><time>2021-09-11T13:31:43</time></trkpt><trkpt lat="55.8236700" lon="49.1537120"><time>2021-09-11T13:31:52</time></trkpt><trkpt lat="55.8238040" lon="49.1536310"><time>2021-09-11T13:32:01</time></trkpt><trkpt lat="55.8240620" lon="49.1535530"><time>2021-09-11T13:32:10</time></trkpt><trkpt lat="55.8243700" lon="49.1537290"><time>2021-09-11T13:32:19</time></trkpt><trkpt lat="55.8245990" lon="49.1538980"><time>2021-09-11T13:32:28</time></trkpt><trkpt lat="55.8247670" lon="49.1539610"><time>2021-09-11T13:32:36</time></trkpt><trkpt lat="55.8249460" lon="49.1539780"><time>2021-09-11T13:32:44</time></trkpt><trkpt lat="55.8251060" lon="49.1539810"><time>2021-09-11T13:32:53</time></trkpt><trkpt lat="55.8253590" lon="49.1539020"><time>2021-09-11T13:33:03</time></trkpt><trkpt lat="55.8254590" lon="49.1539810"><time>2021-09-11T13:33:08</time></trkpt><trkpt lat="55.8256380" lon="49.1542350"><time>2021-09-11T13:33:18</time></trkpt><trkpt lat="55.8256560" lon="49.1542920"><time>2021-09-11T13:33:19</time></trkpt><trkpt lat="55.8256750" lon="49.1543250"><time>2021-09-11T13:33:20</time></trkpt><trkpt lat="55.8256950" lon="49.1543580"><time>2021-09-11T13:33:31</time></trkpt><trkpt lat="55.8257140" lon="49.1543910"><time>2021-09-11T13:33:32</time></trkpt><trkpt lat="55.8257330" lon="49.1544230"><time>2021-09-11T13:33:33</time></trkpt><trkpt lat="55.8257520" lon="49.1544560"><time>2021-09-11T13:33:34</time></trkpt><trkpt lat="55.8257720" lon="49.1544890"><time>2021-09-11T13:33:59</time></trkpt><trkpt lat="55.8257910" lon="49.1545220"><time>2021-09-11T13:34:00</time></trkpt><trkpt lat="55.8258100" lon="49.1545550"><time>2021-09-11T13:34:01</time></trkpt><trkpt lat="55.8258380" lon="49.1545650"><time>2021-09-11T13:34:03</time></trkpt><trkpt lat="55.8261200" lon="49.1547340"><time>2021-09-11T13:34:10</time></trkpt><trkpt lat="55.8261440" lon="49.1547410"><time>2021-09-11T13:34:16</time></trkpt><trkpt lat="55.8261760" lon="49.1547500"><time>2021-09-11T13:34:21</time></trkpt><trkpt lat="55.8261870" lon="49.1547430"><time>2021-09-11T13:34:22</time></trkpt><trkpt lat="55.8262000" lon="49.1547480"><time>2021-09-11T13:34:23</time></trkpt><trkpt lat="55.8262130" lon="49.1547700"><time>2021-09-11T13:34:24</time></trkpt><trkpt lat="55.8262190" lon="49.1547850"><time>2021-09-11T13:34:25</time></trkpt><trkpt lat="55.8262250" lon="49.1548060"><time>2021-09-11T13:34:26</time></trkpt><trkpt lat="55.8262260" lon="49.1548330"><time>2021-09-11T13:34:27</time></trkpt><trkpt lat="55.8262260" lon="49.1548560"><time>2021-09-11T13:34:28</time></trkpt><trkpt lat="55.8262250" lon="49.1548750"><time>2021-09-11T13:34:29</time></trkpt><trkpt lat="55.8262010" lon="49.1552340"><time>2021-09-11T13:34:43</time></trkpt><trkpt lat="55.8261830" lon="49.1556150"><time>2021-09-11T13:34:52</time></trkpt><trkpt lat="55.8262000" lon="49.1559630"><time>2021-09-11T13:35:00</time></trkpt><trkpt lat="55.8263090" lon="49.1562900"><time>2021-09-11T13:35:08</time></trkpt><trkpt lat="55.8264280" lon="49.1565770"><time>2021-09-11T13:35:16</time></trkpt><trkpt lat="55.8264320" lon="49.1566570"><time>2021-09-11T13:35:18</time></trkpt><trkpt lat="55.8264290" lon="49.1567020"><time>2021-09-11T13:35:19</time></trkpt><trkpt lat="55.8264560" lon="49.1570670"><time>2021-09-11T13:35:28</time></trkpt><trkpt lat="55.8264640" lon="49.1571100"><time>2021-09-11T13:35:29</time></trkpt><trkpt lat="55.8264860" lon="49.1574580"><time>2021-09-11T13:35:37</time></trkpt><trkpt lat="55.8264820" lon="49.1574920"><time>2021-09-11T13:35:38</time></trkpt><trkpt lat="55.8264700" lon="49.1575140"><time>2021-09-11T13:35:39</time></trkpt><trkpt lat="55.8264570" lon="49.1575330"><time>2021-09-11T13:35:40</time></trkpt><trkpt lat="55.8264410" lon="49.1575460"><time>2021-09-11T13:35:41</time></trkpt><trkpt lat="55.8264220" lon="49.1575620"><time>2021-09-11T13:35:42</time></trkpt><trkpt lat="55.8264060" lon="49.1575760"><time>2021-09-11T13:35:43</time></trkpt><trkpt lat="55.8263890" lon="49.1576060"><time>2021-09-11T13:35:44</time></trkpt><trkpt lat="55.8263800" lon="49.1576460"><time>2021-09-11T13:35:45</time></trkpt><trkpt lat="55.8261960" lon="49.1578500"><time>2021-09-11T13:35:55</time></trkpt><trkpt lat="55.8261680" lon="49.1578390"><time>2021-09-11T13:35:56</time></trkpt><trkpt lat="55.8261370" lon="49.1578170"><time>2021-09-11T13:35:57</time></trkpt><trkpt lat="55.8261140" lon="49.1577890"><time>2021-09-11T13:35:58</time></trkpt><trkpt lat="55.8261010" lon="49.1577640"><time>2021-09-11T13:35:59</time></trkpt><trkpt lat="55.8260850" lon="49.1577480"><time>2021-09-11T13:36:00</time></trkpt><trkpt lat="55.8260670" lon="49.1577380"><time>2021-09-11T13:36:01</time></trkpt><trkpt lat="55.8260400" lon="49.1577300"><time>2021-09-11T13:36:02</time></trkpt><trkpt lat="55.8259300" lon="49.1577440"><time>2021-09-11T13:36:08</time></trkpt><trkpt lat="55.8259240" lon="49.1577700"><time>2021-09-11T13:36:09</time></trkpt><trkpt lat="55.8259260" lon="49.1577930"><time>2021-09-11T13:36:10</time></trkpt><trkpt lat="55.8259270" lon="49.1578110"><time>2021-09-11T13:36:11</time></trkpt><trkpt lat="55.8259320" lon="49.1578310"><time>2021-09-11T13:36:12</time></trkpt><trkpt lat="55.8259370" lon="49.1578470"><time>2021-09-11T13:36:13</time></trkpt><trkpt lat="55.8259500" lon="49.1579250"><time>2021-09-11T13:36:18</time></trkpt><trkpt lat="55.8259430" lon="49.1579430"><time>2021-09-11T13:36:19</time></trkpt><trkpt lat="55.8259320" lon="49.1579600"><time>2021-09-11T13:36:20</time></trkpt><trkpt lat="55.8259140" lon="49.1579700"><time>2021-09-11T13:36:21</time></trkpt><trkpt lat="55.8259000" lon="49.1579830"><time>2021-09-11T13:36:22</time></trkpt><trkpt lat="55.8258880" lon="49.1579930"><time>2021-09-11T13:36:23</time></trkpt><trkpt lat="55.8258730" lon="49.1580020"><time>2021-09-11T13:36:24</time></trkpt><trkpt lat="55.8257850" lon="49.1580140"><time>2021-09-11T13:36:30</time></trkpt><trkpt lat="55.8257710" lon="49.1580060"><time>2021-09-11T13:36:31</time></trkpt><trkpt lat="55.8257560" lon="49.1579960"><time>2021-09-11T13:36:32</time></trkpt><trkpt lat="55.8257420" lon="49.1579830"><time>2021-09-11T13:36:33</time></trkpt><trkpt lat="55.8257320" lon="49.1579780"><time>2021-09-11T13:36:34</time></trkpt><trkpt lat="55.8257200" lon="49.1579700"><time>2021-09-11T13:36:35</time></trkpt><trkpt lat="55.8257070" lon="49.1579620"><time>2021-09-11T13:36:36</time></trkpt><trkpt lat="55.8256040" lon="49.1578870"><time>2021-09-11T13:36:44</time></trkpt><trkpt lat="55.8255560" lon="49.1578960"><time>2021-09-11T13:36:48</time></trkpt><trkpt lat="55.8255390" lon="49.1579070"><time>2021-09-11T13:36:49</time></trkpt><trkpt lat="55.8255210" lon="49.1579220"><time>2021-09-11T13:36:50</time></trkpt><trkpt lat="55.8253360" lon="49.1581460"><time>2021-09-11T13:36:59</time></trkpt><trkpt lat="55.8251720" lon="49.1583490"><time>2021-09-11T13:37:07</time></trkpt><trkpt lat="55.8250360" lon="49.1585880"><time>2021-09-11T13:37:16</time></trkpt><trkpt lat="55.8249230" lon="49.1588630"><time>2021-09-11T13:37:25</time></trkpt><trkpt lat="55.8249030" lon="49.1592400"><time>2021-09-11T13:37:35</time></trkpt><trkpt lat="55.8247950" lon="49.1596130"><time>2021-09-11T13:37:44</time></trkpt><trkpt lat="55.8246920" lon="49.1599560"><time>2021-09-11T13:37:53</time></trkpt><trkpt lat="55.8246740" lon="49.1600840"><time>2021-09-11T13:37:58</time></trkpt><trkpt lat="55.8246710" lon="49.1601010"><time>2021-09-11T13:37:59</time></trkpt><trkpt lat="55.8246680" lon="49.1601220"><time>2021-09-11T13:38:00</time></trkpt><trkpt lat="55.8246460" lon="49.1601960"><time>2021-09-11T13:38:05</time></trkpt><trkpt lat="55.8246260" lon="49.1602160"><time>2021-09-11T13:38:06</time></trkpt><trkpt lat="55.8246090" lon="49.1602410"><time>2021-09-11T13:38:07</time></trkpt><trkpt lat="55.8245910" lon="49.1602670"><time>2021-09-11T13:38:08</time></trkpt><trkpt lat="55.8245680" lon="49.1602890"><time>2021-09-11T13:38:09</time></trkpt><trkpt lat="55.8245460" lon="49.1603130"><time>2021-09-11T13:38:10</time></trkpt><trkpt lat="55.8245270" lon="49.1603420"><time>2021-09-11T13:38:11</time></trkpt><trkpt lat="55.8245120" lon="49.1603740"><time>2021-09-11T13:38:12</time></trkpt><trkpt lat="55.8244950" lon="49.1604070"><time>2021-09-11T13:38:13</time></trkpt><trkpt lat="55.8244810" lon="49.1604410"><time>2021-09-11T13:38:14</time></trkpt><trkpt lat="55.8244690" lon="49.1604780"><time>2021-09-11T13:38:15</time></trkpt><trkpt lat="55.8244570" lon="49.1605150"><time>2021-09-11T13:38:16</time></trkpt><trkpt lat="55.8243690" lon="49.1608640"><time>2021-09-11T13:38:25</time></trkpt><trkpt lat="55.8243100" lon="49.1611970"><time>2021-09-11T13:38:34</time></trkpt><trkpt lat="55.8242320" lon="49.1615020"><time>2021-09-11T13:38:45</time></trkpt><trkpt lat="55.8242230" lon="49.1618690"><time>2021-09-11T13:39:01</time></trkpt><trkpt lat="55.8241240" lon="49.1622180"><time>2021-09-11T13:39:13</time></trkpt><trkpt lat="55.8239950" lon="49.1625660"><time>2021-09-11T13:39:22</time></trkpt><trkpt lat="55.8238940" lon="49.1628760"><time>2021-09-11T13:39:30</time></trkpt><trkpt lat="55.8237930" lon="49.1631990"><time>2021-09-11T13:39:38</time></trkpt><trkpt lat="55.8237120" lon="49.1634940"><time>2021-09-11T13:39:46</time></trkpt><trkpt lat="55.8236860" lon="49.1638410"><time>2021-09-11T13:39:55</time></trkpt><trkpt lat="55.8236910" lon="49.1639070"><time>2021-09-11T13:39:57</time></trkpt><trkpt lat="55.8237020" lon="49.1639340"><time>2021-09-11T13:39:58</time></trkpt><trkpt lat="55.8237130" lon="49.1639590"><time>2021-09-11T13:39:59</time></trkpt><trkpt lat="55.8237920" lon="49.1641130"><time>2021-09-11T13:40:06</time></trkpt><trkpt lat="55.8237780" lon="49.1641440"><time>2021-09-11T13:40:07</time></trkpt><trkpt lat="55.8237620" lon="49.1641720"><time>2021-09-11T13:40:08</time></trkpt><trkpt lat="55.8237360" lon="49.1642110"><time>2021-09-11T13:40:11</time></trkpt></trkseg></trk></gpx>